<?xml version='1.0' encoding='UTF-8'?><gpx version="1.1" creator="JPX - https://github.com/jenetics/jpx" xmlns="http://www.topografix.com/GPX/1/1"><trk><trkseg><trkpt lat="43.4219835" lon="11.18104"><ele>174.0</ele><time>2026-04-24T14:41:59.779Z</time></trkpt><trkpt lat="43.4219909" lon="11.1812183"><ele>174.0</ele><time>2026-04-24T14:42:11.802Z</time></trkpt><trkpt lat="43.4220469" lon="11.1812585"><ele>174.0</ele><time>2026-04-24T14:42:41.801Z</time></trkpt><trkpt lat="43.422126" lon="11.181242"><ele>174.0</ele><time>2026-04-24T14:42:48.79Z</time></trkpt><trkpt lat="43.4221868" lon="11.1811948"><ele>174.0</ele><time>2026-04-24T14:42:51.784Z</time></trkpt><trkpt lat="43.4222492" lon="11.1811646"><ele>174.0</ele><time>2026-04-24T14:42:55.803Z</time></trkpt><trkpt lat="43.4222646" lon="11.18128"><ele>173.42857142857142</ele><time>2026-04-24T14:42:59.789Z</time></trkpt><trkpt lat="43.4222758" lon="11.1813804"><ele>172.85714285714286</ele><time>2026-04-24T14:43:02.788Z</time></trkpt><trkpt lat="43.4223055" lon="11.1814911"><ele>172.28571428571428</ele><time>2026-04-24T14:43:05.793Z</time></trkpt><trkpt lat="43.4223309" lon="11.181576"><ele>171.71428571428572</ele><time>2026-04-24T14:43:07.79Z</time></trkpt><trkpt lat="43.4223247" lon="11.1816703"><ele>171.14285714285714</ele><time>2026-04-24T14:43:09.788Z</time></trkpt><trkpt lat="43.4222848" lon="11.1817637"><ele>170.57142857142858</ele><time>2026-04-24T14:43:11.808Z</time></trkpt><trkpt lat="43.4222391" lon="11.1818248"><ele>170.0</ele><time>2026-04-24T14:43:13.787Z</time></trkpt><trkpt lat="43.4221762" lon="11.1819113"><ele>170.5</ele><time>2026-04-24T14:43:16.837Z</time></trkpt><trkpt lat="43.4221177" lon="11.1819893"><ele>171.0</ele><time>2026-04-24T14:43:19.796Z</time></trkpt><trkpt lat="43.4220791" lon="11.1820638"><ele>171.5</ele><time>2026-04-24T14:43:24.802Z</time></trkpt><trkpt lat="43.4220676" lon="11.1821623"><ele>172.0</ele><time>2026-04-24T14:43:27.81Z</time></trkpt><trkpt lat="43.4220961" lon="11.1822512"><ele>172.5</ele><time>2026-04-24T14:43:29.789Z</time></trkpt><trkpt lat="43.4221287" lon="11.1823568"><ele>173.0</ele><time>2026-04-24T14:43:31.787Z</time></trkpt><trkpt lat="43.4221637" lon="11.1824594"><ele>173.0</ele><time>2026-04-24T14:43:33.782Z</time></trkpt><trkpt lat="43.4222044" lon="11.1825523"><ele>173.0</ele><time>2026-04-24T14:43:35.789Z</time></trkpt><trkpt lat="43.4222396" lon="11.1826306"><ele>173.0</ele><time>2026-04-24T14:43:37.781Z</time></trkpt><trkpt lat="43.4223135" lon="11.18267"><ele>173.0</ele><time>2026-04-24T14:43:40.811Z</time></trkpt><trkpt lat="43.4223875" lon="11.1826083"><ele>173.0</ele><time>2026-04-24T14:43:42.805Z</time></trkpt><trkpt lat="43.422471" lon="11.1825428"><ele>173.0</ele><time>2026-04-24T14:43:44.8Z</time></trkpt><trkpt lat="43.4225661" lon="11.1824772"><ele>173.0</ele><time>2026-04-24T14:43:46.791Z</time></trkpt><trkpt lat="43.4226804" lon="11.1824244"><ele>173.0</ele><time>2026-04-24T14:43:48.799Z</time></trkpt><trkpt lat="43.4227562" lon="11.1824058"><ele>173.0</ele><time>2026-04-24T14:43:49.797Z</time></trkpt><trkpt lat="43.4228616" lon="11.1824137"><ele>173.0</ele><time>2026-04-24T14:43:51.794Z</time></trkpt><trkpt lat="43.4229333" lon="11.1824029"><ele>173.0</ele><time>2026-04-24T14:43:53.803Z</time></trkpt><trkpt lat="43.4230247" lon="11.1823971"><ele>172.5</ele><time>2026-04-24T14:43:55.788Z</time></trkpt><trkpt lat="43.423117" lon="11.1823901"><ele>172.0</ele><time>2026-04-24T14:43:57.867Z</time></trkpt><trkpt lat="43.4232387" lon="11.1823409"><ele>171.5</ele><time>2026-04-24T14:43:59.784Z</time></trkpt><trkpt lat="43.4233023" lon="11.1823123"><ele>171.0</ele><time>2026-04-24T14:44:00.8Z</time></trkpt><trkpt lat="43.4233619" lon="11.1822803"><ele>170.5</ele><time>2026-04-24T14:44:01.796Z</time></trkpt><trkpt lat="43.4234222" lon="11.1822521"><ele>170.0</ele><time>2026-04-24T14:44:02.801Z</time></trkpt><trkpt lat="43.4234872" lon="11.1822274"><ele>169.85714285714286</ele><time>2026-04-24T14:44:03.784Z</time></trkpt><trkpt lat="43.4235517" lon="11.1822162"><ele>169.7142857142857</ele><time>2026-04-24T14:44:04.789Z</time></trkpt><trkpt lat="43.4236169" lon="11.1822116"><ele>169.57142857142856</ele><time>2026-04-24T14:44:05.786Z</time></trkpt><trkpt lat="43.4236838" lon="11.182211"><ele>169.42857142857144</ele><time>2026-04-24T14:44:06.786Z</time></trkpt><trkpt lat="43.4237501" lon="11.1822134"><ele>169.28571428571428</ele><time>2026-04-24T14:44:07.786Z</time></trkpt><trkpt lat="43.4238137" lon="11.1822186"><ele>169.14285714285714</ele><time>2026-04-24T14:44:08.789Z</time></trkpt><trkpt lat="43.423923" lon="11.182236"><ele>169.0</ele><time>2026-04-24T14:44:10.794Z</time></trkpt><trkpt lat="43.4240191" lon="11.1822803"><ele>168.2</ele><time>2026-04-24T14:44:12.865Z</time></trkpt><trkpt lat="43.4241318" lon="11.1822952"><ele>167.39999999999998</ele><time>2026-04-24T14:44:14.863Z</time></trkpt><trkpt lat="43.4242439" lon="11.1823025"><ele>166.6</ele><time>2026-04-24T14:44:16.775Z</time></trkpt><trkpt lat="43.4243402" lon="11.1823585"><ele>165.8</ele><time>2026-04-24T14:44:18.864Z</time></trkpt><trkpt lat="43.4244215" lon="11.1824249"><ele>165.0</ele><time>2026-04-24T14:44:20.778Z</time></trkpt><trkpt lat="43.4245243" lon="11.1824806"><ele>165.0</ele><time>2026-04-24T14:44:22.873Z</time></trkpt><trkpt lat="43.4246076" lon="11.182532"><ele>165.0</ele><time>2026-04-24T14:44:24.864Z</time></trkpt><trkpt lat="43.4246848" lon="11.1826617"><ele>165.0</ele><time>2026-04-24T14:44:26.793Z</time></trkpt><trkpt lat="43.424748" lon="11.1827948"><ele>165.0</ele><time>2026-04-24T14:44:28.874Z</time></trkpt><trkpt lat="43.4248184" lon="11.1828858"><ele>165.0</ele><time>2026-04-24T14:44:30.79Z</time></trkpt><trkpt lat="43.4248834" lon="11.1829875"><ele>164.0</ele><time>2026-04-24T14:44:32.877Z</time></trkpt><trkpt lat="43.4249289" lon="11.1830681"><ele>163.0</ele><time>2026-04-24T14:44:34.793Z</time></trkpt><trkpt lat="43.424997" lon="11.1831296"><ele>162.0</ele><time>2026-04-24T14:44:36.797Z</time></trkpt><trkpt lat="43.4250734" lon="11.1832496"><ele>161.0</ele><time>2026-04-24T14:44:38.796Z</time></trkpt><trkpt lat="43.4251366" lon="11.1833497"><ele>160.0</ele><time>2026-04-24T14:44:40.801Z</time></trkpt><trkpt lat="43.42523" lon="11.1833759"><ele>160.0</ele><time>2026-04-24T14:44:42.787Z</time></trkpt><trkpt lat="43.4253281" lon="11.183268"><ele>160.0</ele><time>2026-04-24T14:44:44.797Z</time></trkpt><trkpt lat="43.4253705" lon="11.1831975"><ele>160.0</ele><time>2026-04-24T14:44:45.808Z</time></trkpt><trkpt lat="43.4254157" lon="11.183111"><ele>160.0</ele><time>2026-04-24T14:44:46.787Z</time></trkpt><trkpt lat="43.4254629" lon="11.1830159"><ele>160.0</ele><time>2026-04-24T14:44:47.871Z</time></trkpt><trkpt lat="43.4255049" lon="11.1829164"><ele>160.0</ele><time>2026-04-24T14:44:48.883Z</time></trkpt><trkpt lat="43.4255485" lon="11.1828186"><ele>157.5</ele><time>2026-04-24T14:44:49.855Z</time></trkpt><trkpt lat="43.4255944" lon="11.1827335"><ele>155.0</ele><time>2026-04-24T14:44:50.79Z</time></trkpt><trkpt lat="43.4256387" lon="11.1826425"><ele>152.5</ele><time>2026-04-24T14:44:51.804Z</time></trkpt><trkpt lat="43.4256805" lon="11.1825373"><ele>150.0</ele><time>2026-04-24T14:44:52.793Z</time></trkpt><trkpt lat="43.4257139" lon="11.1824477"><ele>147.5</ele><time>2026-04-24T14:44:53.87Z</time></trkpt><trkpt lat="43.4257568" lon="11.1823523"><ele>145.0</ele><time>2026-04-24T14:44:54.87Z</time></trkpt><trkpt lat="43.4258051" lon="11.1822556"><ele>145.0</ele><time>2026-04-24T14:44:55.791Z</time></trkpt><trkpt lat="43.4258542" lon="11.1821754"><ele>145.0</ele><time>2026-04-24T14:44:56.802Z</time></trkpt><trkpt lat="43.4259131" lon="11.1821274"><ele>145.0</ele><time>2026-04-24T14:44:57.798Z</time></trkpt><trkpt lat="43.4259833" lon="11.1821021"><ele>145.0</ele><time>2026-04-24T14:44:58.862Z</time></trkpt><trkpt lat="43.4260534" lon="11.1821005"><ele>145.0</ele><time>2026-04-24T14:44:59.877Z</time></trkpt><trkpt lat="43.4261787" lon="11.1821156"><ele>145.0</ele><time>2026-04-24T14:45:01.8Z</time></trkpt><trkpt lat="43.4263063" lon="11.1821229"><ele>144.6</ele><time>2026-04-24T14:45:03.855Z</time></trkpt><trkpt lat="43.4264276" lon="11.1821097"><ele>144.2</ele><time>2026-04-24T14:45:05.799Z</time></trkpt><trkpt lat="43.4265358" lon="11.182084"><ele>143.8</ele><time>2026-04-24T14:45:07.856Z</time></trkpt><trkpt lat="43.4266397" lon="11.1820609"><ele>143.4</ele><time>2026-04-24T14:45:09.788Z</time></trkpt><trkpt lat="43.4267449" lon="11.1820405"><ele>143.0</ele><time>2026-04-24T14:45:11.797Z</time></trkpt><trkpt lat="43.4268307" lon="11.1820236"><ele>143.0</ele><time>2026-04-24T14:45:13.788Z</time></trkpt><trkpt lat="43.4269094" lon="11.1819971"><ele>143.0</ele><time>2026-04-24T14:45:15.795Z</time></trkpt><trkpt lat="43.4269827" lon="11.1819723"><ele>143.0</ele><time>2026-04-24T14:45:17.864Z</time></trkpt><trkpt lat="43.4270574" lon="11.181948"><ele>143.0</ele><time>2026-04-24T14:45:19.882Z</time></trkpt><trkpt lat="43.4271256" lon="11.1819159"><ele>143.0</ele><time>2026-04-24T14:45:21.815Z</time></trkpt><trkpt lat="43.4271938" lon="11.1818831"><ele>143.0</ele><time>2026-04-24T14:45:23.866Z</time></trkpt><trkpt lat="43.4272687" lon="11.1818432"><ele>144.0</ele><time>2026-04-24T14:45:25.81Z</time></trkpt><trkpt lat="43.4273573" lon="11.1817981"><ele>145.0</ele><time>2026-04-24T14:45:27.864Z</time></trkpt><trkpt lat="43.4274395" lon="11.1817299"><ele>146.0</ele><time>2026-04-24T14:45:29.796Z</time></trkpt><trkpt lat="43.4275529" lon="11.1816788"><ele>147.0</ele><time>2026-04-24T14:45:31.807Z</time></trkpt><trkpt lat="43.4276417" lon="11.1816524"><ele>148.0</ele><time>2026-04-24T14:45:33.87Z</time></trkpt><trkpt lat="43.4276869" lon="11.1817131"><ele>148.0</ele><time>2026-04-24T14:45:40.777Z</time></trkpt><trkpt lat="43.4276902" lon="11.1818172"><ele>148.0</ele><time>2026-04-24T14:45:43.796Z</time></trkpt><trkpt lat="43.4277643" lon="11.1818305"><ele>148.0</ele><time>2026-04-24T14:45:47.794Z</time></trkpt><trkpt lat="43.4278528" lon="11.1818424"><ele>148.0</ele><time>2026-04-24T14:45:50.802Z</time></trkpt><trkpt lat="43.4279275" lon="11.181842"><ele>148.0</ele><time>2026-04-24T14:45:53.867Z</time></trkpt><trkpt lat="43.4280042" lon="11.1817548"><ele>148.0</ele><time>2026-04-24T14:45:55.8Z</time></trkpt><trkpt lat="43.4280821" lon="11.1817337"><ele>148.57142857142858</ele><time>2026-04-24T14:45:58.861Z</time></trkpt><trkpt lat="43.428136" lon="11.1816765"><ele>149.14285714285714</ele><time>2026-04-24T14:46:02.772Z</time></trkpt><trkpt lat="43.4281759" lon="11.1815966"><ele>149.71428571428572</ele><time>2026-04-24T14:46:06.791Z</time></trkpt><trkpt lat="43.4282157" lon="11.1815075"><ele>150.28571428571428</ele><time>2026-04-24T14:46:10.789Z</time></trkpt><trkpt lat="43.4282442" lon="11.1814176"><ele>150.85714285714286</ele><time>2026-04-24T14:46:14.869Z</time></trkpt><trkpt lat="43.4282878" lon="11.1813537"><ele>151.42857142857142</ele><time>2026-04-24T14:46:17.775Z</time></trkpt><trkpt lat="43.4283409" lon="11.1812775"><ele>152.0</ele><time>2026-04-24T14:46:21.793Z</time></trkpt><trkpt lat="43.4283769" lon="11.1811963"><ele>152.0</ele><time>2026-04-24T14:46:25.799Z</time></trkpt><trkpt lat="43.4284221" lon="11.1811034"><ele>152.0</ele><time>2026-04-24T14:46:29.872Z</time></trkpt><trkpt lat="43.4284591" lon="11.1810052"><ele>152.0</ele><time>2026-04-24T14:46:33.809Z</time></trkpt><trkpt lat="43.4284986" lon="11.1809145"><ele>152.0</ele><time>2026-04-24T14:46:37.8Z</time></trkpt><trkpt lat="43.4285468" lon="11.1808209"><ele>152.0</ele><time>2026-04-24T14:46:41.8Z</time></trkpt><trkpt lat="43.4285938" lon="11.1807038"><ele>152.0</ele><time>2026-04-24T14:46:47.8Z</time></trkpt><trkpt lat="43.4286724" lon="11.180692"><ele>151.5</ele><time>2026-04-24T14:46:51.801Z</time></trkpt><trkpt lat="43.4287436" lon="11.1806313"><ele>151.0</ele><time>2026-04-24T14:46:55.799Z</time></trkpt><trkpt lat="43.4288082" lon="11.1806004"><ele>150.5</ele><time>2026-04-24T14:46:59.794Z</time></trkpt><trkpt lat="43.4288788" lon="11.1806272"><ele>150.0</ele><time>2026-04-24T14:47:03.804Z</time></trkpt><trkpt lat="43.4289402" lon="11.1806874"><ele>149.5</ele><time>2026-04-24T14:47:06.799Z</time></trkpt><trkpt lat="43.4289858" lon="11.180773"><ele>149.0</ele><time>2026-04-24T14:47:09.8Z</time></trkpt><trkpt lat="43.429031" lon="11.1808538"><ele>150.66666666666666</ele><time>2026-04-24T14:47:12.811Z</time></trkpt><trkpt lat="43.4290796" lon="11.1809296"><ele>152.33333333333331</ele><time>2026-04-24T14:47:15.804Z</time></trkpt><trkpt lat="43.4291333" lon="11.1810072"><ele>154.0</ele><time>2026-04-24T14:47:18.792Z</time></trkpt><trkpt lat="43.4291967" lon="11.1810752"><ele>155.66666666666666</ele><time>2026-04-24T14:47:21.803Z</time></trkpt><trkpt lat="43.4292609" lon="11.1811237"><ele>157.33333333333334</ele><time>2026-04-24T14:47:24.882Z</time></trkpt><trkpt lat="43.4293399" lon="11.1811477"><ele>159.0</ele><time>2026-04-24T14:47:27.793Z</time></trkpt><trkpt lat="43.4294187" lon="11.1811596"><ele>159.0</ele><time>2026-04-24T14:47:30.798Z</time></trkpt><trkpt lat="43.4294953" lon="11.1811456"><ele>159.0</ele><time>2026-04-24T14:47:33.809Z</time></trkpt><trkpt lat="43.4295707" lon="11.1811209"><ele>159.0</ele><time>2026-04-24T14:47:36.804Z</time></trkpt><trkpt lat="43.4296488" lon="11.1811025"><ele>159.0</ele><time>2026-04-24T14:47:39.806Z</time></trkpt><trkpt lat="43.4297244" lon="11.1810751"><ele>159.0</ele><time>2026-04-24T14:47:42.804Z</time></trkpt><trkpt lat="43.4297908" lon="11.181051"><ele>159.0</ele><time>2026-04-24T14:47:45.798Z</time></trkpt><trkpt lat="43.4298552" lon="11.1810163"><ele>159.57142857142856</ele><time>2026-04-24T14:47:48.797Z</time></trkpt><trkpt lat="43.4299228" lon="11.180977"><ele>160.14285714285717</ele><time>2026-04-24T14:47:51.793Z</time></trkpt><trkpt lat="43.4299908" lon="11.180938"><ele>160.71428571428572</ele><time>2026-04-24T14:47:54.809Z</time></trkpt><trkpt lat="43.4300519" lon="11.1809093"><ele>161.28571428571428</ele><time>2026-04-24T14:47:57.804Z</time></trkpt><trkpt lat="43.4301195" lon="11.1809007"><ele>161.85714285714283</ele><time>2026-04-24T14:48:00.807Z</time></trkpt><trkpt lat="43.4301916" lon="11.1809036"><ele>162.42857142857144</ele><time>2026-04-24T14:48:03.805Z</time></trkpt><trkpt lat="43.4302585" lon="11.1809449"><ele>163.0</ele><time>2026-04-24T14:48:06.803Z</time></trkpt><trkpt lat="43.430318" lon="11.1810154"><ele>163.0</ele><time>2026-04-24T14:48:09.8Z</time></trkpt><trkpt lat="43.4303809" lon="11.1810884"><ele>163.0</ele><time>2026-04-24T14:48:12.794Z</time></trkpt><trkpt lat="43.4304504" lon="11.1811548"><ele>163.0</ele><time>2026-04-24T14:48:15.795Z</time></trkpt><trkpt lat="43.4305192" lon="11.1812378"><ele>163.0</ele><time>2026-04-24T14:48:18.803Z</time></trkpt><trkpt lat="43.4305695" lon="11.181299"><ele>163.0</ele><time>2026-04-24T14:48:20.807Z</time></trkpt><trkpt lat="43.4306274" lon="11.1813626"><ele>163.0</ele><time>2026-04-24T14:48:22.804Z</time></trkpt><trkpt lat="43.4306856" lon="11.1814275"><ele>163.0</ele><time>2026-04-24T14:48:24.804Z</time></trkpt><trkpt lat="43.4307486" lon="11.1814938"><ele>163.0</ele><time>2026-04-24T14:48:26.802Z</time></trkpt><trkpt lat="43.4308114" lon="11.1815676"><ele>163.0</ele><time>2026-04-24T14:48:28.82Z</time></trkpt><trkpt lat="43.4308687" lon="11.1816585"><ele>163.0</ele><time>2026-04-24T14:48:30.797Z</time></trkpt><trkpt lat="43.4308997" lon="11.1817889"><ele>163.0</ele><time>2026-04-24T14:48:32.802Z</time></trkpt><trkpt lat="43.4309073" lon="11.1819642"><ele>164.0</ele><time>2026-04-24T14:48:34.792Z</time></trkpt><trkpt lat="43.4309089" lon="11.182075"><ele>165.0</ele><time>2026-04-24T14:48:35.793Z</time></trkpt><trkpt lat="43.4309127" lon="11.1822054"><ele>166.0</ele><time>2026-04-24T14:48:36.804Z</time></trkpt><trkpt lat="43.4309211" lon="11.1823451"><ele>167.0</ele><time>2026-04-24T14:48:37.803Z</time></trkpt><trkpt lat="43.4309386" lon="11.1824885"><ele>168.0</ele><time>2026-04-24T14:48:38.814Z</time></trkpt><trkpt lat="43.4309635" lon="11.182627"><ele>168.2</ele><time>2026-04-24T14:48:39.814Z</time></trkpt><trkpt lat="43.4309927" lon="11.1827539"><ele>168.4</ele><time>2026-04-24T14:48:40.803Z</time></trkpt><trkpt lat="43.4310228" lon="11.1828787"><ele>168.6</ele><time>2026-04-24T14:48:41.793Z</time></trkpt><trkpt lat="43.4310497" lon="11.1829989"><ele>168.79999999999998</ele><time>2026-04-24T14:48:42.795Z</time></trkpt><trkpt lat="43.4310762" lon="11.1831137"><ele>169.0</ele><time>2026-04-24T14:48:43.804Z</time></trkpt><trkpt lat="43.4311048" lon="11.1832261"><ele>167.6</ele><time>2026-04-24T14:48:44.802Z</time></trkpt><trkpt lat="43.4311409" lon="11.1833403"><ele>166.2</ele><time>2026-04-24T14:48:45.81Z</time></trkpt><trkpt lat="43.4311862" lon="11.1834546"><ele>164.79999999999998</ele><time>2026-04-24T14:48:46.799Z</time></trkpt><trkpt lat="43.4312419" lon="11.1835657"><ele>163.39999999999998</ele><time>2026-04-24T14:48:47.811Z</time></trkpt><trkpt lat="43.4313147" lon="11.183641"><ele>162.0</ele><time>2026-04-24T14:48:48.786Z</time></trkpt><trkpt lat="43.4313879" lon="11.1836981"><ele>160.66666666666666</ele><time>2026-04-24T14:48:49.801Z</time></trkpt><trkpt lat="43.431458" lon="11.18373"><ele>159.33333333333334</ele><time>2026-04-24T14:48:50.793Z</time></trkpt><trkpt lat="43.4315332" lon="11.1837451"><ele>158.0</ele><time>2026-04-24T14:48:51.788Z</time></trkpt><trkpt lat="43.4316032" lon="11.1837649"><ele>156.66666666666669</ele><time>2026-04-24T14:48:52.808Z</time></trkpt><trkpt lat="43.4316675" lon="11.1837779"><ele>155.33333333333334</ele><time>2026-04-24T14:48:53.802Z</time></trkpt><trkpt lat="43.4317721" lon="11.1838148"><ele>154.0</ele><time>2026-04-24T14:48:55.802Z</time></trkpt><trkpt lat="43.4318566" lon="11.1838214"><ele>154.0</ele><time>2026-04-24T14:48:57.806Z</time></trkpt><trkpt lat="43.4319381" lon="11.1838324"><ele>154.0</ele><time>2026-04-24T14:49:00.8Z</time></trkpt><trkpt lat="43.4320078" lon="11.1838355"><ele>154.0</ele><time>2026-04-24T14:49:03.807Z</time></trkpt><trkpt lat="43.432074" lon="11.1838496"><ele>154.0</ele><time>2026-04-24T14:49:06.798Z</time></trkpt><trkpt lat="43.4321454" lon="11.1838778"><ele>154.0</ele><time>2026-04-24T14:49:09.797Z</time></trkpt><trkpt lat="43.4322138" lon="11.1839"><ele>154.0</ele><time>2026-04-24T14:49:12.805Z</time></trkpt><trkpt lat="43.4322798" lon="11.183927"><ele>154.0</ele><time>2026-04-24T14:49:15.805Z</time></trkpt><trkpt lat="43.4323462" lon="11.1839509"><ele>154.83333333333334</ele><time>2026-04-24T14:49:18.798Z</time></trkpt><trkpt lat="43.4324157" lon="11.183977"><ele>155.66666666666669</ele><time>2026-04-24T14:49:21.806Z</time></trkpt><trkpt lat="43.4324864" lon="11.1840094"><ele>156.5</ele><time>2026-04-24T14:49:24.871Z</time></trkpt><trkpt lat="43.4325629" lon="11.1840454"><ele>157.33333333333334</ele><time>2026-04-24T14:49:27.811Z</time></trkpt><trkpt lat="43.4326576" lon="11.1840862"><ele>158.16666666666666</ele><time>2026-04-24T14:49:30.816Z</time></trkpt><trkpt lat="43.4327368" lon="11.1841087"><ele>159.0</ele><time>2026-04-24T14:49:33.87Z</time></trkpt><trkpt lat="43.43284" lon="11.1841558"><ele>160.14285714285714</ele><time>2026-04-24T14:49:36.808Z</time></trkpt><trkpt lat="43.4329075" lon="11.1841868"><ele>161.2857142857143</ele><time>2026-04-24T14:49:39.807Z</time></trkpt><trkpt lat="43.4329839" lon="11.1842146"><ele>162.42857142857144</ele><time>2026-04-24T14:49:42.806Z</time></trkpt><trkpt lat="43.4330475" lon="11.1842327"><ele>163.57142857142856</ele><time>2026-04-24T14:49:44.782Z</time></trkpt><trkpt lat="43.4331106" lon="11.1842393"><ele>164.71428571428572</ele><time>2026-04-24T14:49:46.8Z</time></trkpt><trkpt lat="43.4331918" lon="11.1842694"><ele>165.85714285714286</ele><time>2026-04-24T14:49:49.793Z</time></trkpt><trkpt lat="43.4332612" lon="11.1843099"><ele>167.0</ele><time>2026-04-24T14:49:52.813Z</time></trkpt><trkpt lat="43.433342" lon="11.1843536"><ele>167.0</ele><time>2026-04-24T14:49:55.799Z</time></trkpt><trkpt lat="43.4334124" lon="11.1843659"><ele>167.0</ele><time>2026-04-24T14:49:57.896Z</time></trkpt><trkpt lat="43.4334891" lon="11.1844228"><ele>167.0</ele><time>2026-04-24T14:50:00.811Z</time></trkpt><trkpt lat="43.4335622" lon="11.1844854"><ele>167.0</ele><time>2026-04-24T14:50:03.808Z</time></trkpt><trkpt lat="43.4336553" lon="11.1845028"><ele>167.0</ele><time>2026-04-24T14:50:06.788Z</time></trkpt><trkpt lat="43.4337197" lon="11.1845208"><ele>167.0</ele><time>2026-04-24T14:50:08.809Z</time></trkpt><trkpt lat="43.4338104" lon="11.1845529"><ele>167.33333333333331</ele><time>2026-04-24T14:50:11.808Z</time></trkpt><trkpt lat="43.4338746" lon="11.1845709"><ele>167.66666666666666</ele><time>2026-04-24T14:50:13.772Z</time></trkpt><trkpt lat="43.4339602" lon="11.1846029"><ele>168.0</ele><time>2026-04-24T14:50:16.789Z</time></trkpt><trkpt lat="43.4340351" lon="11.1846307"><ele>168.33333333333334</ele><time>2026-04-24T14:50:19.784Z</time></trkpt><trkpt lat="43.4341152" lon="11.1846651"><ele>168.66666666666669</ele><time>2026-04-24T14:50:22.781Z</time></trkpt><trkpt lat="43.4341881" lon="11.1847011"><ele>169.0</ele><time>2026-04-24T14:50:25.801Z</time></trkpt><trkpt lat="43.434258" lon="11.1847328"><ele>169.0</ele><time>2026-04-24T14:50:28.808Z</time></trkpt><trkpt lat="43.4343316" lon="11.1847642"><ele>169.0</ele><time>2026-04-24T14:50:31.797Z</time></trkpt><trkpt lat="43.4343992" lon="11.1847967"><ele>169.0</ele><time>2026-04-24T14:50:34.799Z</time></trkpt><trkpt lat="43.434458" lon="11.18483"><ele>169.0</ele><time>2026-04-24T14:50:37.798Z</time></trkpt><trkpt lat="43.4345373" lon="11.1848662"><ele>169.0</ele><time>2026-04-24T14:50:41.812Z</time></trkpt><trkpt lat="43.434614" lon="11.184883"><ele>169.0</ele><time>2026-04-24T14:50:45.869Z</time></trkpt><trkpt lat="43.4346896" lon="11.1848893"><ele>169.0</ele><time>2026-04-24T14:50:49.789Z</time></trkpt><trkpt lat="43.4347562" lon="11.184911"><ele>170.85714285714286</ele><time>2026-04-24T14:50:53.79Z</time></trkpt><trkpt lat="43.434842" lon="11.1849294"><ele>172.71428571428572</ele><time>2026-04-24T14:50:56.796Z</time></trkpt><trkpt lat="43.4349026" lon="11.1849685"><ele>174.57142857142856</ele><time>2026-04-24T14:51:00.798Z</time></trkpt><trkpt lat="43.434971" lon="11.1849639"><ele>176.42857142857144</ele><time>2026-04-24T14:51:05.811Z</time></trkpt><trkpt lat="43.4350495" lon="11.1849642"><ele>178.28571428571428</ele><time>2026-04-24T14:51:12.8Z</time></trkpt><trkpt lat="43.4351142" lon="11.184986"><ele>180.14285714285714</ele><time>2026-04-24T14:51:16.799Z</time></trkpt><trkpt lat="43.4351803" lon="11.1849976"><ele>182.0</ele><time>2026-04-24T14:51:20.816Z</time></trkpt><trkpt lat="43.4352571" lon="11.1850134"><ele>182.0</ele><time>2026-04-24T14:51:24.868Z</time></trkpt><trkpt lat="43.4353345" lon="11.1850347"><ele>182.0</ele><time>2026-04-24T14:51:28.865Z</time></trkpt><trkpt lat="43.4355017" lon="11.1850087"><ele>182.0</ele><time>2026-04-24T14:51:34.796Z</time></trkpt><trkpt lat="43.4355786" lon="11.1850463"><ele>182.0</ele><time>2026-04-24T14:51:38.796Z</time></trkpt><trkpt lat="43.4356417" lon="11.1850655"><ele>182.0</ele><time>2026-04-24T14:51:41.803Z</time></trkpt><trkpt lat="43.4357106" lon="11.1850956"><ele>182.14285714285714</ele><time>2026-04-24T14:51:44.866Z</time></trkpt><trkpt lat="43.4357783" lon="11.1851263"><ele>182.28571428571428</ele><time>2026-04-24T14:51:47.856Z</time></trkpt><trkpt lat="43.4358584" lon="11.1851276"><ele>182.42857142857144</ele><time>2026-04-24T14:51:50.807Z</time></trkpt><trkpt lat="43.4359353" lon="11.1851414"><ele>182.57142857142856</ele><time>2026-04-24T14:51:53.862Z</time></trkpt><trkpt lat="43.4360002" lon="11.1851524"><ele>182.71428571428572</ele><time>2026-04-24T14:51:55.778Z</time></trkpt><trkpt lat="43.436068" lon="11.1851599"><ele>182.85714285714286</ele><time>2026-04-24T14:51:58.867Z</time></trkpt><trkpt lat="43.4361418" lon="11.1851455"><ele>183.0</ele><time>2026-04-24T14:52:02.797Z</time></trkpt><trkpt lat="43.4362066" lon="11.1852205"><ele>183.0</ele><time>2026-04-24T14:52:05.791Z</time></trkpt><trkpt lat="43.4362896" lon="11.1852178"><ele>183.0</ele><time>2026-04-24T14:52:09.792Z</time></trkpt><trkpt lat="43.436363" lon="11.1852232"><ele>183.0</ele><time>2026-04-24T14:52:12.791Z</time></trkpt><trkpt lat="43.4364334" lon="11.1852373"><ele>183.0</ele><time>2026-04-24T14:52:15.785Z</time></trkpt><trkpt lat="43.4364995" lon="11.1852646"><ele>183.0</ele><time>2026-04-24T14:52:18.798Z</time></trkpt><trkpt lat="43.4365713" lon="11.1852934"><ele>183.0</ele><time>2026-04-24T14:52:21.796Z</time></trkpt><trkpt lat="43.4366435" lon="11.185312"><ele>183.0</ele><time>2026-04-24T14:52:24.876Z</time></trkpt><trkpt lat="43.4367135" lon="11.1853501"><ele>183.33333333333334</ele><time>2026-04-24T14:52:27.872Z</time></trkpt><trkpt lat="43.4367993" lon="11.1854003"><ele>183.66666666666666</ele><time>2026-04-24T14:52:30.777Z</time></trkpt><trkpt lat="43.4368831" lon="11.1854473"><ele>184.0</ele><time>2026-04-24T14:52:33.856Z</time></trkpt><trkpt lat="43.4369501" lon="11.1855145"><ele>184.33333333333331</ele><time>2026-04-24T14:52:35.777Z</time></trkpt><trkpt lat="43.4370248" lon="11.1855439"><ele>184.66666666666666</ele><time>2026-04-24T14:52:38.863Z</time></trkpt><trkpt lat="43.4370876" lon="11.185567"><ele>185.0</ele><time>2026-04-24T14:52:41.776Z</time></trkpt><trkpt lat="43.4371551" lon="11.1855879"><ele>185.28571428571428</ele><time>2026-04-24T14:52:44.809Z</time></trkpt><trkpt lat="43.4372294" lon="11.1856204"><ele>185.57142857142856</ele><time>2026-04-24T14:52:48.803Z</time></trkpt><trkpt lat="43.4373036" lon="11.1856493"><ele>185.85714285714283</ele><time>2026-04-24T14:52:52.798Z</time></trkpt><trkpt lat="43.4373768" lon="11.1856857"><ele>186.14285714285714</ele><time>2026-04-24T14:52:56.786Z</time></trkpt><trkpt lat="43.4374344" lon="11.1857323"><ele>186.42857142857144</ele><time>2026-04-24T14:52:59.872Z</time></trkpt><trkpt lat="43.4375002" lon="11.1857308"><ele>186.7142857142857</ele><time>2026-04-24T14:53:03.853Z</time></trkpt><trkpt lat="43.4375681" lon="11.1857357"><ele>187.0</ele><time>2026-04-24T14:53:06.787Z</time></trkpt><trkpt lat="43.4376434" lon="11.1857462"><ele>189.83333333333334</ele><time>2026-04-24T14:53:09.857Z</time></trkpt><trkpt lat="43.4377198" lon="11.1857492"><ele>192.66666666666669</ele><time>2026-04-24T14:53:12.8Z</time></trkpt><trkpt lat="43.4377891" lon="11.1857484"><ele>195.5</ele><time>2026-04-24T14:53:15.783Z</time></trkpt><trkpt lat="43.4378824" lon="11.1857343"><ele>198.33333333333334</ele><time>2026-04-24T14:53:18.852Z</time></trkpt><trkpt lat="43.4379508" lon="11.1857344"><ele>201.16666666666666</ele><time>2026-04-24T14:53:20.799Z</time></trkpt><trkpt lat="43.4380251" lon="11.1857346"><ele>204.0</ele><time>2026-04-24T14:53:22.784Z</time></trkpt><trkpt lat="43.4381014" lon="11.185738"><ele>204.0</ele><time>2026-04-24T14:53:24.799Z</time></trkpt><trkpt lat="43.4381767" lon="11.1857305"><ele>204.0</ele><time>2026-04-24T14:53:26.802Z</time></trkpt><trkpt lat="43.4382491" lon="11.1857166"><ele>204.0</ele><time>2026-04-24T14:53:28.789Z</time></trkpt><trkpt lat="43.4383453" lon="11.1857007"><ele>204.0</ele><time>2026-04-24T14:53:31.799Z</time></trkpt><trkpt lat="43.4384117" lon="11.185688"><ele>204.0</ele><time>2026-04-24T14:53:33.782Z</time></trkpt><trkpt lat="43.4385037" lon="11.1856783"><ele>204.0</ele><time>2026-04-24T14:53:36.794Z</time></trkpt><trkpt lat="43.4385795" lon="11.1856776"><ele>201.79999999999998</ele><time>2026-04-24T14:53:39.865Z</time></trkpt><trkpt lat="43.438647" lon="11.1856686"><ele>199.6</ele><time>2026-04-24T14:53:42.855Z</time></trkpt><trkpt lat="43.4387336" lon="11.1856502"><ele>197.4</ele><time>2026-04-24T14:53:45.811Z</time></trkpt><trkpt lat="43.4388278" lon="11.1855889"><ele>195.2</ele><time>2026-04-24T14:53:48.88Z</time></trkpt><trkpt lat="43.4389044" lon="11.1855169"><ele>193.0</ele><time>2026-04-24T14:53:50.799Z</time></trkpt><trkpt lat="43.4389873" lon="11.1854343"><ele>193.0</ele><time>2026-04-24T14:53:52.873Z</time></trkpt><trkpt lat="43.4390786" lon="11.1853427"><ele>193.0</ele><time>2026-04-24T14:53:54.87Z</time></trkpt><trkpt lat="43.439177" lon="11.1852344"><ele>193.0</ele><time>2026-04-24T14:53:56.804Z</time></trkpt><trkpt lat="43.4392223" lon="11.1851375"><ele>193.0</ele><time>2026-04-24T14:53:57.801Z</time></trkpt><trkpt lat="43.439277" lon="11.1850405"><ele>193.0</ele><time>2026-04-24T14:53:58.797Z</time></trkpt><trkpt lat="43.4393365" lon="11.184942"><ele>193.0</ele><time>2026-04-24T14:53:59.795Z</time></trkpt><trkpt lat="43.4393993" lon="11.1848476"><ele>193.0</ele><time>2026-04-24T14:54:00.804Z</time></trkpt><trkpt lat="43.4394613" lon="11.184749"><ele>193.0</ele><time>2026-04-24T14:54:01.809Z</time></trkpt><trkpt lat="43.4395199" lon="11.184651"><ele>193.0</ele><time>2026-04-24T14:54:02.801Z</time></trkpt><trkpt lat="43.4395765" lon="11.184548"><ele>193.0</ele><time>2026-04-24T14:54:03.803Z</time></trkpt><trkpt lat="43.4396327" lon="11.1844402"><ele>191.2</ele><time>2026-04-24T14:54:04.797Z</time></trkpt><trkpt lat="43.4396881" lon="11.1843267"><ele>189.4</ele><time>2026-04-24T14:54:05.821Z</time></trkpt><trkpt lat="43.4397383" lon="11.1842187"><ele>187.6</ele><time>2026-04-24T14:54:06.804Z</time></trkpt><trkpt lat="43.4397929" lon="11.1841096"><ele>185.79999999999998</ele><time>2026-04-24T14:54:07.86Z</time></trkpt><trkpt lat="43.4398478" lon="11.184008"><ele>184.0</ele><time>2026-04-24T14:54:08.871Z</time></trkpt><trkpt lat="43.4399031" lon="11.1839106"><ele>183.33333333333334</ele><time>2026-04-24T14:54:09.86Z</time></trkpt><trkpt lat="43.439956" lon="11.1838208"><ele>182.66666666666666</ele><time>2026-04-24T14:54:10.781Z</time></trkpt><trkpt lat="43.4400975" lon="11.1834334"><ele>182.0</ele><time>2026-04-24T14:54:13.858Z</time></trkpt><trkpt lat="43.4402235" lon="11.18299"><ele>181.83333333333331</ele><time>2026-04-24T14:54:17.803Z</time></trkpt><trkpt lat="43.4402362" lon="11.1828853"><ele>181.66666666666666</ele><time>2026-04-24T14:54:18.874Z</time></trkpt><trkpt lat="43.4403066" lon="11.1828464"><ele>181.5</ele><time>2026-04-24T14:54:19.783Z</time></trkpt><trkpt lat="43.4403918" lon="11.1828102"><ele>181.33333333333334</ele><time>2026-04-24T14:54:20.865Z</time></trkpt><trkpt lat="43.4404532" lon="11.1827553"><ele>181.16666666666669</ele><time>2026-04-24T14:54:21.803Z</time></trkpt><trkpt lat="43.4405177" lon="11.1827098"><ele>181.0</ele><time>2026-04-24T14:54:22.801Z</time></trkpt><trkpt lat="43.4406031" lon="11.1826109"><ele>181.0</ele><time>2026-04-24T14:54:24.869Z</time></trkpt><trkpt lat="43.440667" lon="11.1824862"><ele>181.0</ele><time>2026-04-24T14:54:26.803Z</time></trkpt><trkpt lat="43.4407453" lon="11.1823657"><ele>181.0</ele><time>2026-04-24T14:54:28.866Z</time></trkpt><trkpt lat="43.4408198" lon="11.1822422"><ele>181.0</ele><time>2026-04-24T14:54:30.783Z</time></trkpt><trkpt lat="43.440885" lon="11.1821091"><ele>180.20000000000002</ele><time>2026-04-24T14:54:32.782Z</time></trkpt><trkpt lat="43.44095" lon="11.1819861"><ele>179.4</ele><time>2026-04-24T14:54:34.793Z</time></trkpt><trkpt lat="43.4410236" lon="11.1818729"><ele>178.6</ele><time>2026-04-24T14:54:36.797Z</time></trkpt><trkpt lat="43.4410935" lon="11.1817582"><ele>177.8</ele><time>2026-04-24T14:54:38.814Z</time></trkpt><trkpt lat="43.4411629" lon="11.1816324"><ele>177.0</ele><time>2026-04-24T14:54:40.81Z</time></trkpt><trkpt lat="43.4412382" lon="11.1815141"><ele>177.5</ele><time>2026-04-24T14:54:42.803Z</time></trkpt><trkpt lat="43.4413239" lon="11.1813961"><ele>178.0</ele><time>2026-04-24T14:54:44.882Z</time></trkpt><trkpt lat="43.4414076" lon="11.1812849"><ele>178.5</ele><time>2026-04-24T14:54:46.81Z</time></trkpt><trkpt lat="43.4414904" lon="11.1811759"><ele>179.0</ele><time>2026-04-24T14:54:48.865Z</time></trkpt><trkpt lat="43.441596" lon="11.1811046"><ele>179.00000000000003</ele><time>2026-04-24T14:54:50.784Z</time></trkpt><trkpt lat="43.441655" lon="11.1810518"><ele>179.0</ele><time>2026-04-24T14:54:51.798Z</time></trkpt><trkpt lat="43.4417068" lon="11.1809879"><ele>179.0</ele><time>2026-04-24T14:54:52.883Z</time></trkpt><trkpt lat="43.4417546" lon="11.1809253"><ele>179.0</ele><time>2026-04-24T14:54:53.853Z</time></trkpt><trkpt lat="43.4418028" lon="11.1808639"><ele>179.0</ele><time>2026-04-24T14:54:54.863Z</time></trkpt><trkpt lat="43.4418505" lon="11.1808044"><ele>179.00000000000003</ele><time>2026-04-24T14:54:55.787Z</time></trkpt><trkpt lat="43.4419018" lon="11.1807483"><ele>179.0</ele><time>2026-04-24T14:54:56.811Z</time></trkpt><trkpt lat="43.4419532" lon="11.1806887"><ele>178.79999999999998</ele><time>2026-04-24T14:54:57.863Z</time></trkpt><trkpt lat="43.4420463" lon="11.1805955"><ele>178.6</ele><time>2026-04-24T14:54:59.865Z</time></trkpt><trkpt lat="43.4421225" lon="11.1804661"><ele>178.4</ele><time>2026-04-24T14:55:01.81Z</time></trkpt><trkpt lat="43.4421793" lon="11.1803937"><ele>178.2</ele><time>2026-04-24T14:55:02.874Z</time></trkpt><trkpt lat="43.4422343" lon="11.1803278"><ele>178.0</ele><time>2026-04-24T14:55:03.858Z</time></trkpt><trkpt lat="43.4422874" lon="11.1802619"><ele>178.0</ele><time>2026-04-24T14:55:04.863Z</time></trkpt><trkpt lat="43.4423875" lon="11.1801538"><ele>178.0</ele><time>2026-04-24T14:55:06.81Z</time></trkpt><trkpt lat="43.4424406" lon="11.1800824"><ele>178.0</ele><time>2026-04-24T14:55:07.797Z</time></trkpt><trkpt lat="43.4424922" lon="11.1800167"><ele>178.0</ele><time>2026-04-24T14:55:08.79Z</time></trkpt><trkpt lat="43.4425493" lon="11.1799636"><ele>178.0</ele><time>2026-04-24T14:55:09.794Z</time></trkpt><trkpt lat="43.4426057" lon="11.1799097"><ele>178.0</ele><time>2026-04-24T14:55:10.797Z</time></trkpt><trkpt lat="43.442692" lon="11.1798157"><ele>178.0</ele><time>2026-04-24T14:55:12.806Z</time></trkpt><trkpt lat="43.4427702" lon="11.1797269"><ele>178.0</ele><time>2026-04-24T14:55:14.789Z</time></trkpt><trkpt lat="43.4428406" lon="11.1796359"><ele>178.0</ele><time>2026-04-24T14:55:16.785Z</time></trkpt><trkpt lat="43.4429009" lon="11.179522"><ele>178.0</ele><time>2026-04-24T14:55:18.797Z</time></trkpt><trkpt lat="43.4429523" lon="11.1793219"><ele>178.0</ele><time>2026-04-24T14:55:21.8Z</time></trkpt><trkpt lat="43.4429549" lon="11.1791682"><ele>178.0</ele><time>2026-04-24T14:55:23.792Z</time></trkpt><trkpt lat="43.4429564" lon="11.1790126"><ele>178.0</ele><time>2026-04-24T14:55:25.789Z</time></trkpt><trkpt lat="43.4429691" lon="11.1788624"><ele>178.0</ele><time>2026-04-24T14:55:27.852Z</time></trkpt><trkpt lat="43.4429955" lon="11.1787003"><ele>178.8</ele><time>2026-04-24T14:55:29.854Z</time></trkpt><trkpt lat="43.4429675" lon="11.1784437"><ele>179.60000000000002</ele><time>2026-04-24T14:55:32.787Z</time></trkpt><trkpt lat="43.4430351" lon="11.1783601"><ele>180.39999999999998</ele><time>2026-04-24T14:55:33.862Z</time></trkpt><trkpt lat="43.4430834" lon="11.178261"><ele>181.2</ele><time>2026-04-24T14:55:34.865Z</time></trkpt><trkpt lat="43.4431476" lon="11.1782212"><ele>182.0</ele><time>2026-04-24T14:55:35.788Z</time></trkpt><trkpt lat="43.4432124" lon="11.1781408"><ele>182.5</ele><time>2026-04-24T14:55:37.775Z</time></trkpt><trkpt lat="43.4432663" lon="11.1780555"><ele>183.0</ele><time>2026-04-24T14:55:39.866Z</time></trkpt><trkpt lat="43.4433141" lon="11.1779568"><ele>183.5</ele><time>2026-04-24T14:55:41.793Z</time></trkpt><trkpt lat="43.4433508" lon="11.177853"><ele>184.0</ele><time>2026-04-24T14:55:43.794Z</time></trkpt><trkpt lat="43.4434036" lon="11.1777636"><ele>184.5</ele><time>2026-04-24T14:55:45.795Z</time></trkpt><trkpt lat="43.4434494" lon="11.1776819"><ele>185.0</ele><time>2026-04-24T14:55:47.794Z</time></trkpt><trkpt lat="43.4435239" lon="11.1775805"><ele>185.0</ele><time>2026-04-24T14:55:49.792Z</time></trkpt><trkpt lat="43.4435952" lon="11.1774801"><ele>185.0</ele><time>2026-04-24T14:55:51.791Z</time></trkpt><trkpt lat="43.4436596" lon="11.1773852"><ele>185.0</ele><time>2026-04-24T14:55:53.789Z</time></trkpt><trkpt lat="43.4437229" lon="11.1772849"><ele>185.0</ele><time>2026-04-24T14:55:55.806Z</time></trkpt><trkpt lat="43.4437742" lon="11.1771919"><ele>185.0</ele><time>2026-04-24T14:55:57.857Z</time></trkpt><trkpt lat="43.443824" lon="11.1770971"><ele>184.5</ele><time>2026-04-24T14:55:59.869Z</time></trkpt><trkpt lat="43.4438665" lon="11.1769953"><ele>184.0</ele><time>2026-04-24T14:56:01.801Z</time></trkpt><trkpt lat="43.4439055" lon="11.1768948"><ele>183.5</ele><time>2026-04-24T14:56:03.87Z</time></trkpt><trkpt lat="43.4439468" lon="11.1766736"><ele>183.0</ele><time>2026-04-24T14:56:08.849Z</time></trkpt><trkpt lat="43.4442702" lon="11.1770366"><ele>183.0</ele><time>2026-04-24T14:56:09.865Z</time></trkpt><trkpt lat="43.4439881" lon="11.1765757"><ele>183.0</ele><time>2026-04-24T14:56:10.864Z</time></trkpt><trkpt lat="43.4440845" lon="11.1765257"><ele>181.60000000000002</ele><time>2026-04-24T14:56:11.814Z</time></trkpt><trkpt lat="43.4441293" lon="11.1764408"><ele>180.20000000000002</ele><time>2026-04-24T14:56:13.853Z</time></trkpt><trkpt lat="43.4442214" lon="11.1763553"><ele>178.8</ele><time>2026-04-24T14:56:15.873Z</time></trkpt><trkpt lat="43.4443" lon="11.1762351"><ele>177.4</ele><time>2026-04-24T14:56:17.795Z</time></trkpt><trkpt lat="43.4443633" lon="11.1761025"><ele>176.0</ele><time>2026-04-24T14:56:19.793Z</time></trkpt><trkpt lat="43.4444229" lon="11.1759631"><ele>176.0</ele><time>2026-04-24T14:56:21.805Z</time></trkpt><trkpt lat="43.4444553" lon="11.1758881"><ele>176.0</ele><time>2026-04-24T14:56:22.796Z</time></trkpt><trkpt lat="43.4445266" lon="11.1757417"><ele>176.0</ele><time>2026-04-24T14:56:24.791Z</time></trkpt><trkpt lat="43.4445654" lon="11.175665"><ele>176.0</ele><time>2026-04-24T14:56:25.806Z</time></trkpt><trkpt lat="43.444604" lon="11.1755803"><ele>176.0</ele><time>2026-04-24T14:56:26.789Z</time></trkpt><trkpt lat="43.4446396" lon="11.1754958"><ele>176.0</ele><time>2026-04-24T14:56:27.802Z</time></trkpt><trkpt lat="43.4446778" lon="11.1754131"><ele>176.16666666666666</ele><time>2026-04-24T14:56:28.8Z</time></trkpt><trkpt lat="43.4447188" lon="11.1753245"><ele>176.33333333333331</ele><time>2026-04-24T14:56:29.802Z</time></trkpt><trkpt lat="43.4447598" lon="11.1752375"><ele>176.5</ele><time>2026-04-24T14:56:30.79Z</time></trkpt><trkpt lat="43.444797" lon="11.1751453"><ele>176.66666666666666</ele><time>2026-04-24T14:56:31.804Z</time></trkpt><trkpt lat="43.4448342" lon="11.1750531"><ele>176.83333333333334</ele><time>2026-04-24T14:56:32.803Z</time></trkpt><trkpt lat="43.4448631" lon="11.1749514"><ele>177.0</ele><time>2026-04-24T14:56:33.8Z</time></trkpt><trkpt lat="43.4448882" lon="11.1748491"><ele>177.0</ele><time>2026-04-24T14:56:34.861Z</time></trkpt><trkpt lat="43.444897" lon="11.1747137"><ele>177.0</ele><time>2026-04-24T14:56:35.86Z</time></trkpt><trkpt lat="43.4449095" lon="11.1745618"><ele>177.0</ele><time>2026-04-24T14:56:36.769Z</time></trkpt><trkpt lat="43.444922" lon="11.1744385"><ele>177.0</ele><time>2026-04-24T14:56:37.789Z</time></trkpt><trkpt lat="43.4449499" lon="11.1743559"><ele>177.0</ele><time>2026-04-24T14:56:38.862Z</time></trkpt><trkpt lat="43.4449906" lon="11.1742861"><ele>177.0</ele><time>2026-04-24T14:56:39.87Z</time></trkpt><trkpt lat="43.4450272" lon="11.1742107"><ele>177.0</ele><time>2026-04-24T14:56:40.796Z</time></trkpt><trkpt lat="43.4450463" lon="11.1741206"><ele>177.0</ele><time>2026-04-24T14:56:41.793Z</time></trkpt><trkpt lat="43.4450634" lon="11.1740284"><ele>177.0</ele><time>2026-04-24T14:56:42.86Z</time></trkpt><trkpt lat="43.4450813" lon="11.1739429"><ele>177.0</ele><time>2026-04-24T14:56:43.87Z</time></trkpt><trkpt lat="43.4451042" lon="11.1737862"><ele>177.0</ele><time>2026-04-24T14:56:45.853Z</time></trkpt><trkpt lat="43.445109" lon="11.1736539"><ele>177.0</ele><time>2026-04-24T14:56:47.789Z</time></trkpt><trkpt lat="43.4450601" lon="11.1735047"><ele>176.39999999999998</ele><time>2026-04-24T14:56:49.867Z</time></trkpt><trkpt lat="43.4450082" lon="11.1733351"><ele>175.79999999999998</ele><time>2026-04-24T14:56:51.793Z</time></trkpt><trkpt lat="43.44497" lon="11.1732362"><ele>175.2</ele><time>2026-04-24T14:56:52.866Z</time></trkpt><trkpt lat="43.4449304" lon="11.1731445"><ele>174.6</ele><time>2026-04-24T14:56:53.867Z</time></trkpt><trkpt lat="43.4448889" lon="11.1730404"><ele>174.0</ele><time>2026-04-24T14:56:54.837Z</time></trkpt><trkpt lat="43.4448147" lon="11.1729587"><ele>173.2</ele><time>2026-04-24T14:56:55.812Z</time></trkpt><trkpt lat="43.4447182" lon="11.1728827"><ele>172.39999999999998</ele><time>2026-04-24T14:56:56.802Z</time></trkpt><trkpt lat="43.4446151" lon="11.1728282"><ele>171.6</ele><time>2026-04-24T14:56:57.809Z</time></trkpt><trkpt lat="43.4445123" lon="11.1727896"><ele>170.8</ele><time>2026-04-24T14:56:58.813Z</time></trkpt><trkpt lat="43.4444117" lon="11.1727581"><ele>170.0</ele><time>2026-04-24T14:56:59.796Z</time></trkpt><trkpt lat="43.444316" lon="11.172728"><ele>167.25</ele><time>2026-04-24T14:57:00.803Z</time></trkpt><trkpt lat="43.4442143" lon="11.1726888"><ele>164.5</ele><time>2026-04-24T14:57:01.794Z</time></trkpt><trkpt lat="43.4441114" lon="11.17263"><ele>161.75</ele><time>2026-04-24T14:57:02.794Z</time></trkpt><trkpt lat="43.4440039" lon="11.1725634"><ele>159.0</ele><time>2026-04-24T14:57:03.793Z</time></trkpt><trkpt lat="43.4438899" lon="11.1724864"><ele>155.25</ele><time>2026-04-24T14:57:04.797Z</time></trkpt><trkpt lat="43.443773" lon="11.1724102"><ele>151.5</ele><time>2026-04-24T14:57:05.865Z</time></trkpt><trkpt lat="43.4436606" lon="11.1723366"><ele>147.75</ele><time>2026-04-24T14:57:06.805Z</time></trkpt><trkpt lat="43.4435466" lon="11.1722487"><ele>144.0</ele><time>2026-04-24T14:57:07.807Z</time></trkpt><trkpt lat="43.4434398" lon="11.1721684"><ele>143.25</ele><time>2026-04-24T14:57:08.798Z</time></trkpt><trkpt lat="43.4433332" lon="11.1720907"><ele>142.5</ele><time>2026-04-24T14:57:09.87Z</time></trkpt><trkpt lat="43.4432227" lon="11.1720175"><ele>141.75</ele><time>2026-04-24T14:57:10.79Z</time></trkpt><trkpt lat="43.4431037" lon="11.1719273"><ele>141.0</ele><time>2026-04-24T14:57:11.803Z</time></trkpt><trkpt lat="43.4429996" lon="11.1718396"><ele>139.25</ele><time>2026-04-24T14:57:12.798Z</time></trkpt><trkpt lat="43.4429078" lon="11.1717407"><ele>137.5</ele><time>2026-04-24T14:57:13.804Z</time></trkpt><trkpt lat="43.4428193" lon="11.1716287"><ele>135.75</ele><time>2026-04-24T14:57:14.8Z</time></trkpt><trkpt lat="43.4427371" lon="11.1715151"><ele>134.0</ele><time>2026-04-24T14:57:15.879Z</time></trkpt><trkpt lat="43.4426609" lon="11.1714041"><ele>133.25</ele><time>2026-04-24T14:57:16.795Z</time></trkpt><trkpt lat="43.4425702" lon="11.1712847"><ele>132.5</ele><time>2026-04-24T14:57:17.805Z</time></trkpt><trkpt lat="43.4424678" lon="11.1711654"><ele>131.75</ele><time>2026-04-24T14:57:18.866Z</time></trkpt><trkpt lat="43.4423638" lon="11.1710407"><ele>131.0</ele><time>2026-04-24T14:57:19.868Z</time></trkpt><trkpt lat="43.4422622" lon="11.170913"><ele>131.0</ele><time>2026-04-24T14:57:20.868Z</time></trkpt><trkpt lat="43.4421637" lon="11.1707878"><ele>131.0</ele><time>2026-04-24T14:57:21.809Z</time></trkpt><trkpt lat="43.4420692" lon="11.1706589"><ele>131.0</ele><time>2026-04-24T14:57:22.785Z</time></trkpt><trkpt lat="43.4419897" lon="11.1705307"><ele>131.0</ele><time>2026-04-24T14:57:23.863Z</time></trkpt><trkpt lat="43.4419276" lon="11.1704136"><ele>131.33333333333331</ele><time>2026-04-24T14:57:24.871Z</time></trkpt><trkpt lat="43.4418682" lon="11.1703173"><ele>131.66666666666666</ele><time>2026-04-24T14:57:25.816Z</time></trkpt><trkpt lat="43.4418066" lon="11.1702407"><ele>132.0</ele><time>2026-04-24T14:57:26.793Z</time></trkpt><trkpt lat="43.4417571" lon="11.1701714"><ele>132.33333333333334</ele><time>2026-04-24T14:57:27.797Z</time></trkpt><trkpt lat="43.4417679" lon="11.1700304"><ele>132.66666666666669</ele><time>2026-04-24T14:57:29.807Z</time></trkpt><trkpt lat="43.4418363" lon="11.1699571"><ele>133.0</ele><time>2026-04-24T14:57:31.808Z</time></trkpt><trkpt lat="43.441915" lon="11.1699326"><ele>133.0</ele><time>2026-04-24T14:57:34.812Z</time></trkpt><trkpt lat="43.4419762" lon="11.1698892"><ele>133.0</ele><time>2026-04-24T14:57:37.786Z</time></trkpt><trkpt lat="43.4420433" lon="11.1698312"><ele>133.0</ele><time>2026-04-24T14:57:41.791Z</time></trkpt><trkpt lat="43.4421162" lon="11.1697699"><ele>133.0</ele><time>2026-04-24T14:57:45.79Z</time></trkpt><trkpt lat="43.442164" lon="11.1697069"><ele>133.0</ele><time>2026-04-24T14:57:48.871Z</time></trkpt><trkpt lat="43.4422322" lon="11.1696555"><ele>133.0</ele><time>2026-04-24T14:57:52.798Z</time></trkpt><trkpt lat="43.4423018" lon="11.1696028"><ele>134.14285714285714</ele><time>2026-04-24T14:57:56.798Z</time></trkpt><trkpt lat="43.442349" lon="11.169535"><ele>135.28571428571428</ele><time>2026-04-24T14:58:00.86Z</time></trkpt><trkpt lat="43.4423846" lon="11.1694466"><ele>136.42857142857144</ele><time>2026-04-24T14:58:04.81Z</time></trkpt><trkpt lat="43.4424127" lon="11.1693672"><ele>137.57142857142856</ele><time>2026-04-24T14:58:08.801Z</time></trkpt><trkpt lat="43.4424397" lon="11.1692753"><ele>138.71428571428572</ele><time>2026-04-24T14:58:13.781Z</time></trkpt><trkpt lat="43.4424274" lon="11.1691881"><ele>139.85714285714286</ele><time>2026-04-24T14:58:17.794Z</time></trkpt><trkpt lat="43.4424072" lon="11.1690837"><ele>141.0</ele><time>2026-04-24T14:58:21.775Z</time></trkpt><trkpt lat="43.4423904" lon="11.1689833"><ele>142.28571428571428</ele><time>2026-04-24T14:58:25.803Z</time></trkpt><trkpt lat="43.4423764" lon="11.1688942"><ele>143.57142857142856</ele><time>2026-04-24T14:58:29.797Z</time></trkpt><trkpt lat="43.442367" lon="11.1688078"><ele>144.85714285714283</ele><time>2026-04-24T14:58:33.87Z</time></trkpt><trkpt lat="43.4423446" lon="11.1687249"><ele>146.14285714285714</ele><time>2026-04-24T14:58:37.808Z</time></trkpt><trkpt lat="43.4423085" lon="11.1686397"><ele>147.42857142857142</ele><time>2026-04-24T14:58:41.797Z</time></trkpt><trkpt lat="43.4422734" lon="11.1685513"><ele>148.7142857142857</ele><time>2026-04-24T14:58:45.792Z</time></trkpt><trkpt lat="43.4422431" lon="11.1684478"><ele>150.0</ele><time>2026-04-24T14:58:49.856Z</time></trkpt><trkpt lat="43.4421985" lon="11.1683832"><ele>149.99999999999997</ele><time>2026-04-24T14:58:52.809Z</time></trkpt><trkpt lat="43.442167" lon="11.1683024"><ele>150.0</ele><time>2026-04-24T14:58:55.869Z</time></trkpt><trkpt lat="43.4421455" lon="11.1682183"><ele>150.0</ele><time>2026-04-24T14:58:58.932Z</time></trkpt><trkpt lat="43.4421102" lon="11.1681292"><ele>150.0</ele><time>2026-04-24T14:59:01.794Z</time></trkpt><trkpt lat="43.4420771" lon="11.1680256"><ele>150.0</ele><time>2026-04-24T14:59:04.86Z</time></trkpt><trkpt lat="43.442049" lon="11.1679322"><ele>149.99999999999997</ele><time>2026-04-24T14:59:07.796Z</time></trkpt><trkpt lat="43.4420119" lon="11.1678603"><ele>150.0</ele><time>2026-04-24T14:59:09.803Z</time></trkpt><trkpt lat="43.4419754" lon="11.1677407"><ele>149.85714285714283</ele><time>2026-04-24T14:59:12.81Z</time></trkpt><trkpt lat="43.4419407" lon="11.1676601"><ele>149.71428571428572</ele><time>2026-04-24T14:59:14.814Z</time></trkpt><trkpt lat="43.441897" lon="11.1675824"><ele>149.57142857142856</ele><time>2026-04-24T14:59:16.789Z</time></trkpt><trkpt lat="43.4418502" lon="11.167504"><ele>149.42857142857142</ele><time>2026-04-24T14:59:18.81Z</time></trkpt><trkpt lat="43.4418165" lon="11.1674191"><ele>149.28571428571428</ele><time>2026-04-24T14:59:20.856Z</time></trkpt><trkpt lat="43.441788" lon="11.1673271"><ele>149.14285714285714</ele><time>2026-04-24T14:59:22.797Z</time></trkpt><trkpt lat="43.4417348" lon="11.1672459"><ele>149.0</ele><time>2026-04-24T14:59:24.861Z</time></trkpt><trkpt lat="43.4416624" lon="11.1671718"><ele>149.0</ele><time>2026-04-24T14:59:26.799Z</time></trkpt><trkpt lat="43.4416021" lon="11.1670815"><ele>149.0</ele><time>2026-04-24T14:59:28.802Z</time></trkpt><trkpt lat="43.4415544" lon="11.1669951"><ele>149.0</ele><time>2026-04-24T14:59:30.863Z</time></trkpt><trkpt lat="43.4415447" lon="11.1668999"><ele>149.0</ele><time>2026-04-24T14:59:32.8Z</time></trkpt><trkpt lat="43.4415816" lon="11.1668158"><ele>149.0</ele><time>2026-04-24T14:59:34.835Z</time></trkpt><trkpt lat="43.4416219" lon="11.1667272"><ele>149.0</ele><time>2026-04-24T14:59:36.788Z</time></trkpt><trkpt lat="43.4416736" lon="11.1666571"><ele>149.0</ele><time>2026-04-24T14:59:38.783Z</time></trkpt><trkpt lat="43.4417575" lon="11.1666195"><ele>149.0</ele><time>2026-04-24T14:59:41.775Z</time></trkpt><trkpt lat="43.4418225" lon="11.1665782"><ele>149.0</ele><time>2026-04-24T14:59:44.786Z</time></trkpt><trkpt lat="43.4418649" lon="11.1664903"><ele>149.0</ele><time>2026-04-24T14:59:47.792Z</time></trkpt><trkpt lat="43.4418393" lon="11.1663872"><ele>149.0</ele><time>2026-04-24T14:59:50.806Z</time></trkpt><trkpt lat="43.441803" lon="11.1662693"><ele>149.0</ele><time>2026-04-24T14:59:53.898Z</time></trkpt><trkpt lat="43.4417704" lon="11.1661547"><ele>149.0</ele><time>2026-04-24T14:59:56.802Z</time></trkpt><trkpt lat="43.4417519" lon="11.1660569"><ele>149.0</ele><time>2026-04-24T14:59:58.816Z</time></trkpt><trkpt lat="43.4417236" lon="11.1659461"><ele>149.0</ele><time>2026-04-24T15:00:00.865Z</time></trkpt><trkpt lat="43.441684" lon="11.1658361"><ele>149.0</ele><time>2026-04-24T15:00:02.808Z</time></trkpt><trkpt lat="43.4416727" lon="11.1657254"><ele>149.0</ele><time>2026-04-24T15:00:04.773Z</time></trkpt><trkpt lat="43.4416802" lon="11.1656075"><ele>149.0</ele><time>2026-04-24T15:00:07.803Z</time></trkpt><trkpt lat="43.4417057" lon="11.165516"><ele>149.33333333333331</ele><time>2026-04-24T15:00:11.804Z</time></trkpt><trkpt lat="43.4417701" lon="11.1654544"><ele>149.66666666666666</ele><time>2026-04-24T15:00:16.802Z</time></trkpt><trkpt lat="43.4418005" lon="11.1653686"><ele>150.0</ele><time>2026-04-24T15:00:19.804Z</time></trkpt><trkpt lat="43.4417934" lon="11.1652635"><ele>150.33333333333334</ele><time>2026-04-24T15:00:21.784Z</time></trkpt><trkpt lat="43.4417745" lon="11.16515"><ele>150.66666666666669</ele><time>2026-04-24T15:00:23.8Z</time></trkpt><trkpt lat="43.441736" lon="11.1649877"><ele>151.0</ele><time>2026-04-24T15:00:25.78Z</time></trkpt><trkpt lat="43.441716" lon="11.1649042"><ele>150.8</ele><time>2026-04-24T15:00:26.795Z</time></trkpt><trkpt lat="43.4416967" lon="11.1648193"><ele>150.6</ele><time>2026-04-24T15:00:27.801Z</time></trkpt><trkpt lat="43.4416529" lon="11.1646613"><ele>150.4</ele><time>2026-04-24T15:00:29.786Z</time></trkpt><trkpt lat="43.4416068" lon="11.1645108"><ele>150.2</ele><time>2026-04-24T15:00:31.797Z</time></trkpt><trkpt lat="43.4415626" lon="11.1643537"><ele>150.0</ele><time>2026-04-24T15:00:33.794Z</time></trkpt><trkpt lat="43.4415328" lon="11.1642745"><ele>150.0</ele><time>2026-04-24T15:00:34.786Z</time></trkpt><trkpt lat="43.4414752" lon="11.1641436"><ele>150.0</ele><time>2026-04-24T15:00:36.801Z</time></trkpt><trkpt lat="43.4414336" lon="11.1640336"><ele>150.0</ele><time>2026-04-24T15:00:38.805Z</time></trkpt><trkpt lat="43.441402" lon="11.163914"><ele>150.0</ele><time>2026-04-24T15:00:41.792Z</time></trkpt><trkpt lat="43.441371" lon="11.1638324"><ele>150.0</ele><time>2026-04-24T15:00:43.808Z</time></trkpt><trkpt lat="43.4413516" lon="11.1637331"><ele>150.0</ele><time>2026-04-24T15:00:45.803Z</time></trkpt><trkpt lat="43.4413168" lon="11.1636317"><ele>149.4</ele><time>2026-04-24T15:00:47.81Z</time></trkpt><trkpt lat="43.4412787" lon="11.1635148"><ele>148.8</ele><time>2026-04-24T15:00:49.799Z</time></trkpt><trkpt lat="43.4412485" lon="11.1633853"><ele>148.2</ele><time>2026-04-24T15:00:51.811Z</time></trkpt><trkpt lat="43.4412141" lon="11.1632604"><ele>147.6</ele><time>2026-04-24T15:00:53.781Z</time></trkpt><trkpt lat="43.4411666" lon="11.1631341"><ele>147.0</ele><time>2026-04-24T15:00:55.805Z</time></trkpt><trkpt lat="43.4411279" lon="11.163002"><ele>146.5</ele><time>2026-04-24T15:00:57.8Z</time></trkpt><trkpt lat="43.4411249" lon="11.1628689"><ele>146.0</ele><time>2026-04-24T15:00:59.805Z</time></trkpt><trkpt lat="43.4411654" lon="11.1627508"><ele>145.5</ele><time>2026-04-24T15:01:01.806Z</time></trkpt><trkpt lat="43.4412016" lon="11.1626375"><ele>145.0</ele><time>2026-04-24T15:01:03.808Z</time></trkpt><trkpt lat="43.44124" lon="11.1625287"><ele>144.5</ele><time>2026-04-24T15:01:05.813Z</time></trkpt><trkpt lat="43.4412847" lon="11.1624388"><ele>144.0</ele><time>2026-04-24T15:01:07.82Z</time></trkpt><trkpt lat="43.4412799" lon="11.1623281"><ele>143.66666666666666</ele><time>2026-04-24T15:01:09.807Z</time></trkpt><trkpt lat="43.4412572" lon="11.1622203"><ele>143.33333333333334</ele><time>2026-04-24T15:01:11.792Z</time></trkpt><trkpt lat="43.441219" lon="11.1621132"><ele>143.0</ele><time>2026-04-24T15:01:13.801Z</time></trkpt><trkpt lat="43.4411917" lon="11.1619654"><ele>142.66666666666669</ele><time>2026-04-24T15:01:15.869Z</time></trkpt><trkpt lat="43.4411893" lon="11.1618624"><ele>142.33333333333334</ele><time>2026-04-24T15:01:16.778Z</time></trkpt><trkpt lat="43.4411384" lon="11.1617842"><ele>142.0</ele><time>2026-04-24T15:01:18.86Z</time></trkpt><trkpt lat="43.4410686" lon="11.1616778"><ele>142.0</ele><time>2026-04-24T15:01:20.867Z</time></trkpt><trkpt lat="43.4410502" lon="11.1615753"><ele>142.0</ele><time>2026-04-24T15:01:22.793Z</time></trkpt><trkpt lat="43.4411054" lon="11.1615197"><ele>142.0</ele><time>2026-04-24T15:01:24.808Z</time></trkpt><trkpt lat="43.4411808" lon="11.1615279"><ele>142.0</ele><time>2026-04-24T15:01:26.789Z</time></trkpt><trkpt lat="43.4412497" lon="11.1615836"><ele>142.0</ele><time>2026-04-24T15:01:28.799Z</time></trkpt><trkpt lat="43.441331" lon="11.1616272"><ele>142.0</ele><time>2026-04-24T15:01:30.79Z</time></trkpt><trkpt lat="43.4414049" lon="11.1616872"><ele>142.33333333333334</ele><time>2026-04-24T15:01:32.802Z</time></trkpt><trkpt lat="43.4414822" lon="11.1617444"><ele>142.66666666666669</ele><time>2026-04-24T15:01:34.855Z</time></trkpt><trkpt lat="43.4415598" lon="11.1618032"><ele>143.0</ele><time>2026-04-24T15:01:36.798Z</time></trkpt><trkpt lat="43.4416281" lon="11.1618513"><ele>143.33333333333334</ele><time>2026-04-24T15:01:38.803Z</time></trkpt><trkpt lat="43.4416973" lon="11.1619125"><ele>143.66666666666666</ele><time>2026-04-24T15:01:41.789Z</time></trkpt><trkpt lat="43.441749" lon="11.1620003"><ele>144.0</ele><time>2026-04-24T15:01:44.865Z</time></trkpt><trkpt lat="43.441685" lon="11.1619567"><ele>144.0</ele><time>2026-04-24T15:02:40.87Z</time></trkpt><trkpt lat="43.4417134" lon="11.1620468"><ele>144.0</ele><time>2026-04-24T15:03:00.859Z</time></trkpt><trkpt lat="43.4416933" lon="11.1619456"><ele>144.0</ele><time>2026-04-24T15:05:16.797Z</time></trkpt><trkpt lat="43.4416614" lon="11.1618578"><ele>144.0</ele><time>2026-04-24T15:05:19.798Z</time></trkpt><trkpt lat="43.4415938" lon="11.1617777"><ele>144.0</ele><time>2026-04-24T15:05:22.805Z</time></trkpt><trkpt lat="43.4415243" lon="11.1617505"><ele>144.0</ele><time>2026-04-24T15:05:24.804Z</time></trkpt><trkpt lat="43.4414508" lon="11.1616912"><ele>144.0</ele><time>2026-04-24T15:05:26.804Z</time></trkpt><trkpt lat="43.4413682" lon="11.1616252"><ele>144.0</ele><time>2026-04-24T15:05:28.867Z</time></trkpt><trkpt lat="43.4412665" lon="11.1615626"><ele>144.0</ele><time>2026-04-24T15:05:30.871Z</time></trkpt><trkpt lat="43.441174" lon="11.1614854"><ele>144.0</ele><time>2026-04-24T15:05:32.79Z</time></trkpt><trkpt lat="43.4410841" lon="11.1614387"><ele>144.0</ele><time>2026-04-24T15:05:34.871Z</time></trkpt><trkpt lat="43.4409857" lon="11.1613891"><ele>143.2</ele><time>2026-04-24T15:05:36.796Z</time></trkpt><trkpt lat="43.4408951" lon="11.161314"><ele>142.4</ele><time>2026-04-24T15:05:38.871Z</time></trkpt><trkpt lat="43.4408001" lon="11.1612596"><ele>141.6</ele><time>2026-04-24T15:05:40.812Z</time></trkpt><trkpt lat="43.4406996" lon="11.161206"><ele>140.8</ele><time>2026-04-24T15:05:42.801Z</time></trkpt><trkpt lat="43.4406308" lon="11.1611085"><ele>140.0</ele><time>2026-04-24T15:05:44.86Z</time></trkpt><trkpt lat="43.4405764" lon="11.160978"><ele>140.0</ele><time>2026-04-24T15:05:46.792Z</time></trkpt><trkpt lat="43.4406041" lon="11.1608258"><ele>140.0</ele><time>2026-04-24T15:05:48.787Z</time></trkpt><trkpt lat="43.440633" lon="11.1606979"><ele>140.0</ele><time>2026-04-24T15:05:50.793Z</time></trkpt><trkpt lat="43.4406715" lon="11.1605579"><ele>140.0</ele><time>2026-04-24T15:05:52.799Z</time></trkpt><trkpt lat="43.4407072" lon="11.160428"><ele>140.0</ele><time>2026-04-24T15:05:54.801Z</time></trkpt><trkpt lat="43.4407466" lon="11.1602938"><ele>140.0</ele><time>2026-04-24T15:05:56.81Z</time></trkpt><trkpt lat="43.4407871" lon="11.1601602"><ele>140.0</ele><time>2026-04-24T15:05:58.808Z</time></trkpt><trkpt lat="43.4408298" lon="11.160031"><ele>140.0</ele><time>2026-04-24T15:06:00.864Z</time></trkpt><trkpt lat="43.4408705" lon="11.1598924"><ele>140.0</ele><time>2026-04-24T15:06:02.799Z</time></trkpt><trkpt lat="43.4409044" lon="11.1597401"><ele>140.0</ele><time>2026-04-24T15:06:04.879Z</time></trkpt><trkpt lat="43.4409776" lon="11.1596062"><ele>139.0</ele><time>2026-04-24T15:06:06.785Z</time></trkpt><trkpt lat="43.4410386" lon="11.1594634"><ele>138.0</ele><time>2026-04-24T15:06:08.858Z</time></trkpt><trkpt lat="43.4411127" lon="11.1593093"><ele>137.0</ele><time>2026-04-24T15:06:10.868Z</time></trkpt><trkpt lat="43.4412185" lon="11.1589477"><ele>136.6</ele><time>2026-04-24T15:06:15.867Z</time></trkpt><trkpt lat="43.441276" lon="11.1588885"><ele>136.2</ele><time>2026-04-24T15:06:16.804Z</time></trkpt><trkpt lat="43.4413155" lon="11.1587784"><ele>135.8</ele><time>2026-04-24T15:06:17.799Z</time></trkpt><trkpt lat="43.4413866" lon="11.1587077"><ele>135.4</ele><time>2026-04-24T15:06:19.867Z</time></trkpt><trkpt lat="43.4414488" lon="11.1585803"><ele>135.0</ele><time>2026-04-24T15:06:21.775Z</time></trkpt><trkpt lat="43.4415227" lon="11.1584603"><ele>135.0</ele><time>2026-04-24T15:06:23.795Z</time></trkpt><trkpt lat="43.4416034" lon="11.1583406"><ele>135.0</ele><time>2026-04-24T15:06:25.797Z</time></trkpt><trkpt lat="43.4416952" lon="11.1582353"><ele>135.0</ele><time>2026-04-24T15:06:27.793Z</time></trkpt><trkpt lat="43.441791" lon="11.1581383"><ele>135.0</ele><time>2026-04-24T15:06:29.792Z</time></trkpt><trkpt lat="43.4418873" lon="11.1580436"><ele>134.83333333333334</ele><time>2026-04-24T15:06:31.781Z</time></trkpt><trkpt lat="43.4419729" lon="11.1579478"><ele>134.66666666666666</ele><time>2026-04-24T15:06:33.77Z</time></trkpt><trkpt lat="43.4420347" lon="11.157865"><ele>134.5</ele><time>2026-04-24T15:06:35.781Z</time></trkpt><trkpt lat="43.4421138" lon="11.1577647"><ele>134.33333333333331</ele><time>2026-04-24T15:06:37.802Z</time></trkpt><trkpt lat="43.4421683" lon="11.1577127"><ele>134.16666666666666</ele><time>2026-04-24T15:06:38.774Z</time></trkpt><trkpt lat="43.4422236" lon="11.1576605"><ele>134.0</ele><time>2026-04-24T15:06:39.803Z</time></trkpt><trkpt lat="43.4422787" lon="11.1576049"><ele>134.0</ele><time>2026-04-24T15:06:40.782Z</time></trkpt><trkpt lat="43.4423344" lon="11.1575518"><ele>134.0</ele><time>2026-04-24T15:06:41.802Z</time></trkpt><trkpt lat="43.4423907" lon="11.1575009"><ele>134.0</ele><time>2026-04-24T15:06:42.799Z</time></trkpt><trkpt lat="43.4424471" lon="11.1574475"><ele>134.0</ele><time>2026-04-24T15:06:43.796Z</time></trkpt><trkpt lat="43.4425041" lon="11.157395"><ele>134.0</ele><time>2026-04-24T15:06:44.809Z</time></trkpt><trkpt lat="43.4425619" lon="11.1573455"><ele>134.0</ele><time>2026-04-24T15:06:45.797Z</time></trkpt><trkpt lat="43.4426219" lon="11.1572982"><ele>134.0</ele><time>2026-04-24T15:06:46.811Z</time></trkpt><trkpt lat="43.4426845" lon="11.1572558"><ele>133.71428571428572</ele><time>2026-04-24T15:06:47.81Z</time></trkpt><trkpt lat="43.4427464" lon="11.157218"><ele>133.42857142857142</ele><time>2026-04-24T15:06:48.786Z</time></trkpt><trkpt lat="43.4428098" lon="11.157179"><ele>133.14285714285714</ele><time>2026-04-24T15:06:49.797Z</time></trkpt><trkpt lat="43.442869" lon="11.1571359"><ele>132.85714285714286</ele><time>2026-04-24T15:06:50.819Z</time></trkpt><trkpt lat="43.4429246" lon="11.1570936"><ele>132.57142857142858</ele><time>2026-04-24T15:06:51.801Z</time></trkpt><trkpt lat="43.4429815" lon="11.1570497"><ele>132.28571428571428</ele><time>2026-04-24T15:06:52.803Z</time></trkpt><trkpt lat="43.4430413" lon="11.1570075"><ele>132.0</ele><time>2026-04-24T15:06:53.819Z</time></trkpt><trkpt lat="43.4431021" lon="11.1569682"><ele>132.0</ele><time>2026-04-24T15:06:54.816Z</time></trkpt><trkpt lat="43.4431621" lon="11.15693"><ele>132.0</ele><time>2026-04-24T15:06:55.807Z</time></trkpt><trkpt lat="43.4432219" lon="11.1568896"><ele>132.0</ele><time>2026-04-24T15:06:56.805Z</time></trkpt><trkpt lat="43.4432798" lon="11.1568498"><ele>132.0</ele><time>2026-04-24T15:06:57.799Z</time></trkpt><trkpt lat="43.4433385" lon="11.1568098"><ele>132.0</ele><time>2026-04-24T15:06:58.798Z</time></trkpt><trkpt lat="43.4433965" lon="11.1567706"><ele>132.0</ele><time>2026-04-24T15:06:59.813Z</time></trkpt><trkpt lat="43.4435075" lon="11.1566903"><ele>132.0</ele><time>2026-04-24T15:07:01.795Z</time></trkpt><trkpt lat="43.4436077" lon="11.1566155"><ele>132.0</ele><time>2026-04-24T15:07:03.8Z</time></trkpt><trkpt lat="43.4437041" lon="11.1565412"><ele>132.0</ele><time>2026-04-24T15:07:05.799Z</time></trkpt><trkpt lat="43.4438054" lon="11.1564612"><ele>132.0</ele><time>2026-04-24T15:07:07.792Z</time></trkpt><trkpt lat="43.4439672" lon="11.1563517"><ele>131.4</ele><time>2026-04-24T15:07:10.799Z</time></trkpt><trkpt lat="43.4440842" lon="11.1563002"><ele>130.79999999999998</ele><time>2026-04-24T15:07:12.8Z</time></trkpt><trkpt lat="43.4441932" lon="11.1562573"><ele>130.2</ele><time>2026-04-24T15:07:14.785Z</time></trkpt><trkpt lat="43.4442981" lon="11.1562491"><ele>129.6</ele><time>2026-04-24T15:07:16.788Z</time></trkpt><trkpt lat="43.444382" lon="11.1562615"><ele>129.0</ele><time>2026-04-24T15:07:18.774Z</time></trkpt><trkpt lat="43.4444587" lon="11.1562124"><ele>129.0</ele><time>2026-04-24T15:07:20.774Z</time></trkpt><trkpt lat="43.4445446" lon="11.1561697"><ele>129.0</ele><time>2026-04-24T15:07:22.813Z</time></trkpt><trkpt lat="43.4446373" lon="11.1561429"><ele>129.0</ele><time>2026-04-24T15:07:24.882Z</time></trkpt><trkpt lat="43.4447258" lon="11.1561262"><ele>129.0</ele><time>2026-04-24T15:07:26.794Z</time></trkpt><trkpt lat="43.4448191" lon="11.1561242"><ele>129.0</ele><time>2026-04-24T15:07:28.791Z</time></trkpt><trkpt lat="43.4449108" lon="11.1561263"><ele>129.5</ele><time>2026-04-24T15:07:30.806Z</time></trkpt><trkpt lat="43.4449977" lon="11.1561311"><ele>130.0</ele><time>2026-04-24T15:07:32.79Z</time></trkpt><trkpt lat="43.4450825" lon="11.1561432"><ele>130.5</ele><time>2026-04-24T15:07:34.794Z</time></trkpt><trkpt lat="43.4451635" lon="11.1561618"><ele>131.0</ele><time>2026-04-24T15:07:36.807Z</time></trkpt><trkpt lat="43.445242" lon="11.1561848"><ele>131.5</ele><time>2026-04-24T15:07:38.799Z</time></trkpt><trkpt lat="43.445322" lon="11.1561998"><ele>132.0</ele><time>2026-04-24T15:07:40.787Z</time></trkpt><trkpt lat="43.4454069" lon="11.1562142"><ele>131.16666666666666</ele><time>2026-04-24T15:07:42.798Z</time></trkpt><trkpt lat="43.445489" lon="11.1562353"><ele>130.33333333333334</ele><time>2026-04-24T15:07:44.798Z</time></trkpt><trkpt lat="43.4455673" lon="11.1562624"><ele>129.5</ele><time>2026-04-24T15:07:46.795Z</time></trkpt><trkpt lat="43.4456461" lon="11.1562827"><ele>128.66666666666669</ele><time>2026-04-24T15:07:48.794Z</time></trkpt><trkpt lat="43.4457281" lon="11.1562959"><ele>127.83333333333334</ele><time>2026-04-24T15:07:50.799Z</time></trkpt><trkpt lat="43.4458115" lon="11.1563153"><ele>127.0</ele><time>2026-04-24T15:07:52.79Z</time></trkpt><trkpt lat="43.4459023" lon="11.1563344"><ele>127.0</ele><time>2026-04-24T15:07:54.797Z</time></trkpt><trkpt lat="43.4459962" lon="11.1563376"><ele>126.99999999999999</ele><time>2026-04-24T15:07:56.774Z</time></trkpt><trkpt lat="43.4461005" lon="11.1563346"><ele>126.99999999999999</ele><time>2026-04-24T15:07:58.8Z</time></trkpt><trkpt lat="43.4462078" lon="11.1563252"><ele>127.0</ele><time>2026-04-24T15:08:00.869Z</time></trkpt><trkpt lat="43.4463173" lon="11.1563007"><ele>127.0</ele><time>2026-04-24T15:08:02.787Z</time></trkpt><trkpt lat="43.4464312" lon="11.1562683"><ele>126.5</ele><time>2026-04-24T15:08:04.879Z</time></trkpt><trkpt lat="43.4465502" lon="11.156234"><ele>126.0</ele><time>2026-04-24T15:08:06.79Z</time></trkpt><trkpt lat="43.4466683" lon="11.1562039"><ele>125.5</ele><time>2026-04-24T15:08:08.795Z</time></trkpt><trkpt lat="43.4467869" lon="11.1561783"><ele>125.0</ele><time>2026-04-24T15:08:10.801Z</time></trkpt><trkpt lat="43.4469031" lon="11.1561565"><ele>125.0</ele><time>2026-04-24T15:08:12.807Z</time></trkpt><trkpt lat="43.4470136" lon="11.1561359"><ele>125.0</ele><time>2026-04-24T15:08:14.811Z</time></trkpt><trkpt lat="43.4471245" lon="11.1561176"><ele>125.0</ele><time>2026-04-24T15:08:16.81Z</time></trkpt><trkpt lat="43.44723" lon="11.1560976"><ele>125.0</ele><time>2026-04-24T15:08:18.797Z</time></trkpt><trkpt lat="43.4473268" lon="11.1560908"><ele>125.0</ele><time>2026-04-24T15:08:20.78Z</time></trkpt><trkpt lat="43.4474118" lon="11.1560795"><ele>126.33333333333333</ele><time>2026-04-24T15:08:22.803Z</time></trkpt><trkpt lat="43.4474845" lon="11.1560623"><ele>127.66666666666666</ele><time>2026-04-24T15:08:24.784Z</time></trkpt><trkpt lat="43.4475548" lon="11.1560337"><ele>129.0</ele><time>2026-04-24T15:08:26.789Z</time></trkpt><trkpt lat="43.4476301" lon="11.1560052"><ele>130.33333333333334</ele><time>2026-04-24T15:08:28.803Z</time></trkpt><trkpt lat="43.4477049" lon="11.1559685"><ele>131.66666666666669</ele><time>2026-04-24T15:08:30.796Z</time></trkpt><trkpt lat="43.4477905" lon="11.1559113"><ele>133.0</ele><time>2026-04-24T15:08:32.792Z</time></trkpt><trkpt lat="43.4478771" lon="11.1558428"><ele>133.8</ele><time>2026-04-24T15:08:34.784Z</time></trkpt><trkpt lat="43.4479709" lon="11.1557674"><ele>134.60000000000002</ele><time>2026-04-24T15:08:36.791Z</time></trkpt><trkpt lat="43.4480572" lon="11.155688"><ele>135.39999999999998</ele><time>2026-04-24T15:08:38.811Z</time></trkpt><trkpt lat="43.4481359" lon="11.1556171"><ele>136.2</ele><time>2026-04-24T15:08:40.805Z</time></trkpt><trkpt lat="43.4482053" lon="11.1555467"><ele>137.0</ele><time>2026-04-24T15:08:42.794Z</time></trkpt><trkpt lat="43.4482725" lon="11.1554742"><ele>135.66666666666666</ele><time>2026-04-24T15:08:44.795Z</time></trkpt><trkpt lat="43.4483494" lon="11.1553889"><ele>134.33333333333331</ele><time>2026-04-24T15:08:46.791Z</time></trkpt><trkpt lat="43.448453" lon="11.1552897"><ele>133.0</ele><time>2026-04-24T15:08:48.799Z</time></trkpt><trkpt lat="43.4485083" lon="11.155238"><ele>131.66666666666666</ele><time>2026-04-24T15:08:49.79Z</time></trkpt><trkpt lat="43.4485693" lon="11.1551893"><ele>130.33333333333334</ele><time>2026-04-24T15:08:50.806Z</time></trkpt><trkpt lat="43.4486332" lon="11.1551479"><ele>129.0</ele><time>2026-04-24T15:08:51.789Z</time></trkpt><trkpt lat="43.4487021" lon="11.1551154"><ele>128.99999999999997</ele><time>2026-04-24T15:08:52.815Z</time></trkpt><trkpt lat="43.4487703" lon="11.1550992"><ele>129.0</ele><time>2026-04-24T15:08:53.785Z</time></trkpt><trkpt lat="43.4488396" lon="11.1550821"><ele>129.0</ele><time>2026-04-24T15:08:54.804Z</time></trkpt><trkpt lat="43.4489071" lon="11.1550696"><ele>129.0</ele><time>2026-04-24T15:08:55.808Z</time></trkpt><trkpt lat="43.4489764" lon="11.1550591"><ele>129.0</ele><time>2026-04-24T15:08:56.804Z</time></trkpt><trkpt lat="43.4490424" lon="11.1550494"><ele>128.99999999999997</ele><time>2026-04-24T15:08:57.789Z</time></trkpt><trkpt lat="43.4491081" lon="11.15504"><ele>129.0</ele><time>2026-04-24T15:08:58.785Z</time></trkpt><trkpt lat="43.4491744" lon="11.1550301"><ele>129.7142857142857</ele><time>2026-04-24T15:08:59.806Z</time></trkpt><trkpt lat="43.4492373" lon="11.1550198"><ele>130.42857142857142</ele><time>2026-04-24T15:09:00.794Z</time></trkpt><trkpt lat="43.4493004" lon="11.1550119"><ele>131.14285714285714</ele><time>2026-04-24T15:09:01.801Z</time></trkpt><trkpt lat="43.4493645" lon="11.1550036"><ele>131.85714285714283</ele><time>2026-04-24T15:09:02.8Z</time></trkpt><trkpt lat="43.4494294" lon="11.1549926"><ele>132.57142857142856</ele><time>2026-04-24T15:09:03.785Z</time></trkpt><trkpt lat="43.4494959" lon="11.1549802"><ele>133.28571428571428</ele><time>2026-04-24T15:09:04.8Z</time></trkpt><trkpt lat="43.4495621" lon="11.1549671"><ele>134.0</ele><time>2026-04-24T15:09:05.802Z</time></trkpt><trkpt lat="43.4496274" lon="11.1549565"><ele>134.16666666666666</ele><time>2026-04-24T15:09:06.808Z</time></trkpt><trkpt lat="43.449691" lon="11.154946"><ele>134.33333333333331</ele><time>2026-04-24T15:09:07.789Z</time></trkpt><trkpt lat="43.4497551" lon="11.1549345"><ele>134.5</ele><time>2026-04-24T15:09:08.796Z</time></trkpt><trkpt lat="43.4498186" lon="11.1549228"><ele>134.66666666666666</ele><time>2026-04-24T15:09:09.812Z</time></trkpt><trkpt lat="43.4499431" lon="11.1549004"><ele>134.83333333333334</ele><time>2026-04-24T15:09:11.811Z</time></trkpt><trkpt lat="43.4500652" lon="11.1548898"><ele>135.0</ele><time>2026-04-24T15:09:13.809Z</time></trkpt><trkpt lat="43.4501903" lon="11.1548706"><ele>133.75</ele><time>2026-04-24T15:09:15.793Z</time></trkpt><trkpt lat="43.4503118" lon="11.1548354"><ele>132.5</ele><time>2026-04-24T15:09:17.806Z</time></trkpt><trkpt lat="43.450422" lon="11.1547747"><ele>131.25</ele><time>2026-04-24T15:09:19.801Z</time></trkpt><trkpt lat="43.450521" lon="11.1546848"><ele>130.0</ele><time>2026-04-24T15:09:21.803Z</time></trkpt><trkpt lat="43.4505874" lon="11.154551"><ele>129.4</ele><time>2026-04-24T15:09:23.803Z</time></trkpt><trkpt lat="43.4506564" lon="11.1544123"><ele>128.8</ele><time>2026-04-24T15:09:25.8Z</time></trkpt><trkpt lat="43.4507228" lon="11.1542618"><ele>128.2</ele><time>2026-04-24T15:09:27.792Z</time></trkpt><trkpt lat="43.4507561" lon="11.1541837"><ele>127.6</ele><time>2026-04-24T15:09:28.811Z</time></trkpt><trkpt lat="43.4508193" lon="11.1540357"><ele>127.0</ele><time>2026-04-24T15:09:30.813Z</time></trkpt><trkpt lat="43.4508824" lon="11.1538989"><ele>127.0</ele><time>2026-04-24T15:09:32.799Z</time></trkpt><trkpt lat="43.4509519" lon="11.1537672"><ele>127.0</ele><time>2026-04-24T15:09:34.814Z</time></trkpt><trkpt lat="43.4510221" lon="11.1536304"><ele>127.0</ele><time>2026-04-24T15:09:36.8Z</time></trkpt><trkpt lat="43.4510935" lon="11.1534963"><ele>127.0</ele><time>2026-04-24T15:09:38.81Z</time></trkpt><trkpt lat="43.4511605" lon="11.1533614"><ele>127.0</ele><time>2026-04-24T15:09:40.795Z</time></trkpt><trkpt lat="43.4512025" lon="11.1532207"><ele>126.99999999999999</ele><time>2026-04-24T15:09:42.813Z</time></trkpt><trkpt lat="43.4512047" lon="11.1531118"><ele>126.99999999999999</ele><time>2026-04-24T15:09:44.801Z</time></trkpt><trkpt lat="43.4511731" lon="11.1530078"><ele>127.0</ele><time>2026-04-24T15:09:46.804Z</time></trkpt><trkpt lat="43.4511281" lon="11.1529016"><ele>127.0</ele><time>2026-04-24T15:09:48.8Z</time></trkpt><trkpt lat="43.4510788" lon="11.1527809"><ele>126.33333333333334</ele><time>2026-04-24T15:09:50.824Z</time></trkpt><trkpt lat="43.4510199" lon="11.152692"><ele>125.66666666666667</ele><time>2026-04-24T15:09:52.804Z</time></trkpt><trkpt lat="43.4509506" lon="11.1526328"><ele>125.0</ele><time>2026-04-24T15:09:54.819Z</time></trkpt><trkpt lat="43.4508881" lon="11.1525618"><ele>124.33333333333334</ele><time>2026-04-24T15:09:56.797Z</time></trkpt><trkpt lat="43.4508255" lon="11.1524844"><ele>123.66666666666667</ele><time>2026-04-24T15:09:58.808Z</time></trkpt><trkpt lat="43.4507784" lon="11.1523973"><ele>123.0</ele><time>2026-04-24T15:10:00.802Z</time></trkpt><trkpt lat="43.4507565" lon="11.1522752"><ele>121.83333333333333</ele><time>2026-04-24T15:10:02.786Z</time></trkpt><trkpt lat="43.4507565" lon="11.1521403"><ele>120.66666666666666</ele><time>2026-04-24T15:10:04.8Z</time></trkpt><trkpt lat="43.4507784" lon="11.1520025"><ele>119.5</ele><time>2026-04-24T15:10:06.806Z</time></trkpt><trkpt lat="43.4508353" lon="11.1518676"><ele>118.33333333333333</ele><time>2026-04-24T15:10:08.813Z</time></trkpt><trkpt lat="43.4508866" lon="11.1518143"><ele>117.16666666666666</ele><time>2026-04-24T15:10:09.795Z</time></trkpt><trkpt lat="43.4509503" lon="11.1517702"><ele>116.0</ele><time>2026-04-24T15:10:10.814Z</time></trkpt><trkpt lat="43.4510239" lon="11.1517416"><ele>115.99999999999999</ele><time>2026-04-24T15:10:11.801Z</time></trkpt><trkpt lat="43.451105" lon="11.15174"><ele>116.0</ele><time>2026-04-24T15:10:12.799Z</time></trkpt><trkpt lat="43.4511886" lon="11.1517571"><ele>116.0</ele><time>2026-04-24T15:10:13.799Z</time></trkpt><trkpt lat="43.4512701" lon="11.1518038"><ele>116.0</ele><time>2026-04-24T15:10:14.802Z</time></trkpt><trkpt lat="43.4513449" lon="11.1518745"><ele>115.99999999999999</ele><time>2026-04-24T15:10:15.802Z</time></trkpt><trkpt lat="43.4514164" lon="11.1519571"><ele>116.0</ele><time>2026-04-24T15:10:16.792Z</time></trkpt><trkpt lat="43.4514857" lon="11.1520467"><ele>115.66666666666666</ele><time>2026-04-24T15:10:17.805Z</time></trkpt><trkpt lat="43.4515451" lon="11.1521218"><ele>115.33333333333333</ele><time>2026-04-24T15:10:18.804Z</time></trkpt><trkpt lat="43.4516009" lon="11.1521654"><ele>115.0</ele><time>2026-04-24T15:10:19.805Z</time></trkpt><trkpt lat="43.4516847" lon="11.1522384"><ele>114.66666666666666</ele><time>2026-04-24T15:10:21.808Z</time></trkpt><trkpt lat="43.4516779" lon="11.1523545"><ele>114.33333333333333</ele><time>2026-04-24T15:10:24.816Z</time></trkpt><trkpt lat="43.4517136" lon="11.1524334"><ele>114.0</ele><time>2026-04-24T15:10:26.809Z</time></trkpt><trkpt lat="43.4517759" lon="11.1525063"><ele>113.83333333333333</ele><time>2026-04-24T15:10:28.798Z</time></trkpt><trkpt lat="43.4518655" lon="11.1525497"><ele>113.66666666666666</ele><time>2026-04-24T15:10:30.819Z</time></trkpt><trkpt lat="43.4519665" lon="11.1525715"><ele>113.5</ele><time>2026-04-24T15:10:32.799Z</time></trkpt><trkpt lat="43.4520824" lon="11.15262"><ele>113.33333333333333</ele><time>2026-04-24T15:10:34.807Z</time></trkpt><trkpt lat="43.4521403" lon="11.1526585"><ele>113.16666666666666</ele><time>2026-04-24T15:10:35.793Z</time></trkpt><trkpt lat="43.4521957" lon="11.1527005"><ele>113.0</ele><time>2026-04-24T15:10:36.807Z</time></trkpt><trkpt lat="43.4522881" lon="11.1527839"><ele>112.66666666666666</ele><time>2026-04-24T15:10:38.8Z</time></trkpt><trkpt lat="43.4523084" lon="11.1528824"><ele>112.33333333333333</ele><time>2026-04-24T15:10:40.801Z</time></trkpt><trkpt lat="43.4522979" lon="11.1529994"><ele>112.0</ele><time>2026-04-24T15:10:42.797Z</time></trkpt><trkpt lat="43.4523188" lon="11.153102"><ele>111.66666666666666</ele><time>2026-04-24T15:10:44.815Z</time></trkpt><trkpt lat="43.4523452" lon="11.1531932"><ele>111.33333333333333</ele><time>2026-04-24T15:10:46.796Z</time></trkpt><trkpt lat="43.4523749" lon="11.153319"><ele>111.0</ele><time>2026-04-24T15:10:49.799Z</time></trkpt><trkpt lat="43.4523867" lon="11.1534386"><ele>110.4</ele><time>2026-04-24T15:10:51.809Z</time></trkpt><trkpt lat="43.4524062" lon="11.1535676"><ele>109.8</ele><time>2026-04-24T15:10:53.805Z</time></trkpt><trkpt lat="43.4524345" lon="11.1536846"><ele>109.20000000000002</ele><time>2026-04-24T15:10:55.818Z</time></trkpt><trkpt lat="43.4524548" lon="11.1538056"><ele>108.60000000000001</ele><time>2026-04-24T15:10:57.799Z</time></trkpt><trkpt lat="43.4524733" lon="11.1539281"><ele>108.0</ele><time>2026-04-24T15:10:59.805Z</time></trkpt><trkpt lat="43.452495" lon="11.1540532"><ele>108.0</ele><time>2026-04-24T15:11:01.803Z</time></trkpt><trkpt lat="43.4525204" lon="11.1541792"><ele>108.00000000000001</ele><time>2026-04-24T15:11:03.78Z</time></trkpt><trkpt lat="43.4525465" lon="11.1543072"><ele>108.00000000000001</ele><time>2026-04-24T15:11:05.805Z</time></trkpt><trkpt lat="43.4525779" lon="11.1544356"><ele>108.0</ele><time>2026-04-24T15:11:07.8Z</time></trkpt><trkpt lat="43.452626" lon="11.1545522"><ele>108.0</ele><time>2026-04-24T15:11:09.822Z</time></trkpt><trkpt lat="43.4526982" lon="11.1546452"><ele>108.0</ele><time>2026-04-24T15:11:11.804Z</time></trkpt><trkpt lat="43.4527852" lon="11.1547336"><ele>108.0</ele><time>2026-04-24T15:11:13.811Z</time></trkpt><trkpt lat="43.4528765" lon="11.1548207"><ele>108.0</ele><time>2026-04-24T15:11:15.813Z</time></trkpt><trkpt lat="43.4529729" lon="11.1549085"><ele>108.0</ele><time>2026-04-24T15:11:17.798Z</time></trkpt><trkpt lat="43.453069" lon="11.1549992"><ele>108.25</ele><time>2026-04-24T15:11:19.803Z</time></trkpt><trkpt lat="43.4531674" lon="11.1550915"><ele>108.5</ele><time>2026-04-24T15:11:21.807Z</time></trkpt><trkpt lat="43.4532627" lon="11.155173"><ele>108.75</ele><time>2026-04-24T15:11:23.799Z</time></trkpt><trkpt lat="43.4533634" lon="11.1552391"><ele>109.0</ele><time>2026-04-24T15:11:25.805Z</time></trkpt><trkpt lat="43.4534644" lon="11.1553006"><ele>109.0</ele><time>2026-04-24T15:11:27.804Z</time></trkpt><trkpt lat="43.4535689" lon="11.1553495"><ele>109.0</ele><time>2026-04-24T15:11:29.802Z</time></trkpt><trkpt lat="43.453669" lon="11.1553952"><ele>109.0</ele><time>2026-04-24T15:11:31.807Z</time></trkpt><trkpt lat="43.4536894" lon="11.155501"><ele>109.0</ele><time>2026-04-24T15:11:33.794Z</time></trkpt><trkpt lat="43.4536729" lon="11.1556348"><ele>109.0</ele><time>2026-04-24T15:11:35.805Z</time></trkpt><trkpt lat="43.4536583" lon="11.1557553"><ele>109.4</ele><time>2026-04-24T15:11:37.796Z</time></trkpt><trkpt lat="43.4537011" lon="11.1558617"><ele>109.80000000000001</ele><time>2026-04-24T15:11:39.803Z</time></trkpt><trkpt lat="43.453773" lon="11.1559625"><ele>110.19999999999999</ele><time>2026-04-24T15:11:41.803Z</time></trkpt><trkpt lat="43.4538514" lon="11.1560585"><ele>110.6</ele><time>2026-04-24T15:11:43.813Z</time></trkpt><trkpt lat="43.4539191" lon="11.1561598"><ele>111.0</ele><time>2026-04-24T15:11:45.81Z</time></trkpt><trkpt lat="43.4539872" lon="11.1562544"><ele>110.8</ele><time>2026-04-24T15:11:47.781Z</time></trkpt><trkpt lat="43.454066" lon="11.1563494"><ele>110.6</ele><time>2026-04-24T15:11:49.788Z</time></trkpt><trkpt lat="43.4541372" lon="11.1564454"><ele>110.4</ele><time>2026-04-24T15:11:51.809Z</time></trkpt><trkpt lat="43.4542123" lon="11.156551"><ele>110.2</ele><time>2026-04-24T15:11:53.806Z</time></trkpt><trkpt lat="43.4542877" lon="11.1566557"><ele>110.0</ele><time>2026-04-24T15:11:55.807Z</time></trkpt><trkpt lat="43.4543636" lon="11.1567537"><ele>110.0</ele><time>2026-04-24T15:11:57.793Z</time></trkpt><trkpt lat="43.4544343" lon="11.1568558"><ele>110.0</ele><time>2026-04-24T15:11:59.806Z</time></trkpt><trkpt lat="43.4545053" lon="11.1569595"><ele>110.0</ele><time>2026-04-24T15:12:01.808Z</time></trkpt><trkpt lat="43.4545732" lon="11.1570686"><ele>110.0</ele><time>2026-04-24T15:12:03.793Z</time></trkpt><trkpt lat="43.4546473" lon="11.1571768"><ele>110.0</ele><time>2026-04-24T15:12:05.794Z</time></trkpt><trkpt lat="43.4547182" lon="11.1572791"><ele>109.6</ele><time>2026-04-24T15:12:07.811Z</time></trkpt><trkpt lat="43.4547831" lon="11.1573847"><ele>109.2</ele><time>2026-04-24T15:12:09.795Z</time></trkpt><trkpt lat="43.4548492" lon="11.1574904"><ele>108.80000000000001</ele><time>2026-04-24T15:12:11.805Z</time></trkpt><trkpt lat="43.4549145" lon="11.157601"><ele>108.4</ele><time>2026-04-24T15:12:13.807Z</time></trkpt><trkpt lat="43.454977" lon="11.1577029"><ele>108.0</ele><time>2026-04-24T15:12:15.793Z</time></trkpt><trkpt lat="43.455037" lon="11.1577975"><ele>108.0</ele><time>2026-04-24T15:12:17.798Z</time></trkpt><trkpt lat="43.4551015" lon="11.1578922"><ele>108.00000000000001</ele><time>2026-04-24T15:12:19.806Z</time></trkpt><trkpt lat="43.4551742" lon="11.1579934"><ele>108.00000000000001</ele><time>2026-04-24T15:12:21.802Z</time></trkpt><trkpt lat="43.4552659" lon="11.1580664"><ele>108.0</ele><time>2026-04-24T15:12:23.778Z</time></trkpt><trkpt lat="43.4553701" lon="11.1580908"><ele>108.0</ele><time>2026-04-24T15:12:25.804Z</time></trkpt><trkpt lat="43.4554766" lon="11.1580867"><ele>107.83333333333333</ele><time>2026-04-24T15:12:27.816Z</time></trkpt><trkpt lat="43.4555901" lon="11.15808"><ele>107.66666666666666</ele><time>2026-04-24T15:12:29.797Z</time></trkpt><trkpt lat="43.4556557" lon="11.1580753"><ele>107.5</ele><time>2026-04-24T15:12:30.805Z</time></trkpt><trkpt lat="43.4557246" lon="11.1580768"><ele>107.33333333333333</ele><time>2026-04-24T15:12:31.799Z</time></trkpt><trkpt lat="43.4557973" lon="11.158081"><ele>107.16666666666666</ele><time>2026-04-24T15:12:32.809Z</time></trkpt><trkpt lat="43.4558695" lon="11.1580909"><ele>107.0</ele><time>2026-04-24T15:12:33.806Z</time></trkpt><trkpt lat="43.4559403" lon="11.158098"><ele>107.00000000000001</ele><time>2026-04-24T15:12:34.806Z</time></trkpt><trkpt lat="43.4560113" lon="11.158111"><ele>107.0</ele><time>2026-04-24T15:12:35.817Z</time></trkpt><trkpt lat="43.4560789" lon="11.1581266"><ele>107.0</ele><time>2026-04-24T15:12:36.797Z</time></trkpt><trkpt lat="43.4561467" lon="11.158142"><ele>107.0</ele><time>2026-04-24T15:12:37.812Z</time></trkpt><trkpt lat="43.4562103" lon="11.1581606"><ele>107.0</ele><time>2026-04-24T15:12:38.808Z</time></trkpt><trkpt lat="43.4562703" lon="11.1581904"><ele>107.00000000000001</ele><time>2026-04-24T15:12:39.8Z</time></trkpt><trkpt lat="43.4563285" lon="11.158232"><ele>107.0</ele><time>2026-04-24T15:12:40.805Z</time></trkpt><trkpt lat="43.456387" lon="11.1582696"><ele>106.8</ele><time>2026-04-24T15:12:41.812Z</time></trkpt><trkpt lat="43.4564437" lon="11.1583074"><ele>106.6</ele><time>2026-04-24T15:12:42.787Z</time></trkpt><trkpt lat="43.456552" lon="11.1583889"><ele>106.39999999999999</ele><time>2026-04-24T15:12:44.799Z</time></trkpt><trkpt lat="43.4566161" lon="11.1585016"><ele>106.19999999999999</ele><time>2026-04-24T15:12:46.803Z</time></trkpt><trkpt lat="43.4566439" lon="11.1586085"><ele>106.0</ele><time>2026-04-24T15:12:48.805Z</time></trkpt><trkpt lat="43.4567136" lon="11.1586895"><ele>106.00000000000001</ele><time>2026-04-24T15:12:51.806Z</time></trkpt><trkpt lat="43.4567864" lon="11.1586963"><ele>106.0</ele><time>2026-04-24T15:12:53.806Z</time></trkpt><trkpt lat="43.4568928" lon="11.1587054"><ele>106.0</ele><time>2026-04-24T15:12:55.797Z</time></trkpt><trkpt lat="43.4569597" lon="11.1587124"><ele>106.0</ele><time>2026-04-24T15:12:56.797Z</time></trkpt><trkpt lat="43.4570279" lon="11.1587236"><ele>106.00000000000001</ele><time>2026-04-24T15:12:57.797Z</time></trkpt><trkpt lat="43.4571513" lon="11.1587349"><ele>106.0</ele><time>2026-04-24T15:12:59.819Z</time></trkpt><trkpt lat="43.4572575" lon="11.1587614"><ele>106.16666666666667</ele><time>2026-04-24T15:13:01.803Z</time></trkpt><trkpt lat="43.4573549" lon="11.1587727"><ele>106.33333333333334</ele><time>2026-04-24T15:13:03.805Z</time></trkpt><trkpt lat="43.4574479" lon="11.1587911"><ele>106.5</ele><time>2026-04-24T15:13:05.799Z</time></trkpt><trkpt lat="43.4575307" lon="11.1587696"><ele>106.66666666666666</ele><time>2026-04-24T15:13:07.802Z</time></trkpt><trkpt lat="43.4576132" lon="11.1587328"><ele>106.83333333333333</ele><time>2026-04-24T15:13:09.804Z</time></trkpt><trkpt lat="43.4576863" lon="11.1586731"><ele>107.0</ele><time>2026-04-24T15:13:11.809Z</time></trkpt><trkpt lat="43.457762" lon="11.1586416"><ele>106.99999999999999</ele><time>2026-04-24T15:13:13.808Z</time></trkpt><trkpt lat="43.4578374" lon="11.1586991"><ele>107.0</ele><time>2026-04-24T15:13:15.817Z</time></trkpt><trkpt lat="43.4578654" lon="11.1588066"><ele>107.0</ele><time>2026-04-24T15:13:17.808Z</time></trkpt><trkpt lat="43.4579191" lon="11.1588797"><ele>107.0</ele><time>2026-04-24T15:13:19.821Z</time></trkpt><trkpt lat="43.4580049" lon="11.1589245"><ele>106.99999999999999</ele><time>2026-04-24T15:13:21.805Z</time></trkpt><trkpt lat="43.4580845" lon="11.1589762"><ele>107.0</ele><time>2026-04-24T15:13:23.805Z</time></trkpt><trkpt lat="43.4581469" lon="11.1590689"><ele>107.19999999999999</ele><time>2026-04-24T15:13:25.8Z</time></trkpt><trkpt lat="43.4582022" lon="11.1591672"><ele>107.39999999999999</ele><time>2026-04-24T15:13:27.808Z</time></trkpt><trkpt lat="43.4582561" lon="11.1592717"><ele>107.60000000000001</ele><time>2026-04-24T15:13:29.804Z</time></trkpt><trkpt lat="43.4583018" lon="11.1593807"><ele>107.80000000000001</ele><time>2026-04-24T15:13:31.816Z</time></trkpt><trkpt lat="43.4583477" lon="11.1594928"><ele>108.0</ele><time>2026-04-24T15:13:33.809Z</time></trkpt><trkpt lat="43.4583937" lon="11.159602"><ele>108.0</ele><time>2026-04-24T15:13:35.808Z</time></trkpt><trkpt lat="43.4584615" lon="11.1597035"><ele>108.00000000000001</ele><time>2026-04-24T15:13:37.807Z</time></trkpt><trkpt lat="43.4585187" lon="11.1598155"><ele>108.00000000000001</ele><time>2026-04-24T15:13:39.799Z</time></trkpt><trkpt lat="43.4585726" lon="11.1599322"><ele>108.0</ele><time>2026-04-24T15:13:41.799Z</time></trkpt><trkpt lat="43.4586398" lon="11.160031"><ele>108.0</ele><time>2026-04-24T15:13:43.807Z</time></trkpt><trkpt lat="43.4587177" lon="11.1600826"><ele>107.75</ele><time>2026-04-24T15:13:45.805Z</time></trkpt><trkpt lat="43.4588159" lon="11.1600359"><ele>107.5</ele><time>2026-04-24T15:13:47.796Z</time></trkpt><trkpt lat="43.4589246" lon="11.1599543"><ele>107.25</ele><time>2026-04-24T15:13:49.797Z</time></trkpt><trkpt lat="43.4590369" lon="11.1598893"><ele>107.0</ele><time>2026-04-24T15:13:51.795Z</time></trkpt><trkpt lat="43.4591462" lon="11.1598401"><ele>108.19999999999999</ele><time>2026-04-24T15:13:53.794Z</time></trkpt><trkpt lat="43.459257" lon="11.1597884"><ele>109.39999999999999</ele><time>2026-04-24T15:13:55.797Z</time></trkpt><trkpt lat="43.4593567" lon="11.1597461"><ele>110.60000000000001</ele><time>2026-04-24T15:13:57.802Z</time></trkpt><trkpt lat="43.4594524" lon="11.1597009"><ele>111.80000000000001</ele><time>2026-04-24T15:13:59.794Z</time></trkpt><trkpt lat="43.4595499" lon="11.1596591"><ele>113.0</ele><time>2026-04-24T15:14:01.799Z</time></trkpt><trkpt lat="43.4596497" lon="11.1596532"><ele>113.4</ele><time>2026-04-24T15:14:03.79Z</time></trkpt><trkpt lat="43.4597509" lon="11.1596469"><ele>113.80000000000001</ele><time>2026-04-24T15:14:05.806Z</time></trkpt><trkpt lat="43.4598519" lon="11.1596264"><ele>114.2</ele><time>2026-04-24T15:14:07.797Z</time></trkpt><trkpt lat="43.4599514" lon="11.1595896"><ele>114.6</ele><time>2026-04-24T15:14:09.852Z</time></trkpt><trkpt lat="43.4600157" lon="11.1595612"><ele>115.0</ele><time>2026-04-24T15:14:10.801Z</time></trkpt><trkpt lat="43.4600905" lon="11.1595318"><ele>115.0</ele><time>2026-04-24T15:14:11.789Z</time></trkpt><trkpt lat="43.4601829" lon="11.1595197"><ele>115.0</ele><time>2026-04-24T15:14:13.855Z</time></trkpt><trkpt lat="43.4602855" lon="11.1595107"><ele>115.0</ele><time>2026-04-24T15:14:15.862Z</time></trkpt><trkpt lat="43.460388" lon="11.1595063"><ele>115.0</ele><time>2026-04-24T15:14:17.788Z</time></trkpt><trkpt lat="43.4604956" lon="11.1594984"><ele>115.0</ele><time>2026-04-24T15:14:19.792Z</time></trkpt><trkpt lat="43.4605905" lon="11.1594927"><ele>115.2</ele><time>2026-04-24T15:14:21.78Z</time></trkpt><trkpt lat="43.4606868" lon="11.159518"><ele>115.4</ele><time>2026-04-24T15:14:23.855Z</time></trkpt><trkpt lat="43.4607758" lon="11.1595799"><ele>115.6</ele><time>2026-04-24T15:14:25.863Z</time></trkpt><trkpt lat="43.4608951" lon="11.1596124"><ele>115.8</ele><time>2026-04-24T15:14:27.798Z</time></trkpt><trkpt lat="43.4609839" lon="11.1596694"><ele>116.0</ele><time>2026-04-24T15:14:29.792Z</time></trkpt><trkpt lat="43.4610673" lon="11.1597291"><ele>115.99999999999999</ele><time>2026-04-24T15:14:31.785Z</time></trkpt><trkpt lat="43.4611545" lon="11.1597927"><ele>116.0</ele><time>2026-04-24T15:14:33.791Z</time></trkpt><trkpt lat="43.4612375" lon="11.1598475"><ele>116.0</ele><time>2026-04-24T15:14:35.801Z</time></trkpt><trkpt lat="43.4613068" lon="11.1599119"><ele>116.0</ele><time>2026-04-24T15:14:37.798Z</time></trkpt><trkpt lat="43.4613636" lon="11.1599742"><ele>115.99999999999999</ele><time>2026-04-24T15:14:39.801Z</time></trkpt><trkpt lat="43.4614146" lon="11.1600358"><ele>116.0</ele><time>2026-04-24T15:14:41.787Z</time></trkpt><trkpt lat="43.461416" lon="11.1601333"><ele>115.14285714285715</ele><time>2026-04-24T15:14:45.862Z</time></trkpt><trkpt lat="43.461353" lon="11.1601995"><ele>114.28571428571429</ele><time>2026-04-24T15:14:48.795Z</time></trkpt><trkpt lat="43.4612945" lon="11.1602614"><ele>113.42857142857143</ele><time>2026-04-24T15:14:51.798Z</time></trkpt><trkpt lat="43.461263" lon="11.1603378"><ele>112.57142857142858</ele><time>2026-04-24T15:14:53.778Z</time></trkpt><trkpt lat="43.4612197" lon="11.1604057"><ele>111.71428571428572</ele><time>2026-04-24T15:14:59.879Z</time></trkpt><trkpt lat="43.4611811" lon="11.1604755"><ele>110.85714285714285</ele><time>2026-04-24T15:15:01.774Z</time></trkpt><trkpt lat="43.4612136" lon="11.1605736"><ele>110.0</ele><time>2026-04-24T15:15:04.801Z</time></trkpt><trkpt lat="43.4612704" lon="11.1606414"><ele>109.16666666666666</ele><time>2026-04-24T15:15:06.798Z</time></trkpt><trkpt lat="43.4613312" lon="11.1607084"><ele>108.33333333333333</ele><time>2026-04-24T15:15:08.795Z</time></trkpt><trkpt lat="43.461388" lon="11.1607686"><ele>107.5</ele><time>2026-04-24T15:15:10.801Z</time></trkpt><trkpt lat="43.4614475" lon="11.160821"><ele>106.66666666666666</ele><time>2026-04-24T15:15:12.79Z</time></trkpt><trkpt lat="43.4615041" lon="11.1608856"><ele>105.83333333333333</ele><time>2026-04-24T15:15:14.79Z</time></trkpt><trkpt lat="43.4615711" lon="11.1609435"><ele>105.0</ele><time>2026-04-24T15:15:16.78Z</time></trkpt><trkpt lat="43.461645" lon="11.1609931"><ele>105.0</ele><time>2026-04-24T15:15:18.859Z</time></trkpt><trkpt lat="43.461721" lon="11.1610409"><ele>105.0</ele><time>2026-04-24T15:15:20.864Z</time></trkpt><trkpt lat="43.4618833" lon="11.1611321"><ele>105.0</ele><time>2026-04-24T15:15:24.789Z</time></trkpt><trkpt lat="43.4619655" lon="11.1611616"><ele>105.0</ele><time>2026-04-24T15:15:26.778Z</time></trkpt><trkpt lat="43.4620374" lon="11.1612045"><ele>105.0</ele><time>2026-04-24T15:15:28.886Z</time></trkpt><trkpt lat="43.4621187" lon="11.1612361"><ele>105.2</ele><time>2026-04-24T15:15:30.854Z</time></trkpt><trkpt lat="43.462277" lon="11.1612888"><ele>105.4</ele><time>2026-04-24T15:15:34.892Z</time></trkpt><trkpt lat="43.4623666" lon="11.1612866"><ele>105.6</ele><time>2026-04-24T15:15:35.794Z</time></trkpt><trkpt lat="43.4624398" lon="11.1613481"><ele>105.8</ele><time>2026-04-24T15:15:37.794Z</time></trkpt><trkpt lat="43.4625141" lon="11.1614098"><ele>106.0</ele><time>2026-04-24T15:15:39.792Z</time></trkpt><trkpt lat="43.4626222" lon="11.1614395"><ele>106.0</ele><time>2026-04-24T15:15:41.796Z</time></trkpt><trkpt lat="43.4627294" lon="11.161472"><ele>106.0</ele><time>2026-04-24T15:15:43.791Z</time></trkpt><trkpt lat="43.4628135" lon="11.1615038"><ele>106.0</ele><time>2026-04-24T15:15:45.783Z</time></trkpt><trkpt lat="43.462897" lon="11.1615365"><ele>106.0</ele><time>2026-04-24T15:15:47.789Z</time></trkpt><trkpt lat="43.4629866" lon="11.1615588"><ele>106.0</ele><time>2026-04-24T15:15:49.772Z</time></trkpt><trkpt lat="43.4631298" lon="11.1616015"><ele>105.8</ele><time>2026-04-24T15:15:52.772Z</time></trkpt><trkpt lat="43.4632178" lon="11.1616304"><ele>105.6</ele><time>2026-04-24T15:15:54.799Z</time></trkpt><trkpt lat="43.4632988" lon="11.1616507"><ele>105.4</ele><time>2026-04-24T15:15:56.818Z</time></trkpt><trkpt lat="43.4633997" lon="11.1616841"><ele>105.2</ele><time>2026-04-24T15:15:58.8Z</time></trkpt><trkpt lat="43.463507" lon="11.1617264"><ele>105.0</ele><time>2026-04-24T15:16:00.885Z</time></trkpt><trkpt lat="43.4636126" lon="11.1617742"><ele>105.0</ele><time>2026-04-24T15:16:02.798Z</time></trkpt><trkpt lat="43.4637263" lon="11.1618084"><ele>105.0</ele><time>2026-04-24T15:16:04.862Z</time></trkpt><trkpt lat="43.4638377" lon="11.1618399"><ele>105.0</ele><time>2026-04-24T15:16:06.778Z</time></trkpt><trkpt lat="43.4639478" lon="11.1618745"><ele>105.0</ele><time>2026-04-24T15:16:08.869Z</time></trkpt><trkpt lat="43.4640437" lon="11.1619494"><ele>105.0</ele><time>2026-04-24T15:16:10.797Z</time></trkpt><trkpt lat="43.4641336" lon="11.1619332"><ele>105.0</ele><time>2026-04-24T15:16:12.802Z</time></trkpt><trkpt lat="43.464249" lon="11.1619246"><ele>105.0</ele><time>2026-04-24T15:16:14.802Z</time></trkpt><trkpt lat="43.4643581" lon="11.1619418"><ele>105.0</ele><time>2026-04-24T15:16:16.793Z</time></trkpt><trkpt lat="43.4644676" lon="11.161947"><ele>105.0</ele><time>2026-04-24T15:16:18.799Z</time></trkpt><trkpt lat="43.4645736" lon="11.161945"><ele>104.5</ele><time>2026-04-24T15:16:20.775Z</time></trkpt><trkpt lat="43.4646774" lon="11.1619317"><ele>104.0</ele><time>2026-04-24T15:16:22.809Z</time></trkpt><trkpt lat="43.4647879" lon="11.1619135"><ele>103.5</ele><time>2026-04-24T15:16:24.8Z</time></trkpt><trkpt lat="43.4649023" lon="11.1619274"><ele>103.0</ele><time>2026-04-24T15:16:26.807Z</time></trkpt><trkpt lat="43.4650247" lon="11.1619639"><ele>103.0</ele><time>2026-04-24T15:16:28.773Z</time></trkpt><trkpt lat="43.4651414" lon="11.16198"><ele>103.0</ele><time>2026-04-24T15:16:30.799Z</time></trkpt><trkpt lat="43.4652483" lon="11.1619605"><ele>103.0</ele><time>2026-04-24T15:16:32.799Z</time></trkpt><trkpt lat="43.4653099" lon="11.1619418"><ele>103.0</ele><time>2026-04-24T15:16:33.786Z</time></trkpt><trkpt lat="43.4654071" lon="11.1618766"><ele>103.0</ele><time>2026-04-24T15:16:35.794Z</time></trkpt><trkpt lat="43.465506" lon="11.1617878"><ele>103.2</ele><time>2026-04-24T15:16:37.804Z</time></trkpt><trkpt lat="43.4656064" lon="11.1617039"><ele>103.4</ele><time>2026-04-24T15:16:39.787Z</time></trkpt><trkpt lat="43.4656904" lon="11.1616134"><ele>103.60000000000001</ele><time>2026-04-24T15:16:41.795Z</time></trkpt><trkpt lat="43.4657598" lon="11.1615234"><ele>103.80000000000001</ele><time>2026-04-24T15:16:43.786Z</time></trkpt><trkpt lat="43.465825" lon="11.1614157"><ele>104.0</ele><time>2026-04-24T15:16:45.784Z</time></trkpt><trkpt lat="43.4658524" lon="11.1612895"><ele>104.0</ele><time>2026-04-24T15:16:47.798Z</time></trkpt><trkpt lat="43.4658478" lon="11.1611426"><ele>104.0</ele><time>2026-04-24T15:16:49.811Z</time></trkpt><trkpt lat="43.4658373" lon="11.1610136"><ele>104.0</ele><time>2026-04-24T15:16:51.798Z</time></trkpt><trkpt lat="43.46584" lon="11.1608994"><ele>104.0</ele><time>2026-04-24T15:16:53.818Z</time></trkpt><trkpt lat="43.4658437" lon="11.1607903"><ele>104.0</ele><time>2026-04-24T15:16:55.812Z</time></trkpt><trkpt lat="43.4658589" lon="11.1606517"><ele>104.0</ele><time>2026-04-24T15:16:57.802Z</time></trkpt><trkpt lat="43.4658877" lon="11.1605006"><ele>104.0</ele><time>2026-04-24T15:16:59.798Z</time></trkpt><trkpt lat="43.4659219" lon="11.1603406"><ele>104.0</ele><time>2026-04-24T15:17:01.797Z</time></trkpt><trkpt lat="43.4659564" lon="11.1601768"><ele>104.0</ele><time>2026-04-24T15:17:03.806Z</time></trkpt><trkpt lat="43.4659743" lon="11.1600891"><ele>104.0</ele><time>2026-04-24T15:17:04.799Z</time></trkpt><trkpt lat="43.4659911" lon="11.1600024"><ele>104.0</ele><time>2026-04-24T15:17:05.801Z</time></trkpt><trkpt lat="43.4660234" lon="11.1598326"><ele>104.0</ele><time>2026-04-24T15:17:07.797Z</time></trkpt><trkpt lat="43.466041" lon="11.1597484"><ele>104.0</ele><time>2026-04-24T15:17:08.797Z</time></trkpt><trkpt lat="43.4660733" lon="11.1595837"><ele>104.0</ele><time>2026-04-24T15:17:10.777Z</time></trkpt><trkpt lat="43.4660879" lon="11.1594991"><ele>104.0</ele><time>2026-04-24T15:17:11.799Z</time></trkpt><trkpt lat="43.4661172" lon="11.1593436"><ele>104.0</ele><time>2026-04-24T15:17:13.806Z</time></trkpt><trkpt lat="43.4661422" lon="11.1591879"><ele>104.0</ele><time>2026-04-24T15:17:15.78Z</time></trkpt><trkpt lat="43.4661734" lon="11.1590356"><ele>104.0</ele><time>2026-04-24T15:17:17.796Z</time></trkpt><trkpt lat="43.466208" lon="11.1588865"><ele>104.0</ele><time>2026-04-24T15:17:19.796Z</time></trkpt><trkpt lat="43.4662452" lon="11.158742"><ele>103.6</ele><time>2026-04-24T15:17:21.802Z</time></trkpt><trkpt lat="43.4662794" lon="11.1586012"><ele>103.2</ele><time>2026-04-24T15:17:23.798Z</time></trkpt><trkpt lat="43.4663133" lon="11.1584548"><ele>102.8</ele><time>2026-04-24T15:17:25.806Z</time></trkpt><trkpt lat="43.4663499" lon="11.1583112"><ele>102.39999999999999</ele><time>2026-04-24T15:17:27.809Z</time></trkpt><trkpt lat="43.466386" lon="11.158177"><ele>102.0</ele><time>2026-04-24T15:17:29.793Z</time></trkpt><trkpt lat="43.4664209" lon="11.1580531"><ele>101.75</ele><time>2026-04-24T15:17:31.81Z</time></trkpt><trkpt lat="43.4664541" lon="11.1579153"><ele>101.5</ele><time>2026-04-24T15:17:33.797Z</time></trkpt><trkpt lat="43.4664934" lon="11.157761"><ele>101.25</ele><time>2026-04-24T15:17:35.797Z</time></trkpt><trkpt lat="43.4665269" lon="11.1576055"><ele>101.0</ele><time>2026-04-24T15:17:37.809Z</time></trkpt><trkpt lat="43.4665561" lon="11.1574509"><ele>101.4</ele><time>2026-04-24T15:17:39.801Z</time></trkpt><trkpt lat="43.4665864" lon="11.1573063"><ele>101.8</ele><time>2026-04-24T15:17:41.811Z</time></trkpt><trkpt lat="43.4666201" lon="11.1571644"><ele>102.2</ele><time>2026-04-24T15:17:43.796Z</time></trkpt><trkpt lat="43.4666538" lon="11.1570239"><ele>102.60000000000001</ele><time>2026-04-24T15:17:45.817Z</time></trkpt><trkpt lat="43.4666831" lon="11.1568797"><ele>103.0</ele><time>2026-04-24T15:17:47.8Z</time></trkpt><trkpt lat="43.4667164" lon="11.1567281"><ele>103.0</ele><time>2026-04-24T15:17:49.865Z</time></trkpt><trkpt lat="43.4667516" lon="11.156585"><ele>103.0</ele><time>2026-04-24T15:17:51.813Z</time></trkpt><trkpt lat="43.4667934" lon="11.1564524"><ele>103.0</ele><time>2026-04-24T15:17:53.816Z</time></trkpt><trkpt lat="43.4668362" lon="11.1563252"><ele>103.0</ele><time>2026-04-24T15:17:55.817Z</time></trkpt><trkpt lat="43.4668822" lon="11.1562006"><ele>103.0</ele><time>2026-04-24T15:17:57.815Z</time></trkpt><trkpt lat="43.4669228" lon="11.1560624"><ele>103.0</ele><time>2026-04-24T15:17:59.815Z</time></trkpt><trkpt lat="43.46696" lon="11.1559217"><ele>103.0</ele><time>2026-04-24T15:18:01.816Z</time></trkpt><trkpt lat="43.4669964" lon="11.155782"><ele>103.0</ele><time>2026-04-24T15:18:03.81Z</time></trkpt><trkpt lat="43.4670337" lon="11.1556452"><ele>103.0</ele><time>2026-04-24T15:18:05.894Z</time></trkpt><trkpt lat="43.4670674" lon="11.1555092"><ele>103.0</ele><time>2026-04-24T15:18:07.801Z</time></trkpt><trkpt lat="43.4670961" lon="11.1553691"><ele>102.60000000000001</ele><time>2026-04-24T15:18:09.886Z</time></trkpt><trkpt lat="43.4671352" lon="11.1552461"><ele>102.2</ele><time>2026-04-24T15:18:11.799Z</time></trkpt><trkpt lat="43.4671694" lon="11.1551203"><ele>101.8</ele><time>2026-04-24T15:18:13.806Z</time></trkpt><trkpt lat="43.4672075" lon="11.1549735"><ele>101.4</ele><time>2026-04-24T15:18:15.878Z</time></trkpt><trkpt lat="43.4672452" lon="11.1548289"><ele>101.0</ele><time>2026-04-24T15:18:17.801Z</time></trkpt><trkpt lat="43.4672888" lon="11.1546809"><ele>101.0</ele><time>2026-04-24T15:18:19.779Z</time></trkpt><trkpt lat="43.4673431" lon="11.1545398"><ele>101.0</ele><time>2026-04-24T15:18:21.805Z</time></trkpt><trkpt lat="43.4673767" lon="11.1543987"><ele>101.0</ele><time>2026-04-24T15:18:23.814Z</time></trkpt><trkpt lat="43.4674221" lon="11.1542651"><ele>101.0</ele><time>2026-04-24T15:18:25.81Z</time></trkpt><trkpt lat="43.4674577" lon="11.1541165"><ele>101.0</ele><time>2026-04-24T15:18:27.794Z</time></trkpt><trkpt lat="43.4674994" lon="11.1539659"><ele>101.0</ele><time>2026-04-24T15:18:29.8Z</time></trkpt><trkpt lat="43.4675481" lon="11.1538319"><ele>101.0</ele><time>2026-04-24T15:18:31.805Z</time></trkpt><trkpt lat="43.467589" lon="11.1536858"><ele>101.0</ele><time>2026-04-24T15:18:33.8Z</time></trkpt><trkpt lat="43.4676434" lon="11.1535468"><ele>101.0</ele><time>2026-04-24T15:18:35.802Z</time></trkpt><trkpt lat="43.4677099" lon="11.1534354"><ele>101.0</ele><time>2026-04-24T15:18:37.804Z</time></trkpt><trkpt lat="43.4677922" lon="11.1533459"><ele>101.0</ele><time>2026-04-24T15:18:39.798Z</time></trkpt><trkpt lat="43.4678716" lon="11.1532521"><ele>101.0</ele><time>2026-04-24T15:18:41.793Z</time></trkpt><trkpt lat="43.467957" lon="11.1531889"><ele>101.0</ele><time>2026-04-24T15:18:43.805Z</time></trkpt><trkpt lat="43.4680493" lon="11.1531347"><ele>101.0</ele><time>2026-04-24T15:18:45.796Z</time></trkpt><trkpt lat="43.4681304" lon="11.1530972"><ele>101.0</ele><time>2026-04-24T15:18:47.8Z</time></trkpt><trkpt lat="43.4681944" lon="11.1530806"><ele>100.83333333333333</ele><time>2026-04-24T15:18:49.796Z</time></trkpt><trkpt lat="43.468265" lon="11.1530746"><ele>100.66666666666666</ele><time>2026-04-24T15:18:52.805Z</time></trkpt><trkpt lat="43.4683481" lon="11.1530496"><ele>100.5</ele><time>2026-04-24T15:18:55.799Z</time></trkpt><trkpt lat="43.4684158" lon="11.1530315"><ele>100.33333333333334</ele><time>2026-04-24T15:18:57.796Z</time></trkpt><trkpt lat="43.4684846" lon="11.1530036"><ele>100.16666666666667</ele><time>2026-04-24T15:18:59.818Z</time></trkpt><trkpt lat="43.4685584" lon="11.1529804"><ele>100.0</ele><time>2026-04-24T15:19:01.803Z</time></trkpt><trkpt lat="43.4686325" lon="11.1529495"><ele>100.00000000000001</ele><time>2026-04-24T15:19:03.81Z</time></trkpt><trkpt lat="43.4687025" lon="11.1529152"><ele>100.0</ele><time>2026-04-24T15:19:05.817Z</time></trkpt><trkpt lat="43.4687678" lon="11.1528945"><ele>100.0</ele><time>2026-04-24T15:19:07.805Z</time></trkpt><trkpt lat="43.4688357" lon="11.1528723"><ele>100.0</ele><time>2026-04-24T15:19:09.785Z</time></trkpt><trkpt lat="43.4689029" lon="11.1528457"><ele>100.0</ele><time>2026-04-24T15:19:11.818Z</time></trkpt><trkpt lat="43.4689652" lon="11.1528132"><ele>100.00000000000001</ele><time>2026-04-24T15:19:13.804Z</time></trkpt><trkpt lat="43.4690278" lon="11.1527821"><ele>100.0</ele><time>2026-04-24T15:19:15.8Z</time></trkpt><trkpt lat="43.4691061" lon="11.1527199"><ele>100.33333333333334</ele><time>2026-04-24T15:19:18.804Z</time></trkpt><trkpt lat="43.469173" lon="11.1527027"><ele>100.66666666666667</ele><time>2026-04-24T15:19:20.824Z</time></trkpt><trkpt lat="43.4692427" lon="11.152682"><ele>101.0</ele><time>2026-04-24T15:19:22.813Z</time></trkpt><trkpt lat="43.4693168" lon="11.1526454"><ele>101.33333333333334</ele><time>2026-04-24T15:19:24.803Z</time></trkpt><trkpt lat="43.469399" lon="11.1526046"><ele>101.66666666666667</ele><time>2026-04-24T15:19:26.799Z</time></trkpt><trkpt lat="43.469482" lon="11.152563"><ele>102.0</ele><time>2026-04-24T15:19:28.812Z</time></trkpt><trkpt lat="43.4695661" lon="11.1525302"><ele>102.16666666666667</ele><time>2026-04-24T15:19:30.814Z</time></trkpt><trkpt lat="43.4696509" lon="11.1525055"><ele>102.33333333333334</ele><time>2026-04-24T15:19:32.798Z</time></trkpt><trkpt lat="43.4697425" lon="11.1524754"><ele>102.5</ele><time>2026-04-24T15:19:34.807Z</time></trkpt><trkpt lat="43.469828" lon="11.152438"><ele>102.66666666666667</ele><time>2026-04-24T15:19:36.802Z</time></trkpt><trkpt lat="43.4699138" lon="11.1524008"><ele>102.83333333333334</ele><time>2026-04-24T15:19:38.81Z</time></trkpt><trkpt lat="43.4699949" lon="11.1523625"><ele>103.0</ele><time>2026-04-24T15:19:40.814Z</time></trkpt><trkpt lat="43.4700787" lon="11.1523253"><ele>103.00000000000001</ele><time>2026-04-24T15:19:42.803Z</time></trkpt><trkpt lat="43.4701546" lon="11.1522867"><ele>103.0</ele><time>2026-04-24T15:19:44.805Z</time></trkpt><trkpt lat="43.4702338" lon="11.1522648"><ele>103.0</ele><time>2026-04-24T15:19:46.815Z</time></trkpt><trkpt lat="43.4703196" lon="11.1522405"><ele>103.0</ele><time>2026-04-24T15:19:48.811Z</time></trkpt><trkpt lat="43.4704099" lon="11.1522113"><ele>103.00000000000001</ele><time>2026-04-24T15:19:50.801Z</time></trkpt><trkpt lat="43.4705062" lon="11.1521771"><ele>103.0</ele><time>2026-04-24T15:19:52.785Z</time></trkpt><trkpt lat="43.4706033" lon="11.1521389"><ele>102.80000000000001</ele><time>2026-04-24T15:19:54.814Z</time></trkpt><trkpt lat="43.4706893" lon="11.1520862"><ele>102.6</ele><time>2026-04-24T15:19:56.809Z</time></trkpt><trkpt lat="43.4707786" lon="11.1520334"><ele>102.4</ele><time>2026-04-24T15:19:58.808Z</time></trkpt><trkpt lat="43.4708729" lon="11.1519736"><ele>102.19999999999999</ele><time>2026-04-24T15:20:00.81Z</time></trkpt><trkpt lat="43.4709645" lon="11.1519128"><ele>102.0</ele><time>2026-04-24T15:20:02.801Z</time></trkpt><trkpt lat="43.471054" lon="11.1518603"><ele>102.0</ele><time>2026-04-24T15:20:04.811Z</time></trkpt><trkpt lat="43.4711385" lon="11.1518045"><ele>102.0</ele><time>2026-04-24T15:20:06.811Z</time></trkpt><trkpt lat="43.4712201" lon="11.1517438"><ele>102.0</ele><time>2026-04-24T15:20:08.809Z</time></trkpt><trkpt lat="43.4712942" lon="11.1516765"><ele>102.0</ele><time>2026-04-24T15:20:10.808Z</time></trkpt><trkpt lat="43.4713687" lon="11.1516205"><ele>102.0</ele><time>2026-04-24T15:20:12.803Z</time></trkpt><trkpt lat="43.4714436" lon="11.1515637"><ele>102.0</ele><time>2026-04-24T15:20:14.81Z</time></trkpt><trkpt lat="43.4715158" lon="11.1515038"><ele>101.83333333333333</ele><time>2026-04-24T15:20:16.806Z</time></trkpt><trkpt lat="43.471576" lon="11.1514559"><ele>101.66666666666666</ele><time>2026-04-24T15:20:18.827Z</time></trkpt><trkpt lat="43.4716549" lon="11.1514194"><ele>101.5</ele><time>2026-04-24T15:20:21.812Z</time></trkpt><trkpt lat="43.4717185" lon="11.1513412"><ele>101.33333333333333</ele><time>2026-04-24T15:20:24.805Z</time></trkpt><trkpt lat="43.4717718" lon="11.151256"><ele>101.16666666666666</ele><time>2026-04-24T15:20:26.822Z</time></trkpt><trkpt lat="43.4718323" lon="11.1511737"><ele>101.0</ele><time>2026-04-24T15:20:28.786Z</time></trkpt><trkpt lat="43.471894" lon="11.1510997"><ele>100.99999999999999</ele><time>2026-04-24T15:20:30.806Z</time></trkpt><trkpt lat="43.4719528" lon="11.151019"><ele>101.0</ele><time>2026-04-24T15:20:32.805Z</time></trkpt><trkpt lat="43.4720121" lon="11.1509362"><ele>101.0</ele><time>2026-04-24T15:20:34.797Z</time></trkpt><trkpt lat="43.4720624" lon="11.1508769"><ele>101.0</ele><time>2026-04-24T15:20:36.816Z</time></trkpt><trkpt lat="43.4721314" lon="11.150802"><ele>100.99999999999999</ele><time>2026-04-24T15:20:39.801Z</time></trkpt><trkpt lat="43.4721869" lon="11.1507309"><ele>101.0</ele><time>2026-04-24T15:20:41.801Z</time></trkpt><trkpt lat="43.472247" lon="11.1506526"><ele>100.49999999999999</ele><time>2026-04-24T15:20:43.802Z</time></trkpt><trkpt lat="43.4723031" lon="11.1505584"><ele>100.0</ele><time>2026-04-24T15:20:45.806Z</time></trkpt><trkpt lat="43.4723612" lon="11.1504683"><ele>99.5</ele><time>2026-04-24T15:20:47.798Z</time></trkpt><trkpt lat="43.4724213" lon="11.1503684"><ele>99.0</ele><time>2026-04-24T15:20:49.808Z</time></trkpt><trkpt lat="43.4724787" lon="11.1502788"><ele>98.49999999999999</ele><time>2026-04-24T15:20:51.797Z</time></trkpt><trkpt lat="43.4725319" lon="11.1501811"><ele>98.0</ele><time>2026-04-24T15:20:53.803Z</time></trkpt><trkpt lat="43.472592" lon="11.1500802"><ele>98.0</ele><time>2026-04-24T15:20:55.811Z</time></trkpt><trkpt lat="43.4726424" lon="11.1499845"><ele>98.0</ele><time>2026-04-24T15:20:57.813Z</time></trkpt><trkpt lat="43.4726942" lon="11.1498814"><ele>98.0</ele><time>2026-04-24T15:20:59.808Z</time></trkpt><trkpt lat="43.4727504" lon="11.1497773"><ele>98.0</ele><time>2026-04-24T15:21:01.807Z</time></trkpt><trkpt lat="43.4727993" lon="11.1496638"><ele>98.0</ele><time>2026-04-24T15:21:03.798Z</time></trkpt><trkpt lat="43.4728562" lon="11.1495623"><ele>98.2</ele><time>2026-04-24T15:21:05.803Z</time></trkpt><trkpt lat="43.4729113" lon="11.1494587"><ele>98.4</ele><time>2026-04-24T15:21:07.805Z</time></trkpt><trkpt lat="43.4729632" lon="11.1493545"><ele>98.60000000000001</ele><time>2026-04-24T15:21:09.812Z</time></trkpt><trkpt lat="43.4730168" lon="11.1492642"><ele>98.80000000000001</ele><time>2026-04-24T15:21:11.802Z</time></trkpt><trkpt lat="43.4730795" lon="11.1491637"><ele>99.0</ele><time>2026-04-24T15:21:13.781Z</time></trkpt><trkpt lat="43.4731412" lon="11.1490555"><ele>99.16666666666667</ele><time>2026-04-24T15:21:15.808Z</time></trkpt><trkpt lat="43.4732025" lon="11.1489602"><ele>99.33333333333334</ele><time>2026-04-24T15:21:17.831Z</time></trkpt><trkpt lat="43.4732649" lon="11.1488704"><ele>99.5</ele><time>2026-04-24T15:21:19.82Z</time></trkpt><trkpt lat="43.473323" lon="11.1487795"><ele>99.66666666666667</ele><time>2026-04-24T15:21:21.822Z</time></trkpt><trkpt lat="43.4733844" lon="11.1486896"><ele>99.83333333333334</ele><time>2026-04-24T15:21:23.81Z</time></trkpt><trkpt lat="43.4734412" lon="11.148595"><ele>100.0</ele><time>2026-04-24T15:21:25.812Z</time></trkpt><trkpt lat="43.473484" lon="11.1485095"><ele>100.0</ele><time>2026-04-24T15:21:27.809Z</time></trkpt><trkpt lat="43.4735312" lon="11.1484175"><ele>100.0</ele><time>2026-04-24T15:21:30.818Z</time></trkpt><trkpt lat="43.4735944" lon="11.1483044"><ele>100.0</ele><time>2026-04-24T15:21:33.807Z</time></trkpt><trkpt lat="43.4736477" lon="11.1481895"><ele>100.0</ele><time>2026-04-24T15:21:35.807Z</time></trkpt><trkpt lat="43.4737081" lon="11.1480745"><ele>100.0</ele><time>2026-04-24T15:21:37.81Z</time></trkpt><trkpt lat="43.4737763" lon="11.1479595"><ele>100.4</ele><time>2026-04-24T15:21:39.816Z</time></trkpt><trkpt lat="43.4738365" lon="11.147843"><ele>100.8</ele><time>2026-04-24T15:21:41.82Z</time></trkpt><trkpt lat="43.4738977" lon="11.1477425"><ele>101.19999999999999</ele><time>2026-04-24T15:21:43.81Z</time></trkpt><trkpt lat="43.4739593" lon="11.1476435"><ele>101.6</ele><time>2026-04-24T15:21:45.817Z</time></trkpt><trkpt lat="43.4740117" lon="11.1475505"><ele>102.0</ele><time>2026-04-24T15:21:47.817Z</time></trkpt><trkpt lat="43.4740677" lon="11.1474519"><ele>101.83333333333333</ele><time>2026-04-24T15:21:49.824Z</time></trkpt><trkpt lat="43.4741187" lon="11.1473598"><ele>101.66666666666666</ele><time>2026-04-24T15:21:51.801Z</time></trkpt><trkpt lat="43.4741598" lon="11.1472571"><ele>101.5</ele><time>2026-04-24T15:21:53.808Z</time></trkpt><trkpt lat="43.4742144" lon="11.1471508"><ele>101.33333333333333</ele><time>2026-04-24T15:21:55.807Z</time></trkpt><trkpt lat="43.4742732" lon="11.1470496"><ele>101.16666666666666</ele><time>2026-04-24T15:21:57.8Z</time></trkpt><trkpt lat="43.4743248" lon="11.1469695"><ele>101.0</ele><time>2026-04-24T15:21:59.8Z</time></trkpt><trkpt lat="43.4743742" lon="11.1469112"><ele>100.99999999999999</ele><time>2026-04-24T15:22:02.805Z</time></trkpt><trkpt lat="43.4743217" lon="11.1468504"><ele>101.0</ele><time>2026-04-24T15:22:06.801Z</time></trkpt><trkpt lat="43.474223" lon="11.1468302"><ele>101.0</ele><time>2026-04-24T15:22:08.808Z</time></trkpt><trkpt lat="43.4741345" lon="11.1468268"><ele>101.0</ele><time>2026-04-24T15:22:10.818Z</time></trkpt><trkpt lat="43.4740408" lon="11.1468279"><ele>100.99999999999999</ele><time>2026-04-24T15:22:12.808Z</time></trkpt><trkpt lat="43.473975" lon="11.1468161"><ele>101.0</ele><time>2026-04-24T15:22:14.813Z</time></trkpt><trkpt lat="43.473897" lon="11.146797"><ele>100.99999999999999</ele><time>2026-04-24T15:22:17.806Z</time></trkpt><trkpt lat="43.4739216" lon="11.1466936"><ele>101.0</ele><time>2026-04-24T15:22:20.808Z</time></trkpt><trkpt lat="43.4739696" lon="11.1466128"><ele>101.0</ele><time>2026-04-24T15:22:22.801Z</time></trkpt><trkpt lat="43.4740156" lon="11.1465153"><ele>101.0</ele><time>2026-04-24T15:22:24.825Z</time></trkpt><trkpt lat="43.4740616" lon="11.1464211"><ele>100.99999999999999</ele><time>2026-04-24T15:22:26.8Z</time></trkpt><trkpt lat="43.4741203" lon="11.1463192"><ele>101.0</ele><time>2026-04-24T15:22:28.805Z</time></trkpt><trkpt lat="43.4741875" lon="11.146212"><ele>101.0</ele><time>2026-04-24T15:22:30.809Z</time></trkpt><trkpt lat="43.4742459" lon="11.1461061"><ele>101.0</ele><time>2026-04-24T15:22:32.796Z</time></trkpt><trkpt lat="43.4743069" lon="11.1459964"><ele>101.0</ele><time>2026-04-24T15:22:34.805Z</time></trkpt><trkpt lat="43.4743708" lon="11.1458897"><ele>101.0</ele><time>2026-04-24T15:22:36.812Z</time></trkpt><trkpt lat="43.4744387" lon="11.1457816"><ele>101.0</ele><time>2026-04-24T15:22:38.809Z</time></trkpt><trkpt lat="43.4744872" lon="11.1456518"><ele>100.8</ele><time>2026-04-24T15:22:40.82Z</time></trkpt><trkpt lat="43.474529" lon="11.1455198"><ele>100.6</ele><time>2026-04-24T15:22:42.788Z</time></trkpt><trkpt lat="43.4745696" lon="11.1453992"><ele>100.4</ele><time>2026-04-24T15:22:44.796Z</time></trkpt><trkpt lat="43.4746331" lon="11.1453079"><ele>100.2</ele><time>2026-04-24T15:22:46.782Z</time></trkpt><trkpt lat="43.4747184" lon="11.145228"><ele>100.0</ele><time>2026-04-24T15:22:48.787Z</time></trkpt><trkpt lat="43.474777" lon="11.1451001"><ele>100.4</ele><time>2026-04-24T15:22:50.801Z</time></trkpt><trkpt lat="43.4748202" lon="11.1449517"><ele>100.8</ele><time>2026-04-24T15:22:52.798Z</time></trkpt><trkpt lat="43.474886" lon="11.1448452"><ele>101.19999999999999</ele><time>2026-04-24T15:22:54.782Z</time></trkpt><trkpt lat="43.4749683" lon="11.1447596"><ele>101.6</ele><time>2026-04-24T15:22:56.796Z</time></trkpt><trkpt lat="43.4750426" lon="11.1446645"><ele>102.0</ele><time>2026-04-24T15:22:58.786Z</time></trkpt><trkpt lat="43.4751111" lon="11.1445593"><ele>102.0</ele><time>2026-04-24T15:23:00.791Z</time></trkpt><trkpt lat="43.4751709" lon="11.1444428"><ele>102.0</ele><time>2026-04-24T15:23:02.835Z</time></trkpt><trkpt lat="43.4752663" lon="11.1442778"><ele>102.0</ele><time>2026-04-24T15:23:05.874Z</time></trkpt><trkpt lat="43.4753338" lon="11.1441619"><ele>102.0</ele><time>2026-04-24T15:23:07.808Z</time></trkpt><trkpt lat="43.4754027" lon="11.1440447"><ele>100.8</ele><time>2026-04-24T15:23:09.81Z</time></trkpt><trkpt lat="43.475473" lon="11.1439384"><ele>99.6</ele><time>2026-04-24T15:23:11.814Z</time></trkpt><trkpt lat="43.4755383" lon="11.1438227"><ele>98.39999999999999</ele><time>2026-04-24T15:23:13.795Z</time></trkpt><trkpt lat="43.4756029" lon="11.1437117"><ele>97.19999999999999</ele><time>2026-04-24T15:23:15.784Z</time></trkpt><trkpt lat="43.4756639" lon="11.1435848"><ele>96.0</ele><time>2026-04-24T15:23:17.8Z</time></trkpt><trkpt lat="43.47573" lon="11.1434644"><ele>96.0</ele><time>2026-04-24T15:23:19.799Z</time></trkpt><trkpt lat="43.4757929" lon="11.1433457"><ele>96.0</ele><time>2026-04-24T15:23:21.798Z</time></trkpt><trkpt lat="43.4758626" lon="11.1432314"><ele>96.0</ele><time>2026-04-24T15:23:23.801Z</time></trkpt><trkpt lat="43.4759283" lon="11.143123"><ele>96.0</ele><time>2026-04-24T15:23:25.801Z</time></trkpt><trkpt lat="43.4759893" lon="11.143015"><ele>96.0</ele><time>2026-04-24T15:23:27.788Z</time></trkpt><trkpt lat="43.4760517" lon="11.1428868"><ele>96.19999999999999</ele><time>2026-04-24T15:23:29.801Z</time></trkpt><trkpt lat="43.4761129" lon="11.1427623"><ele>96.39999999999999</ele><time>2026-04-24T15:23:31.798Z</time></trkpt><trkpt lat="43.4761724" lon="11.1426409"><ele>96.6</ele><time>2026-04-24T15:23:33.797Z</time></trkpt><trkpt lat="43.4762346" lon="11.1425262"><ele>96.8</ele><time>2026-04-24T15:23:35.792Z</time></trkpt><trkpt lat="43.4762848" lon="11.1424022"><ele>97.0</ele><time>2026-04-24T15:23:37.814Z</time></trkpt><trkpt lat="43.4762697" lon="11.1422766"><ele>97.6</ele><time>2026-04-24T15:23:39.788Z</time></trkpt><trkpt lat="43.4761861" lon="11.1421905"><ele>98.19999999999999</ele><time>2026-04-24T15:23:41.801Z</time></trkpt><trkpt lat="43.4760972" lon="11.1421113"><ele>98.8</ele><time>2026-04-24T15:23:43.785Z</time></trkpt><trkpt lat="43.4760112" lon="11.1420177"><ele>99.4</ele><time>2026-04-24T15:23:45.811Z</time></trkpt><trkpt lat="43.4759447" lon="11.1419109"><ele>100.0</ele><time>2026-04-24T15:23:47.797Z</time></trkpt><trkpt lat="43.4759274" lon="11.1417931"><ele>100.0</ele><time>2026-04-24T15:23:49.8Z</time></trkpt><trkpt lat="43.4759659" lon="11.1416767"><ele>100.0</ele><time>2026-04-24T15:23:51.805Z</time></trkpt><trkpt lat="43.4760299" lon="11.1415759"><ele>100.0</ele><time>2026-04-24T15:23:53.787Z</time></trkpt><trkpt lat="43.4760858" lon="11.1414745"><ele>100.0</ele><time>2026-04-24T15:23:55.792Z</time></trkpt><trkpt lat="43.4761373" lon="11.1413717"><ele>100.0</ele><time>2026-04-24T15:23:57.81Z</time></trkpt><trkpt lat="43.4761748" lon="11.1412731"><ele>100.16666666666667</ele><time>2026-04-24T15:23:59.803Z</time></trkpt><trkpt lat="43.4761455" lon="11.141186"><ele>100.33333333333334</ele><time>2026-04-24T15:24:01.821Z</time></trkpt><trkpt lat="43.4760479" lon="11.141112"><ele>100.5</ele><time>2026-04-24T15:24:03.795Z</time></trkpt><trkpt lat="43.4759822" lon="11.141042"><ele>100.66666666666666</ele><time>2026-04-24T15:24:05.796Z</time></trkpt><trkpt lat="43.4759096" lon="11.1409826"><ele>100.83333333333333</ele><time>2026-04-24T15:24:08.785Z</time></trkpt><trkpt lat="43.4758477" lon="11.1409074"><ele>101.0</ele><time>2026-04-24T15:24:11.816Z</time></trkpt><trkpt lat="43.4758103" lon="11.1408151"><ele>101.0</ele><time>2026-04-24T15:24:14.793Z</time></trkpt><trkpt lat="43.4758456" lon="11.1407402"><ele>101.0</ele><time>2026-04-24T15:24:16.81Z</time></trkpt><trkpt lat="43.4758964" lon="11.1406494"><ele>101.0</ele><time>2026-04-24T15:24:19.781Z</time></trkpt><trkpt lat="43.4759389" lon="11.1405696"><ele>101.0</ele><time>2026-04-24T15:24:21.821Z</time></trkpt><trkpt lat="43.4759579" lon="11.1404864"><ele>101.0</ele><time>2026-04-24T15:24:24.805Z</time></trkpt><trkpt lat="43.4759204" lon="11.1404101"><ele>101.0</ele><time>2026-04-24T15:24:27.804Z</time></trkpt><trkpt lat="43.475875" lon="11.1403172"><ele>101.0</ele><time>2026-04-24T15:24:30.802Z</time></trkpt><trkpt lat="43.4758254" lon="11.1402432"><ele>100.83333333333333</ele><time>2026-04-24T15:24:32.805Z</time></trkpt><trkpt lat="43.4757735" lon="11.1401749"><ele>100.66666666666666</ele><time>2026-04-24T15:24:34.808Z</time></trkpt><trkpt lat="43.4757053" lon="11.1401004"><ele>100.5</ele><time>2026-04-24T15:24:36.81Z</time></trkpt><trkpt lat="43.4756401" lon="11.1400477"><ele>100.33333333333334</ele><time>2026-04-24T15:24:38.807Z</time></trkpt><trkpt lat="43.4755663" lon="11.1400092"><ele>100.16666666666667</ele><time>2026-04-24T15:24:40.797Z</time></trkpt><trkpt lat="43.4754821" lon="11.1400029"><ele>100.0</ele><time>2026-04-24T15:24:42.799Z</time></trkpt><trkpt lat="43.475406" lon="11.1400595"><ele>99.83333333333334</ele><time>2026-04-24T15:24:44.814Z</time></trkpt><trkpt lat="43.4753318" lon="11.140136"><ele>99.66666666666667</ele><time>2026-04-24T15:24:46.807Z</time></trkpt><trkpt lat="43.4752627" lon="11.1401938"><ele>99.5</ele><time>2026-04-24T15:24:48.808Z</time></trkpt><trkpt lat="43.4751944" lon="11.1402706"><ele>99.33333333333334</ele><time>2026-04-24T15:24:50.798Z</time></trkpt><trkpt lat="43.4751278" lon="11.1403358"><ele>99.16666666666667</ele><time>2026-04-24T15:24:52.808Z</time></trkpt><trkpt lat="43.4750418" lon="11.1403651"><ele>99.0</ele><time>2026-04-24T15:24:54.815Z</time></trkpt><trkpt lat="43.474948" lon="11.140403"><ele>99.0</ele><time>2026-04-24T15:24:56.818Z</time></trkpt><trkpt lat="43.4748514" lon="11.1404458"><ele>99.0</ele><time>2026-04-24T15:24:58.798Z</time></trkpt><trkpt lat="43.4747347" lon="11.1404544"><ele>99.0</ele><time>2026-04-24T15:25:00.8Z</time></trkpt><trkpt lat="43.4746794" lon="11.1404125"><ele>99.0</ele><time>2026-04-24T15:25:01.819Z</time></trkpt><trkpt lat="43.4746171" lon="11.1403557"><ele>99.0</ele><time>2026-04-24T15:25:02.801Z</time></trkpt><trkpt lat="43.4745517" lon="11.140292"><ele>99.0</ele><time>2026-04-24T15:25:03.799Z</time></trkpt><trkpt lat="43.4744794" lon="11.1401942"><ele>98.66666666666667</ele><time>2026-04-24T15:25:05.821Z</time></trkpt><trkpt lat="43.4744043" lon="11.1401534"><ele>98.33333333333334</ele><time>2026-04-24T15:25:07.799Z</time></trkpt><trkpt lat="43.4743451" lon="11.1400811"><ele>98.0</ele><time>2026-04-24T15:25:09.789Z</time></trkpt><trkpt lat="43.4742727" lon="11.1400468"><ele>97.66666666666667</ele><time>2026-04-24T15:25:11.795Z</time></trkpt><trkpt lat="43.4741925" lon="11.1401189"><ele>97.33333333333334</ele><time>2026-04-24T15:25:13.793Z</time></trkpt><trkpt lat="43.4741357" lon="11.1402063"><ele>97.0</ele><time>2026-04-24T15:25:15.801Z</time></trkpt><trkpt lat="43.474063" lon="11.1402951"><ele>97.00000000000001</ele><time>2026-04-24T15:25:17.801Z</time></trkpt><trkpt lat="43.4739921" lon="11.1403815"><ele>97.0</ele><time>2026-04-24T15:25:19.792Z</time></trkpt><trkpt lat="43.4739085" lon="11.140402"><ele>97.0</ele><time>2026-04-24T15:25:21.791Z</time></trkpt><trkpt lat="43.4738431" lon="11.1403266"><ele>97.0</ele><time>2026-04-24T15:25:23.799Z</time></trkpt><trkpt lat="43.4737841" lon="11.1402392"><ele>97.00000000000001</ele><time>2026-04-24T15:25:25.799Z</time></trkpt><trkpt lat="43.473717" lon="11.1401609"><ele>97.0</ele><time>2026-04-24T15:25:27.808Z</time></trkpt><trkpt lat="43.4736733" lon="11.1400938"><ele>97.00000000000001</ele><time>2026-04-24T15:25:29.819Z</time></trkpt><trkpt lat="43.4736338" lon="11.1400195"><ele>97.0</ele><time>2026-04-24T15:25:31.783Z</time></trkpt><trkpt lat="43.473657" lon="11.1398914"><ele>97.0</ele><time>2026-04-24T15:25:34.782Z</time></trkpt><trkpt lat="43.4737073" lon="11.1397883"><ele>97.0</ele><time>2026-04-24T15:25:36.802Z</time></trkpt><trkpt lat="43.4737584" lon="11.1396757"><ele>97.00000000000001</ele><time>2026-04-24T15:25:38.822Z</time></trkpt><trkpt lat="43.4738167" lon="11.139568"><ele>97.0</ele><time>2026-04-24T15:25:40.806Z</time></trkpt><trkpt lat="43.4738767" lon="11.139472"><ele>97.00000000000001</ele><time>2026-04-24T15:25:42.815Z</time></trkpt><trkpt lat="43.4739375" lon="11.1393743"><ele>97.0</ele><time>2026-04-24T15:25:44.806Z</time></trkpt><trkpt lat="43.4739968" lon="11.1392804"><ele>97.0</ele><time>2026-04-24T15:25:46.802Z</time></trkpt><trkpt lat="43.4740539" lon="11.1392019"><ele>97.0</ele><time>2026-04-24T15:25:48.81Z</time></trkpt><trkpt lat="43.4741053" lon="11.1391482"><ele>97.00000000000001</ele><time>2026-04-24T15:25:50.8Z</time></trkpt><trkpt lat="43.474144" lon="11.1390634"><ele>97.0</ele><time>2026-04-24T15:25:55.801Z</time></trkpt><trkpt lat="43.4740591" lon="11.1389788"><ele>96.6</ele><time>2026-04-24T15:25:58.798Z</time></trkpt><trkpt lat="43.4739651" lon="11.1389079"><ele>96.19999999999999</ele><time>2026-04-24T15:26:00.817Z</time></trkpt><trkpt lat="43.4738739" lon="11.1388663"><ele>95.8</ele><time>2026-04-24T15:26:02.805Z</time></trkpt><trkpt lat="43.4737774" lon="11.1389122"><ele>95.4</ele><time>2026-04-24T15:26:04.8Z</time></trkpt><trkpt lat="43.47368" lon="11.1389691"><ele>95.0</ele><time>2026-04-24T15:26:06.801Z</time></trkpt><trkpt lat="43.4735878" lon="11.1390273"><ele>95.4</ele><time>2026-04-24T15:26:08.819Z</time></trkpt><trkpt lat="43.473508" lon="11.1390921"><ele>95.8</ele><time>2026-04-24T15:26:10.799Z</time></trkpt><trkpt lat="43.4734201" lon="11.1391589"><ele>96.19999999999999</ele><time>2026-04-24T15:26:12.792Z</time></trkpt><trkpt lat="43.4733315" lon="11.1392362"><ele>96.6</ele><time>2026-04-24T15:26:14.806Z</time></trkpt><trkpt lat="43.4732238" lon="11.1392548"><ele>97.0</ele><time>2026-04-24T15:26:16.799Z</time></trkpt><trkpt lat="43.4731356" lon="11.13917"><ele>97.0</ele><time>2026-04-24T15:26:18.804Z</time></trkpt><trkpt lat="43.4730726" lon="11.1390534"><ele>97.0</ele><time>2026-04-24T15:26:20.812Z</time></trkpt><trkpt lat="43.4730118" lon="11.1389406"><ele>97.0</ele><time>2026-04-24T15:26:22.809Z</time></trkpt><trkpt lat="43.4729432" lon="11.1388472"><ele>97.0</ele><time>2026-04-24T15:26:24.807Z</time></trkpt><trkpt lat="43.4728872" lon="11.13874"><ele>97.0</ele><time>2026-04-24T15:26:26.798Z</time></trkpt><trkpt lat="43.4728273" lon="11.138628"><ele>96.8</ele><time>2026-04-24T15:26:28.807Z</time></trkpt><trkpt lat="43.4727675" lon="11.1385255"><ele>96.6</ele><time>2026-04-24T15:26:30.807Z</time></trkpt><trkpt lat="43.4726934" lon="11.1384359"><ele>96.39999999999999</ele><time>2026-04-24T15:26:32.813Z</time></trkpt><trkpt lat="43.4726232" lon="11.1383339"><ele>96.19999999999999</ele><time>2026-04-24T15:26:34.805Z</time></trkpt><trkpt lat="43.4725558" lon="11.1382316"><ele>96.0</ele><time>2026-04-24T15:26:36.807Z</time></trkpt><trkpt lat="43.4724961" lon="11.1381179"><ele>95.8</ele><time>2026-04-24T15:26:38.811Z</time></trkpt><trkpt lat="43.4724363" lon="11.1380026"><ele>95.6</ele><time>2026-04-24T15:26:40.816Z</time></trkpt><trkpt lat="43.4723595" lon="11.1378973"><ele>95.4</ele><time>2026-04-24T15:26:42.805Z</time></trkpt><trkpt lat="43.4722685" lon="11.1377978"><ele>95.2</ele><time>2026-04-24T15:26:44.809Z</time></trkpt><trkpt lat="43.4721823" lon="11.1377261"><ele>95.0</ele><time>2026-04-24T15:26:46.791Z</time></trkpt><trkpt lat="43.4720938" lon="11.1376869"><ele>95.4</ele><time>2026-04-24T15:26:48.809Z</time></trkpt><trkpt lat="43.4719988" lon="11.1376734"><ele>95.8</ele><time>2026-04-24T15:26:50.797Z</time></trkpt><trkpt lat="43.4718963" lon="11.1376822"><ele>96.19999999999999</ele><time>2026-04-24T15:26:52.81Z</time></trkpt><trkpt lat="43.4717886" lon="11.1377335"><ele>96.6</ele><time>2026-04-24T15:26:54.807Z</time></trkpt><trkpt lat="43.4717051" lon="11.1378302"><ele>97.0</ele><time>2026-04-24T15:26:56.806Z</time></trkpt><trkpt lat="43.4716374" lon="11.1379743"><ele>97.0</ele><time>2026-04-24T15:26:58.805Z</time></trkpt><trkpt lat="43.4715624" lon="11.1380977"><ele>97.0</ele><time>2026-04-24T15:27:00.81Z</time></trkpt><trkpt lat="43.4714861" lon="11.1382086"><ele>97.0</ele><time>2026-04-24T15:27:02.807Z</time></trkpt><trkpt lat="43.4714077" lon="11.13832"><ele>97.0</ele><time>2026-04-24T15:27:04.81Z</time></trkpt><trkpt lat="43.4713346" lon="11.1384309"><ele>97.0</ele><time>2026-04-24T15:27:06.803Z</time></trkpt><trkpt lat="43.4712551" lon="11.138536"><ele>96.5</ele><time>2026-04-24T15:27:08.805Z</time></trkpt><trkpt lat="43.4711791" lon="11.1386464"><ele>96.0</ele><time>2026-04-24T15:27:10.811Z</time></trkpt><trkpt lat="43.4711021" lon="11.1387655"><ele>95.5</ele><time>2026-04-24T15:27:12.812Z</time></trkpt><trkpt lat="43.4710182" lon="11.1388807"><ele>95.0</ele><time>2026-04-24T15:27:14.803Z</time></trkpt><trkpt lat="43.4709301" lon="11.1390022"><ele>95.5</ele><time>2026-04-24T15:27:16.808Z</time></trkpt><trkpt lat="43.4708444" lon="11.1391188"><ele>96.0</ele><time>2026-04-24T15:27:18.797Z</time></trkpt><trkpt lat="43.4707609" lon="11.1392422"><ele>96.5</ele><time>2026-04-24T15:27:20.781Z</time></trkpt><trkpt lat="43.4706793" lon="11.1393647"><ele>97.0</ele><time>2026-04-24T15:27:22.801Z</time></trkpt><trkpt lat="43.4706014" lon="11.1394895"><ele>97.0</ele><time>2026-04-24T15:27:24.808Z</time></trkpt><trkpt lat="43.4705333" lon="11.1396119"><ele>97.0</ele><time>2026-04-24T15:27:26.812Z</time></trkpt><trkpt lat="43.4704924" lon="11.1397505"><ele>97.0</ele><time>2026-04-24T15:27:28.815Z</time></trkpt><trkpt lat="43.4704504" lon="11.1398861"><ele>97.0</ele><time>2026-04-24T15:27:30.815Z</time></trkpt><trkpt lat="43.4704144" lon="11.1400162"><ele>97.0</ele><time>2026-04-24T15:27:32.812Z</time></trkpt><trkpt lat="43.4703864" lon="11.1401497"><ele>97.0</ele><time>2026-04-24T15:27:34.803Z</time></trkpt><trkpt lat="43.4703546" lon="11.1402741"><ele>97.0</ele><time>2026-04-24T15:27:36.801Z</time></trkpt><trkpt lat="43.4703139" lon="11.1403981"><ele>97.0</ele><time>2026-04-24T15:27:38.813Z</time></trkpt><trkpt lat="43.4702796" lon="11.1405197"><ele>97.0</ele><time>2026-04-24T15:27:40.795Z</time></trkpt><trkpt lat="43.4702532" lon="11.1406286"><ele>97.0</ele><time>2026-04-24T15:27:42.803Z</time></trkpt><trkpt lat="43.4702171" lon="11.1407268"><ele>97.14285714285714</ele><time>2026-04-24T15:27:44.8Z</time></trkpt><trkpt lat="43.4701817" lon="11.1408229"><ele>97.28571428571429</ele><time>2026-04-24T15:27:46.797Z</time></trkpt><trkpt lat="43.4701447" lon="11.1409106"><ele>97.42857142857143</ele><time>2026-04-24T15:27:48.789Z</time></trkpt><trkpt lat="43.4701143" lon="11.1409935"><ele>97.57142857142857</ele><time>2026-04-24T15:27:50.81Z</time></trkpt><trkpt lat="43.4700608" lon="11.14107"><ele>97.71428571428572</ele><time>2026-04-24T15:27:52.802Z</time></trkpt><trkpt lat="43.4699899" lon="11.1411037"><ele>97.85714285714286</ele><time>2026-04-24T15:27:55.809Z</time></trkpt><trkpt lat="43.4699298" lon="11.1410563"><ele>98.0</ele><time>2026-04-24T15:27:57.801Z</time></trkpt><trkpt lat="43.4698484" lon="11.1409944"><ele>98.0</ele><time>2026-04-24T15:27:59.805Z</time></trkpt><trkpt lat="43.4697556" lon="11.1409391"><ele>98.0</ele><time>2026-04-24T15:28:01.803Z</time></trkpt><trkpt lat="43.4696592" lon="11.140886"><ele>98.0</ele><time>2026-04-24T15:28:03.807Z</time></trkpt><trkpt lat="43.4695544" lon="11.1408315"><ele>98.0</ele><time>2026-04-24T15:28:05.786Z</time></trkpt><trkpt lat="43.4694466" lon="11.1407827"><ele>98.0</ele><time>2026-04-24T15:28:07.805Z</time></trkpt><trkpt lat="43.4693373" lon="11.1407302"><ele>97.25</ele><time>2026-04-24T15:28:09.803Z</time></trkpt><trkpt lat="43.4692284" lon="11.1406743"><ele>96.5</ele><time>2026-04-24T15:28:11.805Z</time></trkpt><trkpt lat="43.4691167" lon="11.140627"><ele>95.75</ele><time>2026-04-24T15:28:13.8Z</time></trkpt><trkpt lat="43.4689922" lon="11.140609"><ele>95.0</ele><time>2026-04-24T15:28:15.801Z</time></trkpt><trkpt lat="43.468866" lon="11.1406162"><ele>95.0</ele><time>2026-04-24T15:28:17.805Z</time></trkpt><trkpt lat="43.4687992" lon="11.1406199"><ele>95.0</ele><time>2026-04-24T15:28:18.809Z</time></trkpt><trkpt lat="43.4687288" lon="11.140625"><ele>95.0</ele><time>2026-04-24T15:28:19.817Z</time></trkpt><trkpt lat="43.4686628" lon="11.1406315"><ele>95.0</ele><time>2026-04-24T15:28:20.815Z</time></trkpt><trkpt lat="43.468597" lon="11.1406339"><ele>95.0</ele><time>2026-04-24T15:28:21.8Z</time></trkpt><trkpt lat="43.4685333" lon="11.1406364"><ele>95.0</ele><time>2026-04-24T15:28:22.825Z</time></trkpt><trkpt lat="43.4684649" lon="11.1406439"><ele>95.0</ele><time>2026-04-24T15:28:23.809Z</time></trkpt><trkpt lat="43.4683988" lon="11.1406537"><ele>94.5</ele><time>2026-04-24T15:28:24.803Z</time></trkpt><trkpt lat="43.4683348" lon="11.1406594"><ele>94.0</ele><time>2026-04-24T15:28:25.808Z</time></trkpt><trkpt lat="43.4682708" lon="11.1406644"><ele>93.5</ele><time>2026-04-24T15:28:26.802Z</time></trkpt><trkpt lat="43.4682058" lon="11.1406697"><ele>93.0</ele><time>2026-04-24T15:28:27.799Z</time></trkpt><trkpt lat="43.4680787" lon="11.1406792"><ele>92.5</ele><time>2026-04-24T15:28:29.806Z</time></trkpt><trkpt lat="43.4680126" lon="11.1406841"><ele>92.0</ele><time>2026-04-24T15:28:30.8Z</time></trkpt><trkpt lat="43.4679471" lon="11.1406958"><ele>92.8</ele><time>2026-04-24T15:28:31.798Z</time></trkpt><trkpt lat="43.4678817" lon="11.1407017"><ele>93.6</ele><time>2026-04-24T15:28:32.81Z</time></trkpt><trkpt lat="43.4677518" lon="11.1407105"><ele>94.39999999999999</ele><time>2026-04-24T15:28:34.812Z</time></trkpt><trkpt lat="43.467689" lon="11.1407176"><ele>95.19999999999999</ele><time>2026-04-24T15:28:35.8Z</time></trkpt><trkpt lat="43.4675723" lon="11.1407361"><ele>96.0</ele><time>2026-04-24T15:28:37.808Z</time></trkpt><trkpt lat="43.4674582" lon="11.1407504"><ele>96.0</ele><time>2026-04-24T15:28:39.811Z</time></trkpt><trkpt lat="43.4673507" lon="11.1407585"><ele>96.0</ele><time>2026-04-24T15:28:41.804Z</time></trkpt><trkpt lat="43.4672647" lon="11.1407505"><ele>96.0</ele><time>2026-04-24T15:28:43.797Z</time></trkpt><trkpt lat="43.4672087" lon="11.1407067"><ele>96.0</ele><time>2026-04-24T15:28:45.882Z</time></trkpt><trkpt lat="43.4671445" lon="11.1406414"><ele>96.0</ele><time>2026-04-24T15:28:47.787Z</time></trkpt><trkpt lat="43.4670713" lon="11.1405788"><ele>96.0</ele><time>2026-04-24T15:28:49.801Z</time></trkpt><trkpt lat="43.467" lon="11.1405973"><ele>96.4</ele><time>2026-04-24T15:28:51.793Z</time></trkpt><trkpt lat="43.4669355" lon="11.1406302"><ele>96.8</ele><time>2026-04-24T15:28:53.8Z</time></trkpt><trkpt lat="43.4668754" lon="11.1405487"><ele>97.2</ele><time>2026-04-24T15:28:56.82Z</time></trkpt><trkpt lat="43.4668556" lon="11.1404314"><ele>97.60000000000001</ele><time>2026-04-24T15:28:58.803Z</time></trkpt><trkpt lat="43.4667795" lon="11.1403311"><ele>98.0</ele><time>2026-04-24T15:29:00.801Z</time></trkpt><trkpt lat="43.4667061" lon="11.1402213"><ele>98.0</ele><time>2026-04-24T15:29:02.799Z</time></trkpt><trkpt lat="43.4666416" lon="11.1400982"><ele>98.0</ele><time>2026-04-24T15:29:04.802Z</time></trkpt><trkpt lat="43.4665804" lon="11.1399679"><ele>98.0</ele><time>2026-04-24T15:29:06.798Z</time></trkpt><trkpt lat="43.4665262" lon="11.1398368"><ele>98.0</ele><time>2026-04-24T15:29:08.818Z</time></trkpt><trkpt lat="43.4664608" lon="11.1397232"><ele>98.0</ele><time>2026-04-24T15:29:10.809Z</time></trkpt><trkpt lat="43.4663814" lon="11.139633"><ele>97.75</ele><time>2026-04-24T15:29:12.798Z</time></trkpt><trkpt lat="43.4662873" lon="11.1395875"><ele>97.5</ele><time>2026-04-24T15:29:14.804Z</time></trkpt><trkpt lat="43.4661769" lon="11.1395835"><ele>97.25</ele><time>2026-04-24T15:29:16.81Z</time></trkpt><trkpt lat="43.4660651" lon="11.1396359"><ele>97.0</ele><time>2026-04-24T15:29:18.815Z</time></trkpt><trkpt lat="43.4659685" lon="11.1397442"><ele>98.0</ele><time>2026-04-24T15:29:20.784Z</time></trkpt><trkpt lat="43.4658837" lon="11.1398468"><ele>99.0</ele><time>2026-04-24T15:29:22.81Z</time></trkpt><trkpt lat="43.4658163" lon="11.1399795"><ele>100.0</ele><time>2026-04-24T15:29:24.807Z</time></trkpt><trkpt lat="43.4657613" lon="11.140121"><ele>101.0</ele><time>2026-04-24T15:29:26.872Z</time></trkpt><trkpt lat="43.4657122" lon="11.1402506"><ele>101.0</ele><time>2026-04-24T15:29:28.805Z</time></trkpt><trkpt lat="43.4656536" lon="11.1403818"><ele>101.0</ele><time>2026-04-24T15:29:30.79Z</time></trkpt><trkpt lat="43.4656051" lon="11.1405023"><ele>101.0</ele><time>2026-04-24T15:29:32.813Z</time></trkpt><trkpt lat="43.4655527" lon="11.1406121"><ele>101.0</ele><time>2026-04-24T15:29:34.803Z</time></trkpt><trkpt lat="43.4654895" lon="11.1406934"><ele>101.0</ele><time>2026-04-24T15:29:36.781Z</time></trkpt><trkpt lat="43.4654209" lon="11.1407262"><ele>100.99999999999999</ele><time>2026-04-24T15:29:38.805Z</time></trkpt><trkpt lat="43.4653486" lon="11.1407911"><ele>101.0</ele><time>2026-04-24T15:29:40.816Z</time></trkpt><trkpt lat="43.4652916" lon="11.1408342"><ele>101.0</ele><time>2026-04-24T15:29:41.81Z</time></trkpt><trkpt lat="43.4651901" lon="11.1408919"><ele>101.0</ele><time>2026-04-24T15:29:43.819Z</time></trkpt><trkpt lat="43.4651084" lon="11.1409099"><ele>100.99999999999999</ele><time>2026-04-24T15:29:45.811Z</time></trkpt><trkpt lat="43.4650284" lon="11.1408946"><ele>101.0</ele><time>2026-04-24T15:29:47.814Z</time></trkpt><trkpt lat="43.4649386" lon="11.1408737"><ele>101.0</ele><time>2026-04-24T15:29:49.785Z</time></trkpt><trkpt lat="43.4648463" lon="11.1408478"><ele>101.0</ele><time>2026-04-24T15:29:51.872Z</time></trkpt><trkpt lat="43.4647531" lon="11.1408126"><ele>101.0</ele><time>2026-04-24T15:29:53.807Z</time></trkpt><trkpt lat="43.4646701" lon="11.1407838"><ele>101.0</ele><time>2026-04-24T15:29:55.79Z</time></trkpt><trkpt lat="43.4645867" lon="11.1407317"><ele>101.0</ele><time>2026-04-24T15:29:57.805Z</time></trkpt><trkpt lat="43.4645078" lon="11.1406746"><ele>102.19999999999999</ele><time>2026-04-24T15:29:59.796Z</time></trkpt><trkpt lat="43.4644278" lon="11.1406148"><ele>103.39999999999999</ele><time>2026-04-24T15:30:01.868Z</time></trkpt><trkpt lat="43.4643431" lon="11.1405504"><ele>104.6</ele><time>2026-04-24T15:30:03.804Z</time></trkpt><trkpt lat="43.4642625" lon="11.1404841"><ele>105.8</ele><time>2026-04-24T15:30:05.804Z</time></trkpt><trkpt lat="43.464183" lon="11.1404222"><ele>107.0</ele><time>2026-04-24T15:30:07.797Z</time></trkpt><trkpt lat="43.4641073" lon="11.1403541"><ele>106.99999999999999</ele><time>2026-04-24T15:30:09.796Z</time></trkpt><trkpt lat="43.4640328" lon="11.1402923"><ele>107.0</ele><time>2026-04-24T15:30:11.8Z</time></trkpt><trkpt lat="43.4639584" lon="11.1402302"><ele>107.0</ele><time>2026-04-24T15:30:13.797Z</time></trkpt><trkpt lat="43.4638881" lon="11.1401677"><ele>107.0</ele><time>2026-04-24T15:30:15.798Z</time></trkpt><trkpt lat="43.4638139" lon="11.1400968"><ele>106.99999999999999</ele><time>2026-04-24T15:30:17.802Z</time></trkpt><trkpt lat="43.4637386" lon="11.1400237"><ele>107.0</ele><time>2026-04-24T15:30:19.807Z</time></trkpt><trkpt lat="43.4636714" lon="11.1399399"><ele>107.16666666666666</ele><time>2026-04-24T15:30:21.797Z</time></trkpt><trkpt lat="43.4636045" lon="11.1398522"><ele>107.33333333333333</ele><time>2026-04-24T15:30:23.803Z</time></trkpt><trkpt lat="43.4635445" lon="11.139751"><ele>107.5</ele><time>2026-04-24T15:30:25.782Z</time></trkpt><trkpt lat="43.4635005" lon="11.1396744"><ele>107.66666666666666</ele><time>2026-04-24T15:30:27.788Z</time></trkpt><trkpt lat="43.4634577" lon="11.1396079"><ele>107.83333333333333</ele><time>2026-04-24T15:30:29.817Z</time></trkpt><trkpt lat="43.4634196" lon="11.1394854"><ele>108.0</ele><time>2026-04-24T15:30:31.879Z</time></trkpt><trkpt lat="43.4633848" lon="11.1393538"><ele>108.0</ele><time>2026-04-24T15:30:33.804Z</time></trkpt><trkpt lat="43.4633512" lon="11.1392366"><ele>108.00000000000001</ele><time>2026-04-24T15:30:35.814Z</time></trkpt><trkpt lat="43.4633175" lon="11.1391106"><ele>108.00000000000001</ele><time>2026-04-24T15:30:37.807Z</time></trkpt><trkpt lat="43.463295" lon="11.1389732"><ele>108.0</ele><time>2026-04-24T15:30:39.866Z</time></trkpt><trkpt lat="43.4632746" lon="11.1388475"><ele>108.0</ele><time>2026-04-24T15:30:41.863Z</time></trkpt><trkpt lat="43.4632486" lon="11.1387234"><ele>109.2</ele><time>2026-04-24T15:30:43.796Z</time></trkpt><trkpt lat="43.4632312" lon="11.1386135"><ele>110.4</ele><time>2026-04-24T15:30:45.867Z</time></trkpt><trkpt lat="43.4632156" lon="11.1385264"><ele>111.60000000000001</ele><time>2026-04-24T15:30:47.784Z</time></trkpt><trkpt lat="43.4631737" lon="11.1383939"><ele>112.80000000000001</ele><time>2026-04-24T15:30:49.778Z</time></trkpt><trkpt lat="43.463114" lon="11.1382535"><ele>114.0</ele><time>2026-04-24T15:30:51.797Z</time></trkpt><trkpt lat="43.4630647" lon="11.1381292"><ele>111.80000000000001</ele><time>2026-04-24T15:30:53.8Z</time></trkpt><trkpt lat="43.4630196" lon="11.1380025"><ele>109.60000000000001</ele><time>2026-04-24T15:30:55.793Z</time></trkpt><trkpt lat="43.4629645" lon="11.1378797"><ele>107.4</ele><time>2026-04-24T15:30:57.809Z</time></trkpt><trkpt lat="43.4629056" lon="11.1377615"><ele>105.2</ele><time>2026-04-24T15:30:59.809Z</time></trkpt><trkpt lat="43.4628499" lon="11.1376563"><ele>103.0</ele><time>2026-04-24T15:31:01.814Z</time></trkpt><trkpt lat="43.4628027" lon="11.1375497"><ele>103.0</ele><time>2026-04-24T15:31:03.806Z</time></trkpt><trkpt lat="43.4627426" lon="11.1374515"><ele>103.0</ele><time>2026-04-24T15:31:05.866Z</time></trkpt><trkpt lat="43.4626824" lon="11.1373576"><ele>103.0</ele><time>2026-04-24T15:31:07.801Z</time></trkpt><trkpt lat="43.4626144" lon="11.137258"><ele>103.0</ele><time>2026-04-24T15:31:09.8Z</time></trkpt><trkpt lat="43.4625844" lon="11.1371575"><ele>103.0</ele><time>2026-04-24T15:31:11.857Z</time></trkpt><trkpt lat="43.4625014" lon="11.1370768"><ele>104.0</ele><time>2026-04-24T15:31:13.802Z</time></trkpt><trkpt lat="43.4624134" lon="11.1369912"><ele>105.0</ele><time>2026-04-24T15:31:15.863Z</time></trkpt><trkpt lat="43.4623357" lon="11.1369225"><ele>106.00000000000001</ele><time>2026-04-24T15:31:17.786Z</time></trkpt><trkpt lat="43.4622508" lon="11.1368589"><ele>107.0</ele><time>2026-04-24T15:31:19.858Z</time></trkpt><trkpt lat="43.4621695" lon="11.1367978"><ele>108.0</ele><time>2026-04-24T15:31:21.866Z</time></trkpt><trkpt lat="43.462095" lon="11.1367314"><ele>108.0</ele><time>2026-04-24T15:31:23.808Z</time></trkpt><trkpt lat="43.4620148" lon="11.1366825"><ele>108.0</ele><time>2026-04-24T15:31:25.787Z</time></trkpt><trkpt lat="43.4619272" lon="11.1366322"><ele>108.0</ele><time>2026-04-24T15:31:27.792Z</time></trkpt><trkpt lat="43.4618406" lon="11.1365866"><ele>108.0</ele><time>2026-04-24T15:31:29.798Z</time></trkpt><trkpt lat="43.4617554" lon="11.1365531"><ele>108.0</ele><time>2026-04-24T15:31:31.789Z</time></trkpt><trkpt lat="43.4616747" lon="11.136526"><ele>108.0</ele><time>2026-04-24T15:31:33.788Z</time></trkpt><trkpt lat="43.4615897" lon="11.1365053"><ele>110.5</ele><time>2026-04-24T15:31:35.786Z</time></trkpt><trkpt lat="43.4615026" lon="11.136492"><ele>113.0</ele><time>2026-04-24T15:31:37.788Z</time></trkpt><trkpt lat="43.4614225" lon="11.1364872"><ele>115.5</ele><time>2026-04-24T15:31:39.792Z</time></trkpt><trkpt lat="43.4613475" lon="11.1364685"><ele>118.0</ele><time>2026-04-24T15:31:41.882Z</time></trkpt><trkpt lat="43.4612601" lon="11.1364696"><ele>120.5</ele><time>2026-04-24T15:31:44.861Z</time></trkpt><trkpt lat="43.4611695" lon="11.1365032"><ele>123.0</ele><time>2026-04-24T15:31:46.87Z</time></trkpt><trkpt lat="43.4610684" lon="11.1365366"><ele>120.5</ele><time>2026-04-24T15:31:48.806Z</time></trkpt><trkpt lat="43.4609747" lon="11.1365696"><ele>118.0</ele><time>2026-04-24T15:31:50.871Z</time></trkpt><trkpt lat="43.4608843" lon="11.1366037"><ele>115.5</ele><time>2026-04-24T15:31:52.771Z</time></trkpt><trkpt lat="43.4607901" lon="11.1366223"><ele>113.0</ele><time>2026-04-24T15:31:54.88Z</time></trkpt><trkpt lat="43.4607062" lon="11.1366474"><ele>110.5</ele><time>2026-04-24T15:31:56.871Z</time></trkpt><trkpt lat="43.4606329" lon="11.1366157"><ele>108.0</ele><time>2026-04-24T15:31:58.791Z</time></trkpt><trkpt lat="43.460546" lon="11.1366379"><ele>108.0</ele><time>2026-04-24T15:32:00.87Z</time></trkpt><trkpt lat="43.460458" lon="11.1366338"><ele>108.0</ele><time>2026-04-24T15:32:03.794Z</time></trkpt><trkpt lat="43.4603946" lon="11.1366763"><ele>108.0</ele><time>2026-04-24T15:32:05.809Z</time></trkpt><trkpt lat="43.4602945" lon="11.1366993"><ele>108.0</ele><time>2026-04-24T15:32:07.797Z</time></trkpt><trkpt lat="43.4602104" lon="11.1366868"><ele>108.0</ele><time>2026-04-24T15:32:09.777Z</time></trkpt><trkpt lat="43.4601246" lon="11.1366687"><ele>108.0</ele><time>2026-04-24T15:32:11.816Z</time></trkpt><trkpt lat="43.4600338" lon="11.1366615"><ele>109.0</ele><time>2026-04-24T15:32:13.79Z</time></trkpt><trkpt lat="43.4599402" lon="11.1366484"><ele>110.00000000000001</ele><time>2026-04-24T15:32:15.876Z</time></trkpt><trkpt lat="43.4598457" lon="11.1366295"><ele>111.00000000000001</ele><time>2026-04-24T15:32:17.818Z</time></trkpt><trkpt lat="43.4597558" lon="11.1366078"><ele>112.0</ele><time>2026-04-24T15:32:19.876Z</time></trkpt><trkpt lat="43.4596746" lon="11.1365734"><ele>113.0</ele><time>2026-04-24T15:32:21.881Z</time></trkpt><trkpt lat="43.4595919" lon="11.1365349"><ele>114.33333333333333</ele><time>2026-04-24T15:32:23.799Z</time></trkpt><trkpt lat="43.4594969" lon="11.136476"><ele>115.66666666666666</ele><time>2026-04-24T15:32:25.871Z</time></trkpt><trkpt lat="43.4594009" lon="11.1364236"><ele>117.0</ele><time>2026-04-24T15:32:27.809Z</time></trkpt><trkpt lat="43.4593196" lon="11.1363693"><ele>118.33333333333334</ele><time>2026-04-24T15:32:29.877Z</time></trkpt><trkpt lat="43.4592593" lon="11.1363304"><ele>119.66666666666667</ele><time>2026-04-24T15:32:31.796Z</time></trkpt><trkpt lat="43.4591908" lon="11.1362769"><ele>121.0</ele><time>2026-04-24T15:32:33.789Z</time></trkpt><trkpt lat="43.459121" lon="11.1362151"><ele>121.00000000000001</ele><time>2026-04-24T15:32:35.882Z</time></trkpt><trkpt lat="43.4590366" lon="11.1361459"><ele>121.0</ele><time>2026-04-24T15:32:37.804Z</time></trkpt><trkpt lat="43.4589628" lon="11.1360489"><ele>121.0</ele><time>2026-04-24T15:32:40.793Z</time></trkpt><trkpt lat="43.4589016" lon="11.1359718"><ele>121.0</ele><time>2026-04-24T15:32:42.8Z</time></trkpt><trkpt lat="43.4588489" lon="11.1359092"><ele>121.00000000000001</ele><time>2026-04-24T15:32:44.799Z</time></trkpt><trkpt lat="43.4587938" lon="11.13585"><ele>121.0</ele><time>2026-04-24T15:32:46.798Z</time></trkpt><trkpt lat="43.4587436" lon="11.1357724"><ele>120.50000000000001</ele><time>2026-04-24T15:32:48.803Z</time></trkpt><trkpt lat="43.4587064" lon="11.1356958"><ele>120.0</ele><time>2026-04-24T15:32:50.877Z</time></trkpt><trkpt lat="43.4586796" lon="11.1355998"><ele>119.5</ele><time>2026-04-24T15:32:53.802Z</time></trkpt><trkpt lat="43.4586552" lon="11.1355035"><ele>119.0</ele><time>2026-04-24T15:32:55.863Z</time></trkpt><trkpt lat="43.4586162" lon="11.135405"><ele>118.50000000000001</ele><time>2026-04-24T15:32:57.784Z</time></trkpt><trkpt lat="43.4585684" lon="11.1353035"><ele>118.0</ele><time>2026-04-24T15:32:59.857Z</time></trkpt><trkpt lat="43.4585005" lon="11.1351943"><ele>118.0</ele><time>2026-04-24T15:33:01.864Z</time></trkpt><trkpt lat="43.4584482" lon="11.1350844"><ele>118.00000000000001</ele><time>2026-04-24T15:33:03.792Z</time></trkpt><trkpt lat="43.4583953" lon="11.1349597"><ele>118.00000000000001</ele><time>2026-04-24T15:33:05.854Z</time></trkpt><trkpt lat="43.4583339" lon="11.1348693"><ele>118.0</ele><time>2026-04-24T15:33:08.795Z</time></trkpt><trkpt lat="43.4582733" lon="11.1348038"><ele>118.0</ele><time>2026-04-24T15:33:10.841Z</time></trkpt><trkpt lat="43.4582231" lon="11.1346992"><ele>119.66666666666667</ele><time>2026-04-24T15:33:12.786Z</time></trkpt><trkpt lat="43.4581883" lon="11.1345745"><ele>121.33333333333334</ele><time>2026-04-24T15:33:14.801Z</time></trkpt><trkpt lat="43.4581472" lon="11.1344383"><ele>123.0</ele><time>2026-04-24T15:33:16.811Z</time></trkpt><trkpt lat="43.4581213" lon="11.1343573"><ele>124.66666666666666</ele><time>2026-04-24T15:33:17.791Z</time></trkpt><trkpt lat="43.4580814" lon="11.1342699"><ele>126.33333333333333</ele><time>2026-04-24T15:33:18.804Z</time></trkpt><trkpt lat="43.4580472" lon="11.1341943"><ele>128.0</ele><time>2026-04-24T15:33:19.793Z</time></trkpt><trkpt lat="43.4580098" lon="11.1341211"><ele>128.5</ele><time>2026-04-24T15:33:20.791Z</time></trkpt><trkpt lat="43.4579288" lon="11.1339833"><ele>129.0</ele><time>2026-04-24T15:33:22.797Z</time></trkpt><trkpt lat="43.4578807" lon="11.133916"><ele>129.5</ele><time>2026-04-24T15:33:23.801Z</time></trkpt><trkpt lat="43.4578292" lon="11.1338588"><ele>130.0</ele><time>2026-04-24T15:33:24.802Z</time></trkpt><trkpt lat="43.4577767" lon="11.1338075"><ele>130.5</ele><time>2026-04-24T15:33:25.862Z</time></trkpt><trkpt lat="43.4577192" lon="11.1337461"><ele>131.0</ele><time>2026-04-24T15:33:26.869Z</time></trkpt><trkpt lat="43.4576517" lon="11.1336868"><ele>131.0</ele><time>2026-04-24T15:33:27.792Z</time></trkpt><trkpt lat="43.4575831" lon="11.133635"><ele>131.0</ele><time>2026-04-24T15:33:28.809Z</time></trkpt><trkpt lat="43.4575134" lon="11.1335832"><ele>131.0</ele><time>2026-04-24T15:33:29.802Z</time></trkpt><trkpt lat="43.457444" lon="11.1335422"><ele>131.0</ele><time>2026-04-24T15:33:30.874Z</time></trkpt><trkpt lat="43.4573283" lon="11.1334624"><ele>131.0</ele><time>2026-04-24T15:33:32.826Z</time></trkpt><trkpt lat="43.4572527" lon="11.1334428"><ele>131.0</ele><time>2026-04-24T15:33:33.817Z</time></trkpt><trkpt lat="43.4571808" lon="11.1334308"><ele>129.4</ele><time>2026-04-24T15:33:34.869Z</time></trkpt><trkpt lat="43.4571176" lon="11.133411"><ele>127.8</ele><time>2026-04-24T15:33:35.869Z</time></trkpt><trkpt lat="43.4570479" lon="11.1334059"><ele>126.20000000000002</ele><time>2026-04-24T15:33:36.868Z</time></trkpt><trkpt lat="43.4569228" lon="11.1333997"><ele>124.60000000000001</ele><time>2026-04-24T15:33:38.797Z</time></trkpt><trkpt lat="43.4567978" lon="11.133415"><ele>123.0</ele><time>2026-04-24T15:33:40.859Z</time></trkpt><trkpt lat="43.4566758" lon="11.133448"><ele>123.0</ele><time>2026-04-24T15:33:42.806Z</time></trkpt><trkpt lat="43.4566112" lon="11.1334676"><ele>123.00000000000001</ele><time>2026-04-24T15:33:43.797Z</time></trkpt><trkpt lat="43.4564855" lon="11.1334936"><ele>123.00000000000001</ele><time>2026-04-24T15:33:45.872Z</time></trkpt><trkpt lat="43.4563751" lon="11.1335222"><ele>123.0</ele><time>2026-04-24T15:33:47.797Z</time></trkpt><trkpt lat="43.4562707" lon="11.1336017"><ele>123.0</ele><time>2026-04-24T15:33:49.784Z</time></trkpt><trkpt lat="43.4562135" lon="11.133647"><ele>123.16666666666667</ele><time>2026-04-24T15:33:50.811Z</time></trkpt><trkpt lat="43.4561561" lon="11.1336887"><ele>123.33333333333334</ele><time>2026-04-24T15:33:51.799Z</time></trkpt><trkpt lat="43.4560522" lon="11.1337669"><ele>123.5</ele><time>2026-04-24T15:33:53.806Z</time></trkpt><trkpt lat="43.4559953" lon="11.13381"><ele>123.66666666666667</ele><time>2026-04-24T15:33:54.814Z</time></trkpt><trkpt lat="43.455933" lon="11.1338557"><ele>123.83333333333334</ele><time>2026-04-24T15:33:55.798Z</time></trkpt><trkpt lat="43.455873" lon="11.1338979"><ele>124.0</ele><time>2026-04-24T15:33:56.8Z</time></trkpt><trkpt lat="43.455757" lon="11.1339632"><ele>124.0</ele><time>2026-04-24T15:33:58.814Z</time></trkpt><trkpt lat="43.4556379" lon="11.13402"><ele>124.0</ele><time>2026-04-24T15:34:00.863Z</time></trkpt><trkpt lat="43.4554382" lon="11.134084"><ele>124.0</ele><time>2026-04-24T15:34:06.866Z</time></trkpt><trkpt lat="43.4552375" lon="11.133986"><ele>122.80000000000001</ele><time>2026-04-24T15:34:07.79Z</time></trkpt><trkpt lat="43.4551476" lon="11.134023"><ele>121.60000000000001</ele><time>2026-04-24T15:34:08.807Z</time></trkpt><trkpt lat="43.4550352" lon="11.133973"><ele>120.4</ele><time>2026-04-24T15:34:10.853Z</time></trkpt><trkpt lat="43.454917" lon="11.1339345"><ele>119.2</ele><time>2026-04-24T15:34:12.778Z</time></trkpt><trkpt lat="43.454848" lon="11.1339187"><ele>118.0</ele><time>2026-04-24T15:34:13.786Z</time></trkpt><trkpt lat="43.4547821" lon="11.1338883"><ele>118.0</ele><time>2026-04-24T15:34:14.866Z</time></trkpt><trkpt lat="43.4547194" lon="11.1338633"><ele>118.0</ele><time>2026-04-24T15:34:15.856Z</time></trkpt><trkpt lat="43.4546581" lon="11.1338379"><ele>118.0</ele><time>2026-04-24T15:34:16.872Z</time></trkpt><trkpt lat="43.4545944" lon="11.1338097"><ele>118.0</ele><time>2026-04-24T15:34:17.785Z</time></trkpt><trkpt lat="43.4545295" lon="11.1337808"><ele>118.0</ele><time>2026-04-24T15:34:18.798Z</time></trkpt><trkpt lat="43.454464" lon="11.1337583"><ele>118.0</ele><time>2026-04-24T15:34:19.877Z</time></trkpt><trkpt lat="43.454405" lon="11.1337236"><ele>118.0</ele><time>2026-04-24T15:34:20.87Z</time></trkpt><trkpt lat="43.4543015" lon="11.1336519"><ele>114.0</ele><time>2026-04-24T15:34:22.809Z</time></trkpt><trkpt lat="43.4541848" lon="11.1335974"><ele>110.0</ele><time>2026-04-24T15:34:24.818Z</time></trkpt><trkpt lat="43.4540665" lon="11.1335356"><ele>106.0</ele><time>2026-04-24T15:34:26.795Z</time></trkpt><trkpt lat="43.45395" lon="11.1334818"><ele>102.0</ele><time>2026-04-24T15:34:28.8Z</time></trkpt><trkpt lat="43.4538384" lon="11.1334276"><ele>102.19999999999999</ele><time>2026-04-24T15:34:30.786Z</time></trkpt><trkpt lat="43.4537239" lon="11.133378"><ele>102.4</ele><time>2026-04-24T15:34:32.805Z</time></trkpt><trkpt lat="43.4536131" lon="11.1333237"><ele>102.6</ele><time>2026-04-24T15:34:34.803Z</time></trkpt><trkpt lat="43.4535013" lon="11.1332642"><ele>102.80000000000001</ele><time>2026-04-24T15:34:36.883Z</time></trkpt><trkpt lat="43.4534396" lon="11.1332186"><ele>103.0</ele><time>2026-04-24T15:34:37.805Z</time></trkpt><trkpt lat="43.4533719" lon="11.1331839"><ele>103.00000000000001</ele><time>2026-04-24T15:34:38.784Z</time></trkpt><trkpt lat="43.4532966" lon="11.1331601"><ele>103.0</ele><time>2026-04-24T15:34:40.881Z</time></trkpt><trkpt lat="43.4532371" lon="11.1331291"><ele>103.0</ele><time>2026-04-24T15:34:42.801Z</time></trkpt><trkpt lat="43.4531451" lon="11.133084"><ele>103.0</ele><time>2026-04-24T15:34:45.852Z</time></trkpt><trkpt lat="43.4530683" lon="11.1330472"><ele>103.00000000000001</ele><time>2026-04-24T15:34:47.795Z</time></trkpt><trkpt lat="43.4529951" lon="11.1330083"><ele>103.0</ele><time>2026-04-24T15:34:49.806Z</time></trkpt><trkpt lat="43.4529201" lon="11.1329634"><ele>103.16666666666667</ele><time>2026-04-24T15:34:51.808Z</time></trkpt><trkpt lat="43.4528345" lon="11.132919"><ele>103.33333333333334</ele><time>2026-04-24T15:34:53.792Z</time></trkpt><trkpt lat="43.4527494" lon="11.1328797"><ele>103.5</ele><time>2026-04-24T15:34:55.808Z</time></trkpt><trkpt lat="43.4526701" lon="11.1328397"><ele>103.66666666666666</ele><time>2026-04-24T15:34:57.796Z</time></trkpt><trkpt lat="43.4525912" lon="11.1328017"><ele>103.83333333333333</ele><time>2026-04-24T15:34:59.809Z</time></trkpt><trkpt lat="43.4525104" lon="11.1327561"><ele>104.0</ele><time>2026-04-24T15:35:01.801Z</time></trkpt><trkpt lat="43.452421" lon="11.1327174"><ele>103.99999999999999</ele><time>2026-04-24T15:35:03.787Z</time></trkpt><trkpt lat="43.452337" lon="11.1326727"><ele>104.0</ele><time>2026-04-24T15:35:05.807Z</time></trkpt><trkpt lat="43.4522557" lon="11.13263"><ele>104.0</ele><time>2026-04-24T15:35:07.801Z</time></trkpt><trkpt lat="43.4521728" lon="11.132587"><ele>104.0</ele><time>2026-04-24T15:35:09.803Z</time></trkpt><trkpt lat="43.4520916" lon="11.1325424"><ele>103.99999999999999</ele><time>2026-04-24T15:35:11.882Z</time></trkpt><trkpt lat="43.4520092" lon="11.1324975"><ele>104.0</ele><time>2026-04-24T15:35:13.812Z</time></trkpt><trkpt lat="43.4519276" lon="11.1324523"><ele>103.66666666666666</ele><time>2026-04-24T15:35:15.783Z</time></trkpt><trkpt lat="43.451847" lon="11.1324138"><ele>103.33333333333333</ele><time>2026-04-24T15:35:17.793Z</time></trkpt><trkpt lat="43.4517703" lon="11.1323704"><ele>103.0</ele><time>2026-04-24T15:35:19.8Z</time></trkpt><trkpt lat="43.4516977" lon="11.1323375"><ele>102.66666666666666</ele><time>2026-04-24T15:35:21.794Z</time></trkpt><trkpt lat="43.451622" lon="11.1323026"><ele>102.33333333333333</ele><time>2026-04-24T15:35:23.811Z</time></trkpt><trkpt lat="43.4515283" lon="11.1322527"><ele>102.0</ele><time>2026-04-24T15:35:26.804Z</time></trkpt><trkpt lat="43.4514375" lon="11.1322253"><ele>102.0</ele><time>2026-04-24T15:35:28.809Z</time></trkpt><trkpt lat="43.4513513" lon="11.1321952"><ele>102.0</ele><time>2026-04-24T15:35:30.807Z</time></trkpt><trkpt lat="43.4512707" lon="11.1321632"><ele>102.0</ele><time>2026-04-24T15:35:32.783Z</time></trkpt><trkpt lat="43.451186" lon="11.1321286"><ele>102.0</ele><time>2026-04-24T15:35:34.795Z</time></trkpt><trkpt lat="43.4510963" lon="11.1320934"><ele>102.0</ele><time>2026-04-24T15:35:36.813Z</time></trkpt><trkpt lat="43.4510056" lon="11.132052"><ele>102.5</ele><time>2026-04-24T15:35:38.804Z</time></trkpt><trkpt lat="43.4509224" lon="11.1320409"><ele>103.0</ele><time>2026-04-24T15:35:40.796Z</time></trkpt><trkpt lat="43.4508363" lon="11.1320254"><ele>103.5</ele><time>2026-04-24T15:35:42.806Z</time></trkpt><trkpt lat="43.4507516" lon="11.1320069"><ele>104.0</ele><time>2026-04-24T15:35:44.8Z</time></trkpt><trkpt lat="43.4506779" lon="11.1320275"><ele>104.5</ele><time>2026-04-24T15:35:46.877Z</time></trkpt><trkpt lat="43.4506088" lon="11.132042"><ele>105.0</ele><time>2026-04-24T15:35:48.812Z</time></trkpt><trkpt lat="43.4505028" lon="11.1320127"><ele>105.2</ele><time>2026-04-24T15:35:50.804Z</time></trkpt><trkpt lat="43.4504054" lon="11.1319777"><ele>105.4</ele><time>2026-04-24T15:35:52.796Z</time></trkpt><trkpt lat="43.450316" lon="11.1319544"><ele>105.6</ele><time>2026-04-24T15:35:54.787Z</time></trkpt><trkpt lat="43.4502258" lon="11.1319447"><ele>105.8</ele><time>2026-04-24T15:35:56.879Z</time></trkpt><trkpt lat="43.450141" lon="11.1319402"><ele>106.0</ele><time>2026-04-24T15:35:58.805Z</time></trkpt><trkpt lat="43.4500553" lon="11.1319343"><ele>106.00000000000001</ele><time>2026-04-24T15:36:00.807Z</time></trkpt><trkpt lat="43.4499703" lon="11.1319277"><ele>106.0</ele><time>2026-04-24T15:36:02.804Z</time></trkpt><trkpt lat="43.4498871" lon="11.1319244"><ele>106.0</ele><time>2026-04-24T15:36:04.802Z</time></trkpt><trkpt lat="43.4498042" lon="11.1319188"><ele>106.0</ele><time>2026-04-24T15:36:06.81Z</time></trkpt><trkpt lat="43.4497215" lon="11.131915"><ele>106.00000000000001</ele><time>2026-04-24T15:36:08.8Z</time></trkpt><trkpt lat="43.449641" lon="11.1319062"><ele>106.0</ele><time>2026-04-24T15:36:10.872Z</time></trkpt><trkpt lat="43.4495588" lon="11.131887"><ele>106.33333333333334</ele><time>2026-04-24T15:36:12.781Z</time></trkpt><trkpt lat="43.4494859" lon="11.1319007"><ele>106.66666666666667</ele><time>2026-04-24T15:36:14.785Z</time></trkpt><trkpt lat="43.4494058" lon="11.1318931"><ele>107.0</ele><time>2026-04-24T15:36:16.883Z</time></trkpt><trkpt lat="43.449325" lon="11.1318837"><ele>107.33333333333334</ele><time>2026-04-24T15:36:18.805Z</time></trkpt><trkpt lat="43.4492418" lon="11.1318798"><ele>107.66666666666667</ele><time>2026-04-24T15:36:20.799Z</time></trkpt><trkpt lat="43.4491611" lon="11.1318716"><ele>108.0</ele><time>2026-04-24T15:36:22.788Z</time></trkpt><trkpt lat="43.4490799" lon="11.1318654"><ele>108.0</ele><time>2026-04-24T15:36:24.783Z</time></trkpt><trkpt lat="43.4489885" lon="11.1318561"><ele>108.0</ele><time>2026-04-24T15:36:26.843Z</time></trkpt><trkpt lat="43.448906" lon="11.1318524"><ele>108.0</ele><time>2026-04-24T15:36:28.811Z</time></trkpt><trkpt lat="43.4488315" lon="11.1318491"><ele>108.0</ele><time>2026-04-24T15:36:30.807Z</time></trkpt><trkpt lat="43.4487583" lon="11.1318448"><ele>108.0</ele><time>2026-04-24T15:36:32.805Z</time></trkpt><trkpt lat="43.4486869" lon="11.131836"><ele>108.0</ele><time>2026-04-24T15:36:34.804Z</time></trkpt><trkpt lat="43.4486113" lon="11.1318294"><ele>108.66666666666667</ele><time>2026-04-24T15:36:36.8Z</time></trkpt><trkpt lat="43.448537" lon="11.1318208"><ele>109.33333333333334</ele><time>2026-04-24T15:36:38.802Z</time></trkpt><trkpt lat="43.4484554" lon="11.1318091"><ele>110.0</ele><time>2026-04-24T15:36:40.857Z</time></trkpt><trkpt lat="43.4483591" lon="11.1318027"><ele>110.66666666666667</ele><time>2026-04-24T15:36:42.792Z</time></trkpt><trkpt lat="43.4482509" lon="11.1318034"><ele>111.33333333333334</ele><time>2026-04-24T15:36:44.795Z</time></trkpt><trkpt lat="43.4481813" lon="11.1317959"><ele>112.0</ele><time>2026-04-24T15:36:46.795Z</time></trkpt><trkpt lat="43.4481049" lon="11.131786"><ele>112.00000000000001</ele><time>2026-04-24T15:36:48.806Z</time></trkpt><trkpt lat="43.4480291" lon="11.1317851"><ele>112.0</ele><time>2026-04-24T15:36:50.789Z</time></trkpt><trkpt lat="43.4479384" lon="11.1318093"><ele>112.0</ele><time>2026-04-24T15:36:52.802Z</time></trkpt><trkpt lat="43.4478623" lon="11.131804"><ele>112.0</ele><time>2026-04-24T15:36:54.872Z</time></trkpt><trkpt lat="43.4477701" lon="11.1317783"><ele>112.00000000000001</ele><time>2026-04-24T15:36:57.79Z</time></trkpt><trkpt lat="43.4476754" lon="11.1317765"><ele>112.0</ele><time>2026-04-24T15:37:00.794Z</time></trkpt><trkpt lat="43.4476113" lon="11.1317805"><ele>112.00000000000001</ele><time>2026-04-24T15:37:02.794Z</time></trkpt><trkpt lat="43.4475402" lon="11.1317918"><ele>112.0</ele><time>2026-04-24T15:37:04.794Z</time></trkpt><trkpt lat="43.447455" lon="11.1318063"><ele>112.0</ele><time>2026-04-24T15:37:06.806Z</time></trkpt><trkpt lat="43.4473658" lon="11.1318233"><ele>112.0</ele><time>2026-04-24T15:37:08.813Z</time></trkpt><trkpt lat="43.4472747" lon="11.1318413"><ele>112.00000000000001</ele><time>2026-04-24T15:37:10.794Z</time></trkpt><trkpt lat="43.4471936" lon="11.1318643"><ele>112.0</ele><time>2026-04-24T15:37:12.792Z</time></trkpt><trkpt lat="43.447122" lon="11.131895"><ele>111.50000000000001</ele><time>2026-04-24T15:37:14.799Z</time></trkpt><trkpt lat="43.4470488" lon="11.1319289"><ele>111.0</ele><time>2026-04-24T15:37:16.873Z</time></trkpt><trkpt lat="43.4469735" lon="11.1319543"><ele>110.5</ele><time>2026-04-24T15:37:18.809Z</time></trkpt><trkpt lat="43.4468972" lon="11.1319881"><ele>110.0</ele><time>2026-04-24T15:37:20.805Z</time></trkpt><trkpt lat="43.4468343" lon="11.1320399"><ele>109.50000000000001</ele><time>2026-04-24T15:37:22.794Z</time></trkpt><trkpt lat="43.4467727" lon="11.1320994"><ele>109.0</ele><time>2026-04-24T15:37:24.782Z</time></trkpt><trkpt lat="43.4467162" lon="11.1321528"><ele>109.00000000000001</ele><time>2026-04-24T15:37:26.877Z</time></trkpt><trkpt lat="43.4466595" lon="11.1322035"><ele>109.0</ele><time>2026-04-24T15:37:28.806Z</time></trkpt><trkpt lat="43.4465992" lon="11.1322807"><ele>109.0</ele><time>2026-04-24T15:37:30.797Z</time></trkpt><trkpt lat="43.4465283" lon="11.1323632"><ele>109.0</ele><time>2026-04-24T15:37:32.795Z</time></trkpt><trkpt lat="43.4464612" lon="11.1324465"><ele>109.00000000000001</ele><time>2026-04-24T15:37:34.798Z</time></trkpt><trkpt lat="43.4464025" lon="11.1325242"><ele>109.0</ele><time>2026-04-24T15:37:36.785Z</time></trkpt><trkpt lat="43.4463459" lon="11.1326013"><ele>108.80000000000001</ele><time>2026-04-24T15:37:38.8Z</time></trkpt><trkpt lat="43.4462909" lon="11.1326952"><ele>108.60000000000001</ele><time>2026-04-24T15:37:40.804Z</time></trkpt><trkpt lat="43.4462337" lon="11.1327917"><ele>108.4</ele><time>2026-04-24T15:37:42.803Z</time></trkpt><trkpt lat="43.4461815" lon="11.1328915"><ele>108.2</ele><time>2026-04-24T15:37:44.79Z</time></trkpt><trkpt lat="43.4461305" lon="11.1329969"><ele>108.0</ele><time>2026-04-24T15:37:46.798Z</time></trkpt><trkpt lat="43.4460794" lon="11.1331014"><ele>108.0</ele><time>2026-04-24T15:37:48.797Z</time></trkpt><trkpt lat="43.4460309" lon="11.1332103"><ele>108.00000000000001</ele><time>2026-04-24T15:37:50.787Z</time></trkpt><trkpt lat="43.4459897" lon="11.133321"><ele>108.00000000000001</ele><time>2026-04-24T15:37:52.797Z</time></trkpt><trkpt lat="43.4459472" lon="11.1334228"><ele>108.0</ele><time>2026-04-24T15:37:54.806Z</time></trkpt><trkpt lat="43.4458997" lon="11.1335319"><ele>108.0</ele><time>2026-04-24T15:37:56.81Z</time></trkpt><trkpt lat="43.4458486" lon="11.1336409"><ele>108.16666666666667</ele><time>2026-04-24T15:37:58.832Z</time></trkpt><trkpt lat="43.4457922" lon="11.1337486"><ele>108.33333333333334</ele><time>2026-04-24T15:38:00.867Z</time></trkpt><trkpt lat="43.4457232" lon="11.1338401"><ele>108.5</ele><time>2026-04-24T15:38:02.798Z</time></trkpt><trkpt lat="43.4456723" lon="11.1339407"><ele>108.66666666666667</ele><time>2026-04-24T15:38:04.884Z</time></trkpt><trkpt lat="43.4456318" lon="11.1340459"><ele>108.83333333333334</ele><time>2026-04-24T15:38:06.798Z</time></trkpt><trkpt lat="43.4455935" lon="11.1341365"><ele>109.0</ele><time>2026-04-24T15:38:08.804Z</time></trkpt><trkpt lat="43.4455454" lon="11.1342258"><ele>109.00000000000001</ele><time>2026-04-24T15:38:10.87Z</time></trkpt><trkpt lat="43.4454974" lon="11.1343199"><ele>109.0</ele><time>2026-04-24T15:38:12.795Z</time></trkpt><trkpt lat="43.4454488" lon="11.134413"><ele>109.0</ele><time>2026-04-24T15:38:14.8Z</time></trkpt><trkpt lat="43.4454046" lon="11.1345025"><ele>109.0</ele><time>2026-04-24T15:38:16.793Z</time></trkpt><trkpt lat="43.4453522" lon="11.1345891"><ele>109.00000000000001</ele><time>2026-04-24T15:38:18.796Z</time></trkpt><trkpt lat="43.4453022" lon="11.1346821"><ele>109.0</ele><time>2026-04-24T15:38:20.875Z</time></trkpt><trkpt lat="43.4452428" lon="11.134783"><ele>108.6</ele><time>2026-04-24T15:38:23.814Z</time></trkpt><trkpt lat="43.4451794" lon="11.1348799"><ele>108.2</ele><time>2026-04-24T15:38:25.871Z</time></trkpt><trkpt lat="43.4451139" lon="11.13497"><ele>107.79999999999998</ele><time>2026-04-24T15:38:27.779Z</time></trkpt><trkpt lat="43.445049" lon="11.1350687"><ele>107.39999999999999</ele><time>2026-04-24T15:38:29.887Z</time></trkpt><trkpt lat="43.4449895" lon="11.1351909"><ele>107.0</ele><time>2026-04-24T15:38:31.797Z</time></trkpt><trkpt lat="43.4449231" lon="11.1353053"><ele>107.0</ele><time>2026-04-24T15:38:33.81Z</time></trkpt><trkpt lat="43.4448563" lon="11.1354171"><ele>106.99999999999999</ele><time>2026-04-24T15:38:35.804Z</time></trkpt><trkpt lat="43.4447809" lon="11.1355357"><ele>106.99999999999999</ele><time>2026-04-24T15:38:37.812Z</time></trkpt><trkpt lat="43.4447325" lon="11.1356061"><ele>107.0</ele><time>2026-04-24T15:38:38.794Z</time></trkpt><trkpt lat="43.444674" lon="11.1357145"><ele>107.0</ele><time>2026-04-24T15:38:40.808Z</time></trkpt><trkpt lat="43.4446086" lon="11.1358229"><ele>107.39999999999999</ele><time>2026-04-24T15:38:42.807Z</time></trkpt><trkpt lat="43.444544" lon="11.1359491"><ele>107.79999999999998</ele><time>2026-04-24T15:38:44.803Z</time></trkpt><trkpt lat="43.4444897" lon="11.1360411"><ele>108.2</ele><time>2026-04-24T15:38:46.79Z</time></trkpt><trkpt lat="43.4444255" lon="11.1361462"><ele>108.6</ele><time>2026-04-24T15:38:48.809Z</time></trkpt><trkpt lat="43.4443626" lon="11.1362558"><ele>109.0</ele><time>2026-04-24T15:38:50.798Z</time></trkpt><trkpt lat="43.4442987" lon="11.1363742"><ele>109.0</ele><time>2026-04-24T15:38:52.805Z</time></trkpt><trkpt lat="43.4442302" lon="11.136486"><ele>109.0</ele><time>2026-04-24T15:38:54.82Z</time></trkpt><trkpt lat="43.4441599" lon="11.136598"><ele>109.0</ele><time>2026-04-24T15:38:56.801Z</time></trkpt><trkpt lat="43.4440928" lon="11.1367108"><ele>109.0</ele><time>2026-04-24T15:38:58.818Z</time></trkpt><trkpt lat="43.444029" lon="11.1368243"><ele>109.0</ele><time>2026-04-24T15:39:00.814Z</time></trkpt><trkpt lat="43.4439682" lon="11.1369336"><ele>108.80000000000001</ele><time>2026-04-24T15:39:02.792Z</time></trkpt><trkpt lat="43.4439048" lon="11.1370406"><ele>108.60000000000001</ele><time>2026-04-24T15:39:04.793Z</time></trkpt><trkpt lat="43.4438424" lon="11.1371483"><ele>108.4</ele><time>2026-04-24T15:39:06.802Z</time></trkpt><trkpt lat="43.4437806" lon="11.1372582"><ele>108.2</ele><time>2026-04-24T15:39:08.798Z</time></trkpt><trkpt lat="43.4437203" lon="11.1373688"><ele>108.0</ele><time>2026-04-24T15:39:10.869Z</time></trkpt><trkpt lat="43.4436563" lon="11.1374607"><ele>108.75</ele><time>2026-04-24T15:39:12.793Z</time></trkpt><trkpt lat="43.4435884" lon="11.1375511"><ele>109.5</ele><time>2026-04-24T15:39:14.8Z</time></trkpt><trkpt lat="43.4434651" lon="11.1378068"><ele>110.25</ele><time>2026-04-24T15:39:18.785Z</time></trkpt><trkpt lat="43.4434162" lon="11.1378881"><ele>111.0</ele><time>2026-04-24T15:39:20.863Z</time></trkpt><trkpt lat="43.4433475" lon="11.1380037"><ele>111.0</ele><time>2026-04-24T15:39:22.798Z</time></trkpt><trkpt lat="43.4432801" lon="11.1381137"><ele>111.0</ele><time>2026-04-24T15:39:24.815Z</time></trkpt><trkpt lat="43.4432161" lon="11.1382159"><ele>111.0</ele><time>2026-04-24T15:39:26.803Z</time></trkpt><trkpt lat="43.4431525" lon="11.1383285"><ele>111.0</ele><time>2026-04-24T15:39:28.814Z</time></trkpt><trkpt lat="43.4430809" lon="11.1384435"><ele>111.0</ele><time>2026-04-24T15:39:30.801Z</time></trkpt><trkpt lat="43.4430061" lon="11.1385611"><ele>110.6</ele><time>2026-04-24T15:39:32.813Z</time></trkpt><trkpt lat="43.4429361" lon="11.1386758"><ele>110.19999999999999</ele><time>2026-04-24T15:39:34.781Z</time></trkpt><trkpt lat="43.4428668" lon="11.1387969"><ele>109.80000000000001</ele><time>2026-04-24T15:39:36.814Z</time></trkpt><trkpt lat="43.4427983" lon="11.1389146"><ele>109.4</ele><time>2026-04-24T15:39:38.797Z</time></trkpt><trkpt lat="43.4427301" lon="11.1390339"><ele>109.0</ele><time>2026-04-24T15:39:40.8Z</time></trkpt><trkpt lat="43.4426626" lon="11.1391505"><ele>109.80000000000001</ele><time>2026-04-24T15:39:42.79Z</time></trkpt><trkpt lat="43.4425862" lon="11.1392598"><ele>110.60000000000001</ele><time>2026-04-24T15:39:44.876Z</time></trkpt><trkpt lat="43.4425079" lon="11.1393558"><ele>111.4</ele><time>2026-04-24T15:39:46.879Z</time></trkpt><trkpt lat="43.4424353" lon="11.139451"><ele>112.2</ele><time>2026-04-24T15:39:48.808Z</time></trkpt><trkpt lat="43.4423636" lon="11.139551"><ele>113.0</ele><time>2026-04-24T15:39:50.872Z</time></trkpt><trkpt lat="43.4422866" lon="11.1396276"><ele>113.0</ele><time>2026-04-24T15:39:52.819Z</time></trkpt><trkpt lat="43.4422075" lon="11.1396541"><ele>113.00000000000001</ele><time>2026-04-24T15:39:54.8Z</time></trkpt><trkpt lat="43.4420903" lon="11.1396913"><ele>113.00000000000001</ele><time>2026-04-24T15:39:56.801Z</time></trkpt><trkpt lat="43.4419846" lon="11.1397654"><ele>113.0</ele><time>2026-04-24T15:39:58.811Z</time></trkpt><trkpt lat="43.4418788" lon="11.13984"><ele>113.0</ele><time>2026-04-24T15:40:00.79Z</time></trkpt><trkpt lat="43.4417717" lon="11.1398863"><ele>113.0</ele><time>2026-04-24T15:40:02.799Z</time></trkpt><trkpt lat="43.4416632" lon="11.1399294"><ele>113.00000000000001</ele><time>2026-04-24T15:40:04.808Z</time></trkpt><trkpt lat="43.4415579" lon="11.1399663"><ele>113.00000000000001</ele><time>2026-04-24T15:40:06.796Z</time></trkpt><trkpt lat="43.4414515" lon="11.140009"><ele>113.0</ele><time>2026-04-24T15:40:08.813Z</time></trkpt><trkpt lat="43.4413496" lon="11.1400419"><ele>113.0</ele><time>2026-04-24T15:40:10.875Z</time></trkpt><trkpt lat="43.4412511" lon="11.1400804"><ele>113.0</ele><time>2026-04-24T15:40:12.8Z</time></trkpt><trkpt lat="43.4411582" lon="11.1401242"><ele>113.00000000000001</ele><time>2026-04-24T15:40:14.811Z</time></trkpt><trkpt lat="43.4410646" lon="11.1401774"><ele>113.00000000000001</ele><time>2026-04-24T15:40:16.87Z</time></trkpt><trkpt lat="43.4409738" lon="11.1402358"><ele>113.0</ele><time>2026-04-24T15:40:18.811Z</time></trkpt><trkpt lat="43.4408832" lon="11.1402978"><ele>113.0</ele><time>2026-04-24T15:40:20.813Z</time></trkpt><trkpt lat="43.4407979" lon="11.1403678"><ele>113.0</ele><time>2026-04-24T15:40:22.799Z</time></trkpt><trkpt lat="43.4407163" lon="11.1404519"><ele>113.00000000000001</ele><time>2026-04-24T15:40:24.791Z</time></trkpt><trkpt lat="43.4406357" lon="11.1405436"><ele>113.00000000000001</ele><time>2026-04-24T15:40:26.818Z</time></trkpt><trkpt lat="43.4405557" lon="11.1406397"><ele>113.0</ele><time>2026-04-24T15:40:28.821Z</time></trkpt><trkpt lat="43.4404785" lon="11.1407341"><ele>113.0</ele><time>2026-04-24T15:40:30.811Z</time></trkpt><trkpt lat="43.4404052" lon="11.1408444"><ele>113.4</ele><time>2026-04-24T15:40:32.793Z</time></trkpt><trkpt lat="43.4403387" lon="11.140957"><ele>113.80000000000001</ele><time>2026-04-24T15:40:34.806Z</time></trkpt><trkpt lat="43.4402745" lon="11.1410771"><ele>114.2</ele><time>2026-04-24T15:40:36.807Z</time></trkpt><trkpt lat="43.4402168" lon="11.1411875"><ele>114.6</ele><time>2026-04-24T15:40:38.808Z</time></trkpt><trkpt lat="43.440153" lon="11.1412973"><ele>115.0</ele><time>2026-04-24T15:40:40.806Z</time></trkpt><trkpt lat="43.4400862" lon="11.1414082"><ele>115.0</ele><time>2026-04-24T15:40:42.78Z</time></trkpt><trkpt lat="43.440019" lon="11.1415272"><ele>115.0</ele><time>2026-04-24T15:40:44.799Z</time></trkpt><trkpt lat="43.439956" lon="11.1416437"><ele>115.0</ele><time>2026-04-24T15:40:46.849Z</time></trkpt><trkpt lat="43.4398917" lon="11.141758"><ele>115.0</ele><time>2026-04-24T15:40:48.799Z</time></trkpt><trkpt lat="43.4398256" lon="11.1418712"><ele>115.0</ele><time>2026-04-24T15:40:50.801Z</time></trkpt><trkpt lat="43.4397573" lon="11.141988"><ele>114.6</ele><time>2026-04-24T15:40:52.798Z</time></trkpt><trkpt lat="43.4396774" lon="11.1421048"><ele>114.2</ele><time>2026-04-24T15:40:54.893Z</time></trkpt><trkpt lat="43.4396183" lon="11.1422055"><ele>113.80000000000001</ele><time>2026-04-24T15:40:56.803Z</time></trkpt><trkpt lat="43.4395474" lon="11.1422754"><ele>113.4</ele><time>2026-04-24T15:40:58.8Z</time></trkpt><trkpt lat="43.4394696" lon="11.1423969"><ele>113.0</ele><time>2026-04-24T15:41:00.876Z</time></trkpt><trkpt lat="43.439392" lon="11.1425157"><ele>114.5</ele><time>2026-04-24T15:41:02.812Z</time></trkpt><trkpt lat="43.4393115" lon="11.1426313"><ele>116.0</ele><time>2026-04-24T15:41:04.819Z</time></trkpt><trkpt lat="43.4392311" lon="11.1427494"><ele>117.5</ele><time>2026-04-24T15:41:06.789Z</time></trkpt><trkpt lat="43.4391422" lon="11.1428603"><ele>119.0</ele><time>2026-04-24T15:41:08.811Z</time></trkpt><trkpt lat="43.4390589" lon="11.14297"><ele>119.0</ele><time>2026-04-24T15:41:10.8Z</time></trkpt><trkpt lat="43.438973" lon="11.1430619"><ele>119.0</ele><time>2026-04-24T15:41:12.804Z</time></trkpt><trkpt lat="43.4388774" lon="11.1431339"><ele>119.0</ele><time>2026-04-24T15:41:14.807Z</time></trkpt><trkpt lat="43.4387814" lon="11.1431935"><ele>119.0</ele><time>2026-04-24T15:41:16.804Z</time></trkpt><trkpt lat="43.4386897" lon="11.1432479"><ele>119.0</ele><time>2026-04-24T15:41:18.792Z</time></trkpt><trkpt lat="43.4386058" lon="11.1432903"><ele>118.6</ele><time>2026-04-24T15:41:20.801Z</time></trkpt><trkpt lat="43.4385183" lon="11.1433078"><ele>118.2</ele><time>2026-04-24T15:41:22.803Z</time></trkpt><trkpt lat="43.4384102" lon="11.1433118"><ele>117.79999999999998</ele><time>2026-04-24T15:41:24.794Z</time></trkpt><trkpt lat="43.4382941" lon="11.1433293"><ele>117.39999999999999</ele><time>2026-04-24T15:41:26.8Z</time></trkpt><trkpt lat="43.4381851" lon="11.1433318"><ele>117.0</ele><time>2026-04-24T15:41:28.818Z</time></trkpt><trkpt lat="43.4380852" lon="11.1433227"><ele>117.0</ele><time>2026-04-24T15:41:30.808Z</time></trkpt><trkpt lat="43.4379943" lon="11.1433125"><ele>116.99999999999999</ele><time>2026-04-24T15:41:32.8Z</time></trkpt><trkpt lat="43.4378974" lon="11.1432785"><ele>116.99999999999999</ele><time>2026-04-24T15:41:34.811Z</time></trkpt><trkpt lat="43.4378024" lon="11.1432369"><ele>117.0</ele><time>2026-04-24T15:41:36.887Z</time></trkpt><trkpt lat="43.437707" lon="11.1431939"><ele>117.0</ele><time>2026-04-24T15:41:38.805Z</time></trkpt><trkpt lat="43.4376081" lon="11.1431352"><ele>116.19999999999999</ele><time>2026-04-24T15:41:40.796Z</time></trkpt><trkpt lat="43.4375144" lon="11.143069"><ele>115.39999999999999</ele><time>2026-04-24T15:41:42.785Z</time></trkpt><trkpt lat="43.4374213" lon="11.1430035"><ele>114.60000000000001</ele><time>2026-04-24T15:41:44.815Z</time></trkpt><trkpt lat="43.4373389" lon="11.1429092"><ele>113.80000000000001</ele><time>2026-04-24T15:41:46.801Z</time></trkpt><trkpt lat="43.4372538" lon="11.1428187"><ele>113.0</ele><time>2026-04-24T15:41:48.819Z</time></trkpt><trkpt lat="43.4371588" lon="11.1427432"><ele>113.0</ele><time>2026-04-24T15:41:50.799Z</time></trkpt><trkpt lat="43.437069" lon="11.1426544"><ele>113.00000000000001</ele><time>2026-04-24T15:41:52.818Z</time></trkpt><trkpt lat="43.4369899" lon="11.1425528"><ele>113.00000000000001</ele><time>2026-04-24T15:41:54.802Z</time></trkpt><trkpt lat="43.4369076" lon="11.1424542"><ele>113.0</ele><time>2026-04-24T15:41:56.796Z</time></trkpt><trkpt lat="43.4368182" lon="11.142364"><ele>113.0</ele><time>2026-04-24T15:41:58.824Z</time></trkpt><trkpt lat="43.4367234" lon="11.1422718"><ele>114.2</ele><time>2026-04-24T15:42:00.81Z</time></trkpt><trkpt lat="43.4366268" lon="11.1421756"><ele>115.4</ele><time>2026-04-24T15:42:02.816Z</time></trkpt><trkpt lat="43.4365471" lon="11.1420844"><ele>116.60000000000001</ele><time>2026-04-24T15:42:04.812Z</time></trkpt><trkpt lat="43.4364718" lon="11.1419981"><ele>117.80000000000001</ele><time>2026-04-24T15:42:06.862Z</time></trkpt><trkpt lat="43.4363925" lon="11.1419115"><ele>119.0</ele><time>2026-04-24T15:42:08.797Z</time></trkpt><trkpt lat="43.4363047" lon="11.141838"><ele>119.0</ele><time>2026-04-24T15:42:10.859Z</time></trkpt><trkpt lat="43.4362042" lon="11.1417959"><ele>119.0</ele><time>2026-04-24T15:42:12.815Z</time></trkpt><trkpt lat="43.4360976" lon="11.141748"><ele>119.0</ele><time>2026-04-24T15:42:14.801Z</time></trkpt><trkpt lat="43.4359937" lon="11.1416925"><ele>119.0</ele><time>2026-04-24T15:42:16.809Z</time></trkpt><trkpt lat="43.4358968" lon="11.1416219"><ele>119.0</ele><time>2026-04-24T15:42:18.812Z</time></trkpt><trkpt lat="43.435801" lon="11.1415623"><ele>122.25</ele><time>2026-04-24T15:42:20.814Z</time></trkpt><trkpt lat="43.435698" lon="11.1415082"><ele>125.5</ele><time>2026-04-24T15:42:22.81Z</time></trkpt><trkpt lat="43.435594" lon="11.1414394"><ele>128.75</ele><time>2026-04-24T15:42:24.8Z</time></trkpt><trkpt lat="43.4354876" lon="11.1413709"><ele>132.0</ele><time>2026-04-24T15:42:26.814Z</time></trkpt><trkpt lat="43.4353771" lon="11.1413156"><ele>132.0</ele><time>2026-04-24T15:42:28.81Z</time></trkpt><trkpt lat="43.4352648" lon="11.1412607"><ele>132.0</ele><time>2026-04-24T15:42:30.788Z</time></trkpt><trkpt lat="43.4351" lon="11.1411746"><ele>132.0</ele><time>2026-04-24T15:42:33.799Z</time></trkpt><trkpt lat="43.4349949" lon="11.1411182"><ele>132.0</ele><time>2026-04-24T15:42:35.861Z</time></trkpt><trkpt lat="43.4348999" lon="11.141062"><ele>132.0</ele><time>2026-04-24T15:42:37.804Z</time></trkpt><trkpt lat="43.4348091" lon="11.1410084"><ele>132.0</ele><time>2026-04-24T15:42:39.807Z</time></trkpt><trkpt lat="43.434726" lon="11.1409422"><ele>132.0</ele><time>2026-04-24T15:42:41.793Z</time></trkpt><trkpt lat="43.4346388" lon="11.1408778"><ele>132.0</ele><time>2026-04-24T15:42:43.8Z</time></trkpt><trkpt lat="43.4345374" lon="11.1408031"><ele>132.0</ele><time>2026-04-24T15:42:45.879Z</time></trkpt><trkpt lat="43.434457" lon="11.1407221"><ele>133.2</ele><time>2026-04-24T15:42:47.801Z</time></trkpt><trkpt lat="43.4343829" lon="11.1406398"><ele>134.39999999999998</ele><time>2026-04-24T15:42:49.805Z</time></trkpt><trkpt lat="43.4343023" lon="11.1405683"><ele>135.60000000000002</ele><time>2026-04-24T15:42:51.797Z</time></trkpt><trkpt lat="43.4342158" lon="11.1405063"><ele>136.8</ele><time>2026-04-24T15:42:53.8Z</time></trkpt><trkpt lat="43.4341277" lon="11.1404312"><ele>138.0</ele><time>2026-04-24T15:42:55.795Z</time></trkpt><trkpt lat="43.4340357" lon="11.1403557"><ele>138.0</ele><time>2026-04-24T15:42:57.806Z</time></trkpt><trkpt lat="43.4339438" lon="11.1402945"><ele>138.0</ele><time>2026-04-24T15:42:59.803Z</time></trkpt><trkpt lat="43.4338574" lon="11.1402125"><ele>138.0</ele><time>2026-04-24T15:43:01.805Z</time></trkpt><trkpt lat="43.4337705" lon="11.140134"><ele>138.0</ele><time>2026-04-24T15:43:03.806Z</time></trkpt><trkpt lat="43.4336796" lon="11.1400618"><ele>138.0</ele><time>2026-04-24T15:43:05.802Z</time></trkpt><trkpt lat="43.4335957" lon="11.1399908"><ele>139.0</ele><time>2026-04-24T15:43:07.797Z</time></trkpt><trkpt lat="43.4335102" lon="11.139917"><ele>140.0</ele><time>2026-04-24T15:43:09.807Z</time></trkpt><trkpt lat="43.4334332" lon="11.1398429"><ele>141.0</ele><time>2026-04-24T15:43:11.794Z</time></trkpt><trkpt lat="43.4333545" lon="11.1397547"><ele>142.0</ele><time>2026-04-24T15:43:13.804Z</time></trkpt><trkpt lat="43.4332638" lon="11.1396713"><ele>143.0</ele><time>2026-04-24T15:43:15.796Z</time></trkpt><trkpt lat="43.4331792" lon="11.1395926"><ele>143.0</ele><time>2026-04-24T15:43:17.782Z</time></trkpt><trkpt lat="43.4330885" lon="11.139519"><ele>143.0</ele><time>2026-04-24T15:43:19.774Z</time></trkpt><trkpt lat="43.433018" lon="11.1394147"><ele>143.0</ele><time>2026-04-24T15:43:21.869Z</time></trkpt><trkpt lat="43.4329375" lon="11.1393261"><ele>143.0</ele><time>2026-04-24T15:43:23.813Z</time></trkpt><trkpt lat="43.4328313" lon="11.1392523"><ele>143.0</ele><time>2026-04-24T15:43:25.811Z</time></trkpt><trkpt lat="43.4327384" lon="11.1391941"><ele>142.0</ele><time>2026-04-24T15:43:27.811Z</time></trkpt><trkpt lat="43.4326544" lon="11.1391312"><ele>141.0</ele><time>2026-04-24T15:43:29.804Z</time></trkpt><trkpt lat="43.432572" lon="11.1390648"><ele>140.0</ele><time>2026-04-24T15:43:31.786Z</time></trkpt><trkpt lat="43.4324851" lon="11.1389944"><ele>139.0</ele><time>2026-04-24T15:43:33.804Z</time></trkpt><trkpt lat="43.4324004" lon="11.1389154"><ele>138.0</ele><time>2026-04-24T15:43:35.813Z</time></trkpt><trkpt lat="43.4323285" lon="11.1388317"><ele>138.0</ele><time>2026-04-24T15:43:37.81Z</time></trkpt><trkpt lat="43.4322616" lon="11.1387287"><ele>138.0</ele><time>2026-04-24T15:43:39.802Z</time></trkpt><trkpt lat="43.4321968" lon="11.1386195"><ele>138.0</ele><time>2026-04-24T15:43:41.797Z</time></trkpt><trkpt lat="43.4321399" lon="11.1385114"><ele>138.0</ele><time>2026-04-24T15:43:43.793Z</time></trkpt><trkpt lat="43.4321001" lon="11.138407"><ele>138.0</ele><time>2026-04-24T15:43:45.767Z</time></trkpt><trkpt lat="43.4320545" lon="11.1382764"><ele>135.20000000000002</ele><time>2026-04-24T15:43:47.813Z</time></trkpt><trkpt lat="43.4320072" lon="11.1381385"><ele>132.4</ele><time>2026-04-24T15:43:49.793Z</time></trkpt><trkpt lat="43.4319789" lon="11.1380028"><ele>129.60000000000002</ele><time>2026-04-24T15:43:51.801Z</time></trkpt><trkpt lat="43.4319657" lon="11.1378817"><ele>126.80000000000001</ele><time>2026-04-24T15:43:53.806Z</time></trkpt><trkpt lat="43.4319695" lon="11.137766"><ele>124.0</ele><time>2026-04-24T15:43:55.858Z</time></trkpt><trkpt lat="43.4319522" lon="11.1376735"><ele>124.00000000000001</ele><time>2026-04-24T15:43:57.812Z</time></trkpt><trkpt lat="43.4319305" lon="11.1375905"><ele>124.0</ele><time>2026-04-24T15:43:59.81Z</time></trkpt><trkpt lat="43.4319221" lon="11.1374943"><ele>124.0</ele><time>2026-04-24T15:44:01.788Z</time></trkpt><trkpt lat="43.4319367" lon="11.1373898"><ele>124.0</ele><time>2026-04-24T15:44:03.782Z</time></trkpt><trkpt lat="43.4319483" lon="11.1372685"><ele>124.00000000000001</ele><time>2026-04-24T15:44:05.816Z</time></trkpt><trkpt lat="43.4319653" lon="11.1371354"><ele>124.0</ele><time>2026-04-24T15:44:07.785Z</time></trkpt><trkpt lat="43.4319809" lon="11.1370011"><ele>123.4</ele><time>2026-04-24T15:44:09.799Z</time></trkpt><trkpt lat="43.432011" lon="11.1368613"><ele>122.80000000000001</ele><time>2026-04-24T15:44:11.819Z</time></trkpt><trkpt lat="43.4320468" lon="11.1367153"><ele>122.19999999999999</ele><time>2026-04-24T15:44:13.816Z</time></trkpt><trkpt lat="43.4320792" lon="11.1365713"><ele>121.6</ele><time>2026-04-24T15:44:15.858Z</time></trkpt><trkpt lat="43.4321124" lon="11.1364323"><ele>121.0</ele><time>2026-04-24T15:44:17.799Z</time></trkpt><trkpt lat="43.4321502" lon="11.1362885"><ele>121.4</ele><time>2026-04-24T15:44:19.874Z</time></trkpt><trkpt lat="43.4321809" lon="11.1361474"><ele>121.8</ele><time>2026-04-24T15:44:21.802Z</time></trkpt><trkpt lat="43.4322018" lon="11.1360025"><ele>122.20000000000002</ele><time>2026-04-24T15:44:23.802Z</time></trkpt><trkpt lat="43.4322178" lon="11.1358554"><ele>122.60000000000001</ele><time>2026-04-24T15:44:25.874Z</time></trkpt><trkpt lat="43.432245" lon="11.1357216"><ele>123.0</ele><time>2026-04-24T15:44:27.795Z</time></trkpt><trkpt lat="43.4322761" lon="11.1355987"><ele>123.0</ele><time>2026-04-24T15:44:29.791Z</time></trkpt><trkpt lat="43.4322735" lon="11.1354522"><ele>123.00000000000001</ele><time>2026-04-24T15:44:31.792Z</time></trkpt><trkpt lat="43.4322587" lon="11.1352913"><ele>123.00000000000001</ele><time>2026-04-24T15:44:33.804Z</time></trkpt><trkpt lat="43.4322556" lon="11.1351367"><ele>123.0</ele><time>2026-04-24T15:44:35.888Z</time></trkpt><trkpt lat="43.4322456" lon="11.1349895"><ele>123.0</ele><time>2026-04-24T15:44:37.807Z</time></trkpt><trkpt lat="43.4322261" lon="11.134845"><ele>122.2</ele><time>2026-04-24T15:44:39.807Z</time></trkpt><trkpt lat="43.4322117" lon="11.134704"><ele>121.4</ele><time>2026-04-24T15:44:41.812Z</time></trkpt><trkpt lat="43.4321889" lon="11.1345696"><ele>120.60000000000001</ele><time>2026-04-24T15:44:43.801Z</time></trkpt><trkpt lat="43.4321656" lon="11.1344376"><ele>119.80000000000001</ele><time>2026-04-24T15:44:45.813Z</time></trkpt><trkpt lat="43.4321417" lon="11.1343067"><ele>119.0</ele><time>2026-04-24T15:44:47.816Z</time></trkpt><trkpt lat="43.4321065" lon="11.1341794"><ele>121.0</ele><time>2026-04-24T15:44:49.796Z</time></trkpt><trkpt lat="43.4320655" lon="11.1340504"><ele>123.0</ele><time>2026-04-24T15:44:51.794Z</time></trkpt><trkpt lat="43.4320215" lon="11.1339265"><ele>125.0</ele><time>2026-04-24T15:44:53.811Z</time></trkpt><trkpt lat="43.431967" lon="11.1338085"><ele>127.0</ele><time>2026-04-24T15:44:55.857Z</time></trkpt><trkpt lat="43.4319164" lon="11.1336903"><ele>129.0</ele><time>2026-04-24T15:44:57.882Z</time></trkpt><trkpt lat="43.4318798" lon="11.1335699"><ele>129.0</ele><time>2026-04-24T15:44:59.799Z</time></trkpt><trkpt lat="43.4318131" lon="11.1334624"><ele>129.0</ele><time>2026-04-24T15:45:01.787Z</time></trkpt><trkpt lat="43.431761" lon="11.1333618"><ele>129.0</ele><time>2026-04-24T15:45:03.78Z</time></trkpt><trkpt lat="43.4317067" lon="11.1332493"><ele>129.0</ele><time>2026-04-24T15:45:05.788Z</time></trkpt><trkpt lat="43.4316582" lon="11.1331317"><ele>129.0</ele><time>2026-04-24T15:45:07.801Z</time></trkpt><trkpt lat="43.4316093" lon="11.1330142"><ele>131.2</ele><time>2026-04-24T15:45:09.813Z</time></trkpt><trkpt lat="43.4315723" lon="11.1328986"><ele>133.4</ele><time>2026-04-24T15:45:11.866Z</time></trkpt><trkpt lat="43.4315462" lon="11.1327754"><ele>135.6</ele><time>2026-04-24T15:45:13.803Z</time></trkpt><trkpt lat="43.4315258" lon="11.1326471"><ele>137.8</ele><time>2026-04-24T15:45:15.807Z</time></trkpt><trkpt lat="43.4315153" lon="11.132519"><ele>140.0</ele><time>2026-04-24T15:45:17.801Z</time></trkpt><trkpt lat="43.431505" lon="11.1323969"><ele>140.16666666666666</ele><time>2026-04-24T15:45:19.801Z</time></trkpt><trkpt lat="43.4315033" lon="11.1322758"><ele>140.33333333333331</ele><time>2026-04-24T15:45:21.811Z</time></trkpt><trkpt lat="43.4315024" lon="11.1321556"><ele>140.5</ele><time>2026-04-24T15:45:23.813Z</time></trkpt><trkpt lat="43.4315027" lon="11.1320493"><ele>140.66666666666666</ele><time>2026-04-24T15:45:25.808Z</time></trkpt><trkpt lat="43.4315081" lon="11.1319424"><ele>140.83333333333334</ele><time>2026-04-24T15:45:28.812Z</time></trkpt><trkpt lat="43.4315254" lon="11.1318428"><ele>141.0</ele><time>2026-04-24T15:45:32.813Z</time></trkpt><trkpt lat="43.4315433" lon="11.1317208"><ele>141.0</ele><time>2026-04-24T15:45:35.869Z</time></trkpt><trkpt lat="43.43156" lon="11.1316346"><ele>141.0</ele><time>2026-04-24T15:45:37.799Z</time></trkpt><trkpt lat="43.4315895" lon="11.1314937"><ele>141.0</ele><time>2026-04-24T15:45:40.86Z</time></trkpt><trkpt lat="43.4315752" lon="11.1313249"><ele>141.0</ele><time>2026-04-24T15:45:42.807Z</time></trkpt><trkpt lat="43.4315529" lon="11.1311687"><ele>141.0</ele><time>2026-04-24T15:45:44.819Z</time></trkpt><trkpt lat="43.4315197" lon="11.1310218"><ele>142.0</ele><time>2026-04-24T15:45:46.819Z</time></trkpt><trkpt lat="43.4314847" lon="11.1308911"><ele>143.0</ele><time>2026-04-24T15:45:48.807Z</time></trkpt><trkpt lat="43.4314477" lon="11.1307704"><ele>144.0</ele><time>2026-04-24T15:45:50.796Z</time></trkpt><trkpt lat="43.4314132" lon="11.1306635"><ele>145.0</ele><time>2026-04-24T15:45:52.801Z</time></trkpt><trkpt lat="43.4313792" lon="11.1305567"><ele>146.0</ele><time>2026-04-24T15:45:54.803Z</time></trkpt><trkpt lat="43.4313404" lon="11.130444"><ele>143.66666666666666</ele><time>2026-04-24T15:45:56.8Z</time></trkpt><trkpt lat="43.4313071" lon="11.1303298"><ele>141.33333333333331</ele><time>2026-04-24T15:45:58.806Z</time></trkpt><trkpt lat="43.43127" lon="11.1302156"><ele>139.0</ele><time>2026-04-24T15:46:00.805Z</time></trkpt><trkpt lat="43.4312359" lon="11.1301069"><ele>136.66666666666666</ele><time>2026-04-24T15:46:02.806Z</time></trkpt><trkpt lat="43.4312" lon="11.1300226"><ele>134.33333333333334</ele><time>2026-04-24T15:46:04.802Z</time></trkpt><trkpt lat="43.4311577" lon="11.1299362"><ele>132.0</ele><time>2026-04-24T15:46:06.882Z</time></trkpt><trkpt lat="43.4311388" lon="11.1298363"><ele>132.0</ele><time>2026-04-24T15:46:08.804Z</time></trkpt><trkpt lat="43.4311035" lon="11.129729"><ele>132.0</ele><time>2026-04-24T15:46:10.806Z</time></trkpt><trkpt lat="43.4310645" lon="11.1296082"><ele>132.0</ele><time>2026-04-24T15:46:12.806Z</time></trkpt><trkpt lat="43.4310304" lon="11.1294943"><ele>132.0</ele><time>2026-04-24T15:46:14.795Z</time></trkpt><trkpt lat="43.430999" lon="11.1293814"><ele>132.0</ele><time>2026-04-24T15:46:16.869Z</time></trkpt><trkpt lat="43.4309734" lon="11.129257"><ele>132.0</ele><time>2026-04-24T15:46:18.803Z</time></trkpt><trkpt lat="43.4309256" lon="11.1291364"><ele>132.0</ele><time>2026-04-24T15:46:20.87Z</time></trkpt><trkpt lat="43.4308852" lon="11.1290331"><ele>132.0</ele><time>2026-04-24T15:46:22.81Z</time></trkpt><trkpt lat="43.4308353" lon="11.1289212"><ele>132.0</ele><time>2026-04-24T15:46:24.819Z</time></trkpt><trkpt lat="43.430794" lon="11.1288124"><ele>132.0</ele><time>2026-04-24T15:46:26.816Z</time></trkpt><trkpt lat="43.4307425" lon="11.1287136"><ele>132.2</ele><time>2026-04-24T15:46:28.821Z</time></trkpt><trkpt lat="43.430696" lon="11.1286158"><ele>132.39999999999998</ele><time>2026-04-24T15:46:30.824Z</time></trkpt><trkpt lat="43.4306429" lon="11.1285179"><ele>132.60000000000002</ele><time>2026-04-24T15:46:32.8Z</time></trkpt><trkpt lat="43.4305904" lon="11.1284158"><ele>132.8</ele><time>2026-04-24T15:46:34.81Z</time></trkpt><trkpt lat="43.4305389" lon="11.1283094"><ele>133.0</ele><time>2026-04-24T15:46:36.871Z</time></trkpt><trkpt lat="43.4304874" lon="11.1282022"><ele>133.0</ele><time>2026-04-24T15:46:38.818Z</time></trkpt><trkpt lat="43.4304345" lon="11.1280937"><ele>133.0</ele><time>2026-04-24T15:46:40.803Z</time></trkpt><trkpt lat="43.4303835" lon="11.1279677"><ele>133.0</ele><time>2026-04-24T15:46:42.808Z</time></trkpt><trkpt lat="43.4303442" lon="11.1278844"><ele>133.0</ele><time>2026-04-24T15:46:44.811Z</time></trkpt><trkpt lat="43.4302845" lon="11.1278083"><ele>133.0</ele><time>2026-04-24T15:46:47.81Z</time></trkpt><trkpt lat="43.4302906" lon="11.127718"><ele>133.0</ele><time>2026-04-24T15:46:49.786Z</time></trkpt><trkpt lat="43.430285" lon="11.1276219"><ele>133.0</ele><time>2026-04-24T15:46:51.804Z</time></trkpt><trkpt lat="43.4302606" lon="11.1275352"><ele>133.0</ele><time>2026-04-24T15:46:53.816Z</time></trkpt><trkpt lat="43.4301733" lon="11.1274297"><ele>133.0</ele><time>2026-04-24T15:46:55.805Z</time></trkpt><trkpt lat="43.4301065" lon="11.1273179"><ele>133.0</ele><time>2026-04-24T15:46:57.796Z</time></trkpt><trkpt lat="43.430043" lon="11.1272421"><ele>133.0</ele><time>2026-04-24T15:46:59.817Z</time></trkpt><trkpt lat="43.4299827" lon="11.1271547"><ele>133.16666666666669</ele><time>2026-04-24T15:47:01.816Z</time></trkpt><trkpt lat="43.4299302" lon="11.1270541"><ele>133.33333333333334</ele><time>2026-04-24T15:47:03.81Z</time></trkpt><trkpt lat="43.4298892" lon="11.1269488"><ele>133.5</ele><time>2026-04-24T15:47:05.803Z</time></trkpt><trkpt lat="43.4298412" lon="11.1268521"><ele>133.66666666666666</ele><time>2026-04-24T15:47:07.822Z</time></trkpt><trkpt lat="43.4297858" lon="11.1267613"><ele>133.83333333333331</ele><time>2026-04-24T15:47:09.806Z</time></trkpt><trkpt lat="43.4297082" lon="11.1267045"><ele>134.0</ele><time>2026-04-24T15:47:11.887Z</time></trkpt><trkpt lat="43.4296166" lon="11.1266805"><ele>134.2</ele><time>2026-04-24T15:47:13.801Z</time></trkpt><trkpt lat="43.4295237" lon="11.1266572"><ele>134.4</ele><time>2026-04-24T15:47:15.807Z</time></trkpt><trkpt lat="43.429442" lon="11.1266085"><ele>134.6</ele><time>2026-04-24T15:47:17.792Z</time></trkpt><trkpt lat="43.4293607" lon="11.1265411"><ele>134.8</ele><time>2026-04-24T15:47:19.806Z</time></trkpt><trkpt lat="43.4292792" lon="11.1264673"><ele>135.0</ele><time>2026-04-24T15:47:21.802Z</time></trkpt><trkpt lat="43.4291748" lon="11.126377"><ele>136.2</ele><time>2026-04-24T15:47:23.799Z</time></trkpt><trkpt lat="43.4290788" lon="11.1263408"><ele>137.4</ele><time>2026-04-24T15:47:25.879Z</time></trkpt><trkpt lat="43.4289964" lon="11.1263199"><ele>138.6</ele><time>2026-04-24T15:47:27.804Z</time></trkpt><trkpt lat="43.428911" lon="11.1262854"><ele>139.8</ele><time>2026-04-24T15:47:29.807Z</time></trkpt><trkpt lat="43.428827" lon="11.1262427"><ele>141.0</ele><time>2026-04-24T15:47:31.858Z</time></trkpt><trkpt lat="43.4287556" lon="11.1261633"><ele>141.0</ele><time>2026-04-24T15:47:33.801Z</time></trkpt><trkpt lat="43.4286481" lon="11.1261326"><ele>141.0</ele><time>2026-04-24T15:47:35.792Z</time></trkpt><trkpt lat="43.4285539" lon="11.1261025"><ele>141.0</ele><time>2026-04-24T15:47:37.808Z</time></trkpt><trkpt lat="43.4284612" lon="11.1260757"><ele>141.0</ele><time>2026-04-24T15:47:39.795Z</time></trkpt><trkpt lat="43.4283628" lon="11.1260615"><ele>141.0</ele><time>2026-04-24T15:47:41.867Z</time></trkpt><trkpt lat="43.4282684" lon="11.1260391"><ele>141.0</ele><time>2026-04-24T15:47:43.804Z</time></trkpt><trkpt lat="43.4281724" lon="11.1260171"><ele>141.0</ele><time>2026-04-24T15:47:45.855Z</time></trkpt><trkpt lat="43.428078" lon="11.1259979"><ele>141.0</ele><time>2026-04-24T15:47:47.8Z</time></trkpt><trkpt lat="43.4279813" lon="11.1259754"><ele>141.0</ele><time>2026-04-24T15:47:49.805Z</time></trkpt><trkpt lat="43.4278798" lon="11.1259462"><ele>141.0</ele><time>2026-04-24T15:47:51.808Z</time></trkpt><trkpt lat="43.4277756" lon="11.1259011"><ele>140.8</ele><time>2026-04-24T15:47:53.796Z</time></trkpt><trkpt lat="43.4276808" lon="11.1258713"><ele>140.6</ele><time>2026-04-24T15:47:55.871Z</time></trkpt><trkpt lat="43.427583" lon="11.1258499"><ele>140.4</ele><time>2026-04-24T15:47:57.79Z</time></trkpt><trkpt lat="43.4274751" lon="11.1258286"><ele>140.2</ele><time>2026-04-24T15:47:59.8Z</time></trkpt><trkpt lat="43.4273698" lon="11.1258113"><ele>140.0</ele><time>2026-04-24T15:48:01.863Z</time></trkpt><trkpt lat="43.4272851" lon="11.125784"><ele>140.0</ele><time>2026-04-24T15:48:03.79Z</time></trkpt><trkpt lat="43.4271894" lon="11.125756"><ele>140.0</ele><time>2026-04-24T15:48:05.799Z</time></trkpt><trkpt lat="43.4270882" lon="11.1257258"><ele>140.0</ele><time>2026-04-24T15:48:07.79Z</time></trkpt><trkpt lat="43.4269877" lon="11.125706"><ele>140.0</ele><time>2026-04-24T15:48:09.793Z</time></trkpt><trkpt lat="43.4268842" lon="11.125685"><ele>140.0</ele><time>2026-04-24T15:48:11.781Z</time></trkpt><trkpt lat="43.4267843" lon="11.1256593"><ele>140.6</ele><time>2026-04-24T15:48:13.803Z</time></trkpt><trkpt lat="43.4266819" lon="11.1256422"><ele>141.2</ele><time>2026-04-24T15:48:15.809Z</time></trkpt><trkpt lat="43.4265799" lon="11.1256132"><ele>141.8</ele><time>2026-04-24T15:48:17.809Z</time></trkpt><trkpt lat="43.4264786" lon="11.1255924"><ele>142.4</ele><time>2026-04-24T15:48:19.799Z</time></trkpt><trkpt lat="43.4263809" lon="11.1255605"><ele>143.0</ele><time>2026-04-24T15:48:21.789Z</time></trkpt><trkpt lat="43.4262801" lon="11.1255314"><ele>143.20000000000002</ele><time>2026-04-24T15:48:23.797Z</time></trkpt><trkpt lat="43.4261814" lon="11.1255145"><ele>143.4</ele><time>2026-04-24T15:48:25.794Z</time></trkpt><trkpt lat="43.426088" lon="11.1254825"><ele>143.60000000000002</ele><time>2026-04-24T15:48:27.789Z</time></trkpt><trkpt lat="43.4259911" lon="11.1254932"><ele>143.8</ele><time>2026-04-24T15:48:29.805Z</time></trkpt><trkpt lat="43.4258983" lon="11.1254784"><ele>144.0</ele><time>2026-04-24T15:48:31.794Z</time></trkpt><trkpt lat="43.4257946" lon="11.1254607"><ele>144.00000000000003</ele><time>2026-04-24T15:48:33.787Z</time></trkpt><trkpt lat="43.4257098" lon="11.1254806"><ele>144.0</ele><time>2026-04-24T15:48:35.879Z</time></trkpt><trkpt lat="43.4256386" lon="11.1255066"><ele>144.0</ele><time>2026-04-24T15:48:37.814Z</time></trkpt><trkpt lat="43.4255595" lon="11.1255331"><ele>144.0</ele><time>2026-04-24T15:48:40.798Z</time></trkpt><trkpt lat="43.425502" lon="11.1255777"><ele>144.0</ele><time>2026-04-24T15:48:44.801Z</time></trkpt><trkpt lat="43.4254305" lon="11.1255991"><ele>144.00000000000003</ele><time>2026-04-24T15:48:47.797Z</time></trkpt><trkpt lat="43.4253663" lon="11.1256304"><ele>144.0</ele><time>2026-04-24T15:48:49.808Z</time></trkpt><trkpt lat="43.4252898" lon="11.1256564"><ele>143.66666666666666</ele><time>2026-04-24T15:48:52.803Z</time></trkpt><trkpt lat="43.4252499" lon="11.1255814"><ele>143.33333333333334</ele><time>2026-04-24T15:48:56.798Z</time></trkpt><trkpt lat="43.425182" lon="11.1256044"><ele>143.0</ele><time>2026-04-24T15:48:59.799Z</time></trkpt><trkpt lat="43.4250831" lon="11.1256469"><ele>142.66666666666669</ele><time>2026-04-24T15:49:01.791Z</time></trkpt><trkpt lat="43.4249878" lon="11.1256802"><ele>142.33333333333334</ele><time>2026-04-24T15:49:03.809Z</time></trkpt><trkpt lat="43.4249147" lon="11.125784"><ele>142.0</ele><time>2026-04-24T15:49:05.795Z</time></trkpt><trkpt lat="43.4248734" lon="11.1259324"><ele>142.0</ele><time>2026-04-24T15:49:07.865Z</time></trkpt><trkpt lat="43.424755" lon="11.1261118"><ele>142.0</ele><time>2026-04-24T15:49:10.787Z</time></trkpt><trkpt lat="43.4247614" lon="11.1262214"><ele>142.0</ele><time>2026-04-24T15:49:11.779Z</time></trkpt><trkpt lat="43.4247104" lon="11.1263568"><ele>142.0</ele><time>2026-04-24T15:49:13.791Z</time></trkpt><trkpt lat="43.4246475" lon="11.1264802"><ele>141.66666666666669</ele><time>2026-04-24T15:49:15.805Z</time></trkpt><trkpt lat="43.4246002" lon="11.126539"><ele>141.33333333333334</ele><time>2026-04-24T15:49:16.778Z</time></trkpt><trkpt lat="43.4245509" lon="11.126598"><ele>141.0</ele><time>2026-04-24T15:49:17.789Z</time></trkpt><trkpt lat="43.4244903" lon="11.1266992"><ele>140.66666666666666</ele><time>2026-04-24T15:49:19.815Z</time></trkpt><trkpt lat="43.4244307" lon="11.126803"><ele>140.33333333333331</ele><time>2026-04-24T15:49:21.785Z</time></trkpt><trkpt lat="43.4243599" lon="11.1269208"><ele>140.0</ele><time>2026-04-24T15:49:23.806Z</time></trkpt><trkpt lat="43.4242814" lon="11.1270426"><ele>139.6</ele><time>2026-04-24T15:49:25.875Z</time></trkpt><trkpt lat="43.4242372" lon="11.1271071"><ele>139.2</ele><time>2026-04-24T15:49:26.814Z</time></trkpt><trkpt lat="43.4241373" lon="11.1272261"><ele>138.8</ele><time>2026-04-24T15:49:28.8Z</time></trkpt><trkpt lat="43.4240522" lon="11.127298"><ele>138.4</ele><time>2026-04-24T15:49:30.812Z</time></trkpt><trkpt lat="43.4239897" lon="11.1273269"><ele>138.0</ele><time>2026-04-24T15:49:31.799Z</time></trkpt><trkpt lat="43.4238715" lon="11.1273778"><ele>138.6</ele><time>2026-04-24T15:49:33.799Z</time></trkpt><trkpt lat="43.42381" lon="11.1274011"><ele>139.20000000000002</ele><time>2026-04-24T15:49:34.8Z</time></trkpt><trkpt lat="43.4236888" lon="11.12744"><ele>139.8</ele><time>2026-04-24T15:49:36.799Z</time></trkpt><trkpt lat="43.4236248" lon="11.1274533"><ele>140.4</ele><time>2026-04-24T15:49:37.876Z</time></trkpt><trkpt lat="43.423513" lon="11.1274334"><ele>141.0</ele><time>2026-04-24T15:49:39.795Z</time></trkpt><trkpt lat="43.4233979" lon="11.127423"><ele>141.0</ele><time>2026-04-24T15:49:41.889Z</time></trkpt><trkpt lat="43.4233249" lon="11.1274432"><ele>141.0</ele><time>2026-04-24T15:49:42.814Z</time></trkpt><trkpt lat="43.4232543" lon="11.1274642"><ele>141.0</ele><time>2026-04-24T15:49:43.815Z</time></trkpt><trkpt lat="43.4231878" lon="11.1274781"><ele>141.0</ele><time>2026-04-24T15:49:44.795Z</time></trkpt><trkpt lat="43.4231246" lon="11.1274836"><ele>141.0</ele><time>2026-04-24T15:49:45.798Z</time></trkpt><trkpt lat="43.4230042" lon="11.1275"><ele>141.0</ele><time>2026-04-24T15:49:47.8Z</time></trkpt><trkpt lat="43.4229414" lon="11.1275093"><ele>141.2</ele><time>2026-04-24T15:49:48.792Z</time></trkpt><trkpt lat="43.4228197" lon="11.1275337"><ele>141.39999999999998</ele><time>2026-04-24T15:49:50.805Z</time></trkpt><trkpt lat="43.4227528" lon="11.1275452"><ele>141.6</ele><time>2026-04-24T15:49:51.808Z</time></trkpt><trkpt lat="43.4226851" lon="11.1275561"><ele>141.79999999999998</ele><time>2026-04-24T15:49:52.803Z</time></trkpt><trkpt lat="43.4225678" lon="11.1275874"><ele>142.0</ele><time>2026-04-24T15:49:54.809Z</time></trkpt><trkpt lat="43.422472" lon="11.1276636"><ele>142.0</ele><time>2026-04-24T15:49:56.795Z</time></trkpt><trkpt lat="43.422387" lon="11.1277692"><ele>142.0</ele><time>2026-04-24T15:49:58.782Z</time></trkpt><trkpt lat="43.4223097" lon="11.1278769"><ele>142.0</ele><time>2026-04-24T15:50:00.802Z</time></trkpt><trkpt lat="43.4222405" lon="11.1279838"><ele>142.0</ele><time>2026-04-24T15:50:02.809Z</time></trkpt><trkpt lat="43.4221671" lon="11.1280838"><ele>142.0</ele><time>2026-04-24T15:50:04.81Z</time></trkpt><trkpt lat="43.4221217" lon="11.1282018"><ele>142.79999999999998</ele><time>2026-04-24T15:50:06.874Z</time></trkpt><trkpt lat="43.4220491" lon="11.1282754"><ele>143.6</ele><time>2026-04-24T15:50:08.804Z</time></trkpt><trkpt lat="43.4219652" lon="11.1283734"><ele>144.39999999999998</ele><time>2026-04-24T15:50:10.821Z</time></trkpt><trkpt lat="43.4219118" lon="11.1284944"><ele>145.2</ele><time>2026-04-24T15:50:12.801Z</time></trkpt><trkpt lat="43.4218584" lon="11.1285958"><ele>146.0</ele><time>2026-04-24T15:50:14.813Z</time></trkpt><trkpt lat="43.421793" lon="11.128665"><ele>146.0</ele><time>2026-04-24T15:50:16.802Z</time></trkpt><trkpt lat="43.4217255" lon="11.1286876"><ele>146.0</ele><time>2026-04-24T15:50:18.801Z</time></trkpt><trkpt lat="43.4216638" lon="11.1286644"><ele>146.0</ele><time>2026-04-24T15:50:20.787Z</time></trkpt><trkpt lat="43.4215726" lon="11.1286181"><ele>146.0</ele><time>2026-04-24T15:50:22.805Z</time></trkpt><trkpt lat="43.4214948" lon="11.1285651"><ele>146.0</ele><time>2026-04-24T15:50:24.816Z</time></trkpt><trkpt lat="43.4214238" lon="11.1284834"><ele>146.0</ele><time>2026-04-24T15:50:26.795Z</time></trkpt><trkpt lat="43.4213506" lon="11.1284132"><ele>146.5</ele><time>2026-04-24T15:50:28.797Z</time></trkpt><trkpt lat="43.4212779" lon="11.1283425"><ele>147.0</ele><time>2026-04-24T15:50:30.815Z</time></trkpt><trkpt lat="43.4212072" lon="11.1282694"><ele>147.5</ele><time>2026-04-24T15:50:32.799Z</time></trkpt><trkpt lat="43.421147" lon="11.1281942"><ele>148.0</ele><time>2026-04-24T15:50:34.809Z</time></trkpt><trkpt lat="43.4210776" lon="11.1281285"><ele>148.5</ele><time>2026-04-24T15:50:36.805Z</time></trkpt><trkpt lat="43.4210092" lon="11.1280613"><ele>149.0</ele><time>2026-04-24T15:50:38.787Z</time></trkpt><trkpt lat="43.4209405" lon="11.1279851"><ele>149.0</ele><time>2026-04-24T15:50:40.896Z</time></trkpt><trkpt lat="43.420872" lon="11.1279189"><ele>149.0</ele><time>2026-04-24T15:50:42.793Z</time></trkpt><trkpt lat="43.4208144" lon="11.1278566"><ele>149.0</ele><time>2026-04-24T15:50:44.801Z</time></trkpt><trkpt lat="43.4207292" lon="11.1278067"><ele>149.0</ele><time>2026-04-24T15:50:46.783Z</time></trkpt><trkpt lat="43.4206619" lon="11.1277022"><ele>149.0</ele><time>2026-04-24T15:50:48.807Z</time></trkpt><trkpt lat="43.420579" lon="11.1276243"><ele>149.0</ele><time>2026-04-24T15:50:50.804Z</time></trkpt><trkpt lat="43.4205068" lon="11.1275533"><ele>149.0</ele><time>2026-04-24T15:50:52.799Z</time></trkpt><trkpt lat="43.4204301" lon="11.127491"><ele>149.0</ele><time>2026-04-24T15:50:54.802Z</time></trkpt><trkpt lat="43.4203526" lon="11.1274173"><ele>149.0</ele><time>2026-04-24T15:50:56.8Z</time></trkpt><trkpt lat="43.4202673" lon="11.127352"><ele>149.0</ele><time>2026-04-24T15:50:58.795Z</time></trkpt><trkpt lat="43.4201868" lon="11.1272828"><ele>149.6</ele><time>2026-04-24T15:51:00.812Z</time></trkpt><trkpt lat="43.4200992" lon="11.1272191"><ele>150.2</ele><time>2026-04-24T15:51:02.799Z</time></trkpt><trkpt lat="43.4200122" lon="11.1271898"><ele>150.79999999999998</ele><time>2026-04-24T15:51:04.809Z</time></trkpt><trkpt lat="43.4199225" lon="11.1272736"><ele>151.4</ele><time>2026-04-24T15:51:06.811Z</time></trkpt><trkpt lat="43.4198406" lon="11.1273878"><ele>152.0</ele><time>2026-04-24T15:51:08.803Z</time></trkpt><trkpt lat="43.4197603" lon="11.12747"><ele>152.0</ele><time>2026-04-24T15:51:10.816Z</time></trkpt><trkpt lat="43.4196799" lon="11.1275575"><ele>152.0</ele><time>2026-04-24T15:51:12.803Z</time></trkpt><trkpt lat="43.4196015" lon="11.1276471"><ele>152.0</ele><time>2026-04-24T15:51:14.803Z</time></trkpt><trkpt lat="43.4195313" lon="11.1277381"><ele>152.0</ele><time>2026-04-24T15:51:16.797Z</time></trkpt><trkpt lat="43.4194571" lon="11.1278366"><ele>152.0</ele><time>2026-04-24T15:51:18.797Z</time></trkpt><trkpt lat="43.4193873" lon="11.1279348"><ele>152.2</ele><time>2026-04-24T15:51:20.8Z</time></trkpt><trkpt lat="43.4193199" lon="11.1280382"><ele>152.39999999999998</ele><time>2026-04-24T15:51:22.806Z</time></trkpt><trkpt lat="43.4192535" lon="11.1281349"><ele>152.60000000000002</ele><time>2026-04-24T15:51:24.795Z</time></trkpt><trkpt lat="43.4191891" lon="11.1282363"><ele>152.8</ele><time>2026-04-24T15:51:26.797Z</time></trkpt><trkpt lat="43.4191244" lon="11.1283353"><ele>153.0</ele><time>2026-04-24T15:51:28.815Z</time></trkpt><trkpt lat="43.4190472" lon="11.1284267"><ele>153.4</ele><time>2026-04-24T15:51:30.802Z</time></trkpt><trkpt lat="43.4189746" lon="11.1285185"><ele>153.8</ele><time>2026-04-24T15:51:32.811Z</time></trkpt><trkpt lat="43.4189004" lon="11.1285988"><ele>154.2</ele><time>2026-04-24T15:51:34.804Z</time></trkpt><trkpt lat="43.4188312" lon="11.1286834"><ele>154.6</ele><time>2026-04-24T15:51:36.801Z</time></trkpt><trkpt lat="43.4187721" lon="11.1287642"><ele>155.0</ele><time>2026-04-24T15:51:38.802Z</time></trkpt><trkpt lat="43.4187152" lon="11.1288464"><ele>155.5</ele><time>2026-04-24T15:51:40.806Z</time></trkpt><trkpt lat="43.4186577" lon="11.1289221"><ele>156.0</ele><time>2026-04-24T15:51:42.823Z</time></trkpt><trkpt lat="43.4186016" lon="11.1290028"><ele>156.5</ele><time>2026-04-24T15:51:44.789Z</time></trkpt><trkpt lat="43.4185485" lon="11.1290905"><ele>157.0</ele><time>2026-04-24T15:51:46.797Z</time></trkpt><trkpt lat="43.4184894" lon="11.1291656"><ele>157.5</ele><time>2026-04-24T15:51:48.795Z</time></trkpt><trkpt lat="43.4184139" lon="11.1292287"><ele>158.0</ele><time>2026-04-24T15:51:50.809Z</time></trkpt><trkpt lat="43.4183476" lon="11.1293152"><ele>158.16666666666666</ele><time>2026-04-24T15:51:52.808Z</time></trkpt><trkpt lat="43.4182817" lon="11.1293942"><ele>158.33333333333331</ele><time>2026-04-24T15:51:54.797Z</time></trkpt><trkpt lat="43.4182264" lon="11.1294782"><ele>158.5</ele><time>2026-04-24T15:51:56.789Z</time></trkpt><trkpt lat="43.4181675" lon="11.1295615"><ele>158.66666666666666</ele><time>2026-04-24T15:51:58.8Z</time></trkpt><trkpt lat="43.4181004" lon="11.1296391"><ele>158.83333333333334</ele><time>2026-04-24T15:52:00.871Z</time></trkpt><trkpt lat="43.4180483" lon="11.1297269"><ele>159.0</ele><time>2026-04-24T15:52:02.789Z</time></trkpt><trkpt lat="43.4179921" lon="11.1298117"><ele>160.83333333333334</ele><time>2026-04-24T15:52:04.8Z</time></trkpt><trkpt lat="43.4179337" lon="11.129895"><ele>162.66666666666666</ele><time>2026-04-24T15:52:06.866Z</time></trkpt><trkpt lat="43.4178823" lon="11.1299767"><ele>164.5</ele><time>2026-04-24T15:52:08.813Z</time></trkpt><trkpt lat="43.417828" lon="11.1300644"><ele>166.33333333333331</ele><time>2026-04-24T15:52:10.796Z</time></trkpt><trkpt lat="43.4177831" lon="11.1301524"><ele>168.16666666666666</ele><time>2026-04-24T15:52:12.799Z</time></trkpt><trkpt lat="43.417723" lon="11.1302223"><ele>170.0</ele><time>2026-04-24T15:52:14.798Z</time></trkpt><trkpt lat="43.4176585" lon="11.1302942"><ele>170.0</ele><time>2026-04-24T15:52:16.8Z</time></trkpt><trkpt lat="43.417607" lon="11.1303819"><ele>170.0</ele><time>2026-04-24T15:52:18.813Z</time></trkpt><trkpt lat="43.4175574" lon="11.1304653"><ele>170.0</ele><time>2026-04-24T15:52:20.802Z</time></trkpt><trkpt lat="43.4175032" lon="11.1305388"><ele>170.0</ele><time>2026-04-24T15:52:22.838Z</time></trkpt><trkpt lat="43.4174169" lon="11.1306066"><ele>170.0</ele><time>2026-04-24T15:52:24.798Z</time></trkpt><trkpt lat="43.4173435" lon="11.1306737"><ele>170.0</ele><time>2026-04-24T15:52:26.809Z</time></trkpt><trkpt lat="43.417297" lon="11.130742"><ele>170.5</ele><time>2026-04-24T15:52:28.781Z</time></trkpt><trkpt lat="43.4172549" lon="11.13084"><ele>171.0</ele><time>2026-04-24T15:52:30.793Z</time></trkpt><trkpt lat="43.4172003" lon="11.1309152"><ele>171.5</ele><time>2026-04-24T15:52:32.806Z</time></trkpt><trkpt lat="43.4171462" lon="11.130988"><ele>172.0</ele><time>2026-04-24T15:52:34.878Z</time></trkpt><trkpt lat="43.4170834" lon="11.131053"><ele>172.5</ele><time>2026-04-24T15:52:36.797Z</time></trkpt><trkpt lat="43.417022" lon="11.1311056"><ele>173.0</ele><time>2026-04-24T15:52:38.796Z</time></trkpt><trkpt lat="43.4169499" lon="11.1311447"><ele>173.0</ele><time>2026-04-24T15:52:40.801Z</time></trkpt><trkpt lat="43.4168638" lon="11.1312197"><ele>173.0</ele><time>2026-04-24T15:52:42.789Z</time></trkpt><trkpt lat="43.416795" lon="11.131282"><ele>173.0</ele><time>2026-04-24T15:52:44.78Z</time></trkpt><trkpt lat="43.416726" lon="11.131337"><ele>173.0</ele><time>2026-04-24T15:52:46.811Z</time></trkpt><trkpt lat="43.4166596" lon="11.1313902"><ele>173.0</ele><time>2026-04-24T15:52:48.81Z</time></trkpt><trkpt lat="43.4165953" lon="11.1314502"><ele>173.0</ele><time>2026-04-24T15:52:50.803Z</time></trkpt><trkpt lat="43.4165285" lon="11.1315041"><ele>171.60000000000002</ele><time>2026-04-24T15:52:52.803Z</time></trkpt><trkpt lat="43.4164568" lon="11.1315608"><ele>170.20000000000002</ele><time>2026-04-24T15:52:54.806Z</time></trkpt><trkpt lat="43.4163729" lon="11.1316149"><ele>168.8</ele><time>2026-04-24T15:52:56.81Z</time></trkpt><trkpt lat="43.4162845" lon="11.131667"><ele>167.4</ele><time>2026-04-24T15:52:58.811Z</time></trkpt><trkpt lat="43.4161881" lon="11.1317027"><ele>166.0</ele><time>2026-04-24T15:53:00.793Z</time></trkpt><trkpt lat="43.4160921" lon="11.1317329"><ele>165.8</ele><time>2026-04-24T15:53:02.771Z</time></trkpt><trkpt lat="43.4160004" lon="11.1317386"><ele>165.60000000000002</ele><time>2026-04-24T15:53:04.79Z</time></trkpt><trkpt lat="43.4159175" lon="11.1317028"><ele>165.4</ele><time>2026-04-24T15:53:06.811Z</time></trkpt><trkpt lat="43.4158412" lon="11.1316475"><ele>165.2</ele><time>2026-04-24T15:53:08.783Z</time></trkpt><trkpt lat="43.4157471" lon="11.1316118"><ele>165.0</ele><time>2026-04-24T15:53:10.808Z</time></trkpt><trkpt lat="43.4156526" lon="11.1316535"><ele>165.0</ele><time>2026-04-24T15:53:12.814Z</time></trkpt><trkpt lat="43.4155988" lon="11.1316997"><ele>165.0</ele><time>2026-04-24T15:53:13.816Z</time></trkpt><trkpt lat="43.4155105" lon="11.1317983"><ele>165.0</ele><time>2026-04-24T15:53:15.794Z</time></trkpt><trkpt lat="43.4154105" lon="11.1318753"><ele>165.0</ele><time>2026-04-24T15:53:17.802Z</time></trkpt><trkpt lat="43.4153019" lon="11.1319103"><ele>165.0</ele><time>2026-04-24T15:53:19.792Z</time></trkpt><trkpt lat="43.4151889" lon="11.1319286"><ele>165.0</ele><time>2026-04-24T15:53:21.791Z</time></trkpt><trkpt lat="43.4150783" lon="11.1319522"><ele>165.0</ele><time>2026-04-24T15:53:23.79Z</time></trkpt><trkpt lat="43.4149524" lon="11.1319607"><ele>165.0</ele><time>2026-04-24T15:53:25.81Z</time></trkpt><trkpt lat="43.4148314" lon="11.1319846"><ele>165.0</ele><time>2026-04-24T15:53:27.799Z</time></trkpt><trkpt lat="43.4147145" lon="11.1320103"><ele>164.75</ele><time>2026-04-24T15:53:29.801Z</time></trkpt><trkpt lat="43.4145958" lon="11.1320409"><ele>164.5</ele><time>2026-04-24T15:53:31.809Z</time></trkpt><trkpt lat="43.4144742" lon="11.1320702"><ele>164.25</ele><time>2026-04-24T15:53:33.794Z</time></trkpt><trkpt lat="43.4143588" lon="11.1320928"><ele>164.0</ele><time>2026-04-24T15:53:35.794Z</time></trkpt><trkpt lat="43.4142361" lon="11.1321085"><ele>164.0</ele><time>2026-04-24T15:53:37.871Z</time></trkpt><trkpt lat="43.4141196" lon="11.1321084"><ele>164.0</ele><time>2026-04-24T15:53:39.809Z</time></trkpt><trkpt lat="43.4140027" lon="11.132147"><ele>164.0</ele><time>2026-04-24T15:53:41.791Z</time></trkpt><trkpt lat="43.4139389" lon="11.1321735"><ele>164.0</ele><time>2026-04-24T15:53:42.875Z</time></trkpt><trkpt lat="43.413825" lon="11.1322024"><ele>164.0</ele><time>2026-04-24T15:53:44.81Z</time></trkpt><trkpt lat="43.4137059" lon="11.1322234"><ele>164.5</ele><time>2026-04-24T15:53:46.81Z</time></trkpt><trkpt lat="43.4135843" lon="11.1322322"><ele>165.0</ele><time>2026-04-24T15:53:48.813Z</time></trkpt><trkpt lat="43.4134771" lon="11.132278"><ele>165.5</ele><time>2026-04-24T15:53:50.798Z</time></trkpt><trkpt lat="43.4133578" lon="11.1323159"><ele>166.0</ele><time>2026-04-24T15:53:52.883Z</time></trkpt><trkpt lat="43.4132363" lon="11.132353"><ele>166.0</ele><time>2026-04-24T15:53:54.802Z</time></trkpt><trkpt lat="43.4131713" lon="11.1323656"><ele>166.0</ele><time>2026-04-24T15:53:55.798Z</time></trkpt><trkpt lat="43.4130531" lon="11.1323951"><ele>166.0</ele><time>2026-04-24T15:53:57.803Z</time></trkpt><trkpt lat="43.4129375" lon="11.132416"><ele>166.0</ele><time>2026-04-24T15:53:59.804Z</time></trkpt><trkpt lat="43.412823" lon="11.1324294"><ele>166.0</ele><time>2026-04-24T15:54:01.81Z</time></trkpt><trkpt lat="43.4127021" lon="11.1324457"><ele>166.16666666666669</ele><time>2026-04-24T15:54:03.812Z</time></trkpt><trkpt lat="43.4125793" lon="11.1324611"><ele>166.33333333333334</ele><time>2026-04-24T15:54:05.794Z</time></trkpt><trkpt lat="43.4125161" lon="11.1324718"><ele>166.5</ele><time>2026-04-24T15:54:06.803Z</time></trkpt><trkpt lat="43.4124533" lon="11.1324874"><ele>166.66666666666666</ele><time>2026-04-24T15:54:07.816Z</time></trkpt><trkpt lat="43.4123899" lon="11.1324997"><ele>166.83333333333331</ele><time>2026-04-24T15:54:08.793Z</time></trkpt><trkpt lat="43.4122686" lon="11.1325277"><ele>167.0</ele><time>2026-04-24T15:54:10.799Z</time></trkpt><trkpt lat="43.4121487" lon="11.1325521"><ele>167.0</ele><time>2026-04-24T15:54:12.801Z</time></trkpt><trkpt lat="43.4120303" lon="11.1325765"><ele>167.0</ele><time>2026-04-24T15:54:14.809Z</time></trkpt><trkpt lat="43.4119144" lon="11.1326009"><ele>167.0</ele><time>2026-04-24T15:54:16.811Z</time></trkpt><trkpt lat="43.4118046" lon="11.1326281"><ele>167.0</ele><time>2026-04-24T15:54:18.796Z</time></trkpt><trkpt lat="43.4116928" lon="11.1326562"><ele>167.0</ele><time>2026-04-24T15:54:20.802Z</time></trkpt><trkpt lat="43.4115792" lon="11.1326796"><ele>167.0</ele><time>2026-04-24T15:54:22.818Z</time></trkpt><trkpt lat="43.4114646" lon="11.132704"><ele>167.0</ele><time>2026-04-24T15:54:24.809Z</time></trkpt><trkpt lat="43.4113516" lon="11.132728"><ele>167.0</ele><time>2026-04-24T15:54:26.802Z</time></trkpt><trkpt lat="43.4112437" lon="11.1327602"><ele>167.33333333333331</ele><time>2026-04-24T15:54:28.814Z</time></trkpt><trkpt lat="43.4111452" lon="11.1327872"><ele>167.66666666666666</ele><time>2026-04-24T15:54:30.809Z</time></trkpt><trkpt lat="43.4110542" lon="11.1328061"><ele>168.0</ele><time>2026-04-24T15:54:32.791Z</time></trkpt><trkpt lat="43.4109839" lon="11.13279"><ele>168.33333333333334</ele><time>2026-04-24T15:54:34.803Z</time></trkpt><trkpt lat="43.4109121" lon="11.1327518"><ele>168.66666666666669</ele><time>2026-04-24T15:54:36.794Z</time></trkpt><trkpt lat="43.4108173" lon="11.1327655"><ele>169.0</ele><time>2026-04-24T15:54:38.795Z</time></trkpt><trkpt lat="43.4107169" lon="11.1328467"><ele>169.0</ele><time>2026-04-24T15:54:40.801Z</time></trkpt><trkpt lat="43.4106085" lon="11.1329057"><ele>169.0</ele><time>2026-04-24T15:54:42.81Z</time></trkpt><trkpt lat="43.4105034" lon="11.1329265"><ele>169.0</ele><time>2026-04-24T15:54:44.798Z</time></trkpt><trkpt lat="43.4103981" lon="11.1329476"><ele>169.0</ele><time>2026-04-24T15:54:46.878Z</time></trkpt><trkpt lat="43.410291" lon="11.132971"><ele>169.0</ele><time>2026-04-24T15:54:48.789Z</time></trkpt><trkpt lat="43.4101843" lon="11.1329839"><ele>169.2</ele><time>2026-04-24T15:54:50.874Z</time></trkpt><trkpt lat="43.4100589" lon="11.1329966"><ele>169.39999999999998</ele><time>2026-04-24T15:54:52.799Z</time></trkpt><trkpt lat="43.4099933" lon="11.1330084"><ele>169.6</ele><time>2026-04-24T15:54:53.803Z</time></trkpt><trkpt lat="43.409908" lon="11.1330365"><ele>169.8</ele><time>2026-04-24T15:54:55.797Z</time></trkpt><trkpt lat="43.4098223" lon="11.1330693"><ele>170.0</ele><time>2026-04-24T15:54:57.789Z</time></trkpt><trkpt lat="43.4097265" lon="11.1331105"><ele>170.4</ele><time>2026-04-24T15:54:59.792Z</time></trkpt><trkpt lat="43.4096211" lon="11.1331257"><ele>170.8</ele><time>2026-04-24T15:55:01.799Z</time></trkpt><trkpt lat="43.4095054" lon="11.1331424"><ele>171.2</ele><time>2026-04-24T15:55:03.817Z</time></trkpt><trkpt lat="43.4093804" lon="11.1331624"><ele>171.6</ele><time>2026-04-24T15:55:05.797Z</time></trkpt><trkpt lat="43.4093172" lon="11.1331711"><ele>172.0</ele><time>2026-04-24T15:55:06.893Z</time></trkpt><trkpt lat="43.4092483" lon="11.1331823"><ele>172.0</ele><time>2026-04-24T15:55:07.811Z</time></trkpt><trkpt lat="43.4091771" lon="11.1331951"><ele>172.0</ele><time>2026-04-24T15:55:08.798Z</time></trkpt><trkpt lat="43.409103" lon="11.1332062"><ele>172.0</ele><time>2026-04-24T15:55:09.818Z</time></trkpt><trkpt lat="43.4090269" lon="11.1332299"><ele>172.0</ele><time>2026-04-24T15:55:10.803Z</time></trkpt><trkpt lat="43.4089504" lon="11.133249"><ele>172.0</ele><time>2026-04-24T15:55:11.821Z</time></trkpt><trkpt lat="43.4088703" lon="11.1332646"><ele>172.0</ele><time>2026-04-24T15:55:12.81Z</time></trkpt><trkpt lat="43.408788" lon="11.1332808"><ele>170.5</ele><time>2026-04-24T15:55:13.781Z</time></trkpt><trkpt lat="43.4087026" lon="11.1332964"><ele>169.0</ele><time>2026-04-24T15:55:14.815Z</time></trkpt><trkpt lat="43.408615" lon="11.133314"><ele>167.5</ele><time>2026-04-24T15:55:15.809Z</time></trkpt><trkpt lat="43.4085272" lon="11.1333264"><ele>166.0</ele><time>2026-04-24T15:55:16.804Z</time></trkpt><trkpt lat="43.4084358" lon="11.1333412"><ele>164.5</ele><time>2026-04-24T15:55:17.801Z</time></trkpt><trkpt lat="43.4083478" lon="11.1333494"><ele>163.0</ele><time>2026-04-24T15:55:18.797Z</time></trkpt><trkpt lat="43.4082597" lon="11.1333579"><ele>163.0</ele><time>2026-04-24T15:55:19.805Z</time></trkpt><trkpt lat="43.408175" lon="11.1333659"><ele>163.0</ele><time>2026-04-24T15:55:20.805Z</time></trkpt><trkpt lat="43.408094" lon="11.1333734"><ele>163.0</ele><time>2026-04-24T15:55:21.805Z</time></trkpt><trkpt lat="43.4080197" lon="11.133378"><ele>163.0</ele><time>2026-04-24T15:55:22.796Z</time></trkpt><trkpt lat="43.4079504" lon="11.1333787"><ele>163.0</ele><time>2026-04-24T15:55:23.798Z</time></trkpt><trkpt lat="43.4078428" lon="11.133376"><ele>163.0</ele><time>2026-04-24T15:55:25.808Z</time></trkpt><trkpt lat="43.4077352" lon="11.1333662"><ele>163.60000000000002</ele><time>2026-04-24T15:55:27.802Z</time></trkpt><trkpt lat="43.4076294" lon="11.1333621"><ele>164.20000000000002</ele><time>2026-04-24T15:55:29.806Z</time></trkpt><trkpt lat="43.4075263" lon="11.1333685"><ele>164.8</ele><time>2026-04-24T15:55:31.863Z</time></trkpt><trkpt lat="43.40741" lon="11.1333804"><ele>165.4</ele><time>2026-04-24T15:55:33.797Z</time></trkpt><trkpt lat="43.4073056" lon="11.1334232"><ele>166.0</ele><time>2026-04-24T15:55:35.801Z</time></trkpt><trkpt lat="43.4072006" lon="11.1334718"><ele>167.0</ele><time>2026-04-24T15:55:37.857Z</time></trkpt><trkpt lat="43.4071096" lon="11.1335076"><ele>168.0</ele><time>2026-04-24T15:55:39.806Z</time></trkpt><trkpt lat="43.4070125" lon="11.1335285"><ele>169.0</ele><time>2026-04-24T15:55:41.802Z</time></trkpt><trkpt lat="43.4069263" lon="11.1335501"><ele>170.0</ele><time>2026-04-24T15:55:43.834Z</time></trkpt><trkpt lat="43.4068293" lon="11.133583"><ele>171.0</ele><time>2026-04-24T15:55:45.811Z</time></trkpt><trkpt lat="43.4067284" lon="11.1336301"><ele>171.0</ele><time>2026-04-24T15:55:47.797Z</time></trkpt><trkpt lat="43.4066333" lon="11.1336689"><ele>171.0</ele><time>2026-04-24T15:55:49.781Z</time></trkpt><trkpt lat="43.4065351" lon="11.133706"><ele>171.0</ele><time>2026-04-24T15:55:51.803Z</time></trkpt><trkpt lat="43.4064393" lon="11.1337393"><ele>171.0</ele><time>2026-04-24T15:55:53.803Z</time></trkpt><trkpt lat="43.406338" lon="11.133777"><ele>171.0</ele><time>2026-04-24T15:55:55.813Z</time></trkpt><trkpt lat="43.4062346" lon="11.1337706"><ele>173.0</ele><time>2026-04-24T15:55:57.862Z</time></trkpt><trkpt lat="43.4061283" lon="11.1338122"><ele>175.0</ele><time>2026-04-24T15:55:59.809Z</time></trkpt><trkpt lat="43.4060188" lon="11.1338381"><ele>177.0</ele><time>2026-04-24T15:56:01.854Z</time></trkpt><trkpt lat="43.4059107" lon="11.1338377"><ele>179.0</ele><time>2026-04-24T15:56:03.808Z</time></trkpt><trkpt lat="43.4058288" lon="11.133849"><ele>181.0</ele><time>2026-04-24T15:56:05.807Z</time></trkpt><trkpt lat="43.4057303" lon="11.1338754"><ele>181.0</ele><time>2026-04-24T15:56:07.805Z</time></trkpt><trkpt lat="43.4056344" lon="11.1338951"><ele>181.0</ele><time>2026-04-24T15:56:09.802Z</time></trkpt><trkpt lat="43.4055344" lon="11.1338996"><ele>181.0</ele><time>2026-04-24T15:56:11.812Z</time></trkpt><trkpt lat="43.405433" lon="11.1339055"><ele>181.0</ele><time>2026-04-24T15:56:13.794Z</time></trkpt><trkpt lat="43.4053314" lon="11.1339197"><ele>181.0</ele><time>2026-04-24T15:56:15.798Z</time></trkpt><trkpt lat="43.4052348" lon="11.1339286"><ele>181.0</ele><time>2026-04-24T15:56:17.792Z</time></trkpt><trkpt lat="43.405092" lon="11.1339291"><ele>181.0</ele><time>2026-04-24T15:56:20.818Z</time></trkpt><trkpt lat="43.4050003" lon="11.1339345"><ele>181.0</ele><time>2026-04-24T15:56:22.81Z</time></trkpt><trkpt lat="43.404912" lon="11.1339519"><ele>181.0</ele><time>2026-04-24T15:56:24.814Z</time></trkpt><trkpt lat="43.4048215" lon="11.133969"><ele>181.0</ele><time>2026-04-24T15:56:26.793Z</time></trkpt><trkpt lat="43.4047298" lon="11.1339867"><ele>180.8</ele><time>2026-04-24T15:56:28.806Z</time></trkpt><trkpt lat="43.4046426" lon="11.1340171"><ele>180.60000000000002</ele><time>2026-04-24T15:56:30.788Z</time></trkpt><trkpt lat="43.4045532" lon="11.1340463"><ele>180.4</ele><time>2026-04-24T15:56:32.793Z</time></trkpt><trkpt lat="43.4044637" lon="11.1340632"><ele>180.2</ele><time>2026-04-24T15:56:34.793Z</time></trkpt><trkpt lat="43.4043734" lon="11.1340843"><ele>180.0</ele><time>2026-04-24T15:56:36.803Z</time></trkpt><trkpt lat="43.4042705" lon="11.1341162"><ele>179.0</ele><time>2026-04-24T15:56:38.787Z</time></trkpt><trkpt lat="43.4041768" lon="11.1341512"><ele>178.0</ele><time>2026-04-24T15:56:40.795Z</time></trkpt><trkpt lat="43.4040924" lon="11.1341769"><ele>177.0</ele><time>2026-04-24T15:56:42.794Z</time></trkpt><trkpt lat="43.404015" lon="11.1342059"><ele>176.0</ele><time>2026-04-24T15:56:44.788Z</time></trkpt><trkpt lat="43.4039328" lon="11.1342338"><ele>175.0</ele><time>2026-04-24T15:56:46.796Z</time></trkpt><trkpt lat="43.4038486" lon="11.1342535"><ele>174.0</ele><time>2026-04-24T15:56:48.79Z</time></trkpt><trkpt lat="43.4037779" lon="11.1342786"><ele>174.0</ele><time>2026-04-24T15:56:50.797Z</time></trkpt><trkpt lat="43.4036989" lon="11.1343034"><ele>174.0</ele><time>2026-04-24T15:56:52.787Z</time></trkpt><trkpt lat="43.4036151" lon="11.1343457"><ele>174.0</ele><time>2026-04-24T15:56:54.786Z</time></trkpt><trkpt lat="43.4035033" lon="11.1343893"><ele>174.0</ele><time>2026-04-24T15:56:56.795Z</time></trkpt><trkpt lat="43.403443" lon="11.1344155"><ele>174.0</ele><time>2026-04-24T15:56:57.786Z</time></trkpt><trkpt lat="43.4033216" lon="11.1344606"><ele>174.0</ele><time>2026-04-24T15:56:59.808Z</time></trkpt><trkpt lat="43.4032554" lon="11.1344735"><ele>174.0</ele><time>2026-04-24T15:57:00.791Z</time></trkpt><trkpt lat="43.4031921" lon="11.1344842"><ele>174.0</ele><time>2026-04-24T15:57:01.793Z</time></trkpt><trkpt lat="43.4031292" lon="11.1344948"><ele>174.0</ele><time>2026-04-24T15:57:02.788Z</time></trkpt><trkpt lat="43.4030062" lon="11.1345079"><ele>174.0</ele><time>2026-04-24T15:57:04.793Z</time></trkpt><trkpt lat="43.4028876" lon="11.1344782"><ele>174.0</ele><time>2026-04-24T15:57:06.794Z</time></trkpt><trkpt lat="43.4027707" lon="11.134437"><ele>174.75</ele><time>2026-04-24T15:57:08.786Z</time></trkpt><trkpt lat="43.4026584" lon="11.1343945"><ele>175.5</ele><time>2026-04-24T15:57:10.798Z</time></trkpt><trkpt lat="43.402551" lon="11.1343519"><ele>176.25</ele><time>2026-04-24T15:57:12.799Z</time></trkpt><trkpt lat="43.4024455" lon="11.1343057"><ele>177.0</ele><time>2026-04-24T15:57:14.798Z</time></trkpt><trkpt lat="43.4023396" lon="11.1342551"><ele>177.0</ele><time>2026-04-24T15:57:16.788Z</time></trkpt><trkpt lat="43.4022337" lon="11.1342018"><ele>177.0</ele><time>2026-04-24T15:57:18.788Z</time></trkpt><trkpt lat="43.4021294" lon="11.1341505"><ele>177.0</ele><time>2026-04-24T15:57:20.799Z</time></trkpt><trkpt lat="43.4020322" lon="11.1340903"><ele>177.0</ele><time>2026-04-24T15:57:22.801Z</time></trkpt><trkpt lat="43.4019327" lon="11.1340287"><ele>177.0</ele><time>2026-04-24T15:57:24.802Z</time></trkpt><trkpt lat="43.4018365" lon="11.1339606"><ele>177.25</ele><time>2026-04-24T15:57:26.786Z</time></trkpt><trkpt lat="43.4017294" lon="11.1339042"><ele>177.5</ele><time>2026-04-24T15:57:28.789Z</time></trkpt><trkpt lat="43.4016246" lon="11.133849"><ele>177.75</ele><time>2026-04-24T15:57:30.806Z</time></trkpt><trkpt lat="43.4015178" lon="11.1337989"><ele>178.0</ele><time>2026-04-24T15:57:32.796Z</time></trkpt><trkpt lat="43.4014068" lon="11.1337513"><ele>177.8</ele><time>2026-04-24T15:57:34.787Z</time></trkpt><trkpt lat="43.4012988" lon="11.1337055"><ele>177.60000000000002</ele><time>2026-04-24T15:57:36.824Z</time></trkpt><trkpt lat="43.4011855" lon="11.1336699"><ele>177.39999999999998</ele><time>2026-04-24T15:57:38.801Z</time></trkpt><trkpt lat="43.401076" lon="11.1336375"><ele>177.2</ele><time>2026-04-24T15:57:40.814Z</time></trkpt><trkpt lat="43.4009729" lon="11.1336046"><ele>177.0</ele><time>2026-04-24T15:57:42.799Z</time></trkpt><trkpt lat="43.4008655" lon="11.1335666"><ele>177.0</ele><time>2026-04-24T15:57:44.799Z</time></trkpt><trkpt lat="43.4007684" lon="11.1335347"><ele>177.0</ele><time>2026-04-24T15:57:46.804Z</time></trkpt><trkpt lat="43.4006798" lon="11.1335002"><ele>177.0</ele><time>2026-04-24T15:57:48.784Z</time></trkpt><trkpt lat="43.4005812" lon="11.1334684"><ele>177.0</ele><time>2026-04-24T15:57:50.795Z</time></trkpt><trkpt lat="43.4004785" lon="11.1334334"><ele>177.0</ele><time>2026-04-24T15:57:52.794Z</time></trkpt><trkpt lat="43.4003782" lon="11.1333911"><ele>177.2</ele><time>2026-04-24T15:57:54.802Z</time></trkpt><trkpt lat="43.4002738" lon="11.1333574"><ele>177.39999999999998</ele><time>2026-04-24T15:57:56.799Z</time></trkpt><trkpt lat="43.4001685" lon="11.1333271"><ele>177.60000000000002</ele><time>2026-04-24T15:57:58.813Z</time></trkpt><trkpt lat="43.4000691" lon="11.1333011"><ele>177.8</ele><time>2026-04-24T15:58:00.804Z</time></trkpt><trkpt lat="43.3999702" lon="11.1332677"><ele>178.0</ele><time>2026-04-24T15:58:02.787Z</time></trkpt><trkpt lat="43.3998693" lon="11.1332382"><ele>177.8</ele><time>2026-04-24T15:58:04.803Z</time></trkpt><trkpt lat="43.3997739" lon="11.1332011"><ele>177.60000000000002</ele><time>2026-04-24T15:58:06.786Z</time></trkpt><trkpt lat="43.3996794" lon="11.1331657"><ele>177.39999999999998</ele><time>2026-04-24T15:58:08.799Z</time></trkpt><trkpt lat="43.3995831" lon="11.1331471"><ele>177.2</ele><time>2026-04-24T15:58:10.822Z</time></trkpt><trkpt lat="43.3994813" lon="11.1331207"><ele>177.0</ele><time>2026-04-24T15:58:12.813Z</time></trkpt><trkpt lat="43.3993743" lon="11.1330844"><ele>177.0</ele><time>2026-04-24T15:58:14.78Z</time></trkpt><trkpt lat="43.3992673" lon="11.1330471"><ele>177.0</ele><time>2026-04-24T15:58:16.807Z</time></trkpt><trkpt lat="43.3991646" lon="11.1330032"><ele>177.0</ele><time>2026-04-24T15:58:18.788Z</time></trkpt><trkpt lat="43.3990616" lon="11.1329694"><ele>177.0</ele><time>2026-04-24T15:58:20.807Z</time></trkpt><trkpt lat="43.3989636" lon="11.1329497"><ele>177.0</ele><time>2026-04-24T15:58:22.799Z</time></trkpt><trkpt lat="43.3988711" lon="11.1329222"><ele>177.39999999999998</ele><time>2026-04-24T15:58:24.799Z</time></trkpt><trkpt lat="43.3987824" lon="11.1328927"><ele>177.79999999999998</ele><time>2026-04-24T15:58:26.783Z</time></trkpt><trkpt lat="43.3986983" lon="11.1328575"><ele>178.2</ele><time>2026-04-24T15:58:28.8Z</time></trkpt><trkpt lat="43.3986116" lon="11.1328252"><ele>178.6</ele><time>2026-04-24T15:58:30.783Z</time></trkpt><trkpt lat="43.3985216" lon="11.1327878"><ele>179.0</ele><time>2026-04-24T15:58:32.8Z</time></trkpt><trkpt lat="43.3984355" lon="11.1327567"><ele>179.0</ele><time>2026-04-24T15:58:34.809Z</time></trkpt><trkpt lat="43.3983444" lon="11.1327343"><ele>179.0</ele><time>2026-04-24T15:58:36.802Z</time></trkpt><trkpt lat="43.3982506" lon="11.132709"><ele>179.0</ele><time>2026-04-24T15:58:38.796Z</time></trkpt><trkpt lat="43.3981507" lon="11.132683"><ele>179.0</ele><time>2026-04-24T15:58:40.8Z</time></trkpt><trkpt lat="43.3980554" lon="11.1326467"><ele>179.0</ele><time>2026-04-24T15:58:42.806Z</time></trkpt><trkpt lat="43.3979667" lon="11.1326048"><ele>179.39999999999998</ele><time>2026-04-24T15:58:44.808Z</time></trkpt><trkpt lat="43.397873" lon="11.1325873"><ele>179.8</ele><time>2026-04-24T15:58:46.81Z</time></trkpt><trkpt lat="43.3977746" lon="11.1325556"><ele>180.2</ele><time>2026-04-24T15:58:48.799Z</time></trkpt><trkpt lat="43.3976838" lon="11.1325308"><ele>180.60000000000002</ele><time>2026-04-24T15:58:50.798Z</time></trkpt><trkpt lat="43.397594" lon="11.1325113"><ele>181.0</ele><time>2026-04-24T15:58:52.795Z</time></trkpt><trkpt lat="43.3974987" lon="11.1324955"><ele>181.0</ele><time>2026-04-24T15:58:54.801Z</time></trkpt><trkpt lat="43.3974091" lon="11.1324628"><ele>181.0</ele><time>2026-04-24T15:58:56.801Z</time></trkpt><trkpt lat="43.397321" lon="11.1324257"><ele>181.0</ele><time>2026-04-24T15:58:58.811Z</time></trkpt><trkpt lat="43.3972297" lon="11.1323936"><ele>181.0</ele><time>2026-04-24T15:59:00.81Z</time></trkpt><trkpt lat="43.3971298" lon="11.1323734"><ele>181.0</ele><time>2026-04-24T15:59:02.799Z</time></trkpt><trkpt lat="43.3970359" lon="11.1323419"><ele>181.0</ele><time>2026-04-24T15:59:04.798Z</time></trkpt><trkpt lat="43.3969494" lon="11.1323014"><ele>181.0</ele><time>2026-04-24T15:59:06.801Z</time></trkpt><trkpt lat="43.3968638" lon="11.132266"><ele>181.0</ele><time>2026-04-24T15:59:08.814Z</time></trkpt><trkpt lat="43.39678" lon="11.1322404"><ele>181.0</ele><time>2026-04-24T15:59:10.801Z</time></trkpt><trkpt lat="43.3966978" lon="11.1322131"><ele>181.0</ele><time>2026-04-24T15:59:12.805Z</time></trkpt><trkpt lat="43.3966183" lon="11.1321961"><ele>181.0</ele><time>2026-04-24T15:59:14.804Z</time></trkpt><trkpt lat="43.3965284" lon="11.132167"><ele>181.0</ele><time>2026-04-24T15:59:16.797Z</time></trkpt><trkpt lat="43.3964467" lon="11.1321402"><ele>181.0</ele><time>2026-04-24T15:59:18.79Z</time></trkpt><trkpt lat="43.3963566" lon="11.132117"><ele>181.0</ele><time>2026-04-24T15:59:20.817Z</time></trkpt><trkpt lat="43.3962646" lon="11.1320776"><ele>181.0</ele><time>2026-04-24T15:59:22.81Z</time></trkpt><trkpt lat="43.3961742" lon="11.132037"><ele>181.0</ele><time>2026-04-24T15:59:24.795Z</time></trkpt><trkpt lat="43.39608" lon="11.1320141"><ele>181.20000000000002</ele><time>2026-04-24T15:59:26.82Z</time></trkpt><trkpt lat="43.3959787" lon="11.1319865"><ele>181.4</ele><time>2026-04-24T15:59:28.805Z</time></trkpt><trkpt lat="43.3958786" lon="11.1319494"><ele>181.6</ele><time>2026-04-24T15:59:30.787Z</time></trkpt><trkpt lat="43.3957801" lon="11.1319189"><ele>181.8</ele><time>2026-04-24T15:59:32.795Z</time></trkpt><trkpt lat="43.3956782" lon="11.1318931"><ele>182.0</ele><time>2026-04-24T15:59:34.792Z</time></trkpt><trkpt lat="43.395584" lon="11.1318628"><ele>181.8</ele><time>2026-04-24T15:59:36.806Z</time></trkpt><trkpt lat="43.3954858" lon="11.1318366"><ele>181.6</ele><time>2026-04-24T15:59:38.801Z</time></trkpt><trkpt lat="43.3953883" lon="11.1318007"><ele>181.4</ele><time>2026-04-24T15:59:40.804Z</time></trkpt><trkpt lat="43.3952936" lon="11.1317705"><ele>181.20000000000002</ele><time>2026-04-24T15:59:42.791Z</time></trkpt><trkpt lat="43.395207" lon="11.1317432"><ele>181.0</ele><time>2026-04-24T15:59:44.791Z</time></trkpt><trkpt lat="43.3951177" lon="11.1317314"><ele>181.0</ele><time>2026-04-24T15:59:46.793Z</time></trkpt><trkpt lat="43.3950272" lon="11.131717"><ele>181.0</ele><time>2026-04-24T15:59:48.793Z</time></trkpt><trkpt lat="43.3949331" lon="11.1316802"><ele>181.0</ele><time>2026-04-24T15:59:50.812Z</time></trkpt><trkpt lat="43.394844" lon="11.1316388"><ele>181.0</ele><time>2026-04-24T15:59:52.795Z</time></trkpt><trkpt lat="43.3947465" lon="11.1315995"><ele>181.0</ele><time>2026-04-24T15:59:54.794Z</time></trkpt><trkpt lat="43.394643" lon="11.131576"><ele>180.8</ele><time>2026-04-24T15:59:56.8Z</time></trkpt><trkpt lat="43.3945345" lon="11.1315583"><ele>180.60000000000002</ele><time>2026-04-24T15:59:58.787Z</time></trkpt><trkpt lat="43.3944359" lon="11.1315353"><ele>180.4</ele><time>2026-04-24T16:00:00.807Z</time></trkpt><trkpt lat="43.3943345" lon="11.1315126"><ele>180.2</ele><time>2026-04-24T16:00:02.822Z</time></trkpt><trkpt lat="43.3942289" lon="11.1314986"><ele>180.0</ele><time>2026-04-24T16:00:04.794Z</time></trkpt><trkpt lat="43.3941277" lon="11.1314806"><ele>180.0</ele><time>2026-04-24T16:00:06.793Z</time></trkpt><trkpt lat="43.3940262" lon="11.1314476"><ele>180.0</ele><time>2026-04-24T16:00:08.805Z</time></trkpt><trkpt lat="43.3939265" lon="11.1314137"><ele>180.0</ele><time>2026-04-24T16:00:10.796Z</time></trkpt><trkpt lat="43.3938202" lon="11.1313848"><ele>180.0</ele><time>2026-04-24T16:00:12.791Z</time></trkpt><trkpt lat="43.3937195" lon="11.1313636"><ele>180.0</ele><time>2026-04-24T16:00:14.799Z</time></trkpt><trkpt lat="43.3936164" lon="11.1313382"><ele>180.2</ele><time>2026-04-24T16:00:16.799Z</time></trkpt><trkpt lat="43.3935169" lon="11.1313177"><ele>180.4</ele><time>2026-04-24T16:00:18.805Z</time></trkpt><trkpt lat="43.3934236" lon="11.1312964"><ele>180.60000000000002</ele><time>2026-04-24T16:00:20.803Z</time></trkpt><trkpt lat="43.3933323" lon="11.1312575"><ele>180.8</ele><time>2026-04-24T16:00:22.807Z</time></trkpt><trkpt lat="43.3932399" lon="11.1312176"><ele>181.0</ele><time>2026-04-24T16:00:24.803Z</time></trkpt><trkpt lat="43.3931378" lon="11.131177"><ele>181.0</ele><time>2026-04-24T16:00:26.821Z</time></trkpt><trkpt lat="43.3930312" lon="11.1311471"><ele>181.0</ele><time>2026-04-24T16:00:28.804Z</time></trkpt><trkpt lat="43.3929212" lon="11.1311255"><ele>181.0</ele><time>2026-04-24T16:00:30.801Z</time></trkpt><trkpt lat="43.3928086" lon="11.1311013"><ele>181.0</ele><time>2026-04-24T16:00:32.804Z</time></trkpt><trkpt lat="43.3927038" lon="11.1310719"><ele>181.0</ele><time>2026-04-24T16:00:34.794Z</time></trkpt><trkpt lat="43.3925866" lon="11.1310295"><ele>181.0</ele><time>2026-04-24T16:00:36.826Z</time></trkpt><trkpt lat="43.3925249" lon="11.1310114"><ele>181.0</ele><time>2026-04-24T16:00:37.786Z</time></trkpt><trkpt lat="43.3924603" lon="11.1309946"><ele>181.0</ele><time>2026-04-24T16:00:38.791Z</time></trkpt><trkpt lat="43.3923353" lon="11.1309603"><ele>181.0</ele><time>2026-04-24T16:00:40.793Z</time></trkpt><trkpt lat="43.3922739" lon="11.1309405"><ele>181.0</ele><time>2026-04-24T16:00:41.813Z</time></trkpt><trkpt lat="43.3921637" lon="11.1308975"><ele>181.0</ele><time>2026-04-24T16:00:43.796Z</time></trkpt><trkpt lat="43.3920553" lon="11.1308658"><ele>180.8</ele><time>2026-04-24T16:00:45.802Z</time></trkpt><trkpt lat="43.3919463" lon="11.1308349"><ele>180.60000000000002</ele><time>2026-04-24T16:00:47.799Z</time></trkpt><trkpt lat="43.3918346" lon="11.130802"><ele>180.4</ele><time>2026-04-24T16:00:49.806Z</time></trkpt><trkpt lat="43.3917268" lon="11.1307664"><ele>180.2</ele><time>2026-04-24T16:00:51.796Z</time></trkpt><trkpt lat="43.3916188" lon="11.130738"><ele>180.0</ele><time>2026-04-24T16:00:53.785Z</time></trkpt><trkpt lat="43.3915138" lon="11.1307069"><ele>179.8</ele><time>2026-04-24T16:00:55.793Z</time></trkpt><trkpt lat="43.3914087" lon="11.1306678"><ele>179.6</ele><time>2026-04-24T16:00:57.799Z</time></trkpt><trkpt lat="43.3913004" lon="11.1307062"><ele>179.39999999999998</ele><time>2026-04-24T16:00:59.8Z</time></trkpt><trkpt lat="43.3912575" lon="11.1308266"><ele>179.2</ele><time>2026-04-24T16:01:01.801Z</time></trkpt><trkpt lat="43.3912358" lon="11.1309607"><ele>179.0</ele><time>2026-04-24T16:01:03.814Z</time></trkpt><trkpt lat="43.391218" lon="11.1310894"><ele>179.0</ele><time>2026-04-24T16:01:05.797Z</time></trkpt><trkpt lat="43.3912018" lon="11.1312125"><ele>179.0</ele><time>2026-04-24T16:01:07.814Z</time></trkpt><trkpt lat="43.3911812" lon="11.1313316"><ele>179.0</ele><time>2026-04-24T16:01:09.808Z</time></trkpt><trkpt lat="43.3911582" lon="11.1314465"><ele>179.0</ele><time>2026-04-24T16:01:11.802Z</time></trkpt><trkpt lat="43.3911349" lon="11.1315555"><ele>179.0</ele><time>2026-04-24T16:01:13.791Z</time></trkpt><trkpt lat="43.391097" lon="11.1316496"><ele>179.0</ele><time>2026-04-24T16:01:15.797Z</time></trkpt><trkpt lat="43.3910313" lon="11.1317136"><ele>179.16666666666666</ele><time>2026-04-24T16:01:17.808Z</time></trkpt><trkpt lat="43.3909724" lon="11.1317727"><ele>179.33333333333331</ele><time>2026-04-24T16:01:19.799Z</time></trkpt><trkpt lat="43.3909561" lon="11.1318792"><ele>179.5</ele><time>2026-04-24T16:01:21.789Z</time></trkpt><trkpt lat="43.3909671" lon="11.1319938"><ele>179.66666666666666</ele><time>2026-04-24T16:01:23.789Z</time></trkpt><trkpt lat="43.3909737" lon="11.1320961"><ele>179.83333333333334</ele><time>2026-04-24T16:01:25.806Z</time></trkpt><trkpt lat="43.3909803" lon="11.132203"><ele>180.0</ele><time>2026-04-24T16:01:27.81Z</time></trkpt><trkpt lat="43.3909913" lon="11.1323097"><ele>180.14285714285714</ele><time>2026-04-24T16:01:29.804Z</time></trkpt><trkpt lat="43.3909993" lon="11.132399"><ele>180.2857142857143</ele><time>2026-04-24T16:01:31.782Z</time></trkpt><trkpt lat="43.3910057" lon="11.1324863"><ele>180.42857142857144</ele><time>2026-04-24T16:01:33.812Z</time></trkpt><trkpt lat="43.3910028" lon="11.1325973"><ele>180.57142857142856</ele><time>2026-04-24T16:01:36.79Z</time></trkpt><trkpt lat="43.3909339" lon="11.1326127"><ele>180.71428571428572</ele><time>2026-04-24T16:01:39.812Z</time></trkpt><trkpt lat="43.3908677" lon="11.1326306"><ele>180.85714285714286</ele><time>2026-04-24T16:01:41.796Z</time></trkpt><trkpt lat="43.3907895" lon="11.1326455"><ele>181.0</ele><time>2026-04-24T16:01:43.792Z</time></trkpt><trkpt lat="43.3906945" lon="11.1326666"><ele>181.0</ele><time>2026-04-24T16:01:45.797Z</time></trkpt><trkpt lat="43.3906013" lon="11.1326816"><ele>181.0</ele><time>2026-04-24T16:01:47.8Z</time></trkpt><trkpt lat="43.3905028" lon="11.1327054"><ele>181.0</ele><time>2026-04-24T16:01:49.799Z</time></trkpt><trkpt lat="43.3904063" lon="11.1327315"><ele>181.0</ele><time>2026-04-24T16:01:51.794Z</time></trkpt><trkpt lat="43.390306" lon="11.1327571"><ele>181.0</ele><time>2026-04-24T16:01:53.815Z</time></trkpt><trkpt lat="43.3902005" lon="11.1327779"><ele>181.20000000000002</ele><time>2026-04-24T16:01:55.794Z</time></trkpt><trkpt lat="43.3900963" lon="11.1327975"><ele>181.4</ele><time>2026-04-24T16:01:57.79Z</time></trkpt><trkpt lat="43.3900002" lon="11.1328217"><ele>181.6</ele><time>2026-04-24T16:01:59.828Z</time></trkpt><trkpt lat="43.3899062" lon="11.1328384"><ele>181.8</ele><time>2026-04-24T16:02:01.805Z</time></trkpt><trkpt lat="43.3898094" lon="11.1328567"><ele>182.0</ele><time>2026-04-24T16:02:03.798Z</time></trkpt><trkpt lat="43.3897071" lon="11.1328748"><ele>182.0</ele><time>2026-04-24T16:02:05.797Z</time></trkpt><trkpt lat="43.3896031" lon="11.1328645"><ele>182.0</ele><time>2026-04-24T16:02:07.803Z</time></trkpt><trkpt lat="43.3894985" lon="11.1328469"><ele>182.0</ele><time>2026-04-24T16:02:09.786Z</time></trkpt><trkpt lat="43.3893872" lon="11.1328407"><ele>182.0</ele><time>2026-04-24T16:02:11.806Z</time></trkpt><trkpt lat="43.3892835" lon="11.1328514"><ele>182.0</ele><time>2026-04-24T16:02:13.791Z</time></trkpt><trkpt lat="43.3891829" lon="11.1328436"><ele>182.0</ele><time>2026-04-24T16:02:15.8Z</time></trkpt><trkpt lat="43.3890826" lon="11.1328547"><ele>182.0</ele><time>2026-04-24T16:02:17.802Z</time></trkpt><trkpt lat="43.3889827" lon="11.1328895"><ele>182.0</ele><time>2026-04-24T16:02:19.802Z</time></trkpt><trkpt lat="43.3888913" lon="11.1329535"><ele>182.0</ele><time>2026-04-24T16:02:21.789Z</time></trkpt><trkpt lat="43.3887984" lon="11.1329962"><ele>182.0</ele><time>2026-04-24T16:02:23.784Z</time></trkpt><trkpt lat="43.3887102" lon="11.1330177"><ele>182.2</ele><time>2026-04-24T16:02:25.806Z</time></trkpt><trkpt lat="43.3886218" lon="11.133002"><ele>182.39999999999998</ele><time>2026-04-24T16:02:27.807Z</time></trkpt><trkpt lat="43.3885272" lon="11.1329815"><ele>182.60000000000002</ele><time>2026-04-24T16:02:29.791Z</time></trkpt><trkpt lat="43.3884358" lon="11.132959"><ele>182.8</ele><time>2026-04-24T16:02:31.79Z</time></trkpt><trkpt lat="43.3883425" lon="11.1329379"><ele>183.0</ele><time>2026-04-24T16:02:33.789Z</time></trkpt><trkpt lat="43.3882411" lon="11.1329181"><ele>183.0</ele><time>2026-04-24T16:02:35.784Z</time></trkpt><trkpt lat="43.3881435" lon="11.1328977"><ele>183.0</ele><time>2026-04-24T16:02:37.796Z</time></trkpt><trkpt lat="43.3880491" lon="11.1328826"><ele>183.0</ele><time>2026-04-24T16:02:39.799Z</time></trkpt><trkpt lat="43.3879596" lon="11.1328696"><ele>183.0</ele><time>2026-04-24T16:02:41.798Z</time></trkpt><trkpt lat="43.3878709" lon="11.1328582"><ele>183.0</ele><time>2026-04-24T16:02:43.79Z</time></trkpt><trkpt lat="43.3877859" lon="11.1328508"><ele>182.8</ele><time>2026-04-24T16:02:45.794Z</time></trkpt><trkpt lat="43.3876957" lon="11.1328583"><ele>182.60000000000002</ele><time>2026-04-24T16:02:47.782Z</time></trkpt><trkpt lat="43.3875973" lon="11.1328721"><ele>182.39999999999998</ele><time>2026-04-24T16:02:49.798Z</time></trkpt><trkpt lat="43.3874841" lon="11.1328998"><ele>182.2</ele><time>2026-04-24T16:02:51.8Z</time></trkpt><trkpt lat="43.3873715" lon="11.1329633"><ele>182.0</ele><time>2026-04-24T16:02:53.8Z</time></trkpt><trkpt lat="43.3873169" lon="11.1330111"><ele>182.0</ele><time>2026-04-24T16:02:54.791Z</time></trkpt><trkpt lat="43.3872642" lon="11.1330675"><ele>182.0</ele><time>2026-04-24T16:02:55.801Z</time></trkpt><trkpt lat="43.3872136" lon="11.1331194"><ele>182.0</ele><time>2026-04-24T16:02:56.788Z</time></trkpt><trkpt lat="43.3871155" lon="11.1332163"><ele>182.0</ele><time>2026-04-24T16:02:58.793Z</time></trkpt><trkpt lat="43.3870193" lon="11.1333097"><ele>182.0</ele><time>2026-04-24T16:03:00.781Z</time></trkpt><trkpt lat="43.3869253" lon="11.1333876"><ele>182.39999999999998</ele><time>2026-04-24T16:03:02.786Z</time></trkpt><trkpt lat="43.386834" lon="11.1334659"><ele>182.79999999999998</ele><time>2026-04-24T16:03:04.784Z</time></trkpt><trkpt lat="43.3867427" lon="11.1335398"><ele>183.2</ele><time>2026-04-24T16:03:06.795Z</time></trkpt><trkpt lat="43.3866478" lon="11.1336171"><ele>183.6</ele><time>2026-04-24T16:03:08.781Z</time></trkpt><trkpt lat="43.3865478" lon="11.1336982"><ele>184.0</ele><time>2026-04-24T16:03:10.82Z</time></trkpt><trkpt lat="43.386444" lon="11.1337582"><ele>184.0</ele><time>2026-04-24T16:03:12.796Z</time></trkpt><trkpt lat="43.3863363" lon="11.1337951"><ele>184.0</ele><time>2026-04-24T16:03:14.79Z</time></trkpt><trkpt lat="43.3862414" lon="11.1338398"><ele>184.0</ele><time>2026-04-24T16:03:16.785Z</time></trkpt><trkpt lat="43.3861806" lon="11.1339324"><ele>184.0</ele><time>2026-04-24T16:03:18.794Z</time></trkpt><trkpt lat="43.3861256" lon="11.1340365"><ele>184.0</ele><time>2026-04-24T16:03:20.795Z</time></trkpt><trkpt lat="43.3860583" lon="11.1341292"><ele>184.0</ele><time>2026-04-24T16:03:22.809Z</time></trkpt><trkpt lat="43.3859861" lon="11.1342118"><ele>184.0</ele><time>2026-04-24T16:03:24.795Z</time></trkpt><trkpt lat="43.3859085" lon="11.1342968"><ele>184.0</ele><time>2026-04-24T16:03:26.789Z</time></trkpt><trkpt lat="43.3858311" lon="11.1343742"><ele>184.0</ele><time>2026-04-24T16:03:28.794Z</time></trkpt><trkpt lat="43.385761" lon="11.1344472"><ele>184.0</ele><time>2026-04-24T16:03:30.809Z</time></trkpt><trkpt lat="43.3856928" lon="11.1345205"><ele>184.0</ele><time>2026-04-24T16:03:32.788Z</time></trkpt><trkpt lat="43.3856223" lon="11.1346026"><ele>184.0</ele><time>2026-04-24T16:03:34.793Z</time></trkpt><trkpt lat="43.3855487" lon="11.1346796"><ele>184.0</ele><time>2026-04-24T16:03:36.798Z</time></trkpt><trkpt lat="43.3854803" lon="11.1347563"><ele>184.0</ele><time>2026-04-24T16:03:38.796Z</time></trkpt><trkpt lat="43.3854067" lon="11.1348345"><ele>184.0</ele><time>2026-04-24T16:03:40.795Z</time></trkpt><trkpt lat="43.3853351" lon="11.1349128"><ele>184.16666666666669</ele><time>2026-04-24T16:03:42.801Z</time></trkpt><trkpt lat="43.3852642" lon="11.1349817"><ele>184.33333333333334</ele><time>2026-04-24T16:03:44.784Z</time></trkpt><trkpt lat="43.3851983" lon="11.1350564"><ele>184.5</ele><time>2026-04-24T16:03:46.809Z</time></trkpt><trkpt lat="43.3851315" lon="11.1351292"><ele>184.66666666666666</ele><time>2026-04-24T16:03:48.787Z</time></trkpt><trkpt lat="43.3850657" lon="11.1352005"><ele>184.83333333333331</ele><time>2026-04-24T16:03:50.797Z</time></trkpt><trkpt lat="43.385003" lon="11.1352781"><ele>185.0</ele><time>2026-04-24T16:03:52.791Z</time></trkpt><trkpt lat="43.3849412" lon="11.135351"><ele>185.0</ele><time>2026-04-24T16:03:54.779Z</time></trkpt><trkpt lat="43.3848802" lon="11.1354234"><ele>185.0</ele><time>2026-04-24T16:03:56.801Z</time></trkpt><trkpt lat="43.3848207" lon="11.1354943"><ele>185.0</ele><time>2026-04-24T16:03:58.796Z</time></trkpt><trkpt lat="43.384762" lon="11.1355603"><ele>185.0</ele><time>2026-04-24T16:04:00.8Z</time></trkpt><trkpt lat="43.3847041" lon="11.135633"><ele>185.0</ele><time>2026-04-24T16:04:02.811Z</time></trkpt><trkpt lat="43.3846433" lon="11.1357033"><ele>185.0</ele><time>2026-04-24T16:04:04.786Z</time></trkpt><trkpt lat="43.384582" lon="11.1357717"><ele>185.16666666666666</ele><time>2026-04-24T16:04:06.82Z</time></trkpt><trkpt lat="43.3845163" lon="11.1358347"><ele>185.33333333333331</ele><time>2026-04-24T16:04:08.788Z</time></trkpt><trkpt lat="43.3844484" lon="11.1359039"><ele>185.5</ele><time>2026-04-24T16:04:10.798Z</time></trkpt><trkpt lat="43.3843872" lon="11.1359659"><ele>185.66666666666666</ele><time>2026-04-24T16:04:12.789Z</time></trkpt><trkpt lat="43.3843207" lon="11.1360316"><ele>185.83333333333334</ele><time>2026-04-24T16:04:14.787Z</time></trkpt><trkpt lat="43.384239" lon="11.1360946"><ele>186.0</ele><time>2026-04-24T16:04:16.785Z</time></trkpt><trkpt lat="43.3841664" lon="11.1361543"><ele>186.0</ele><time>2026-04-24T16:04:18.81Z</time></trkpt><trkpt lat="43.3840999" lon="11.1362107"><ele>186.0</ele><time>2026-04-24T16:04:20.794Z</time></trkpt><trkpt lat="43.3840288" lon="11.1362633"><ele>186.0</ele><time>2026-04-24T16:04:22.794Z</time></trkpt><trkpt lat="43.3839604" lon="11.1363258"><ele>186.0</ele><time>2026-04-24T16:04:24.793Z</time></trkpt><trkpt lat="43.3838927" lon="11.1363814"><ele>186.0</ele><time>2026-04-24T16:04:26.795Z</time></trkpt><trkpt lat="43.3838233" lon="11.1364395"><ele>186.0</ele><time>2026-04-24T16:04:28.793Z</time></trkpt><trkpt lat="43.3837588" lon="11.1365059"><ele>186.33333333333334</ele><time>2026-04-24T16:04:30.79Z</time></trkpt><trkpt lat="43.3837046" lon="11.1365907"><ele>186.66666666666666</ele><time>2026-04-24T16:04:32.78Z</time></trkpt><trkpt lat="43.3836689" lon="11.136687"><ele>187.0</ele><time>2026-04-24T16:04:34.792Z</time></trkpt><trkpt lat="43.3836539" lon="11.1367814"><ele>187.33333333333331</ele><time>2026-04-24T16:04:36.783Z</time></trkpt><trkpt lat="43.3836497" lon="11.1369111"><ele>187.66666666666666</ele><time>2026-04-24T16:04:39.797Z</time></trkpt><trkpt lat="43.3836442" lon="11.137038"><ele>188.0</ele><time>2026-04-24T16:04:42.785Z</time></trkpt><trkpt lat="43.3836357" lon="11.1371515"><ele>188.0</ele><time>2026-04-24T16:04:45.794Z</time></trkpt><trkpt lat="43.3836309" lon="11.1372577"><ele>188.0</ele><time>2026-04-24T16:04:48.797Z</time></trkpt><trkpt lat="43.3836247" lon="11.1373582"><ele>188.0</ele><time>2026-04-24T16:04:51.789Z</time></trkpt><trkpt lat="43.3836182" lon="11.1374612"><ele>188.0</ele><time>2026-04-24T16:04:54.796Z</time></trkpt><trkpt lat="43.3836098" lon="11.1375615"><ele>188.0</ele><time>2026-04-24T16:04:57.788Z</time></trkpt><trkpt lat="43.3836074" lon="11.1376616"><ele>188.0</ele><time>2026-04-24T16:05:00.793Z</time></trkpt><trkpt lat="43.3835981" lon="11.1377534"><ele>188.0</ele><time>2026-04-24T16:05:03.784Z</time></trkpt><trkpt lat="43.3835882" lon="11.1378448"><ele>188.85714285714286</ele><time>2026-04-24T16:05:06.791Z</time></trkpt><trkpt lat="43.3835865" lon="11.1379344"><ele>189.71428571428572</ele><time>2026-04-24T16:05:09.782Z</time></trkpt><trkpt lat="43.3835797" lon="11.1380226"><ele>190.57142857142856</ele><time>2026-04-24T16:05:12.789Z</time></trkpt><trkpt lat="43.3835703" lon="11.1381304"><ele>191.42857142857144</ele><time>2026-04-24T16:05:16.786Z</time></trkpt><trkpt lat="43.3835642" lon="11.1382283"><ele>192.2857142857143</ele><time>2026-04-24T16:05:20.798Z</time></trkpt><trkpt lat="43.3835585" lon="11.1383278"><ele>193.14285714285714</ele><time>2026-04-24T16:05:24.788Z</time></trkpt><trkpt lat="43.3835535" lon="11.1384149"><ele>194.0</ele><time>2026-04-24T16:05:28.795Z</time></trkpt><trkpt lat="43.3835385" lon="11.1385146"><ele>194.7142857142857</ele><time>2026-04-24T16:05:32.812Z</time></trkpt><trkpt lat="43.3835406" lon="11.1386181"><ele>195.42857142857144</ele><time>2026-04-24T16:05:36.796Z</time></trkpt><trkpt lat="43.3835413" lon="11.1387164"><ele>196.14285714285714</ele><time>2026-04-24T16:05:40.786Z</time></trkpt><trkpt lat="43.3835338" lon="11.1388125"><ele>196.85714285714283</ele><time>2026-04-24T16:05:44.797Z</time></trkpt><trkpt lat="43.3835178" lon="11.1389087"><ele>197.57142857142856</ele><time>2026-04-24T16:05:48.795Z</time></trkpt><trkpt lat="43.3835061" lon="11.1390115"><ele>198.28571428571428</ele><time>2026-04-24T16:05:52.791Z</time></trkpt><trkpt lat="43.3834994" lon="11.1391034"><ele>199.0</ele><time>2026-04-24T16:05:56.791Z</time></trkpt><trkpt lat="43.3834976" lon="11.1392"><ele>199.85714285714283</ele><time>2026-04-24T16:06:00.782Z</time></trkpt><trkpt lat="43.3834944" lon="11.1393029"><ele>200.71428571428572</ele><time>2026-04-24T16:06:04.808Z</time></trkpt><trkpt lat="43.3834873" lon="11.1393991"><ele>201.57142857142856</ele><time>2026-04-24T16:06:08.791Z</time></trkpt><trkpt lat="43.3834781" lon="11.1394867"><ele>202.42857142857142</ele><time>2026-04-24T16:06:12.802Z</time></trkpt><trkpt lat="43.3834719" lon="11.1395857"><ele>203.28571428571428</ele><time>2026-04-24T16:06:17.786Z</time></trkpt><trkpt lat="43.3834539" lon="11.1396761"><ele>204.14285714285714</ele><time>2026-04-24T16:06:21.792Z</time></trkpt><trkpt lat="43.3834463" lon="11.1397703"><ele>205.0</ele><time>2026-04-24T16:06:25.799Z</time></trkpt><trkpt lat="43.3834305" lon="11.1398569"><ele>205.57142857142858</ele><time>2026-04-24T16:06:29.792Z</time></trkpt><trkpt lat="43.3834216" lon="11.1399443"><ele>206.14285714285714</ele><time>2026-04-24T16:06:33.795Z</time></trkpt><trkpt lat="43.3834155" lon="11.1400415"><ele>206.71428571428572</ele><time>2026-04-24T16:06:37.806Z</time></trkpt><trkpt lat="43.3834156" lon="11.1401287"><ele>207.28571428571428</ele><time>2026-04-24T16:06:41.786Z</time></trkpt><trkpt lat="43.3834079" lon="11.14023"><ele>207.85714285714283</ele><time>2026-04-24T16:06:45.799Z</time></trkpt><trkpt lat="43.3833929" lon="11.1403196"><ele>208.42857142857142</ele><time>2026-04-24T16:06:49.8Z</time></trkpt><trkpt lat="43.3833876" lon="11.1404063"><ele>209.0</ele><time>2026-04-24T16:06:53.804Z</time></trkpt><trkpt lat="43.3833825" lon="11.1405064"><ele>209.0</ele><time>2026-04-24T16:06:57.802Z</time></trkpt><trkpt lat="43.3833632" lon="11.1406017"><ele>209.0</ele><time>2026-04-24T16:07:01.797Z</time></trkpt><trkpt lat="43.3833583" lon="11.1406919"><ele>209.0</ele><time>2026-04-24T16:07:05.79Z</time></trkpt><trkpt lat="43.3833576" lon="11.1407799"><ele>209.0</ele><time>2026-04-24T16:07:09.802Z</time></trkpt><trkpt lat="43.3833531" lon="11.1408798"><ele>209.0</ele><time>2026-04-24T16:07:13.803Z</time></trkpt><trkpt lat="43.3833469" lon="11.1409809"><ele>209.0</ele><time>2026-04-24T16:07:17.798Z</time></trkpt><trkpt lat="43.3833385" lon="11.141088"><ele>209.0</ele><time>2026-04-24T16:07:21.786Z</time></trkpt><trkpt lat="43.383331" lon="11.1412015"><ele>210.14285714285714</ele><time>2026-04-24T16:07:25.796Z</time></trkpt><trkpt lat="43.3833217" lon="11.1413104"><ele>211.28571428571428</ele><time>2026-04-24T16:07:29.801Z</time></trkpt><trkpt lat="43.3833122" lon="11.1414005"><ele>212.42857142857144</ele><time>2026-04-24T16:07:32.801Z</time></trkpt><trkpt lat="43.3833051" lon="11.1414927"><ele>213.57142857142856</ele><time>2026-04-24T16:07:35.787Z</time></trkpt><trkpt lat="43.3832944" lon="11.1415882"><ele>214.71428571428572</ele><time>2026-04-24T16:07:38.801Z</time></trkpt><trkpt lat="43.3832887" lon="11.1416811"><ele>215.85714285714286</ele><time>2026-04-24T16:07:41.796Z</time></trkpt><trkpt lat="43.3832777" lon="11.1417762"><ele>217.0</ele><time>2026-04-24T16:07:44.796Z</time></trkpt><trkpt lat="43.3832652" lon="11.1418883"><ele>217.49999999999997</ele><time>2026-04-24T16:07:47.788Z</time></trkpt><trkpt lat="43.3832454" lon="11.1420179"><ele>218.0</ele><time>2026-04-24T16:07:50.799Z</time></trkpt><trkpt lat="43.3832301" lon="11.1421065"><ele>218.5</ele><time>2026-04-24T16:07:52.806Z</time></trkpt><trkpt lat="43.3832121" lon="11.1421956"><ele>219.0</ele><time>2026-04-24T16:07:54.783Z</time></trkpt><trkpt lat="43.3831895" lon="11.1422862"><ele>219.49999999999997</ele><time>2026-04-24T16:07:56.788Z</time></trkpt><trkpt lat="43.3831683" lon="11.142369"><ele>220.0</ele><time>2026-04-24T16:07:58.804Z</time></trkpt><trkpt lat="43.3831339" lon="11.1424883"><ele>220.28571428571428</ele><time>2026-04-24T16:08:01.807Z</time></trkpt><trkpt lat="43.3831025" lon="11.1425748"><ele>220.57142857142856</ele><time>2026-04-24T16:08:03.791Z</time></trkpt><trkpt lat="43.383073" lon="11.1426584"><ele>220.85714285714283</ele><time>2026-04-24T16:08:05.793Z</time></trkpt><trkpt lat="43.3830517" lon="11.1427518"><ele>221.14285714285714</ele><time>2026-04-24T16:08:07.783Z</time></trkpt><trkpt lat="43.3830244" lon="11.1428513"><ele>221.42857142857144</ele><time>2026-04-24T16:08:09.801Z</time></trkpt><trkpt lat="43.3829939" lon="11.1429547"><ele>221.7142857142857</ele><time>2026-04-24T16:08:11.793Z</time></trkpt><trkpt lat="43.382964" lon="11.143057"><ele>222.0</ele><time>2026-04-24T16:08:13.791Z</time></trkpt><trkpt lat="43.3829344" lon="11.1431601"><ele>220.66666666666666</ele><time>2026-04-24T16:08:15.8Z</time></trkpt><trkpt lat="43.3829" lon="11.1432596"><ele>219.33333333333331</ele><time>2026-04-24T16:08:17.811Z</time></trkpt><trkpt lat="43.3828676" lon="11.1433656"><ele>218.0</ele><time>2026-04-24T16:08:19.81Z</time></trkpt><trkpt lat="43.3828342" lon="11.1434608"><ele>216.66666666666666</ele><time>2026-04-24T16:08:21.791Z</time></trkpt><trkpt lat="43.3828034" lon="11.1435608"><ele>215.33333333333331</ele><time>2026-04-24T16:08:23.799Z</time></trkpt><trkpt lat="43.3827743" lon="11.1436643"><ele>214.0</ele><time>2026-04-24T16:08:25.81Z</time></trkpt><trkpt lat="43.3827472" lon="11.1437714"><ele>213.99999999999997</ele><time>2026-04-24T16:08:27.786Z</time></trkpt><trkpt lat="43.3827088" lon="11.1438682"><ele>214.0</ele><time>2026-04-24T16:08:29.787Z</time></trkpt><trkpt lat="43.3826709" lon="11.1439693"><ele>214.0</ele><time>2026-04-24T16:08:31.806Z</time></trkpt><trkpt lat="43.3826309" lon="11.1440718"><ele>214.0</ele><time>2026-04-24T16:08:33.799Z</time></trkpt><trkpt lat="43.3825961" lon="11.1441735"><ele>213.99999999999997</ele><time>2026-04-24T16:08:35.81Z</time></trkpt><trkpt lat="43.3825656" lon="11.1442744"><ele>214.0</ele><time>2026-04-24T16:08:37.801Z</time></trkpt><trkpt lat="43.3825384" lon="11.1443749"><ele>214.83333333333331</ele><time>2026-04-24T16:08:39.788Z</time></trkpt><trkpt lat="43.3825133" lon="11.1444737"><ele>215.66666666666666</ele><time>2026-04-24T16:08:41.796Z</time></trkpt><trkpt lat="43.382517" lon="11.1445867"><ele>216.5</ele><time>2026-04-24T16:08:44.804Z</time></trkpt><trkpt lat="43.3825058" lon="11.1447072"><ele>217.33333333333331</ele><time>2026-04-24T16:08:46.806Z</time></trkpt><trkpt lat="43.3824913" lon="11.1448381"><ele>218.16666666666666</ele><time>2026-04-24T16:08:48.806Z</time></trkpt><trkpt lat="43.3824708" lon="11.1449636"><ele>219.0</ele><time>2026-04-24T16:08:50.878Z</time></trkpt><trkpt lat="43.3824276" lon="11.1450528"><ele>220.0</ele><time>2026-04-24T16:08:52.815Z</time></trkpt><trkpt lat="43.3823834" lon="11.1451465"><ele>220.99999999999997</ele><time>2026-04-24T16:08:54.803Z</time></trkpt><trkpt lat="43.3823451" lon="11.1452606"><ele>221.99999999999997</ele><time>2026-04-24T16:08:56.797Z</time></trkpt><trkpt lat="43.3823109" lon="11.1453838"><ele>223.0</ele><time>2026-04-24T16:08:58.794Z</time></trkpt><trkpt lat="43.382282" lon="11.1455253"><ele>224.0</ele><time>2026-04-24T16:09:00.777Z</time></trkpt><trkpt lat="43.3822385" lon="11.1456672"><ele>223.6</ele><time>2026-04-24T16:09:02.795Z</time></trkpt><trkpt lat="43.3821926" lon="11.1458108"><ele>223.2</ele><time>2026-04-24T16:09:04.805Z</time></trkpt><trkpt lat="43.3821712" lon="11.1458932"><ele>222.79999999999998</ele><time>2026-04-24T16:09:05.792Z</time></trkpt><trkpt lat="43.3821261" lon="11.1460559"><ele>222.39999999999998</ele><time>2026-04-24T16:09:07.876Z</time></trkpt><trkpt lat="43.3820831" lon="11.146208"><ele>222.0</ele><time>2026-04-24T16:09:09.803Z</time></trkpt><trkpt lat="43.3820616" lon="11.1462897"><ele>221.16666666666666</ele><time>2026-04-24T16:09:10.808Z</time></trkpt><trkpt lat="43.3820377" lon="11.1463849"><ele>220.33333333333331</ele><time>2026-04-24T16:09:11.816Z</time></trkpt><trkpt lat="43.3820112" lon="11.1464831"><ele>219.5</ele><time>2026-04-24T16:09:12.876Z</time></trkpt><trkpt lat="43.3819765" lon="11.1465801"><ele>218.66666666666666</ele><time>2026-04-24T16:09:13.805Z</time></trkpt><trkpt lat="43.381938" lon="11.1466889"><ele>217.83333333333331</ele><time>2026-04-24T16:09:14.793Z</time></trkpt><trkpt lat="43.3819271" lon="11.1467827"><ele>217.0</ele><time>2026-04-24T16:09:15.796Z</time></trkpt><trkpt lat="43.381946" lon="11.1468777"><ele>216.99999999999997</ele><time>2026-04-24T16:09:16.802Z</time></trkpt><trkpt lat="43.3819639" lon="11.1469805"><ele>217.0</ele><time>2026-04-24T16:09:17.869Z</time></trkpt><trkpt lat="43.381979" lon="11.1470728"><ele>217.0</ele><time>2026-04-24T16:09:18.8Z</time></trkpt><trkpt lat="43.3819919" lon="11.1471654"><ele>217.0</ele><time>2026-04-24T16:09:19.803Z</time></trkpt><trkpt lat="43.382002" lon="11.1472581"><ele>216.99999999999997</ele><time>2026-04-24T16:09:20.871Z</time></trkpt><trkpt lat="43.3820106" lon="11.1473491"><ele>217.0</ele><time>2026-04-24T16:09:21.862Z</time></trkpt><trkpt lat="43.3820192" lon="11.1474948"><ele>217.5</ele><time>2026-04-24T16:09:23.789Z</time></trkpt><trkpt lat="43.3820157" lon="11.147667"><ele>218.0</ele><time>2026-04-24T16:09:25.792Z</time></trkpt><trkpt lat="43.3820205" lon="11.1478335"><ele>218.5</ele><time>2026-04-24T16:09:27.865Z</time></trkpt><trkpt lat="43.3820103" lon="11.1480007"><ele>219.0</ele><time>2026-04-24T16:09:29.794Z</time></trkpt><trkpt lat="43.3819986" lon="11.1481814"><ele>219.57142857142858</ele><time>2026-04-24T16:09:31.78Z</time></trkpt><trkpt lat="43.3819936" lon="11.1482838"><ele>220.14285714285714</ele><time>2026-04-24T16:09:32.805Z</time></trkpt><trkpt lat="43.381984" lon="11.1483801"><ele>220.71428571428572</ele><time>2026-04-24T16:09:33.809Z</time></trkpt><trkpt lat="43.3819808" lon="11.1484777"><ele>221.28571428571428</ele><time>2026-04-24T16:09:34.803Z</time></trkpt><trkpt lat="43.3819892" lon="11.1485783"><ele>221.85714285714283</ele><time>2026-04-24T16:09:35.797Z</time></trkpt><trkpt lat="43.3820179" lon="11.1486717"><ele>222.42857142857142</ele><time>2026-04-24T16:09:36.804Z</time></trkpt><trkpt lat="43.3820711" lon="11.1487471"><ele>223.0</ele><time>2026-04-24T16:09:37.813Z</time></trkpt><trkpt lat="43.3821463" lon="11.1487941"><ele>221.99999999999997</ele><time>2026-04-24T16:09:38.802Z</time></trkpt><trkpt lat="43.3822315" lon="11.1488118"><ele>221.0</ele><time>2026-04-24T16:09:39.809Z</time></trkpt><trkpt lat="43.3823273" lon="11.1488135"><ele>220.0</ele><time>2026-04-24T16:09:40.869Z</time></trkpt><trkpt lat="43.3824139" lon="11.1488114"><ele>219.0</ele><time>2026-04-24T16:09:41.862Z</time></trkpt><trkpt lat="43.3825003" lon="11.1488117"><ele>217.99999999999997</ele><time>2026-04-24T16:09:42.857Z</time></trkpt><trkpt lat="43.382583" lon="11.1488123"><ele>217.0</ele><time>2026-04-24T16:09:43.796Z</time></trkpt><trkpt lat="43.3826674" lon="11.1488137"><ele>217.0</ele><time>2026-04-24T16:09:44.815Z</time></trkpt><trkpt lat="43.3827523" lon="11.1488073"><ele>217.0</ele><time>2026-04-24T16:09:45.809Z</time></trkpt><trkpt lat="43.3828377" lon="11.1487878"><ele>217.0</ele><time>2026-04-24T16:09:46.869Z</time></trkpt><trkpt lat="43.3829448" lon="11.1487719"><ele>217.0</ele><time>2026-04-24T16:09:47.872Z</time></trkpt><trkpt lat="43.3830499" lon="11.148761"><ele>217.0</ele><time>2026-04-24T16:09:48.794Z</time></trkpt><trkpt lat="43.3831458" lon="11.1487511"><ele>216.0</ele><time>2026-04-24T16:09:49.814Z</time></trkpt><trkpt lat="43.383241" lon="11.1487489"><ele>215.0</ele><time>2026-04-24T16:09:50.799Z</time></trkpt><trkpt lat="43.3833369" lon="11.1487513"><ele>214.0</ele><time>2026-04-24T16:09:51.869Z</time></trkpt><trkpt lat="43.3834256" lon="11.1487859"><ele>213.0</ele><time>2026-04-24T16:09:52.865Z</time></trkpt><trkpt lat="43.38352" lon="11.1488289"><ele>212.0</ele><time>2026-04-24T16:09:53.792Z</time></trkpt><trkpt lat="43.3836145" lon="11.1488695"><ele>212.0</ele><time>2026-04-24T16:09:54.781Z</time></trkpt><trkpt lat="43.3837087" lon="11.1489071"><ele>212.0</ele><time>2026-04-24T16:09:55.875Z</time></trkpt><trkpt lat="43.3838012" lon="11.148939"><ele>212.0</ele><time>2026-04-24T16:09:56.789Z</time></trkpt><trkpt lat="43.3838912" lon="11.1489666"><ele>212.0</ele><time>2026-04-24T16:09:57.864Z</time></trkpt><trkpt lat="43.3839846" lon="11.1489972"><ele>212.0</ele><time>2026-04-24T16:09:58.806Z</time></trkpt><trkpt lat="43.384069" lon="11.1490332"><ele>212.33333333333334</ele><time>2026-04-24T16:09:59.802Z</time></trkpt><trkpt lat="43.3841362" lon="11.1490691"><ele>212.66666666666669</ele><time>2026-04-24T16:10:00.862Z</time></trkpt><trkpt lat="43.3841987" lon="11.1491074"><ele>213.0</ele><time>2026-04-24T16:10:01.795Z</time></trkpt><trkpt lat="43.3842987" lon="11.1491547"><ele>213.33333333333331</ele><time>2026-04-24T16:10:03.794Z</time></trkpt><trkpt lat="43.3843812" lon="11.1492031"><ele>213.66666666666666</ele><time>2026-04-24T16:10:05.806Z</time></trkpt><trkpt lat="43.3844584" lon="11.1492464"><ele>214.0</ele><time>2026-04-24T16:10:07.8Z</time></trkpt><trkpt lat="43.3845259" lon="11.1492976"><ele>213.99999999999997</ele><time>2026-04-24T16:10:09.811Z</time></trkpt><trkpt lat="43.3845949" lon="11.1493483"><ele>214.0</ele><time>2026-04-24T16:10:11.79Z</time></trkpt><trkpt lat="43.3846547" lon="11.1494023"><ele>214.0</ele><time>2026-04-24T16:10:13.812Z</time></trkpt><trkpt lat="43.3847109" lon="11.1494586"><ele>214.0</ele><time>2026-04-24T16:10:15.805Z</time></trkpt><trkpt lat="43.3847665" lon="11.149515"><ele>213.99999999999997</ele><time>2026-04-24T16:10:17.783Z</time></trkpt><trkpt lat="43.3848336" lon="11.1496069"><ele>214.0</ele><time>2026-04-24T16:10:20.791Z</time></trkpt><trkpt lat="43.384902" lon="11.1496843"><ele>214.0</ele><time>2026-04-24T16:10:22.79Z</time></trkpt><trkpt lat="43.3849742" lon="11.1497792"><ele>213.99999999999997</ele><time>2026-04-24T16:10:24.798Z</time></trkpt><trkpt lat="43.3850408" lon="11.1498672"><ele>213.99999999999997</ele><time>2026-04-24T16:10:26.778Z</time></trkpt><trkpt lat="43.3850923" lon="11.1499371"><ele>214.0</ele><time>2026-04-24T16:10:28.795Z</time></trkpt><trkpt lat="43.3851406" lon="11.1500172"><ele>214.0</ele><time>2026-04-24T16:10:30.817Z</time></trkpt><trkpt lat="43.3852076" lon="11.1501439"><ele>214.71428571428572</ele><time>2026-04-24T16:10:32.798Z</time></trkpt><trkpt lat="43.3852491" lon="11.1502165"><ele>215.42857142857144</ele><time>2026-04-24T16:10:33.784Z</time></trkpt><trkpt lat="43.3852956" lon="11.1502873"><ele>216.14285714285717</ele><time>2026-04-24T16:10:34.812Z</time></trkpt><trkpt lat="43.3853396" lon="11.1503579"><ele>216.85714285714286</ele><time>2026-04-24T16:10:35.879Z</time></trkpt><trkpt lat="43.3853824" lon="11.1504291"><ele>217.57142857142856</ele><time>2026-04-24T16:10:36.806Z</time></trkpt><trkpt lat="43.3854253" lon="11.150502"><ele>218.2857142857143</ele><time>2026-04-24T16:10:37.805Z</time></trkpt><trkpt lat="43.3854614" lon="11.1505747"><ele>219.0</ele><time>2026-04-24T16:10:38.8Z</time></trkpt><trkpt lat="43.3854966" lon="11.1506487"><ele>218.5</ele><time>2026-04-24T16:10:39.81Z</time></trkpt><trkpt lat="43.3855664" lon="11.1507908"><ele>218.0</ele><time>2026-04-24T16:10:41.795Z</time></trkpt><trkpt lat="43.3856023" lon="11.1508635"><ele>217.5</ele><time>2026-04-24T16:10:42.801Z</time></trkpt><trkpt lat="43.3856406" lon="11.150934"><ele>217.0</ele><time>2026-04-24T16:10:43.807Z</time></trkpt><trkpt lat="43.3856813" lon="11.151002"><ele>216.5</ele><time>2026-04-24T16:10:44.79Z</time></trkpt><trkpt lat="43.3857241" lon="11.1510674"><ele>216.0</ele><time>2026-04-24T16:10:45.808Z</time></trkpt><trkpt lat="43.3858103" lon="11.1511827"><ele>216.0</ele><time>2026-04-24T16:10:47.797Z</time></trkpt><trkpt lat="43.3858879" lon="11.1512914"><ele>216.00000000000003</ele><time>2026-04-24T16:10:49.804Z</time></trkpt><trkpt lat="43.3859498" lon="11.1514068"><ele>216.00000000000003</ele><time>2026-04-24T16:10:51.797Z</time></trkpt><trkpt lat="43.3860074" lon="11.1515251"><ele>216.0</ele><time>2026-04-24T16:10:53.8Z</time></trkpt><trkpt lat="43.3860695" lon="11.1516442"><ele>216.0</ele><time>2026-04-24T16:10:55.781Z</time></trkpt><trkpt lat="43.3861321" lon="11.1517582"><ele>216.4</ele><time>2026-04-24T16:10:57.805Z</time></trkpt><trkpt lat="43.386183" lon="11.1518749"><ele>216.8</ele><time>2026-04-24T16:10:59.792Z</time></trkpt><trkpt lat="43.3862261" lon="11.1519913"><ele>217.20000000000002</ele><time>2026-04-24T16:11:01.799Z</time></trkpt><trkpt lat="43.3862682" lon="11.1521115"><ele>217.60000000000002</ele><time>2026-04-24T16:11:03.797Z</time></trkpt><trkpt lat="43.3863055" lon="11.1522354"><ele>218.0</ele><time>2026-04-24T16:11:05.802Z</time></trkpt><trkpt lat="43.3863433" lon="11.1523786"><ele>216.50000000000003</ele><time>2026-04-24T16:11:07.797Z</time></trkpt><trkpt lat="43.3863883" lon="11.1525393"><ele>215.0</ele><time>2026-04-24T16:11:09.8Z</time></trkpt><trkpt lat="43.38641" lon="11.1526226"><ele>213.5</ele><time>2026-04-24T16:11:10.796Z</time></trkpt><trkpt lat="43.3864308" lon="11.152715"><ele>212.0</ele><time>2026-04-24T16:11:11.802Z</time></trkpt><trkpt lat="43.3864477" lon="11.1528071"><ele>210.50000000000003</ele><time>2026-04-24T16:11:12.791Z</time></trkpt><trkpt lat="43.3864591" lon="11.1528968"><ele>209.0</ele><time>2026-04-24T16:11:13.791Z</time></trkpt><trkpt lat="43.3864762" lon="11.1530658"><ele>209.5</ele><time>2026-04-24T16:11:15.797Z</time></trkpt><trkpt lat="43.3865" lon="11.1532321"><ele>210.0</ele><time>2026-04-24T16:11:17.801Z</time></trkpt><trkpt lat="43.3865403" lon="11.1533888"><ele>210.5</ele><time>2026-04-24T16:11:19.8Z</time></trkpt><trkpt lat="43.386593" lon="11.1535358"><ele>211.0</ele><time>2026-04-24T16:11:21.804Z</time></trkpt><trkpt lat="43.3866416" lon="11.1536756"><ele>211.0</ele><time>2026-04-24T16:11:23.804Z</time></trkpt><trkpt lat="43.3866983" lon="11.1538107"><ele>211.0</ele><time>2026-04-24T16:11:25.819Z</time></trkpt><trkpt lat="43.3867564" lon="11.1539477"><ele>211.0</ele><time>2026-04-24T16:11:27.789Z</time></trkpt><trkpt lat="43.3868135" lon="11.1540836"><ele>211.0</ele><time>2026-04-24T16:11:29.8Z</time></trkpt><trkpt lat="43.3868509" lon="11.1542179"><ele>211.0</ele><time>2026-04-24T16:11:31.866Z</time></trkpt><trkpt lat="43.3868583" lon="11.1543474"><ele>212.0</ele><time>2026-04-24T16:11:33.802Z</time></trkpt><trkpt lat="43.3868929" lon="11.1544787"><ele>213.0</ele><time>2026-04-24T16:11:35.8Z</time></trkpt><trkpt lat="43.3869305" lon="11.1545938"><ele>214.00000000000003</ele><time>2026-04-24T16:11:37.866Z</time></trkpt><trkpt lat="43.3869578" lon="11.1547036"><ele>215.0</ele><time>2026-04-24T16:11:39.806Z</time></trkpt><trkpt lat="43.386974" lon="11.1548079"><ele>216.0</ele><time>2026-04-24T16:11:41.864Z</time></trkpt><trkpt lat="43.3869755" lon="11.1549442"><ele>217.16666666666666</ele><time>2026-04-24T16:11:44.794Z</time></trkpt><trkpt lat="43.3869872" lon="11.1550442"><ele>218.33333333333331</ele><time>2026-04-24T16:11:46.802Z</time></trkpt><trkpt lat="43.386999" lon="11.155138"><ele>219.5</ele><time>2026-04-24T16:11:48.795Z</time></trkpt><trkpt lat="43.3870095" lon="11.1552364"><ele>220.66666666666666</ele><time>2026-04-24T16:11:50.805Z</time></trkpt><trkpt lat="43.3870205" lon="11.1553547"><ele>221.83333333333331</ele><time>2026-04-24T16:11:52.796Z</time></trkpt><trkpt lat="43.3870245" lon="11.155475"><ele>223.0</ele><time>2026-04-24T16:11:54.778Z</time></trkpt><trkpt lat="43.3870361" lon="11.1555943"><ele>223.16666666666666</ele><time>2026-04-24T16:11:56.891Z</time></trkpt><trkpt lat="43.3870442" lon="11.1557061"><ele>223.33333333333331</ele><time>2026-04-24T16:11:58.812Z</time></trkpt><trkpt lat="43.3870511" lon="11.1558213"><ele>223.5</ele><time>2026-04-24T16:12:00.869Z</time></trkpt><trkpt lat="43.3870582" lon="11.1559344"><ele>223.66666666666669</ele><time>2026-04-24T16:12:02.862Z</time></trkpt><trkpt lat="43.3870541" lon="11.1560549"><ele>223.83333333333334</ele><time>2026-04-24T16:12:04.802Z</time></trkpt><trkpt lat="43.3870797" lon="11.1561691"><ele>224.0</ele><time>2026-04-24T16:12:06.863Z</time></trkpt><trkpt lat="43.3871077" lon="11.1562724"><ele>224.00000000000003</ele><time>2026-04-24T16:12:08.792Z</time></trkpt><trkpt lat="43.3871346" lon="11.1563919"><ele>224.0</ele><time>2026-04-24T16:12:10.779Z</time></trkpt><trkpt lat="43.3871663" lon="11.1564921"><ele>224.0</ele><time>2026-04-24T16:12:12.869Z</time></trkpt><trkpt lat="43.3871888" lon="11.1565891"><ele>224.0</ele><time>2026-04-24T16:12:14.802Z</time></trkpt><trkpt lat="43.3872185" lon="11.1566949"><ele>224.00000000000003</ele><time>2026-04-24T16:12:16.86Z</time></trkpt><trkpt lat="43.3872623" lon="11.1568033"><ele>224.0</ele><time>2026-04-24T16:12:18.812Z</time></trkpt><trkpt lat="43.3873148" lon="11.156939"><ele>222.0</ele><time>2026-04-24T16:12:20.801Z</time></trkpt><trkpt lat="43.3873696" lon="11.1570541"><ele>219.99999999999997</ele><time>2026-04-24T16:12:22.804Z</time></trkpt><trkpt lat="43.3874123" lon="11.1571801"><ele>217.99999999999997</ele><time>2026-04-24T16:12:24.793Z</time></trkpt><trkpt lat="43.3874366" lon="11.1573315"><ele>216.0</ele><time>2026-04-24T16:12:26.803Z</time></trkpt><trkpt lat="43.3874501" lon="11.1574813"><ele>214.0</ele><time>2026-04-24T16:12:28.808Z</time></trkpt><trkpt lat="43.3874532" lon="11.157634"><ele>213.85714285714286</ele><time>2026-04-24T16:12:30.806Z</time></trkpt><trkpt lat="43.3874417" lon="11.1577204"><ele>213.71428571428572</ele><time>2026-04-24T16:12:31.875Z</time></trkpt><trkpt lat="43.3874249" lon="11.1578094"><ele>213.57142857142856</ele><time>2026-04-24T16:12:32.865Z</time></trkpt><trkpt lat="43.3874047" lon="11.1578996"><ele>213.42857142857144</ele><time>2026-04-24T16:12:33.784Z</time></trkpt><trkpt lat="43.3873838" lon="11.1579986"><ele>213.28571428571428</ele><time>2026-04-24T16:12:34.795Z</time></trkpt><trkpt lat="43.3873641" lon="11.1581111"><ele>213.14285714285714</ele><time>2026-04-24T16:12:35.927Z</time></trkpt><trkpt lat="43.3873516" lon="11.1582146"><ele>213.0</ele><time>2026-04-24T16:12:36.855Z</time></trkpt><trkpt lat="43.387356" lon="11.1583262"><ele>213.0</ele><time>2026-04-24T16:12:37.788Z</time></trkpt><trkpt lat="43.3873894" lon="11.1584426"><ele>213.0</ele><time>2026-04-24T16:12:38.817Z</time></trkpt><trkpt lat="43.3874476" lon="11.1585365"><ele>213.0</ele><time>2026-04-24T16:12:39.805Z</time></trkpt><trkpt lat="43.3875226" lon="11.158602"><ele>213.0</ele><time>2026-04-24T16:12:40.901Z</time></trkpt><trkpt lat="43.3875894" lon="11.158641"><ele>213.0</ele><time>2026-04-24T16:12:41.883Z</time></trkpt><trkpt lat="43.3877084" lon="11.1586448"><ele>213.0</ele><time>2026-04-24T16:12:43.778Z</time></trkpt><trkpt lat="43.3878145" lon="11.1586282"><ele>213.0</ele><time>2026-04-24T16:12:45.775Z</time></trkpt><trkpt lat="43.3879067" lon="11.158618"><ele>213.0</ele><time>2026-04-24T16:12:47.86Z</time></trkpt><trkpt lat="43.3879963" lon="11.158609"><ele>213.0</ele><time>2026-04-24T16:12:49.801Z</time></trkpt><trkpt lat="43.3880886" lon="11.158592"><ele>213.0</ele><time>2026-04-24T16:12:51.861Z</time></trkpt><trkpt lat="43.388176" lon="11.1585857"><ele>212.4</ele><time>2026-04-24T16:12:53.793Z</time></trkpt><trkpt lat="43.3882684" lon="11.1586311"><ele>211.8</ele><time>2026-04-24T16:12:55.796Z</time></trkpt><trkpt lat="43.3883725" lon="11.1587038"><ele>211.2</ele><time>2026-04-24T16:12:57.791Z</time></trkpt><trkpt lat="43.3884643" lon="11.1587693"><ele>210.6</ele><time>2026-04-24T16:12:59.799Z</time></trkpt><trkpt lat="43.3885416" lon="11.1588528"><ele>210.0</ele><time>2026-04-24T16:13:01.804Z</time></trkpt><trkpt lat="43.3886201" lon="11.1589257"><ele>210.0</ele><time>2026-04-24T16:13:03.796Z</time></trkpt><trkpt lat="43.3886953" lon="11.1589894"><ele>210.0</ele><time>2026-04-24T16:13:05.862Z</time></trkpt><trkpt lat="43.388776" lon="11.159043"><ele>210.0</ele><time>2026-04-24T16:13:07.87Z</time></trkpt><trkpt lat="43.388842" lon="11.1590842"><ele>210.0</ele><time>2026-04-24T16:13:09.796Z</time></trkpt><trkpt lat="43.3889098" lon="11.1591158"><ele>210.0</ele><time>2026-04-24T16:13:11.855Z</time></trkpt><trkpt lat="43.3890028" lon="11.1591498"><ele>210.0</ele><time>2026-04-24T16:13:13.797Z</time></trkpt><trkpt lat="43.3891" lon="11.1591722"><ele>211.0</ele><time>2026-04-24T16:13:15.799Z</time></trkpt><trkpt lat="43.3891876" lon="11.1592157"><ele>212.0</ele><time>2026-04-24T16:13:17.857Z</time></trkpt><trkpt lat="43.3892604" lon="11.1592478"><ele>213.0</ele><time>2026-04-24T16:13:19.803Z</time></trkpt><trkpt lat="43.3893443" lon="11.1592937"><ele>214.0</ele><time>2026-04-24T16:13:21.874Z</time></trkpt><trkpt lat="43.3893994" lon="11.1593556"><ele>215.0</ele><time>2026-04-24T16:13:23.798Z</time></trkpt><trkpt lat="43.3894346" lon="11.1594289"><ele>216.0</ele><time>2026-04-24T16:13:25.87Z</time></trkpt><trkpt lat="43.3894859" lon="11.1595351"><ele>216.0</ele><time>2026-04-24T16:13:28.777Z</time></trkpt><trkpt lat="43.3895224" lon="11.1596514"><ele>216.0</ele><time>2026-04-24T16:13:31.791Z</time></trkpt><trkpt lat="43.3895344" lon="11.1597452"><ele>216.0</ele><time>2026-04-24T16:13:33.78Z</time></trkpt><trkpt lat="43.3895488" lon="11.1598326"><ele>216.0</ele><time>2026-04-24T16:13:35.796Z</time></trkpt><trkpt lat="43.3895603" lon="11.1599238"><ele>216.0</ele><time>2026-04-24T16:13:37.853Z</time></trkpt><trkpt lat="43.3895587" lon="11.1600229"><ele>216.0</ele><time>2026-04-24T16:13:40.792Z</time></trkpt><trkpt lat="43.3895789" lon="11.1601506"><ele>216.42857142857142</ele><time>2026-04-24T16:13:43.786Z</time></trkpt><trkpt lat="43.3895968" lon="11.1602438"><ele>216.85714285714283</ele><time>2026-04-24T16:13:45.875Z</time></trkpt><trkpt lat="43.3896173" lon="11.1603366"><ele>217.28571428571428</ele><time>2026-04-24T16:13:47.875Z</time></trkpt><trkpt lat="43.3896523" lon="11.1604393"><ele>217.71428571428572</ele><time>2026-04-24T16:13:49.812Z</time></trkpt><trkpt lat="43.3896861" lon="11.1605304"><ele>218.14285714285714</ele><time>2026-04-24T16:13:51.875Z</time></trkpt><trkpt lat="43.3897026" lon="11.1606249"><ele>218.57142857142858</ele><time>2026-04-24T16:13:53.814Z</time></trkpt><trkpt lat="43.3897299" lon="11.1607176"><ele>219.0</ele><time>2026-04-24T16:13:55.856Z</time></trkpt><trkpt lat="43.3897661" lon="11.1608378"><ele>221.0</ele><time>2026-04-24T16:13:58.806Z</time></trkpt><trkpt lat="43.3897886" lon="11.1609399"><ele>223.0</ele><time>2026-04-24T16:14:01.796Z</time></trkpt><trkpt lat="43.3899524" lon="11.1611553"><ele>225.0</ele><time>2026-04-24T16:14:06.775Z</time></trkpt><trkpt lat="43.3898763" lon="11.1613572"><ele>225.0</ele><time>2026-04-24T16:14:11.814Z</time></trkpt><trkpt lat="43.3898991" lon="11.161476"><ele>225.0</ele><time>2026-04-24T16:14:14.79Z</time></trkpt><trkpt lat="43.3899314" lon="11.1615878"><ele>225.0</ele><time>2026-04-24T16:14:17.797Z</time></trkpt><trkpt lat="43.3899631" lon="11.1617011"><ele>225.0</ele><time>2026-04-24T16:14:20.8Z</time></trkpt><trkpt lat="43.389992" lon="11.1618112"><ele>225.0</ele><time>2026-04-24T16:14:23.808Z</time></trkpt><trkpt lat="43.3900304" lon="11.1619168"><ele>225.0</ele><time>2026-04-24T16:14:26.804Z</time></trkpt><trkpt lat="43.3900704" lon="11.162032"><ele>224.83333333333334</ele><time>2026-04-24T16:14:29.805Z</time></trkpt><trkpt lat="43.3901312" lon="11.1621276"><ele>224.66666666666669</ele><time>2026-04-24T16:14:32.802Z</time></trkpt><trkpt lat="43.3902099" lon="11.1621909"><ele>224.5</ele><time>2026-04-24T16:14:35.797Z</time></trkpt><trkpt lat="43.3902967" lon="11.1622266"><ele>224.33333333333334</ele><time>2026-04-24T16:14:38.791Z</time></trkpt><trkpt lat="43.390358" lon="11.162257"><ele>224.16666666666669</ele><time>2026-04-24T16:14:40.81Z</time></trkpt><trkpt lat="43.3904219" lon="11.1622952"><ele>224.0</ele><time>2026-04-24T16:14:42.788Z</time></trkpt><trkpt lat="43.3904921" lon="11.1623214"><ele>223.71428571428572</ele><time>2026-04-24T16:14:44.801Z</time></trkpt><trkpt lat="43.3905583" lon="11.1623509"><ele>223.42857142857144</ele><time>2026-04-24T16:14:46.798Z</time></trkpt><trkpt lat="43.3906207" lon="11.1623758"><ele>223.14285714285714</ele><time>2026-04-24T16:14:48.793Z</time></trkpt><trkpt lat="43.3906866" lon="11.1624023"><ele>222.85714285714286</ele><time>2026-04-24T16:14:50.804Z</time></trkpt><trkpt lat="43.3907518" lon="11.1624262"><ele>222.57142857142858</ele><time>2026-04-24T16:14:52.808Z</time></trkpt><trkpt lat="43.3908154" lon="11.1624506"><ele>222.28571428571428</ele><time>2026-04-24T16:14:54.804Z</time></trkpt><trkpt lat="43.3908836" lon="11.1624767"><ele>222.0</ele><time>2026-04-24T16:14:56.802Z</time></trkpt><trkpt lat="43.3909515" lon="11.1625024"><ele>222.0</ele><time>2026-04-24T16:14:58.808Z</time></trkpt><trkpt lat="43.3910217" lon="11.1625287"><ele>222.0</ele><time>2026-04-24T16:15:00.8Z</time></trkpt><trkpt lat="43.3910906" lon="11.1625603"><ele>222.0</ele><time>2026-04-24T16:15:02.795Z</time></trkpt><trkpt lat="43.3911582" lon="11.1626154"><ele>222.0</ele><time>2026-04-24T16:15:04.809Z</time></trkpt><trkpt lat="43.3912205" lon="11.16268"><ele>222.0</ele><time>2026-04-24T16:15:06.812Z</time></trkpt><trkpt lat="43.3912707" lon="11.162763"><ele>222.0</ele><time>2026-04-24T16:15:08.799Z</time></trkpt><trkpt lat="43.3912995" lon="11.162861"><ele>222.0</ele><time>2026-04-24T16:15:10.791Z</time></trkpt><trkpt lat="43.3913143" lon="11.1629734"><ele>222.0</ele><time>2026-04-24T16:15:12.82Z</time></trkpt><trkpt lat="43.3913325" lon="11.1630863"><ele>222.0</ele><time>2026-04-24T16:15:14.8Z</time></trkpt><trkpt lat="43.3913542" lon="11.1631916"><ele>222.0</ele><time>2026-04-24T16:15:16.814Z</time></trkpt><trkpt lat="43.3913793" lon="11.1632931"><ele>222.0</ele><time>2026-04-24T16:15:18.796Z</time></trkpt><trkpt lat="43.3913975" lon="11.1633955"><ele>222.0</ele><time>2026-04-24T16:15:20.801Z</time></trkpt><trkpt lat="43.3914233" lon="11.1634915"><ele>222.14285714285714</ele><time>2026-04-24T16:15:22.779Z</time></trkpt><trkpt lat="43.3914485" lon="11.163579"><ele>222.2857142857143</ele><time>2026-04-24T16:15:24.787Z</time></trkpt><trkpt lat="43.3914593" lon="11.1636711"><ele>222.42857142857144</ele><time>2026-04-24T16:15:26.78Z</time></trkpt><trkpt lat="43.39148" lon="11.1637919"><ele>222.57142857142856</ele><time>2026-04-24T16:15:29.782Z</time></trkpt><trkpt lat="43.3914852" lon="11.1638832"><ele>222.71428571428572</ele><time>2026-04-24T16:15:31.787Z</time></trkpt><trkpt lat="43.3914972" lon="11.1639878"><ele>222.85714285714286</ele><time>2026-04-24T16:15:33.791Z</time></trkpt><trkpt lat="43.3915095" lon="11.1640928"><ele>223.0</ele><time>2026-04-24T16:15:35.808Z</time></trkpt><trkpt lat="43.3915122" lon="11.1641921"><ele>222.99999999999997</ele><time>2026-04-24T16:15:37.778Z</time></trkpt><trkpt lat="43.3915152" lon="11.1642937"><ele>223.0</ele><time>2026-04-24T16:15:39.804Z</time></trkpt><trkpt lat="43.3915182" lon="11.1644018"><ele>223.0</ele><time>2026-04-24T16:15:41.853Z</time></trkpt><trkpt lat="43.3915204" lon="11.1645134"><ele>223.0</ele><time>2026-04-24T16:15:43.792Z</time></trkpt><trkpt lat="43.3915265" lon="11.1646302"><ele>222.99999999999997</ele><time>2026-04-24T16:15:45.811Z</time></trkpt><trkpt lat="43.3915236" lon="11.1647515"><ele>223.0</ele><time>2026-04-24T16:15:47.866Z</time></trkpt><trkpt lat="43.3914993" lon="11.1648781"><ele>222.71428571428572</ele><time>2026-04-24T16:15:49.799Z</time></trkpt><trkpt lat="43.3914898" lon="11.1649965"><ele>222.42857142857142</ele><time>2026-04-24T16:15:51.804Z</time></trkpt><trkpt lat="43.3914903" lon="11.1650844"><ele>222.14285714285717</ele><time>2026-04-24T16:15:52.799Z</time></trkpt><trkpt lat="43.3914956" lon="11.165173"><ele>221.85714285714286</ele><time>2026-04-24T16:15:53.802Z</time></trkpt><trkpt lat="43.3914981" lon="11.1652641"><ele>221.57142857142858</ele><time>2026-04-24T16:15:54.8Z</time></trkpt><trkpt lat="43.3915011" lon="11.1653594"><ele>221.2857142857143</ele><time>2026-04-24T16:15:55.809Z</time></trkpt><trkpt lat="43.3915025" lon="11.1654559"><ele>221.0</ele><time>2026-04-24T16:15:56.799Z</time></trkpt><trkpt lat="43.3915049" lon="11.1655544"><ele>221.00000000000003</ele><time>2026-04-24T16:15:57.809Z</time></trkpt><trkpt lat="43.3915072" lon="11.1656534"><ele>221.0</ele><time>2026-04-24T16:15:58.801Z</time></trkpt><trkpt lat="43.3915096" lon="11.165752"><ele>221.0</ele><time>2026-04-24T16:15:59.807Z</time></trkpt><trkpt lat="43.3915102" lon="11.16585"><ele>221.0</ele><time>2026-04-24T16:16:00.807Z</time></trkpt><trkpt lat="43.3915123" lon="11.1659463"><ele>221.0</ele><time>2026-04-24T16:16:01.809Z</time></trkpt><trkpt lat="43.3915151" lon="11.1660445"><ele>221.00000000000003</ele><time>2026-04-24T16:16:02.78Z</time></trkpt><trkpt lat="43.3915162" lon="11.1661421"><ele>221.0</ele><time>2026-04-24T16:16:03.789Z</time></trkpt><trkpt lat="43.39152" lon="11.1662368"><ele>220.50000000000003</ele><time>2026-04-24T16:16:04.797Z</time></trkpt><trkpt lat="43.3915186" lon="11.1663313"><ele>220.0</ele><time>2026-04-24T16:16:05.79Z</time></trkpt><trkpt lat="43.3915192" lon="11.1664235"><ele>219.5</ele><time>2026-04-24T16:16:06.892Z</time></trkpt><trkpt lat="43.3915328" lon="11.1666198"><ele>219.0</ele><time>2026-04-24T16:16:08.78Z</time></trkpt><trkpt lat="43.3915459" lon="11.1667174"><ele>218.50000000000003</ele><time>2026-04-24T16:16:09.799Z</time></trkpt><trkpt lat="43.391564" lon="11.1668182"><ele>218.0</ele><time>2026-04-24T16:16:10.793Z</time></trkpt><trkpt lat="43.3915785" lon="11.166917"><ele>218.00000000000003</ele><time>2026-04-24T16:16:11.799Z</time></trkpt><trkpt lat="43.3915955" lon="11.1670157"><ele>218.0</ele><time>2026-04-24T16:16:12.868Z</time></trkpt><trkpt lat="43.3916236" lon="11.1671057"><ele>218.0</ele><time>2026-04-24T16:16:13.801Z</time></trkpt><trkpt lat="43.3916681" lon="11.167191"><ele>218.0</ele><time>2026-04-24T16:16:14.79Z</time></trkpt><trkpt lat="43.391704" lon="11.1672693"><ele>218.00000000000003</ele><time>2026-04-24T16:16:15.875Z</time></trkpt><trkpt lat="43.3917799" lon="11.1674167"><ele>218.0</ele><time>2026-04-24T16:16:17.847Z</time></trkpt><trkpt lat="43.3918243" lon="11.1675109"><ele>217.83333333333334</ele><time>2026-04-24T16:16:18.804Z</time></trkpt><trkpt lat="43.391869" lon="11.1676052"><ele>217.66666666666669</ele><time>2026-04-24T16:16:19.806Z</time></trkpt><trkpt lat="43.3919128" lon="11.1677033"><ele>217.5</ele><time>2026-04-24T16:16:20.796Z</time></trkpt><trkpt lat="43.3919588" lon="11.1677987"><ele>217.33333333333331</ele><time>2026-04-24T16:16:21.797Z</time></trkpt><trkpt lat="43.3920007" lon="11.1678963"><ele>217.16666666666666</ele><time>2026-04-24T16:16:22.806Z</time></trkpt><trkpt lat="43.3920414" lon="11.1679959"><ele>217.0</ele><time>2026-04-24T16:16:23.776Z</time></trkpt><trkpt lat="43.3920834" lon="11.1680875"><ele>216.99999999999997</ele><time>2026-04-24T16:16:24.801Z</time></trkpt><trkpt lat="43.3921337" lon="11.1681714"><ele>217.0</ele><time>2026-04-24T16:16:25.795Z</time></trkpt><trkpt lat="43.3921882" lon="11.1682471"><ele>217.0</ele><time>2026-04-24T16:16:26.802Z</time></trkpt><trkpt lat="43.3922461" lon="11.1683137"><ele>217.0</ele><time>2026-04-24T16:16:27.805Z</time></trkpt><trkpt lat="43.3923081" lon="11.1683683"><ele>216.99999999999997</ele><time>2026-04-24T16:16:28.807Z</time></trkpt><trkpt lat="43.3923728" lon="11.1684243"><ele>217.0</ele><time>2026-04-24T16:16:29.799Z</time></trkpt><trkpt lat="43.3924421" lon="11.1684715"><ele>216.16666666666666</ele><time>2026-04-24T16:16:30.81Z</time></trkpt><trkpt lat="43.3925134" lon="11.1685219"><ele>215.33333333333331</ele><time>2026-04-24T16:16:31.804Z</time></trkpt><trkpt lat="43.3925845" lon="11.1685654"><ele>214.5</ele><time>2026-04-24T16:16:32.795Z</time></trkpt><trkpt lat="43.3926605" lon="11.168609"><ele>213.66666666666669</ele><time>2026-04-24T16:16:33.807Z</time></trkpt><trkpt lat="43.3927324" lon="11.1686442"><ele>212.83333333333334</ele><time>2026-04-24T16:16:34.808Z</time></trkpt><trkpt lat="43.3928035" lon="11.1686849"><ele>212.0</ele><time>2026-04-24T16:16:35.87Z</time></trkpt><trkpt lat="43.3928824" lon="11.1687149"><ele>212.00000000000003</ele><time>2026-04-24T16:16:36.807Z</time></trkpt><trkpt lat="43.3929664" lon="11.1687529"><ele>212.0</ele><time>2026-04-24T16:16:37.851Z</time></trkpt><trkpt lat="43.3930384" lon="11.1687962"><ele>212.0</ele><time>2026-04-24T16:16:38.795Z</time></trkpt><trkpt lat="43.3931006" lon="11.1688479"><ele>212.0</ele><time>2026-04-24T16:16:39.811Z</time></trkpt><trkpt lat="43.3931538" lon="11.1688977"><ele>212.00000000000003</ele><time>2026-04-24T16:16:40.798Z</time></trkpt><trkpt lat="43.393236" lon="11.1689971"><ele>212.0</ele><time>2026-04-24T16:16:42.797Z</time></trkpt><trkpt lat="43.3933168" lon="11.1690962"><ele>211.8</ele><time>2026-04-24T16:16:44.79Z</time></trkpt><trkpt lat="43.3934028" lon="11.169214"><ele>211.6</ele><time>2026-04-24T16:16:46.776Z</time></trkpt><trkpt lat="43.3934895" lon="11.1693149"><ele>211.4</ele><time>2026-04-24T16:16:48.8Z</time></trkpt><trkpt lat="43.3935665" lon="11.1694255"><ele>211.20000000000002</ele><time>2026-04-24T16:16:50.771Z</time></trkpt><trkpt lat="43.3936423" lon="11.1695201"><ele>211.0</ele><time>2026-04-24T16:16:52.79Z</time></trkpt><trkpt lat="43.3937177" lon="11.1696074"><ele>211.0</ele><time>2026-04-24T16:16:54.791Z</time></trkpt><trkpt lat="43.3937675" lon="11.1697046"><ele>211.0</ele><time>2026-04-24T16:16:56.862Z</time></trkpt><trkpt lat="43.3938157" lon="11.1698045"><ele>211.0</ele><time>2026-04-24T16:16:59.8Z</time></trkpt><trkpt lat="43.393848" lon="11.1698877"><ele>211.0</ele><time>2026-04-24T16:17:01.804Z</time></trkpt><trkpt lat="43.3938806" lon="11.1699691"><ele>211.0</ele><time>2026-04-24T16:17:03.802Z</time></trkpt><trkpt lat="43.3939195" lon="11.1700492"><ele>211.0</ele><time>2026-04-24T16:17:05.808Z</time></trkpt><trkpt lat="43.3939572" lon="11.1701288"><ele>211.0</ele><time>2026-04-24T16:17:07.804Z</time></trkpt><trkpt lat="43.3940016" lon="11.1702375"><ele>212.16666666666666</ele><time>2026-04-24T16:17:10.797Z</time></trkpt><trkpt lat="43.3940454" lon="11.17034"><ele>213.33333333333331</ele><time>2026-04-24T16:17:13.783Z</time></trkpt><trkpt lat="43.3940816" lon="11.1704138"><ele>214.5</ele><time>2026-04-24T16:17:15.854Z</time></trkpt><trkpt lat="43.3941279" lon="11.1705251"><ele>215.66666666666669</ele><time>2026-04-24T16:17:18.795Z</time></trkpt><trkpt lat="43.394162" lon="11.1706024"><ele>216.83333333333334</ele><time>2026-04-24T16:17:20.87Z</time></trkpt><trkpt lat="43.3941967" lon="11.1706806"><ele>218.0</ele><time>2026-04-24T16:17:22.804Z</time></trkpt><trkpt lat="43.3942435" lon="11.1707877"><ele>218.16666666666669</ele><time>2026-04-24T16:17:25.779Z</time></trkpt><trkpt lat="43.3942927" lon="11.1708825"><ele>218.33333333333334</ele><time>2026-04-24T16:17:28.803Z</time></trkpt><trkpt lat="43.3943418" lon="11.1709822"><ele>218.5</ele><time>2026-04-24T16:17:31.809Z</time></trkpt><trkpt lat="43.3943974" lon="11.1710842"><ele>218.66666666666669</ele><time>2026-04-24T16:17:34.797Z</time></trkpt><trkpt lat="43.3944382" lon="11.1711576"><ele>218.83333333333334</ele><time>2026-04-24T16:17:36.808Z</time></trkpt><trkpt lat="43.3944777" lon="11.1712348"><ele>219.0</ele><time>2026-04-24T16:17:38.813Z</time></trkpt><trkpt lat="43.3945191" lon="11.1713115"><ele>219.0</ele><time>2026-04-24T16:17:40.801Z</time></trkpt><trkpt lat="43.3945628" lon="11.1713927"><ele>219.0</ele><time>2026-04-24T16:17:42.805Z</time></trkpt><trkpt lat="43.3946086" lon="11.1714796"><ele>219.0</ele><time>2026-04-24T16:17:44.805Z</time></trkpt><trkpt lat="43.3946594" lon="11.1715644"><ele>219.0</ele><time>2026-04-24T16:17:46.802Z</time></trkpt><trkpt lat="43.3947088" lon="11.1716419"><ele>219.0</ele><time>2026-04-24T16:17:48.8Z</time></trkpt><trkpt lat="43.394757" lon="11.1717303"><ele>219.0</ele><time>2026-04-24T16:17:50.808Z</time></trkpt><trkpt lat="43.3947914" lon="11.1718142"><ele>219.0</ele><time>2026-04-24T16:17:52.871Z</time></trkpt><trkpt lat="43.3948321" lon="11.1719056"><ele>219.0</ele><time>2026-04-24T16:17:54.807Z</time></trkpt><trkpt lat="43.3948755" lon="11.1720025"><ele>219.0</ele><time>2026-04-24T16:17:56.887Z</time></trkpt><trkpt lat="43.3949207" lon="11.1721056"><ele>219.0</ele><time>2026-04-24T16:17:58.798Z</time></trkpt><trkpt lat="43.394965" lon="11.172226"><ele>219.0</ele><time>2026-04-24T16:18:00.798Z</time></trkpt><trkpt lat="43.3950019" lon="11.172345"><ele>219.0</ele><time>2026-04-24T16:18:02.851Z</time></trkpt><trkpt lat="43.3950333" lon="11.1724698"><ele>219.0</ele><time>2026-04-24T16:18:04.79Z</time></trkpt><trkpt lat="43.3950815" lon="11.1726039"><ele>218.99999999999997</ele><time>2026-04-24T16:18:06.887Z</time></trkpt><trkpt lat="43.3950957" lon="11.1727283"><ele>218.99999999999997</ele><time>2026-04-24T16:18:08.79Z</time></trkpt><trkpt lat="43.3951048" lon="11.1728734"><ele>219.0</ele><time>2026-04-24T16:18:10.786Z</time></trkpt><trkpt lat="43.3951027" lon="11.1730094"><ele>219.0</ele><time>2026-04-24T16:18:12.8Z</time></trkpt><trkpt lat="43.3950841" lon="11.1731355"><ele>219.33333333333334</ele><time>2026-04-24T16:18:14.799Z</time></trkpt><trkpt lat="43.3950718" lon="11.1732578"><ele>219.66666666666669</ele><time>2026-04-24T16:18:16.772Z</time></trkpt><trkpt lat="43.3950634" lon="11.1733875"><ele>220.0</ele><time>2026-04-24T16:18:18.776Z</time></trkpt><trkpt lat="43.3950624" lon="11.1735038"><ele>220.33333333333334</ele><time>2026-04-24T16:18:20.788Z</time></trkpt><trkpt lat="43.3950662" lon="11.1736274"><ele>220.66666666666669</ele><time>2026-04-24T16:18:22.786Z</time></trkpt><trkpt lat="43.3950724" lon="11.1737466"><ele>221.0</ele><time>2026-04-24T16:18:24.801Z</time></trkpt><trkpt lat="43.3950714" lon="11.1738626"><ele>221.00000000000003</ele><time>2026-04-24T16:18:26.855Z</time></trkpt><trkpt lat="43.3950665" lon="11.173972"><ele>221.0</ele><time>2026-04-24T16:18:28.8Z</time></trkpt><trkpt lat="43.3950811" lon="11.1740906"><ele>221.0</ele><time>2026-04-24T16:18:30.836Z</time></trkpt><trkpt lat="43.3951053" lon="11.1741999"><ele>221.0</ele><time>2026-04-24T16:18:32.794Z</time></trkpt><trkpt lat="43.3951307" lon="11.1743045"><ele>221.00000000000003</ele><time>2026-04-24T16:18:34.808Z</time></trkpt><trkpt lat="43.3951457" lon="11.174409"><ele>221.0</ele><time>2026-04-24T16:18:36.801Z</time></trkpt><trkpt lat="43.3951641" lon="11.1745081"><ele>221.66666666666669</ele><time>2026-04-24T16:18:38.801Z</time></trkpt><trkpt lat="43.3951895" lon="11.1746057"><ele>222.33333333333334</ele><time>2026-04-24T16:18:40.798Z</time></trkpt><trkpt lat="43.3952083" lon="11.174696"><ele>223.0</ele><time>2026-04-24T16:18:42.782Z</time></trkpt><trkpt lat="43.3952317" lon="11.1747796"><ele>223.66666666666669</ele><time>2026-04-24T16:18:44.786Z</time></trkpt><trkpt lat="43.3952487" lon="11.1748941"><ele>224.33333333333334</ele><time>2026-04-24T16:18:46.81Z</time></trkpt><trkpt lat="43.3952648" lon="11.1750109"><ele>225.0</ele><time>2026-04-24T16:18:48.799Z</time></trkpt><trkpt lat="43.3952884" lon="11.1751339"><ele>225.5</ele><time>2026-04-24T16:18:50.804Z</time></trkpt><trkpt lat="43.3953022" lon="11.1752443"><ele>226.0</ele><time>2026-04-24T16:18:52.809Z</time></trkpt><trkpt lat="43.3953229" lon="11.1753538"><ele>226.5</ele><time>2026-04-24T16:18:54.807Z</time></trkpt><trkpt lat="43.3953475" lon="11.1754717"><ele>227.0</ele><time>2026-04-24T16:18:56.813Z</time></trkpt><trkpt lat="43.3953744" lon="11.1755921"><ele>227.5</ele><time>2026-04-24T16:18:58.813Z</time></trkpt><trkpt lat="43.3953994" lon="11.1757181"><ele>228.0</ele><time>2026-04-24T16:19:00.795Z</time></trkpt><trkpt lat="43.3954158" lon="11.1758585"><ele>228.4</ele><time>2026-04-24T16:19:02.796Z</time></trkpt><trkpt lat="43.3954347" lon="11.1759913"><ele>228.8</ele><time>2026-04-24T16:19:04.786Z</time></trkpt><trkpt lat="43.3954602" lon="11.1761222"><ele>229.2</ele><time>2026-04-24T16:19:06.805Z</time></trkpt><trkpt lat="43.3954746" lon="11.1762587"><ele>229.6</ele><time>2026-04-24T16:19:08.798Z</time></trkpt><trkpt lat="43.3955061" lon="11.1763869"><ele>230.0</ele><time>2026-04-24T16:19:10.866Z</time></trkpt><trkpt lat="43.3955309" lon="11.1764989"><ele>229.00000000000003</ele><time>2026-04-24T16:19:12.8Z</time></trkpt><trkpt lat="43.395556" lon="11.1766161"><ele>228.0</ele><time>2026-04-24T16:19:14.786Z</time></trkpt><trkpt lat="43.3955914" lon="11.1767294"><ele>227.0</ele><time>2026-04-24T16:19:16.785Z</time></trkpt><trkpt lat="43.3956126" lon="11.1768484"><ele>226.0</ele><time>2026-04-24T16:19:18.803Z</time></trkpt><trkpt lat="43.3956339" lon="11.1769615"><ele>225.00000000000003</ele><time>2026-04-24T16:19:20.806Z</time></trkpt><trkpt lat="43.3956436" lon="11.1770853"><ele>224.0</ele><time>2026-04-24T16:19:22.79Z</time></trkpt><trkpt lat="43.3956633" lon="11.1771914"><ele>224.0</ele><time>2026-04-24T16:19:24.794Z</time></trkpt><trkpt lat="43.3956863" lon="11.17732"><ele>223.99999999999997</ele><time>2026-04-24T16:19:26.795Z</time></trkpt><trkpt lat="43.395717" lon="11.1774476"><ele>223.99999999999997</ele><time>2026-04-24T16:19:28.791Z</time></trkpt><trkpt lat="43.3957438" lon="11.1775879"><ele>224.0</ele><time>2026-04-24T16:19:30.787Z</time></trkpt><trkpt lat="43.3957692" lon="11.1777311"><ele>224.0</ele><time>2026-04-24T16:19:32.854Z</time></trkpt><trkpt lat="43.3957974" lon="11.1778667"><ele>224.2</ele><time>2026-04-24T16:19:34.8Z</time></trkpt><trkpt lat="43.3958232" lon="11.1779886"><ele>224.39999999999998</ele><time>2026-04-24T16:19:36.867Z</time></trkpt><trkpt lat="43.3958526" lon="11.178078"><ele>224.6</ele><time>2026-04-24T16:19:38.81Z</time></trkpt><trkpt lat="43.3958798" lon="11.1782232"><ele>224.8</ele><time>2026-04-24T16:19:40.81Z</time></trkpt><trkpt lat="43.3958998" lon="11.1783564"><ele>225.0</ele><time>2026-04-24T16:19:42.886Z</time></trkpt><trkpt lat="43.3958984" lon="11.1785229"><ele>225.2</ele><time>2026-04-24T16:19:44.777Z</time></trkpt><trkpt lat="43.395911" lon="11.1786539"><ele>225.4</ele><time>2026-04-24T16:19:46.891Z</time></trkpt><trkpt lat="43.3959484" lon="11.178791"><ele>225.60000000000002</ele><time>2026-04-24T16:19:48.807Z</time></trkpt><trkpt lat="43.3959817" lon="11.1789335"><ele>225.8</ele><time>2026-04-24T16:19:50.797Z</time></trkpt><trkpt lat="43.396017" lon="11.1790698"><ele>226.0</ele><time>2026-04-24T16:19:52.861Z</time></trkpt><trkpt lat="43.3960255" lon="11.1791764"><ele>225.60000000000002</ele><time>2026-04-24T16:19:54.802Z</time></trkpt><trkpt lat="43.396055" lon="11.1792883"><ele>225.20000000000002</ele><time>2026-04-24T16:19:56.809Z</time></trkpt><trkpt lat="43.3960769" lon="11.1794141"><ele>224.79999999999998</ele><time>2026-04-24T16:19:58.791Z</time></trkpt><trkpt lat="43.3960919" lon="11.1795307"><ele>224.39999999999998</ele><time>2026-04-24T16:20:00.812Z</time></trkpt><trkpt lat="43.3961229" lon="11.1796597"><ele>224.0</ele><time>2026-04-24T16:20:02.796Z</time></trkpt><trkpt lat="43.3961462" lon="11.1797893"><ele>224.16666666666669</ele><time>2026-04-24T16:20:04.796Z</time></trkpt><trkpt lat="43.3961575" lon="11.1799121"><ele>224.33333333333334</ele><time>2026-04-24T16:20:06.844Z</time></trkpt><trkpt lat="43.3961835" lon="11.1800282"><ele>224.5</ele><time>2026-04-24T16:20:08.798Z</time></trkpt><trkpt lat="43.396229" lon="11.1801261"><ele>224.66666666666669</ele><time>2026-04-24T16:20:10.822Z</time></trkpt><trkpt lat="43.3962872" lon="11.1801684"><ele>224.83333333333334</ele><time>2026-04-24T16:20:16.79Z</time></trkpt><trkpt lat="43.3963581" lon="11.1801305"><ele>225.0</ele><time>2026-04-24T16:20:22.863Z</time></trkpt><trkpt lat="43.3964089" lon="11.1800197"><ele>225.0</ele><time>2026-04-24T16:20:25.798Z</time></trkpt><trkpt lat="43.3964549" lon="11.179926"><ele>225.0</ele><time>2026-04-24T16:20:27.785Z</time></trkpt><trkpt lat="43.3965034" lon="11.1798004"><ele>225.0</ele><time>2026-04-24T16:20:29.815Z</time></trkpt><trkpt lat="43.3965372" lon="11.1796918"><ele>225.0</ele><time>2026-04-24T16:20:31.797Z</time></trkpt><trkpt lat="43.3965752" lon="11.1795884"><ele>225.0</ele><time>2026-04-24T16:20:33.795Z</time></trkpt><trkpt lat="43.396617" lon="11.1794768"><ele>225.0</ele><time>2026-04-24T16:20:35.8Z</time></trkpt><trkpt lat="43.3966653" lon="11.1793788"><ele>224.8</ele><time>2026-04-24T16:20:37.793Z</time></trkpt><trkpt lat="43.3967178" lon="11.179273"><ele>224.6</ele><time>2026-04-24T16:20:39.808Z</time></trkpt><trkpt lat="43.3967679" lon="11.1791556"><ele>224.39999999999998</ele><time>2026-04-24T16:20:41.794Z</time></trkpt><trkpt lat="43.3968303" lon="11.1790396"><ele>224.2</ele><time>2026-04-24T16:20:43.784Z</time></trkpt><trkpt lat="43.396887" lon="11.1789262"><ele>224.0</ele><time>2026-04-24T16:20:45.859Z</time></trkpt><trkpt lat="43.3969571" lon="11.1788219"><ele>224.0</ele><time>2026-04-24T16:20:47.852Z</time></trkpt><trkpt lat="43.3970323" lon="11.1787102"><ele>224.0</ele><time>2026-04-24T16:20:49.788Z</time></trkpt><trkpt lat="43.3971222" lon="11.1786052"><ele>224.0</ele><time>2026-04-24T16:20:51.862Z</time></trkpt><trkpt lat="43.3972065" lon="11.1785003"><ele>224.0</ele><time>2026-04-24T16:20:53.783Z</time></trkpt><trkpt lat="43.3973032" lon="11.1783935"><ele>223.57142857142858</ele><time>2026-04-24T16:20:55.791Z</time></trkpt><trkpt lat="43.3973595" lon="11.1783474"><ele>223.14285714285714</ele><time>2026-04-24T16:20:56.859Z</time></trkpt><trkpt lat="43.3974175" lon="11.1782851"><ele>222.71428571428572</ele><time>2026-04-24T16:20:57.859Z</time></trkpt><trkpt lat="43.3974781" lon="11.1782248"><ele>222.28571428571428</ele><time>2026-04-24T16:20:58.792Z</time></trkpt><trkpt lat="43.3975376" lon="11.1781776"><ele>221.85714285714286</ele><time>2026-04-24T16:20:59.801Z</time></trkpt><trkpt lat="43.3975938" lon="11.1781278"><ele>221.42857142857144</ele><time>2026-04-24T16:21:00.862Z</time></trkpt><trkpt lat="43.3976463" lon="11.1780786"><ele>221.0</ele><time>2026-04-24T16:21:01.855Z</time></trkpt><trkpt lat="43.397705" lon="11.1780334"><ele>220.66666666666669</ele><time>2026-04-24T16:21:02.78Z</time></trkpt><trkpt lat="43.3977661" lon="11.1779811"><ele>220.33333333333334</ele><time>2026-04-24T16:21:03.793Z</time></trkpt><trkpt lat="43.3978257" lon="11.1779451"><ele>220.0</ele><time>2026-04-24T16:21:04.798Z</time></trkpt><trkpt lat="43.3978877" lon="11.1779091"><ele>219.66666666666669</ele><time>2026-04-24T16:21:05.787Z</time></trkpt><trkpt lat="43.3979919" lon="11.1778188"><ele>219.33333333333334</ele><time>2026-04-24T16:21:07.786Z</time></trkpt><trkpt lat="43.3980476" lon="11.1777649"><ele>219.0</ele><time>2026-04-24T16:21:08.798Z</time></trkpt><trkpt lat="43.3981011" lon="11.1777177"><ele>219.0</ele><time>2026-04-24T16:21:09.786Z</time></trkpt><trkpt lat="43.3981544" lon="11.1776665"><ele>219.0</ele><time>2026-04-24T16:21:10.794Z</time></trkpt><trkpt lat="43.3982075" lon="11.1776137"><ele>219.0</ele><time>2026-04-24T16:21:11.795Z</time></trkpt><trkpt lat="43.3982613" lon="11.1775635"><ele>219.0</ele><time>2026-04-24T16:21:12.87Z</time></trkpt><trkpt lat="43.3983123" lon="11.1775113"><ele>219.0</ele><time>2026-04-24T16:21:13.801Z</time></trkpt><trkpt lat="43.3983632" lon="11.1774528"><ele>219.0</ele><time>2026-04-24T16:21:14.798Z</time></trkpt><trkpt lat="43.3984149" lon="11.177397"><ele>219.0</ele><time>2026-04-24T16:21:15.803Z</time></trkpt><trkpt lat="43.3985143" lon="11.1772915"><ele>218.83333333333334</ele><time>2026-04-24T16:21:17.859Z</time></trkpt><trkpt lat="43.3986159" lon="11.1771903"><ele>218.66666666666669</ele><time>2026-04-24T16:21:19.791Z</time></trkpt><trkpt lat="43.3986684" lon="11.1771392"><ele>218.5</ele><time>2026-04-24T16:21:20.806Z</time></trkpt><trkpt lat="43.3987263" lon="11.1770804"><ele>218.33333333333334</ele><time>2026-04-24T16:21:21.857Z</time></trkpt><trkpt lat="43.3987861" lon="11.1770292"><ele>218.16666666666669</ele><time>2026-04-24T16:21:22.875Z</time></trkpt><trkpt lat="43.3988469" lon="11.1769862"><ele>218.0</ele><time>2026-04-24T16:21:23.783Z</time></trkpt><trkpt lat="43.3989028" lon="11.1769326"><ele>218.00000000000003</ele><time>2026-04-24T16:21:24.804Z</time></trkpt><trkpt lat="43.3989615" lon="11.1768741"><ele>218.0</ele><time>2026-04-24T16:21:25.868Z</time></trkpt><trkpt lat="43.3990245" lon="11.176817"><ele>218.0</ele><time>2026-04-24T16:21:26.858Z</time></trkpt><trkpt lat="43.3990862" lon="11.1767535"><ele>218.0</ele><time>2026-04-24T16:21:27.788Z</time></trkpt><trkpt lat="43.3991486" lon="11.1766867"><ele>218.00000000000003</ele><time>2026-04-24T16:21:28.813Z</time></trkpt><trkpt lat="43.3992072" lon="11.1766196"><ele>218.0</ele><time>2026-04-24T16:21:29.797Z</time></trkpt><trkpt lat="43.3992629" lon="11.1765568"><ele>218.0</ele><time>2026-04-24T16:21:30.787Z</time></trkpt><trkpt lat="43.3993214" lon="11.1764995"><ele>218.0</ele><time>2026-04-24T16:21:31.856Z</time></trkpt><trkpt lat="43.3993778" lon="11.1764447"><ele>218.0</ele><time>2026-04-24T16:21:32.857Z</time></trkpt><trkpt lat="43.3994331" lon="11.1763902"><ele>218.0</ele><time>2026-04-24T16:21:33.8Z</time></trkpt><trkpt lat="43.3994901" lon="11.1763365"><ele>218.0</ele><time>2026-04-24T16:21:34.798Z</time></trkpt><trkpt lat="43.3995441" lon="11.1762854"><ele>218.0</ele><time>2026-04-24T16:21:35.794Z</time></trkpt><trkpt lat="43.3995988" lon="11.1762338"><ele>218.0</ele><time>2026-04-24T16:21:36.809Z</time></trkpt><trkpt lat="43.3996529" lon="11.17618"><ele>217.8</ele><time>2026-04-24T16:21:37.797Z</time></trkpt><trkpt lat="43.3997081" lon="11.1761269"><ele>217.60000000000002</ele><time>2026-04-24T16:21:38.819Z</time></trkpt><trkpt lat="43.3998106" lon="11.1760281"><ele>217.39999999999998</ele><time>2026-04-24T16:21:40.798Z</time></trkpt><trkpt lat="43.3999088" lon="11.1759262"><ele>217.2</ele><time>2026-04-24T16:21:42.802Z</time></trkpt><trkpt lat="43.4000071" lon="11.1758321"><ele>217.0</ele><time>2026-04-24T16:21:44.811Z</time></trkpt><trkpt lat="43.4001041" lon="11.1757398"><ele>217.0</ele><time>2026-04-24T16:21:46.808Z</time></trkpt><trkpt lat="43.4002021" lon="11.1756462"><ele>217.0</ele><time>2026-04-24T16:21:48.785Z</time></trkpt><trkpt lat="43.4002999" lon="11.175553"><ele>217.0</ele><time>2026-04-24T16:21:50.861Z</time></trkpt><trkpt lat="43.4003964" lon="11.1754589"><ele>217.0</ele><time>2026-04-24T16:21:52.865Z</time></trkpt><trkpt lat="43.4004947" lon="11.1753695"><ele>217.0</ele><time>2026-04-24T16:21:54.787Z</time></trkpt><trkpt lat="43.4005921" lon="11.1752799"><ele>217.0</ele><time>2026-04-24T16:21:56.857Z</time></trkpt><trkpt lat="43.4006869" lon="11.1751918"><ele>217.0</ele><time>2026-04-24T16:21:58.787Z</time></trkpt><trkpt lat="43.4007833" lon="11.1751052"><ele>217.0</ele><time>2026-04-24T16:22:00.865Z</time></trkpt><trkpt lat="43.4008361" lon="11.1750555"><ele>217.0</ele><time>2026-04-24T16:22:01.865Z</time></trkpt><trkpt lat="43.4008909" lon="11.1750072"><ele>217.0</ele><time>2026-04-24T16:22:02.868Z</time></trkpt><trkpt lat="43.4009466" lon="11.174964"><ele>217.0</ele><time>2026-04-24T16:22:03.799Z</time></trkpt><trkpt lat="43.4010402" lon="11.17486"><ele>217.0</ele><time>2026-04-24T16:22:05.775Z</time></trkpt><trkpt lat="43.401128" lon="11.1747658"><ele>217.0</ele><time>2026-04-24T16:22:07.868Z</time></trkpt><trkpt lat="43.4012305" lon="11.1746546"><ele>217.0</ele><time>2026-04-24T16:22:09.8Z</time></trkpt><trkpt lat="43.4013274" lon="11.1745636"><ele>216.6</ele><time>2026-04-24T16:22:11.778Z</time></trkpt><trkpt lat="43.4014276" lon="11.1744679"><ele>216.2</ele><time>2026-04-24T16:22:13.782Z</time></trkpt><trkpt lat="43.4015303" lon="11.1743626"><ele>215.8</ele><time>2026-04-24T16:22:15.808Z</time></trkpt><trkpt lat="43.4016193" lon="11.1742426"><ele>215.4</ele><time>2026-04-24T16:22:17.792Z</time></trkpt><trkpt lat="43.401662" lon="11.1741761"><ele>215.0</ele><time>2026-04-24T16:22:18.806Z</time></trkpt><trkpt lat="43.4017032" lon="11.1741079"><ele>215.75</ele><time>2026-04-24T16:22:19.79Z</time></trkpt><trkpt lat="43.4017631" lon="11.1739652"><ele>216.5</ele><time>2026-04-24T16:22:21.802Z</time></trkpt><trkpt lat="43.4018099" lon="11.1738228"><ele>217.25</ele><time>2026-04-24T16:22:23.801Z</time></trkpt><trkpt lat="43.4018574" lon="11.1736824"><ele>218.0</ele><time>2026-04-24T16:22:25.81Z</time></trkpt><trkpt lat="43.4019053" lon="11.1735419"><ele>218.0</ele><time>2026-04-24T16:22:27.784Z</time></trkpt><trkpt lat="43.4019569" lon="11.1734079"><ele>218.0</ele><time>2026-04-24T16:22:29.793Z</time></trkpt><trkpt lat="43.4020077" lon="11.1732758"><ele>218.0</ele><time>2026-04-24T16:22:31.787Z</time></trkpt><trkpt lat="43.4020597" lon="11.173152"><ele>218.0</ele><time>2026-04-24T16:22:33.786Z</time></trkpt><trkpt lat="43.4021149" lon="11.1730291"><ele>218.0</ele><time>2026-04-24T16:22:35.775Z</time></trkpt><trkpt lat="43.4021724" lon="11.1729093"><ele>218.2</ele><time>2026-04-24T16:22:37.776Z</time></trkpt><trkpt lat="43.4022278" lon="11.1727885"><ele>218.4</ele><time>2026-04-24T16:22:39.816Z</time></trkpt><trkpt lat="43.4022861" lon="11.1726743"><ele>218.59999999999997</ele><time>2026-04-24T16:22:41.784Z</time></trkpt><trkpt lat="43.402341" lon="11.1725665"><ele>218.79999999999998</ele><time>2026-04-24T16:22:43.777Z</time></trkpt><trkpt lat="43.4023957" lon="11.1724578"><ele>219.0</ele><time>2026-04-24T16:22:45.777Z</time></trkpt><trkpt lat="43.4024549" lon="11.1723548"><ele>219.0</ele><time>2026-04-24T16:22:47.777Z</time></trkpt><trkpt lat="43.4025099" lon="11.1722516"><ele>219.0</ele><time>2026-04-24T16:22:49.776Z</time></trkpt><trkpt lat="43.4025659" lon="11.1721477"><ele>219.0</ele><time>2026-04-24T16:22:51.809Z</time></trkpt><trkpt lat="43.4026182" lon="11.1720524"><ele>219.0</ele><time>2026-04-24T16:22:53.773Z</time></trkpt><trkpt lat="43.4026718" lon="11.1719584"><ele>219.0</ele><time>2026-04-24T16:22:55.782Z</time></trkpt><trkpt lat="43.4027256" lon="11.1718707"><ele>219.0</ele><time>2026-04-24T16:22:57.774Z</time></trkpt><trkpt lat="43.4027768" lon="11.1717765"><ele>219.0</ele><time>2026-04-24T16:22:59.781Z</time></trkpt><trkpt lat="43.4028281" lon="11.1716873"><ele>219.0</ele><time>2026-04-24T16:23:01.774Z</time></trkpt><trkpt lat="43.4028796" lon="11.1716002"><ele>219.0</ele><time>2026-04-24T16:23:03.783Z</time></trkpt><trkpt lat="43.4029285" lon="11.1715097"><ele>219.0</ele><time>2026-04-24T16:23:05.783Z</time></trkpt><trkpt lat="43.4029785" lon="11.1714184"><ele>219.0</ele><time>2026-04-24T16:23:07.785Z</time></trkpt><trkpt lat="43.4030247" lon="11.1713281"><ele>219.0</ele><time>2026-04-24T16:23:09.779Z</time></trkpt><trkpt lat="43.4030749" lon="11.1712368"><ele>219.39999999999998</ele><time>2026-04-24T16:23:11.787Z</time></trkpt><trkpt lat="43.4031266" lon="11.1711429"><ele>219.79999999999998</ele><time>2026-04-24T16:23:13.805Z</time></trkpt><trkpt lat="43.4031784" lon="11.1710492"><ele>220.20000000000002</ele><time>2026-04-24T16:23:15.787Z</time></trkpt><trkpt lat="43.4032357" lon="11.1709561"><ele>220.60000000000002</ele><time>2026-04-24T16:23:17.793Z</time></trkpt><trkpt lat="43.4032978" lon="11.1708559"><ele>221.0</ele><time>2026-04-24T16:23:19.786Z</time></trkpt><trkpt lat="43.4033609" lon="11.1707597"><ele>221.20000000000002</ele><time>2026-04-24T16:23:21.775Z</time></trkpt><trkpt lat="43.4034287" lon="11.170668"><ele>221.40000000000003</ele><time>2026-04-24T16:23:23.795Z</time></trkpt><trkpt lat="43.4034971" lon="11.1705826"><ele>221.6</ele><time>2026-04-24T16:23:25.784Z</time></trkpt><trkpt lat="43.4035737" lon="11.1705059"><ele>221.8</ele><time>2026-04-24T16:23:27.786Z</time></trkpt><trkpt lat="43.4036446" lon="11.170428"><ele>222.0</ele><time>2026-04-24T16:23:29.773Z</time></trkpt><trkpt lat="43.4037141" lon="11.1703506"><ele>222.0</ele><time>2026-04-24T16:23:31.781Z</time></trkpt><trkpt lat="43.403788" lon="11.1702743"><ele>222.0</ele><time>2026-04-24T16:23:33.781Z</time></trkpt><trkpt lat="43.4038584" lon="11.1701978"><ele>222.0</ele><time>2026-04-24T16:23:35.785Z</time></trkpt><trkpt lat="43.4039306" lon="11.1701161"><ele>222.0</ele><time>2026-04-24T16:23:37.777Z</time></trkpt><trkpt lat="43.4040033" lon="11.1700423"><ele>222.0</ele><time>2026-04-24T16:23:39.79Z</time></trkpt><trkpt lat="43.4040751" lon="11.1699637"><ele>222.39999999999998</ele><time>2026-04-24T16:23:41.786Z</time></trkpt><trkpt lat="43.4041513" lon="11.169892"><ele>222.79999999999998</ele><time>2026-04-24T16:23:43.791Z</time></trkpt><trkpt lat="43.4042328" lon="11.1698234"><ele>223.2</ele><time>2026-04-24T16:23:45.789Z</time></trkpt><trkpt lat="43.4043174" lon="11.1697486"><ele>223.6</ele><time>2026-04-24T16:23:47.781Z</time></trkpt><trkpt lat="43.4043979" lon="11.1696861"><ele>224.0</ele><time>2026-04-24T16:23:49.792Z</time></trkpt><trkpt lat="43.4044761" lon="11.1696239"><ele>224.00000000000003</ele><time>2026-04-24T16:23:51.786Z</time></trkpt><trkpt lat="43.4045485" lon="11.1695647"><ele>224.0</ele><time>2026-04-24T16:23:53.785Z</time></trkpt><trkpt lat="43.4046257" lon="11.1694989"><ele>224.0</ele><time>2026-04-24T16:23:55.78Z</time></trkpt><trkpt lat="43.4046999" lon="11.1694378"><ele>224.0</ele><time>2026-04-24T16:23:57.795Z</time></trkpt><trkpt lat="43.4047735" lon="11.169371"><ele>224.00000000000003</ele><time>2026-04-24T16:23:59.797Z</time></trkpt><trkpt lat="43.4048486" lon="11.1693039"><ele>224.0</ele><time>2026-04-24T16:24:01.785Z</time></trkpt><trkpt lat="43.4049247" lon="11.1692287"><ele>224.2</ele><time>2026-04-24T16:24:03.778Z</time></trkpt><trkpt lat="43.404998" lon="11.1691519"><ele>224.39999999999998</ele><time>2026-04-24T16:24:05.786Z</time></trkpt><trkpt lat="43.4050729" lon="11.1690737"><ele>224.6</ele><time>2026-04-24T16:24:07.777Z</time></trkpt><trkpt lat="43.4051476" lon="11.1689939"><ele>224.8</ele><time>2026-04-24T16:24:09.794Z</time></trkpt><trkpt lat="43.4052225" lon="11.1689219"><ele>225.0</ele><time>2026-04-24T16:24:11.783Z</time></trkpt><trkpt lat="43.4052937" lon="11.1688427"><ele>225.2</ele><time>2026-04-24T16:24:13.786Z</time></trkpt><trkpt lat="43.4053618" lon="11.1687687"><ele>225.4</ele><time>2026-04-24T16:24:15.798Z</time></trkpt><trkpt lat="43.405429" lon="11.1686891"><ele>225.60000000000002</ele><time>2026-04-24T16:24:17.784Z</time></trkpt><trkpt lat="43.4054989" lon="11.1686062"><ele>225.8</ele><time>2026-04-24T16:24:19.771Z</time></trkpt><trkpt lat="43.4055747" lon="11.1685207"><ele>226.0</ele><time>2026-04-24T16:24:21.789Z</time></trkpt><trkpt lat="43.4056433" lon="11.168432"><ele>225.8</ele><time>2026-04-24T16:24:23.789Z</time></trkpt><trkpt lat="43.4057164" lon="11.1683485"><ele>225.60000000000002</ele><time>2026-04-24T16:24:25.775Z</time></trkpt><trkpt lat="43.4057941" lon="11.1682724"><ele>225.4</ele><time>2026-04-24T16:24:27.78Z</time></trkpt><trkpt lat="43.4058731" lon="11.168184"><ele>225.2</ele><time>2026-04-24T16:24:29.783Z</time></trkpt><trkpt lat="43.4059504" lon="11.1680951"><ele>225.0</ele><time>2026-04-24T16:24:31.789Z</time></trkpt><trkpt lat="43.4060328" lon="11.1679962"><ele>225.0</ele><time>2026-04-24T16:24:33.785Z</time></trkpt><trkpt lat="43.4061175" lon="11.1679116"><ele>225.0</ele><time>2026-04-24T16:24:35.783Z</time></trkpt><trkpt lat="43.4061988" lon="11.1678229"><ele>225.0</ele><time>2026-04-24T16:24:37.779Z</time></trkpt><trkpt lat="43.4062823" lon="11.1677422"><ele>225.0</ele><time>2026-04-24T16:24:39.777Z</time></trkpt><trkpt lat="43.4063653" lon="11.167656"><ele>225.0</ele><time>2026-04-24T16:24:41.784Z</time></trkpt><trkpt lat="43.4064517" lon="11.1675709"><ele>224.75</ele><time>2026-04-24T16:24:43.788Z</time></trkpt><trkpt lat="43.4065432" lon="11.1674797"><ele>224.5</ele><time>2026-04-24T16:24:45.795Z</time></trkpt><trkpt lat="43.4066489" lon="11.1674181"><ele>224.25</ele><time>2026-04-24T16:24:47.783Z</time></trkpt><trkpt lat="43.406759" lon="11.1674021"><ele>224.0</ele><time>2026-04-24T16:24:49.778Z</time></trkpt><trkpt lat="43.4068747" lon="11.1673828"><ele>225.0</ele><time>2026-04-24T16:24:51.773Z</time></trkpt><trkpt lat="43.4069748" lon="11.1673027"><ele>226.0</ele><time>2026-04-24T16:24:53.78Z</time></trkpt><trkpt lat="43.4070305" lon="11.1671655"><ele>227.0</ele><time>2026-04-24T16:24:55.783Z</time></trkpt><trkpt lat="43.407069" lon="11.1670239"><ele>228.0</ele><time>2026-04-24T16:24:57.787Z</time></trkpt><trkpt lat="43.4071279" lon="11.1668894"><ele>228.0</ele><time>2026-04-24T16:24:59.787Z</time></trkpt><trkpt lat="43.4072077" lon="11.1667716"><ele>228.0</ele><time>2026-04-24T16:25:01.776Z</time></trkpt><trkpt lat="43.4072876" lon="11.1666686"><ele>228.0</ele><time>2026-04-24T16:25:03.786Z</time></trkpt><trkpt lat="43.4073647" lon="11.1665788"><ele>228.0</ele><time>2026-04-24T16:25:05.791Z</time></trkpt><trkpt lat="43.4074384" lon="11.1664968"><ele>228.0</ele><time>2026-04-24T16:25:07.776Z</time></trkpt><trkpt lat="43.4075111" lon="11.1664168"><ele>229.0</ele><time>2026-04-24T16:25:09.773Z</time></trkpt><trkpt lat="43.4075927" lon="11.1663128"><ele>230.0</ele><time>2026-04-24T16:25:11.781Z</time></trkpt><trkpt lat="43.407674" lon="11.1662149"><ele>231.0</ele><time>2026-04-24T16:25:13.78Z</time></trkpt><trkpt lat="43.4077507" lon="11.166117"><ele>232.0</ele><time>2026-04-24T16:25:15.79Z</time></trkpt><trkpt lat="43.4078248" lon="11.166021"><ele>233.0</ele><time>2026-04-24T16:25:17.788Z</time></trkpt><trkpt lat="43.4078978" lon="11.1659408"><ele>233.00000000000003</ele><time>2026-04-24T16:25:19.785Z</time></trkpt><trkpt lat="43.4079612" lon="11.1658647"><ele>233.0</ele><time>2026-04-24T16:25:21.778Z</time></trkpt><trkpt lat="43.4080255" lon="11.1657827"><ele>233.0</ele><time>2026-04-24T16:25:23.788Z</time></trkpt><trkpt lat="43.4080865" lon="11.1656933"><ele>233.0</ele><time>2026-04-24T16:25:25.783Z</time></trkpt><trkpt lat="43.4081568" lon="11.1656134"><ele>233.00000000000003</ele><time>2026-04-24T16:25:27.782Z</time></trkpt><trkpt lat="43.4082286" lon="11.1655357"><ele>233.0</ele><time>2026-04-24T16:25:29.776Z</time></trkpt><trkpt lat="43.4082824" lon="11.1654481"><ele>233.4</ele><time>2026-04-24T16:25:31.786Z</time></trkpt><trkpt lat="43.4083394" lon="11.1653512"><ele>233.8</ele><time>2026-04-24T16:25:33.793Z</time></trkpt><trkpt lat="43.4084037" lon="11.1652525"><ele>234.2</ele><time>2026-04-24T16:25:35.778Z</time></trkpt><trkpt lat="43.4084763" lon="11.1651493"><ele>234.6</ele><time>2026-04-24T16:25:37.81Z</time></trkpt><trkpt lat="43.4085481" lon="11.1650489"><ele>235.0</ele><time>2026-04-24T16:25:39.774Z</time></trkpt><trkpt lat="43.4086186" lon="11.1649524"><ele>235.0</ele><time>2026-04-24T16:25:41.786Z</time></trkpt><trkpt lat="43.4086852" lon="11.1648633"><ele>235.0</ele><time>2026-04-24T16:25:43.781Z</time></trkpt><trkpt lat="43.4087575" lon="11.1647695"><ele>235.0</ele><time>2026-04-24T16:25:45.788Z</time></trkpt><trkpt lat="43.4088323" lon="11.1646665"><ele>235.0</ele><time>2026-04-24T16:25:47.785Z</time></trkpt><trkpt lat="43.4089002" lon="11.1645547"><ele>235.0</ele><time>2026-04-24T16:25:49.789Z</time></trkpt><trkpt lat="43.4089745" lon="11.164454"><ele>234.8</ele><time>2026-04-24T16:25:51.781Z</time></trkpt><trkpt lat="43.4090396" lon="11.1643605"><ele>234.6</ele><time>2026-04-24T16:25:53.796Z</time></trkpt><trkpt lat="43.4091041" lon="11.1642595"><ele>234.39999999999998</ele><time>2026-04-24T16:25:55.786Z</time></trkpt><trkpt lat="43.4091735" lon="11.1641499"><ele>234.2</ele><time>2026-04-24T16:25:57.777Z</time></trkpt><trkpt lat="43.4092489" lon="11.1640337"><ele>234.0</ele><time>2026-04-24T16:25:59.783Z</time></trkpt><trkpt lat="43.4093204" lon="11.1639168"><ele>234.39999999999998</ele><time>2026-04-24T16:26:01.777Z</time></trkpt><trkpt lat="43.4093915" lon="11.1638114"><ele>234.79999999999998</ele><time>2026-04-24T16:26:03.778Z</time></trkpt><trkpt lat="43.4094699" lon="11.163706"><ele>235.20000000000002</ele><time>2026-04-24T16:26:05.775Z</time></trkpt><trkpt lat="43.4095433" lon="11.1635988"><ele>235.60000000000002</ele><time>2026-04-24T16:26:07.788Z</time></trkpt><trkpt lat="43.409626" lon="11.1634843"><ele>236.0</ele><time>2026-04-24T16:26:09.781Z</time></trkpt><trkpt lat="43.4097145" lon="11.1633591"><ele>235.28571428571428</ele><time>2026-04-24T16:26:11.771Z</time></trkpt><trkpt lat="43.4098001" lon="11.1632392"><ele>234.57142857142858</ele><time>2026-04-24T16:26:13.784Z</time></trkpt><trkpt lat="43.4098418" lon="11.1631729"><ele>233.85714285714286</ele><time>2026-04-24T16:26:14.776Z</time></trkpt><trkpt lat="43.409886" lon="11.163103"><ele>233.14285714285714</ele><time>2026-04-24T16:26:15.776Z</time></trkpt><trkpt lat="43.4099308" lon="11.163035"><ele>232.42857142857144</ele><time>2026-04-24T16:26:16.772Z</time></trkpt><trkpt lat="43.4099739" lon="11.1629717"><ele>231.71428571428572</ele><time>2026-04-24T16:26:17.771Z</time></trkpt><trkpt lat="43.4100185" lon="11.16291"><ele>231.0</ele><time>2026-04-24T16:26:18.769Z</time></trkpt><trkpt lat="43.4100602" lon="11.1628438"><ele>231.0</ele><time>2026-04-24T16:26:19.767Z</time></trkpt><trkpt lat="43.4100998" lon="11.1627753"><ele>231.0</ele><time>2026-04-24T16:26:20.78Z</time></trkpt><trkpt lat="43.4101386" lon="11.1627015"><ele>231.0</ele><time>2026-04-24T16:26:21.774Z</time></trkpt><trkpt lat="43.4101814" lon="11.1626294"><ele>231.0</ele><time>2026-04-24T16:26:22.775Z</time></trkpt><trkpt lat="43.410226" lon="11.1625618"><ele>231.0</ele><time>2026-04-24T16:26:23.778Z</time></trkpt><trkpt lat="43.4102678" lon="11.1624965"><ele>231.0</ele><time>2026-04-24T16:26:24.783Z</time></trkpt><trkpt lat="43.4103109" lon="11.1624314"><ele>231.0</ele><time>2026-04-24T16:26:25.777Z</time></trkpt><trkpt lat="43.4103566" lon="11.1623605"><ele>231.0</ele><time>2026-04-24T16:26:26.778Z</time></trkpt><trkpt lat="43.41045" lon="11.1622306"><ele>231.0</ele><time>2026-04-24T16:26:28.783Z</time></trkpt><trkpt lat="43.4104958" lon="11.1621646"><ele>231.0</ele><time>2026-04-24T16:26:29.801Z</time></trkpt><trkpt lat="43.4105382" lon="11.1620997"><ele>231.0</ele><time>2026-04-24T16:26:30.789Z</time></trkpt><trkpt lat="43.4105844" lon="11.1620365"><ele>231.0</ele><time>2026-04-24T16:26:31.785Z</time></trkpt><trkpt lat="43.4106322" lon="11.1619731"><ele>231.0</ele><time>2026-04-24T16:26:32.777Z</time></trkpt><trkpt lat="43.4106812" lon="11.1619103"><ele>230.71428571428572</ele><time>2026-04-24T16:26:33.783Z</time></trkpt><trkpt lat="43.4107284" lon="11.1618443"><ele>230.42857142857144</ele><time>2026-04-24T16:26:34.781Z</time></trkpt><trkpt lat="43.4107749" lon="11.1617827"><ele>230.14285714285714</ele><time>2026-04-24T16:26:35.779Z</time></trkpt><trkpt lat="43.4108212" lon="11.1617203"><ele>229.85714285714286</ele><time>2026-04-24T16:26:36.774Z</time></trkpt><trkpt lat="43.4108679" lon="11.1616572"><ele>229.57142857142858</ele><time>2026-04-24T16:26:37.79Z</time></trkpt><trkpt lat="43.4109187" lon="11.1615915"><ele>229.28571428571428</ele><time>2026-04-24T16:26:38.785Z</time></trkpt><trkpt lat="43.4109661" lon="11.1615199"><ele>229.0</ele><time>2026-04-24T16:26:39.788Z</time></trkpt><trkpt lat="43.4110139" lon="11.1614488"><ele>229.0</ele><time>2026-04-24T16:26:40.798Z</time></trkpt><trkpt lat="43.4110627" lon="11.1613764"><ele>229.0</ele><time>2026-04-24T16:26:41.806Z</time></trkpt><trkpt lat="43.4111139" lon="11.1613047"><ele>229.0</ele><time>2026-04-24T16:26:42.786Z</time></trkpt><trkpt lat="43.411166" lon="11.1612326"><ele>229.0</ele><time>2026-04-24T16:26:43.773Z</time></trkpt><trkpt lat="43.4112167" lon="11.1611696"><ele>229.0</ele><time>2026-04-24T16:26:44.783Z</time></trkpt><trkpt lat="43.4112627" lon="11.1611028"><ele>229.0</ele><time>2026-04-24T16:26:45.789Z</time></trkpt><trkpt lat="43.4113107" lon="11.1610349"><ele>229.0</ele><time>2026-04-24T16:26:46.777Z</time></trkpt><trkpt lat="43.4113609" lon="11.1609702"><ele>229.0</ele><time>2026-04-24T16:26:47.811Z</time></trkpt><trkpt lat="43.4114087" lon="11.1609017"><ele>229.0</ele><time>2026-04-24T16:26:48.801Z</time></trkpt><trkpt lat="43.4114576" lon="11.1608347"><ele>229.0</ele><time>2026-04-24T16:26:49.791Z</time></trkpt><trkpt lat="43.4115076" lon="11.1607711"><ele>229.0</ele><time>2026-04-24T16:26:50.789Z</time></trkpt><trkpt lat="43.4115589" lon="11.1607123"><ele>229.0</ele><time>2026-04-24T16:26:51.786Z</time></trkpt><trkpt lat="43.4116095" lon="11.1606519"><ele>229.0</ele><time>2026-04-24T16:26:52.796Z</time></trkpt><trkpt lat="43.4116561" lon="11.1605918"><ele>229.0</ele><time>2026-04-24T16:26:53.794Z</time></trkpt><trkpt lat="43.4117062" lon="11.160533"><ele>229.0</ele><time>2026-04-24T16:26:54.778Z</time></trkpt><trkpt lat="43.411757" lon="11.160472"><ele>229.0</ele><time>2026-04-24T16:26:55.79Z</time></trkpt><trkpt lat="43.4118047" lon="11.1604128"><ele>229.0</ele><time>2026-04-24T16:26:56.786Z</time></trkpt><trkpt lat="43.4118561" lon="11.1603582"><ele>229.0</ele><time>2026-04-24T16:26:57.791Z</time></trkpt><trkpt lat="43.4119082" lon="11.1602958"><ele>229.0</ele><time>2026-04-24T16:26:58.772Z</time></trkpt><trkpt lat="43.4119579" lon="11.1602363"><ele>229.0</ele><time>2026-04-24T16:26:59.795Z</time></trkpt><trkpt lat="43.4120078" lon="11.1601789"><ele>229.0</ele><time>2026-04-24T16:27:00.787Z</time></trkpt><trkpt lat="43.4121026" lon="11.1600723"><ele>228.83333333333331</ele><time>2026-04-24T16:27:02.778Z</time></trkpt><trkpt lat="43.4121981" lon="11.1599649"><ele>228.66666666666666</ele><time>2026-04-24T16:27:04.774Z</time></trkpt><trkpt lat="43.4122819" lon="11.1598605"><ele>228.5</ele><time>2026-04-24T16:27:06.777Z</time></trkpt><trkpt lat="43.4123313" lon="11.1598041"><ele>228.33333333333331</ele><time>2026-04-24T16:27:07.779Z</time></trkpt><trkpt lat="43.4123797" lon="11.1597452"><ele>228.16666666666666</ele><time>2026-04-24T16:27:08.789Z</time></trkpt><trkpt lat="43.4124299" lon="11.1596869"><ele>228.0</ele><time>2026-04-24T16:27:09.78Z</time></trkpt><trkpt lat="43.4125176" lon="11.1595889"><ele>228.0</ele><time>2026-04-24T16:27:11.78Z</time></trkpt><trkpt lat="43.412606" lon="11.1594852"><ele>228.0</ele><time>2026-04-24T16:27:13.782Z</time></trkpt><trkpt lat="43.4126982" lon="11.1593848"><ele>228.0</ele><time>2026-04-24T16:27:15.771Z</time></trkpt><trkpt lat="43.4127889" lon="11.1592816"><ele>228.0</ele><time>2026-04-24T16:27:17.778Z</time></trkpt><trkpt lat="43.4128754" lon="11.1591773"><ele>228.0</ele><time>2026-04-24T16:27:19.797Z</time></trkpt><trkpt lat="43.4129572" lon="11.159076"><ele>228.0</ele><time>2026-04-24T16:27:21.777Z</time></trkpt><trkpt lat="43.413049" lon="11.158998"><ele>228.0</ele><time>2026-04-24T16:27:23.793Z</time></trkpt><trkpt lat="43.4131569" lon="11.1589675"><ele>228.0</ele><time>2026-04-24T16:27:25.797Z</time></trkpt><trkpt lat="43.4132655" lon="11.1589865"><ele>228.0</ele><time>2026-04-24T16:27:27.778Z</time></trkpt><trkpt lat="43.4133689" lon="11.1590455"><ele>227.8</ele><time>2026-04-24T16:27:29.785Z</time></trkpt><trkpt lat="43.4134599" lon="11.15913"><ele>227.60000000000002</ele><time>2026-04-24T16:27:31.807Z</time></trkpt><trkpt lat="43.4135339" lon="11.1592237"><ele>227.39999999999998</ele><time>2026-04-24T16:27:33.799Z</time></trkpt><trkpt lat="43.4136021" lon="11.1593288"><ele>227.2</ele><time>2026-04-24T16:27:35.794Z</time></trkpt><trkpt lat="43.4136751" lon="11.1594249"><ele>227.0</ele><time>2026-04-24T16:27:37.78Z</time></trkpt><trkpt lat="43.413745" lon="11.1595178"><ele>227.0</ele><time>2026-04-24T16:27:39.797Z</time></trkpt><trkpt lat="43.413814" lon="11.1596092"><ele>227.0</ele><time>2026-04-24T16:27:41.78Z</time></trkpt><trkpt lat="43.4138776" lon="11.1597103"><ele>227.0</ele><time>2026-04-24T16:27:43.786Z</time></trkpt><trkpt lat="43.4139498" lon="11.1598038"><ele>227.0</ele><time>2026-04-24T16:27:45.789Z</time></trkpt><trkpt lat="43.4140223" lon="11.1598883"><ele>227.0</ele><time>2026-04-24T16:27:47.778Z</time></trkpt><trkpt lat="43.4140934" lon="11.1599853"><ele>227.39999999999998</ele><time>2026-04-24T16:27:49.795Z</time></trkpt><trkpt lat="43.4141668" lon="11.1600808"><ele>227.79999999999998</ele><time>2026-04-24T16:27:51.778Z</time></trkpt><trkpt lat="43.4142374" lon="11.1601678"><ele>228.2</ele><time>2026-04-24T16:27:53.786Z</time></trkpt><trkpt lat="43.4143109" lon="11.160255"><ele>228.6</ele><time>2026-04-24T16:27:55.797Z</time></trkpt><trkpt lat="43.4143817" lon="11.1603442"><ele>229.0</ele><time>2026-04-24T16:27:57.778Z</time></trkpt><trkpt lat="43.4144522" lon="11.1604346"><ele>229.0</ele><time>2026-04-24T16:27:59.777Z</time></trkpt><trkpt lat="43.4145265" lon="11.1605314"><ele>228.99999999999997</ele><time>2026-04-24T16:28:01.783Z</time></trkpt><trkpt lat="43.414595" lon="11.160624"><ele>228.99999999999997</ele><time>2026-04-24T16:28:03.802Z</time></trkpt><trkpt lat="43.4146619" lon="11.1607212"><ele>229.0</ele><time>2026-04-24T16:28:05.775Z</time></trkpt><trkpt lat="43.4147383" lon="11.1608037"><ele>229.0</ele><time>2026-04-24T16:28:07.787Z</time></trkpt><trkpt lat="43.4148246" lon="11.1608713"><ele>229.6</ele><time>2026-04-24T16:28:09.776Z</time></trkpt><trkpt lat="43.4149227" lon="11.1609055"><ele>230.2</ele><time>2026-04-24T16:28:11.793Z</time></trkpt><trkpt lat="43.4150214" lon="11.160909"><ele>230.79999999999998</ele><time>2026-04-24T16:28:13.78Z</time></trkpt><trkpt lat="43.4151184" lon="11.1608748"><ele>231.39999999999998</ele><time>2026-04-24T16:28:15.787Z</time></trkpt><trkpt lat="43.4152153" lon="11.1608095"><ele>232.0</ele><time>2026-04-24T16:28:17.798Z</time></trkpt><trkpt lat="43.4153126" lon="11.1607376"><ele>232.0</ele><time>2026-04-24T16:28:19.785Z</time></trkpt><trkpt lat="43.4154052" lon="11.1606591"><ele>232.0</ele><time>2026-04-24T16:28:21.781Z</time></trkpt><trkpt lat="43.4154966" lon="11.1605805"><ele>232.0</ele><time>2026-04-24T16:28:23.784Z</time></trkpt><trkpt lat="43.4155843" lon="11.1604973"><ele>232.0</ele><time>2026-04-24T16:28:25.773Z</time></trkpt><trkpt lat="43.4156779" lon="11.1604286"><ele>232.0</ele><time>2026-04-24T16:28:27.782Z</time></trkpt><trkpt lat="43.4157628" lon="11.1603552"><ele>232.0</ele><time>2026-04-24T16:28:29.783Z</time></trkpt><trkpt lat="43.4158429" lon="11.160291"><ele>232.0</ele><time>2026-04-24T16:28:31.806Z</time></trkpt><trkpt lat="43.415927" lon="11.1602196"><ele>232.0</ele><time>2026-04-24T16:28:33.786Z</time></trkpt><trkpt lat="43.4160094" lon="11.1601593"><ele>232.0</ele><time>2026-04-24T16:28:35.792Z</time></trkpt><trkpt lat="43.4160842" lon="11.1600907"><ele>232.0</ele><time>2026-04-24T16:28:37.774Z</time></trkpt><trkpt lat="43.4161676" lon="11.1600201"><ele>232.0</ele><time>2026-04-24T16:28:39.782Z</time></trkpt><trkpt lat="43.4162532" lon="11.159949"><ele>232.0</ele><time>2026-04-24T16:28:41.787Z</time></trkpt><trkpt lat="43.4163339" lon="11.1598892"><ele>232.0</ele><time>2026-04-24T16:28:43.781Z</time></trkpt><trkpt lat="43.4164152" lon="11.159818"><ele>232.0</ele><time>2026-04-24T16:28:45.774Z</time></trkpt><trkpt lat="43.4165011" lon="11.1597466"><ele>232.0</ele><time>2026-04-24T16:28:47.792Z</time></trkpt><trkpt lat="43.4165839" lon="11.1596843"><ele>232.49999999999997</ele><time>2026-04-24T16:28:49.791Z</time></trkpt><trkpt lat="43.4166657" lon="11.1596189"><ele>233.0</ele><time>2026-04-24T16:28:51.784Z</time></trkpt><trkpt lat="43.4167439" lon="11.1595638"><ele>233.5</ele><time>2026-04-24T16:28:53.796Z</time></trkpt><trkpt lat="43.4168193" lon="11.1595125"><ele>234.0</ele><time>2026-04-24T16:28:55.788Z</time></trkpt><trkpt lat="43.4168844" lon="11.1594528"><ele>234.49999999999997</ele><time>2026-04-24T16:28:57.784Z</time></trkpt><trkpt lat="43.4169573" lon="11.1593928"><ele>235.0</ele><time>2026-04-24T16:28:59.788Z</time></trkpt><trkpt lat="43.4170265" lon="11.1593359"><ele>234.99999999999997</ele><time>2026-04-24T16:29:01.78Z</time></trkpt><trkpt lat="43.4170938" lon="11.1592864"><ele>235.0</ele><time>2026-04-24T16:29:03.782Z</time></trkpt><trkpt lat="43.4171659" lon="11.1592385"><ele>235.0</ele><time>2026-04-24T16:29:05.776Z</time></trkpt><trkpt lat="43.4172535" lon="11.1591892"><ele>235.0</ele><time>2026-04-24T16:29:07.794Z</time></trkpt><trkpt lat="43.417341" lon="11.159142"><ele>234.99999999999997</ele><time>2026-04-24T16:29:09.791Z</time></trkpt><trkpt lat="43.4174287" lon="11.1591185"><ele>235.0</ele><time>2026-04-24T16:29:11.782Z</time></trkpt><trkpt lat="43.4175155" lon="11.1591245"><ele>235.83333333333331</ele><time>2026-04-24T16:29:13.783Z</time></trkpt><trkpt lat="43.4176024" lon="11.159141"><ele>236.66666666666666</ele><time>2026-04-24T16:29:15.801Z</time></trkpt><trkpt lat="43.4176816" lon="11.159171"><ele>237.5</ele><time>2026-04-24T16:29:17.78Z</time></trkpt><trkpt lat="43.4177597" lon="11.159233"><ele>238.33333333333331</ele><time>2026-04-24T16:29:19.799Z</time></trkpt><trkpt lat="43.4178264" lon="11.1593116"><ele>239.16666666666666</ele><time>2026-04-24T16:29:21.771Z</time></trkpt><trkpt lat="43.4178836" lon="11.1594046"><ele>240.0</ele><time>2026-04-24T16:29:23.787Z</time></trkpt><trkpt lat="43.4179337" lon="11.1594977"><ele>240.0</ele><time>2026-04-24T16:29:25.798Z</time></trkpt><trkpt lat="43.417982" lon="11.1595976"><ele>240.0</ele><time>2026-04-24T16:29:27.799Z</time></trkpt><trkpt lat="43.4180291" lon="11.1596997"><ele>240.0</ele><time>2026-04-24T16:29:29.774Z</time></trkpt><trkpt lat="43.41808" lon="11.159799"><ele>240.0</ele><time>2026-04-24T16:29:31.784Z</time></trkpt><trkpt lat="43.4181235" lon="11.1599012"><ele>240.0</ele><time>2026-04-24T16:29:33.78Z</time></trkpt><trkpt lat="43.4181713" lon="11.1599929"><ele>240.0</ele><time>2026-04-24T16:29:35.785Z</time></trkpt><trkpt lat="43.4182142" lon="11.1600851"><ele>240.0</ele><time>2026-04-24T16:29:37.776Z</time></trkpt><trkpt lat="43.4182639" lon="11.1601793"><ele>240.0</ele><time>2026-04-24T16:29:39.802Z</time></trkpt><trkpt lat="43.4183163" lon="11.1602794"><ele>240.0</ele><time>2026-04-24T16:29:41.781Z</time></trkpt><trkpt lat="43.4183675" lon="11.1603719"><ele>240.0</ele><time>2026-04-24T16:29:43.785Z</time></trkpt><trkpt lat="43.418411" lon="11.1604664"><ele>240.0</ele><time>2026-04-24T16:29:45.8Z</time></trkpt><trkpt lat="43.4184585" lon="11.1605671"><ele>240.0</ele><time>2026-04-24T16:29:47.777Z</time></trkpt><trkpt lat="43.4185067" lon="11.1606677"><ele>240.0</ele><time>2026-04-24T16:29:49.776Z</time></trkpt><trkpt lat="43.4185518" lon="11.1607692"><ele>240.0</ele><time>2026-04-24T16:29:51.795Z</time></trkpt><trkpt lat="43.41859" lon="11.1608782"><ele>240.0</ele><time>2026-04-24T16:29:53.782Z</time></trkpt><trkpt lat="43.4186305" lon="11.1609916"><ele>240.0</ele><time>2026-04-24T16:29:55.78Z</time></trkpt><trkpt lat="43.4186673" lon="11.161103"><ele>240.0</ele><time>2026-04-24T16:29:57.786Z</time></trkpt><trkpt lat="43.4186977" lon="11.1612096"><ele>240.0</ele><time>2026-04-24T16:29:59.779Z</time></trkpt><trkpt lat="43.4187298" lon="11.1613327"><ele>240.0</ele><time>2026-04-24T16:30:01.781Z</time></trkpt><trkpt lat="43.4187701" lon="11.161462"><ele>240.0</ele><time>2026-04-24T16:30:03.792Z</time></trkpt><trkpt lat="43.418804" lon="11.1615981"><ele>240.0</ele><time>2026-04-24T16:30:05.778Z</time></trkpt><trkpt lat="43.4188331" lon="11.1617293"><ele>240.0</ele><time>2026-04-24T16:30:07.779Z</time></trkpt><trkpt lat="43.4188628" lon="11.161863"><ele>240.0</ele><time>2026-04-24T16:30:09.782Z</time></trkpt><trkpt lat="43.4188979" lon="11.1620043"><ele>240.25</ele><time>2026-04-24T16:30:11.778Z</time></trkpt><trkpt lat="43.4189252" lon="11.1621537"><ele>240.5</ele><time>2026-04-24T16:30:13.813Z</time></trkpt><trkpt lat="43.4189546" lon="11.1623061"><ele>240.75</ele><time>2026-04-24T16:30:15.783Z</time></trkpt><trkpt lat="43.4189955" lon="11.1624596"><ele>241.0</ele><time>2026-04-24T16:30:17.782Z</time></trkpt><trkpt lat="43.4190321" lon="11.1626116"><ele>241.0</ele><time>2026-04-24T16:30:19.787Z</time></trkpt><trkpt lat="43.4190661" lon="11.1627692"><ele>241.0</ele><time>2026-04-24T16:30:21.78Z</time></trkpt><trkpt lat="43.4190975" lon="11.1629308"><ele>241.0</ele><time>2026-04-24T16:30:23.79Z</time></trkpt><trkpt lat="43.4191304" lon="11.1630915"><ele>241.0</ele><time>2026-04-24T16:30:25.784Z</time></trkpt><trkpt lat="43.4191663" lon="11.1632439"><ele>241.0</ele><time>2026-04-24T16:30:27.788Z</time></trkpt><trkpt lat="43.4192008" lon="11.1634039"><ele>241.0</ele><time>2026-04-24T16:30:29.803Z</time></trkpt><trkpt lat="43.4192296" lon="11.1635643"><ele>241.0</ele><time>2026-04-24T16:30:31.787Z</time></trkpt><trkpt lat="43.4192617" lon="11.1637219"><ele>241.0</ele><time>2026-04-24T16:30:33.777Z</time></trkpt><trkpt lat="43.4192902" lon="11.1638834"><ele>240.75</ele><time>2026-04-24T16:30:35.78Z</time></trkpt><trkpt lat="43.4193134" lon="11.164045"><ele>240.5</ele><time>2026-04-24T16:30:37.787Z</time></trkpt><trkpt lat="43.4193356" lon="11.1642004"><ele>240.25</ele><time>2026-04-24T16:30:39.776Z</time></trkpt><trkpt lat="43.4193547" lon="11.1643666"><ele>240.0</ele><time>2026-04-24T16:30:41.794Z</time></trkpt><trkpt lat="43.4193681" lon="11.1645291"><ele>240.0</ele><time>2026-04-24T16:30:43.792Z</time></trkpt><trkpt lat="43.419385" lon="11.1646908"><ele>240.0</ele><time>2026-04-24T16:30:45.785Z</time></trkpt><trkpt lat="43.419396" lon="11.1648557"><ele>240.0</ele><time>2026-04-24T16:30:47.785Z</time></trkpt><trkpt lat="43.4194115" lon="11.1650178"><ele>240.0</ele><time>2026-04-24T16:30:49.788Z</time></trkpt><trkpt lat="43.4194249" lon="11.1651723"><ele>240.0</ele><time>2026-04-24T16:30:51.794Z</time></trkpt><trkpt lat="43.4194414" lon="11.165319"><ele>240.0</ele><time>2026-04-24T16:30:53.779Z</time></trkpt><trkpt lat="43.4194538" lon="11.1654713"><ele>240.0</ele><time>2026-04-24T16:30:55.774Z</time></trkpt><trkpt lat="43.4194635" lon="11.1656261"><ele>240.0</ele><time>2026-04-24T16:30:57.795Z</time></trkpt><trkpt lat="43.4194752" lon="11.1657786"><ele>240.0</ele><time>2026-04-24T16:30:59.786Z</time></trkpt><trkpt lat="43.4194865" lon="11.1659352"><ele>240.0</ele><time>2026-04-24T16:31:01.776Z</time></trkpt><trkpt lat="43.4194991" lon="11.1660885"><ele>240.0</ele><time>2026-04-24T16:31:03.784Z</time></trkpt><trkpt lat="43.4195098" lon="11.166237"><ele>240.0</ele><time>2026-04-24T16:31:05.799Z</time></trkpt><trkpt lat="43.4195194" lon="11.1664069"><ele>240.0</ele><time>2026-04-24T16:31:07.78Z</time></trkpt><trkpt lat="43.419537" lon="11.1665781"><ele>239.6</ele><time>2026-04-24T16:31:09.777Z</time></trkpt><trkpt lat="43.4195569" lon="11.166742"><ele>239.2</ele><time>2026-04-24T16:31:11.774Z</time></trkpt><trkpt lat="43.4195678" lon="11.1669046"><ele>238.8</ele><time>2026-04-24T16:31:13.793Z</time></trkpt><trkpt lat="43.4195719" lon="11.1669912"><ele>238.4</ele><time>2026-04-24T16:31:14.778Z</time></trkpt><trkpt lat="43.4195777" lon="11.1670793"><ele>238.0</ele><time>2026-04-24T16:31:15.783Z</time></trkpt><trkpt lat="43.4195904" lon="11.167257"><ele>237.99999999999997</ele><time>2026-04-24T16:31:17.797Z</time></trkpt><trkpt lat="43.4195967" lon="11.1673483"><ele>238.0</ele><time>2026-04-24T16:31:18.782Z</time></trkpt><trkpt lat="43.4196033" lon="11.1674401"><ele>238.0</ele><time>2026-04-24T16:31:19.782Z</time></trkpt><trkpt lat="43.4196108" lon="11.1675283"><ele>238.0</ele><time>2026-04-24T16:31:20.773Z</time></trkpt><trkpt lat="43.4196202" lon="11.1676185"><ele>237.99999999999997</ele><time>2026-04-24T16:31:21.793Z</time></trkpt><trkpt lat="43.4196332" lon="11.1677888"><ele>238.0</ele><time>2026-04-24T16:31:23.783Z</time></trkpt><trkpt lat="43.4196393" lon="11.1678784"><ele>238.0</ele><time>2026-04-24T16:31:24.78Z</time></trkpt><trkpt lat="43.4196452" lon="11.1679675"><ele>238.0</ele><time>2026-04-24T16:31:25.789Z</time></trkpt><trkpt lat="43.4196507" lon="11.1681375"><ele>238.0</ele><time>2026-04-24T16:31:27.775Z</time></trkpt><trkpt lat="43.419657" lon="11.1682256"><ele>238.0</ele><time>2026-04-24T16:31:28.796Z</time></trkpt><trkpt lat="43.4196658" lon="11.1683172"><ele>238.0</ele><time>2026-04-24T16:31:29.775Z</time></trkpt><trkpt lat="43.4196721" lon="11.1684046"><ele>238.0</ele><time>2026-04-24T16:31:30.775Z</time></trkpt><trkpt lat="43.4196792" lon="11.1684937"><ele>238.0</ele><time>2026-04-24T16:31:31.793Z</time></trkpt><trkpt lat="43.4196888" lon="11.1685845"><ele>238.4</ele><time>2026-04-24T16:31:32.785Z</time></trkpt><trkpt lat="43.4196988" lon="11.1686743"><ele>238.8</ele><time>2026-04-24T16:31:33.79Z</time></trkpt><trkpt lat="43.4197081" lon="11.1687612"><ele>239.2</ele><time>2026-04-24T16:31:34.782Z</time></trkpt><trkpt lat="43.4197248" lon="11.1689274"><ele>239.6</ele><time>2026-04-24T16:31:36.79Z</time></trkpt><trkpt lat="43.419742" lon="11.1690844"><ele>240.0</ele><time>2026-04-24T16:31:38.779Z</time></trkpt><trkpt lat="43.4197615" lon="11.1692361"><ele>240.2</ele><time>2026-04-24T16:31:40.794Z</time></trkpt><trkpt lat="43.419781" lon="11.1693853"><ele>240.4</ele><time>2026-04-24T16:31:42.775Z</time></trkpt><trkpt lat="43.4198009" lon="11.1695322"><ele>240.60000000000002</ele><time>2026-04-24T16:31:44.787Z</time></trkpt><trkpt lat="43.4198266" lon="11.16968"><ele>240.8</ele><time>2026-04-24T16:31:46.778Z</time></trkpt><trkpt lat="43.4198514" lon="11.1698281"><ele>241.0</ele><time>2026-04-24T16:31:48.793Z</time></trkpt><trkpt lat="43.4198802" lon="11.1699716"><ele>241.0</ele><time>2026-04-24T16:31:50.787Z</time></trkpt><trkpt lat="43.4199015" lon="11.1701164"><ele>241.00000000000003</ele><time>2026-04-24T16:31:52.789Z</time></trkpt><trkpt lat="43.4199277" lon="11.1702546"><ele>241.00000000000003</ele><time>2026-04-24T16:31:54.776Z</time></trkpt><trkpt lat="43.4199458" lon="11.1703871"><ele>241.0</ele><time>2026-04-24T16:31:56.781Z</time></trkpt><trkpt lat="43.419969" lon="11.1705187"><ele>241.0</ele><time>2026-04-24T16:31:58.804Z</time></trkpt><trkpt lat="43.4199939" lon="11.1706515"><ele>241.20000000000002</ele><time>2026-04-24T16:32:00.8Z</time></trkpt><trkpt lat="43.4200138" lon="11.1707879"><ele>241.40000000000003</ele><time>2026-04-24T16:32:02.779Z</time></trkpt><trkpt lat="43.420038" lon="11.1709307"><ele>241.6</ele><time>2026-04-24T16:32:04.777Z</time></trkpt><trkpt lat="43.4200631" lon="11.1710843"><ele>241.8</ele><time>2026-04-24T16:32:06.777Z</time></trkpt><trkpt lat="43.4200884" lon="11.1712404"><ele>242.0</ele><time>2026-04-24T16:32:08.786Z</time></trkpt><trkpt lat="43.4201025" lon="11.1713255"><ele>242.0</ele><time>2026-04-24T16:32:09.783Z</time></trkpt><trkpt lat="43.4201148" lon="11.1714159"><ele>241.99999999999997</ele><time>2026-04-24T16:32:10.801Z</time></trkpt><trkpt lat="43.4201304" lon="11.1715129"><ele>242.0</ele><time>2026-04-24T16:32:11.782Z</time></trkpt><trkpt lat="43.4201473" lon="11.1716152"><ele>242.0</ele><time>2026-04-24T16:32:12.794Z</time></trkpt><trkpt lat="43.4201621" lon="11.1717109"><ele>241.99999999999997</ele><time>2026-04-24T16:32:13.778Z</time></trkpt><trkpt lat="43.4201752" lon="11.1718096"><ele>242.0</ele><time>2026-04-24T16:32:14.777Z</time></trkpt><trkpt lat="43.4201848" lon="11.1719127"><ele>242.0</ele><time>2026-04-24T16:32:15.78Z</time></trkpt><trkpt lat="43.4201945" lon="11.1720168"><ele>242.0</ele><time>2026-04-24T16:32:16.775Z</time></trkpt><trkpt lat="43.4202025" lon="11.172122"><ele>241.99999999999997</ele><time>2026-04-24T16:32:17.781Z</time></trkpt><trkpt lat="43.4202103" lon="11.1722202"><ele>242.0</ele><time>2026-04-24T16:32:18.778Z</time></trkpt><trkpt lat="43.4202157" lon="11.1723169"><ele>242.0</ele><time>2026-04-24T16:32:19.781Z</time></trkpt><trkpt lat="43.4202205" lon="11.1724131"><ele>241.99999999999997</ele><time>2026-04-24T16:32:20.786Z</time></trkpt><trkpt lat="43.420226" lon="11.1725135"><ele>242.0</ele><time>2026-04-24T16:32:21.798Z</time></trkpt><trkpt lat="43.4202303" lon="11.1726169"><ele>242.0</ele><time>2026-04-24T16:32:22.771Z</time></trkpt><trkpt lat="43.420231" lon="11.1727267"><ele>241.66666666666669</ele><time>2026-04-24T16:32:23.78Z</time></trkpt><trkpt lat="43.4202283" lon="11.1728384"><ele>241.33333333333334</ele><time>2026-04-24T16:32:24.784Z</time></trkpt><trkpt lat="43.4202225" lon="11.172954"><ele>241.0</ele><time>2026-04-24T16:32:25.786Z</time></trkpt><trkpt lat="43.4202204" lon="11.1730717"><ele>240.66666666666669</ele><time>2026-04-24T16:32:26.782Z</time></trkpt><trkpt lat="43.4202177" lon="11.1731888"><ele>240.33333333333334</ele><time>2026-04-24T16:32:27.775Z</time></trkpt><trkpt lat="43.4202141" lon="11.1733052"><ele>240.0</ele><time>2026-04-24T16:32:28.777Z</time></trkpt><trkpt lat="43.4202092" lon="11.1734234"><ele>238.8</ele><time>2026-04-24T16:32:29.799Z</time></trkpt><trkpt lat="43.4202029" lon="11.1735467"><ele>237.6</ele><time>2026-04-24T16:32:30.766Z</time></trkpt><trkpt lat="43.4201989" lon="11.1736781"><ele>236.39999999999998</ele><time>2026-04-24T16:32:31.768Z</time></trkpt><trkpt lat="43.4201947" lon="11.1738068"><ele>235.2</ele><time>2026-04-24T16:32:32.783Z</time></trkpt><trkpt lat="43.4201897" lon="11.1739372"><ele>234.0</ele><time>2026-04-24T16:32:33.776Z</time></trkpt><trkpt lat="43.4201855" lon="11.1740678"><ele>232.6</ele><time>2026-04-24T16:32:34.768Z</time></trkpt><trkpt lat="43.4201856" lon="11.1742029"><ele>231.2</ele><time>2026-04-24T16:32:35.774Z</time></trkpt><trkpt lat="43.420192" lon="11.1743415"><ele>229.79999999999998</ele><time>2026-04-24T16:32:36.778Z</time></trkpt><trkpt lat="43.4202034" lon="11.1744778"><ele>228.39999999999998</ele><time>2026-04-24T16:32:37.787Z</time></trkpt><trkpt lat="43.4202206" lon="11.1746129"><ele>227.0</ele><time>2026-04-24T16:32:38.766Z</time></trkpt><trkpt lat="43.4202436" lon="11.1747576"><ele>225.6</ele><time>2026-04-24T16:32:39.788Z</time></trkpt><trkpt lat="43.4202735" lon="11.1749048"><ele>224.2</ele><time>2026-04-24T16:32:40.78Z</time></trkpt><trkpt lat="43.4203098" lon="11.1750499"><ele>222.8</ele><time>2026-04-24T16:32:41.78Z</time></trkpt><trkpt lat="43.4203519" lon="11.1751944"><ele>221.4</ele><time>2026-04-24T16:32:42.765Z</time></trkpt><trkpt lat="43.4203981" lon="11.1753353"><ele>220.0</ele><time>2026-04-24T16:32:43.793Z</time></trkpt><trkpt lat="43.4204436" lon="11.1754689"><ele>220.2</ele><time>2026-04-24T16:32:44.766Z</time></trkpt><trkpt lat="43.4204917" lon="11.1756018"><ele>220.4</ele><time>2026-04-24T16:32:45.788Z</time></trkpt><trkpt lat="43.4205362" lon="11.1757318"><ele>220.60000000000002</ele><time>2026-04-24T16:32:46.776Z</time></trkpt><trkpt lat="43.4205794" lon="11.1758592"><ele>220.8</ele><time>2026-04-24T16:32:47.772Z</time></trkpt><trkpt lat="43.4206235" lon="11.1759835"><ele>221.0</ele><time>2026-04-24T16:32:48.775Z</time></trkpt><trkpt lat="43.4206689" lon="11.1761021"><ele>219.33333333333334</ele><time>2026-04-24T16:32:49.779Z</time></trkpt><trkpt lat="43.4207123" lon="11.1762162"><ele>217.66666666666669</ele><time>2026-04-24T16:32:50.778Z</time></trkpt><trkpt lat="43.4207505" lon="11.1763255"><ele>216.0</ele><time>2026-04-24T16:32:51.783Z</time></trkpt><trkpt lat="43.4207819" lon="11.1764339"><ele>214.33333333333331</ele><time>2026-04-24T16:32:52.78Z</time></trkpt><trkpt lat="43.4208104" lon="11.1765466"><ele>212.66666666666666</ele><time>2026-04-24T16:32:53.777Z</time></trkpt><trkpt lat="43.4208387" lon="11.1766667"><ele>211.0</ele><time>2026-04-24T16:32:54.77Z</time></trkpt><trkpt lat="43.4208641" lon="11.176788"><ele>208.4</ele><time>2026-04-24T16:32:55.775Z</time></trkpt><trkpt lat="43.4208866" lon="11.1769113"><ele>205.8</ele><time>2026-04-24T16:32:56.781Z</time></trkpt><trkpt lat="43.4209044" lon="11.1770401"><ele>203.20000000000002</ele><time>2026-04-24T16:32:57.795Z</time></trkpt><trkpt lat="43.4209148" lon="11.1771694"><ele>200.60000000000002</ele><time>2026-04-24T16:32:58.788Z</time></trkpt><trkpt lat="43.4209258" lon="11.1772898"><ele>198.0</ele><time>2026-04-24T16:32:59.797Z</time></trkpt><trkpt lat="43.4209305" lon="11.177414"><ele>196.60000000000002</ele><time>2026-04-24T16:33:00.806Z</time></trkpt><trkpt lat="43.4209329" lon="11.1775424"><ele>195.20000000000002</ele><time>2026-04-24T16:33:01.787Z</time></trkpt><trkpt lat="43.4209359" lon="11.1776719"><ele>193.8</ele><time>2026-04-24T16:33:02.771Z</time></trkpt><trkpt lat="43.4209391" lon="11.1778069"><ele>192.4</ele><time>2026-04-24T16:33:03.786Z</time></trkpt><trkpt lat="43.4209418" lon="11.177948"><ele>191.0</ele><time>2026-04-24T16:33:04.781Z</time></trkpt><trkpt lat="43.4209449" lon="11.1780905"><ele>190.20000000000002</ele><time>2026-04-24T16:33:05.779Z</time></trkpt><trkpt lat="43.4209461" lon="11.1782381"><ele>189.4</ele><time>2026-04-24T16:33:06.786Z</time></trkpt><trkpt lat="43.4209546" lon="11.1783801"><ele>188.6</ele><time>2026-04-24T16:33:07.78Z</time></trkpt><trkpt lat="43.4209644" lon="11.1785267"><ele>187.8</ele><time>2026-04-24T16:33:08.796Z</time></trkpt><trkpt lat="43.4209783" lon="11.178665"><ele>187.0</ele><time>2026-04-24T16:33:09.782Z</time></trkpt><trkpt lat="43.420995" lon="11.1788002"><ele>187.0</ele><time>2026-04-24T16:33:10.789Z</time></trkpt><trkpt lat="43.4210206" lon="11.1789262"><ele>187.0</ele><time>2026-04-24T16:33:11.801Z</time></trkpt><trkpt lat="43.4210514" lon="11.1790488"><ele>187.0</ele><time>2026-04-24T16:33:12.784Z</time></trkpt><trkpt lat="43.4210868" lon="11.1791765"><ele>187.0</ele><time>2026-04-24T16:33:13.801Z</time></trkpt><trkpt lat="43.4211201" lon="11.1793009"><ele>187.0</ele><time>2026-04-24T16:33:14.778Z</time></trkpt><trkpt lat="43.421155" lon="11.1794146"><ele>186.5</ele><time>2026-04-24T16:33:15.784Z</time></trkpt><trkpt lat="43.4211898" lon="11.1795222"><ele>186.0</ele><time>2026-04-24T16:33:16.791Z</time></trkpt><trkpt lat="43.4212189" lon="11.1796232"><ele>185.5</ele><time>2026-04-24T16:33:17.792Z</time></trkpt><trkpt lat="43.4212309" lon="11.1797196"><ele>185.0</ele><time>2026-04-24T16:33:18.795Z</time></trkpt><trkpt lat="43.4212289" lon="11.1798155"><ele>184.5</ele><time>2026-04-24T16:33:19.806Z</time></trkpt><trkpt lat="43.4212234" lon="11.1799074"><ele>184.0</ele><time>2026-04-24T16:33:20.777Z</time></trkpt><trkpt lat="43.4212373" lon="11.1800651"><ele>181.79999999999998</ele><time>2026-04-24T16:33:22.788Z</time></trkpt><trkpt lat="43.4213204" lon="11.1801837"><ele>179.6</ele><time>2026-04-24T16:33:24.783Z</time></trkpt><trkpt lat="43.4214087" lon="11.1803057"><ele>177.4</ele><time>2026-04-24T16:33:26.781Z</time></trkpt><trkpt lat="43.4214425" lon="11.1803887"><ele>175.2</ele><time>2026-04-24T16:33:27.795Z</time></trkpt><trkpt lat="43.4214793" lon="11.1804763"><ele>173.0</ele><time>2026-04-24T16:33:28.779Z</time></trkpt><trkpt lat="43.4215109" lon="11.1805694"><ele>173.0</ele><time>2026-04-24T16:33:29.774Z</time></trkpt><trkpt lat="43.4215369" lon="11.1806538"><ele>173.0</ele><time>2026-04-24T16:33:30.801Z</time></trkpt><trkpt lat="43.4215662" lon="11.1807653"><ele>173.0</ele><time>2026-04-24T16:33:32.78Z</time></trkpt><trkpt lat="43.4216245" lon="11.1807091"><ele>173.0</ele><time>2026-04-24T16:33:38.776Z</time></trkpt><trkpt lat="43.4216867" lon="11.1806457"><ele>173.0</ele><time>2026-04-24T16:33:41.78Z</time></trkpt><trkpt lat="43.4217626" lon="11.1805825"><ele>173.0</ele><time>2026-04-24T16:33:44.78Z</time></trkpt><trkpt lat="43.4218238" lon="11.1805276"><ele>173.0</ele><time>2026-04-24T16:33:47.781Z</time></trkpt><trkpt lat="43.4218939" lon="11.1804712"><ele>173.0</ele><time>2026-04-24T16:33:51.779Z</time></trkpt><trkpt lat="43.4219556" lon="11.180401"><ele>173.0</ele><time>2026-04-24T16:33:55.783Z</time></trkpt><trkpt lat="43.4220147" lon="11.1803551"><ele>173.0</ele><time>2026-04-24T16:33:58.769Z</time></trkpt><trkpt lat="43.4220818" lon="11.1803724"><ele>173.0</ele><time>2026-04-24T16:34:03.785Z</time></trkpt><trkpt lat="43.4220963" lon="11.1804798"><ele>173.0</ele><time>2026-04-24T16:34:06.78Z</time></trkpt><trkpt lat="43.4221202" lon="11.1805859"><ele>173.16666666666666</ele><time>2026-04-24T16:34:09.787Z</time></trkpt><trkpt lat="43.4221419" lon="11.1807078"><ele>173.33333333333331</ele><time>2026-04-24T16:34:12.796Z</time></trkpt><trkpt lat="43.4221588" lon="11.1808115"><ele>173.5</ele><time>2026-04-24T16:34:14.787Z</time></trkpt><trkpt lat="43.4221838" lon="11.1809173"><ele>173.66666666666666</ele><time>2026-04-24T16:34:17.787Z</time></trkpt><trkpt lat="43.4221996" lon="11.181012"><ele>173.83333333333334</ele><time>2026-04-24T16:34:21.788Z</time></trkpt><trkpt lat="43.4222097" lon="11.1810989"><ele>174.0</ele><time>2026-04-24T16:34:25.788Z</time></trkpt><trkpt lat="43.4221768" lon="11.181178"><ele>170.0</ele><time>2026-04-24T16:34:30.795Z</time></trkpt><trkpt lat="43.4221156" lon="11.1812243"><ele>174.0</ele><time>2026-04-24T16:34:35.771Z</time></trkpt></trkseg></trk></gpx>